<?xml version="1.0" encoding="UTF-8" standalone="no" ?>
<gpx xmlns="http://www.topografix.com/GPX/1/1" xmlns:xsi="http://www.w3.org/2001/XMLSchema-instance" xsi:schemaLocation="http://www.topografix.com/GPX/1/1 http://www.topografix.com/GPX/1/1/gpx.xsd" version="1.1" creator="VisuGPX - https://www.visugpx.com">
  <metadata>
    <name>VTT - Trace du Sanglier 2013 (35km)</name>
    <desc><![CDATA[Départ de Carcassonne
Trace du Sanglier 35km à Palaja
Départ parcours 35km à 8h46' (9,1km)
Arrivée parcours 35km à 11h29' (43,2km)
Soit le parcours 35km en 2h44' (arrêt compris)
Le dénivelé du 35km doit tourner au environ de 850m
Fait avec Laurent et Clément
Retour à Carcassonne
Météo pas top , frais nuages et vent]]></desc>
  </metadata>
  <trk>
    <name><![CDATA[23-JUIN-13 11:56:47]]></name>
    <trkseg>
      <trkpt lat="43.21359" lon="2.34124">
        <ele>119.34</ele>
        <time>2013-06-23T05:27:03Z</time>
      </trkpt>
      <trkpt lat="43.21357" lon="2.34129">
        <ele>118.86</ele>
        <time>2013-06-23T05:27:22Z</time>
      </trkpt>
      <trkpt lat="43.21356" lon="2.3413">
        <ele>118.86</ele>
        <time>2013-06-23T05:27:32Z</time>
      </trkpt>
      <trkpt lat="43.21356" lon="2.34131">
        <ele>120.3</ele>
        <time>2013-06-23T05:27:42Z</time>
      </trkpt>
      <trkpt lat="43.21355" lon="2.34127">
        <ele>115.5</ele>
        <time>2013-06-23T05:27:56Z</time>
      </trkpt>
      <trkpt lat="43.21355" lon="2.34127">
        <ele>114.05</ele>
        <time>2013-06-23T05:28:11Z</time>
      </trkpt>
      <trkpt lat="43.21355" lon="2.34128">
        <ele>114.05</ele>
        <time>2013-06-23T05:28:12Z</time>
      </trkpt>
      <trkpt lat="43.21351" lon="2.34129">
        <ele>114.05</ele>
        <time>2013-06-23T05:28:15Z</time>
      </trkpt>
      <trkpt lat="43.21349" lon="2.34128">
        <ele>114.05</ele>
        <time>2013-06-23T05:28:16Z</time>
      </trkpt>
      <trkpt lat="43.21346" lon="2.34127">
        <ele>113.57</ele>
        <time>2013-06-23T05:28:17Z</time>
      </trkpt>
      <trkpt lat="43.21344" lon="2.34126">
        <ele>113.57</ele>
        <time>2013-06-23T05:28:18Z</time>
      </trkpt>
      <trkpt lat="43.21307" lon="2.34116">
        <ele>112.61</ele>
        <time>2013-06-23T05:28:29Z</time>
      </trkpt>
      <trkpt lat="43.21256" lon="2.34107">
        <ele>114.05</ele>
        <time>2013-06-23T05:28:42Z</time>
      </trkpt>
      <trkpt lat="43.21241" lon="2.34106">
        <ele>114.53</ele>
        <time>2013-06-23T05:28:46Z</time>
      </trkpt>
      <trkpt lat="43.21171" lon="2.34096">
        <ele>115.98</ele>
        <time>2013-06-23T05:29:04Z</time>
      </trkpt>
      <trkpt lat="43.21118" lon="2.34087">
        <ele>116.94</ele>
        <time>2013-06-23T05:29:18Z</time>
      </trkpt>
      <trkpt lat="43.21089" lon="2.34086">
        <ele>116.46</ele>
        <time>2013-06-23T05:29:27Z</time>
      </trkpt>
      <trkpt lat="43.21087" lon="2.34089">
        <ele>116.94</ele>
        <time>2013-06-23T05:29:28Z</time>
      </trkpt>
      <trkpt lat="43.21085" lon="2.34093">
        <ele>117.42</ele>
        <time>2013-06-23T05:29:29Z</time>
      </trkpt>
      <trkpt lat="43.21083" lon="2.34098">
        <ele>118.38</ele>
        <time>2013-06-23T05:29:30Z</time>
      </trkpt>
      <trkpt lat="43.21083" lon="2.34103">
        <ele>118.86</ele>
        <time>2013-06-23T05:29:31Z</time>
      </trkpt>
      <trkpt lat="43.21083" lon="2.3411">
        <ele>118.86</ele>
        <time>2013-06-23T05:29:32Z</time>
      </trkpt>
      <trkpt lat="43.21084" lon="2.34117">
        <ele>118.86</ele>
        <time>2013-06-23T05:29:33Z</time>
      </trkpt>
      <trkpt lat="43.21084" lon="2.34205">
        <ele>121.26</ele>
        <time>2013-06-23T05:29:46Z</time>
      </trkpt>
      <trkpt lat="43.21084" lon="2.34225">
        <ele>121.26</ele>
        <time>2013-06-23T05:29:49Z</time>
      </trkpt>
      <trkpt lat="43.21081" lon="2.34323">
        <ele>123.19</ele>
        <time>2013-06-23T05:30:04Z</time>
      </trkpt>
      <trkpt lat="43.2108" lon="2.3435">
        <ele>124.15</ele>
        <time>2013-06-23T05:30:08Z</time>
      </trkpt>
      <trkpt lat="43.21065" lon="2.34455">
        <ele>127.03</ele>
        <time>2013-06-23T05:30:24Z</time>
      </trkpt>
      <trkpt lat="43.21055" lon="2.34507">
        <ele>128.47</ele>
        <time>2013-06-23T05:30:36Z</time>
      </trkpt>
      <trkpt lat="43.21042" lon="2.34592">
        <ele>128.95</ele>
        <time>2013-06-23T05:30:48Z</time>
      </trkpt>
      <trkpt lat="43.21031" lon="2.34712">
        <ele>127.99</ele>
        <time>2013-06-23T05:31:02Z</time>
      </trkpt>
      <trkpt lat="43.21034" lon="2.34841">
        <ele>125.59</ele>
        <time>2013-06-23T05:31:14Z</time>
      </trkpt>
      <trkpt lat="43.21037" lon="2.35053">
        <ele>120.3</ele>
        <time>2013-06-23T05:31:31Z</time>
      </trkpt>
      <trkpt lat="43.21037" lon="2.35205">
        <ele>116.46</ele>
        <time>2013-06-23T05:31:43Z</time>
      </trkpt>
      <trkpt lat="43.21035" lon="2.35217">
        <ele>115.98</ele>
        <time>2013-06-23T05:31:44Z</time>
      </trkpt>
      <trkpt lat="43.21031" lon="2.35229">
        <ele>115.98</ele>
        <time>2013-06-23T05:31:45Z</time>
      </trkpt>
      <trkpt lat="43.21027" lon="2.3524">
        <ele>115.98</ele>
        <time>2013-06-23T05:31:46Z</time>
      </trkpt>
      <trkpt lat="43.21025" lon="2.35251">
        <ele>115.98</ele>
        <time>2013-06-23T05:31:47Z</time>
      </trkpt>
      <trkpt lat="43.21025" lon="2.35263">
        <ele>115.5</ele>
        <time>2013-06-23T05:31:48Z</time>
      </trkpt>
      <trkpt lat="43.21029" lon="2.35275">
        <ele>115.01</ele>
        <time>2013-06-23T05:31:49Z</time>
      </trkpt>
      <trkpt lat="43.21034" lon="2.35285">
        <ele>114.53</ele>
        <time>2013-06-23T05:31:50Z</time>
      </trkpt>
      <trkpt lat="43.21037" lon="2.35296">
        <ele>114.05</ele>
        <time>2013-06-23T05:31:51Z</time>
      </trkpt>
      <trkpt lat="43.21039" lon="2.35308">
        <ele>114.05</ele>
        <time>2013-06-23T05:31:52Z</time>
      </trkpt>
      <trkpt lat="43.21041" lon="2.35466">
        <ele>111.65</ele>
        <time>2013-06-23T05:32:05Z</time>
      </trkpt>
      <trkpt lat="43.21046" lon="2.35537">
        <ele>110.69</ele>
        <time>2013-06-23T05:32:11Z</time>
      </trkpt>
      <trkpt lat="43.21045" lon="2.35549">
        <ele>110.21</ele>
        <time>2013-06-23T05:32:12Z</time>
      </trkpt>
      <trkpt lat="43.21042" lon="2.35572">
        <ele>110.21</ele>
        <time>2013-06-23T05:32:14Z</time>
      </trkpt>
      <trkpt lat="43.2103" lon="2.35649">
        <ele>110.69</ele>
        <time>2013-06-23T05:32:21Z</time>
      </trkpt>
      <trkpt lat="43.21029" lon="2.35705">
        <ele>109.25</ele>
        <time>2013-06-23T05:32:29Z</time>
      </trkpt>
      <trkpt lat="43.2103" lon="2.35707">
        <ele>109.25</ele>
        <time>2013-06-23T05:32:30Z</time>
      </trkpt>
      <trkpt lat="43.21031" lon="2.3571">
        <ele>109.25</ele>
        <time>2013-06-23T05:32:31Z</time>
      </trkpt>
      <trkpt lat="43.21031" lon="2.35713">
        <ele>109.73</ele>
        <time>2013-06-23T05:32:32Z</time>
      </trkpt>
      <trkpt lat="43.21031" lon="2.35718">
        <ele>109.73</ele>
        <time>2013-06-23T05:32:33Z</time>
      </trkpt>
      <trkpt lat="43.21031" lon="2.35724">
        <ele>110.21</ele>
        <time>2013-06-23T05:32:34Z</time>
      </trkpt>
      <trkpt lat="43.2103" lon="2.3573">
        <ele>110.21</ele>
        <time>2013-06-23T05:32:35Z</time>
      </trkpt>
      <trkpt lat="43.21031" lon="2.35766">
        <ele>110.21</ele>
        <time>2013-06-23T05:32:40Z</time>
      </trkpt>
      <trkpt lat="43.21033" lon="2.35773">
        <ele>109.73</ele>
        <time>2013-06-23T05:32:41Z</time>
      </trkpt>
      <trkpt lat="43.21037" lon="2.35779">
        <ele>109.73</ele>
        <time>2013-06-23T05:32:42Z</time>
      </trkpt>
      <trkpt lat="43.21041" lon="2.35782">
        <ele>109.73</ele>
        <time>2013-06-23T05:32:43Z</time>
      </trkpt>
      <trkpt lat="43.21045" lon="2.35785">
        <ele>110.21</ele>
        <time>2013-06-23T05:32:44Z</time>
      </trkpt>
      <trkpt lat="43.2105" lon="2.35788">
        <ele>110.21</ele>
        <time>2013-06-23T05:32:45Z</time>
      </trkpt>
      <trkpt lat="43.21053" lon="2.35792">
        <ele>110.21</ele>
        <time>2013-06-23T05:32:46Z</time>
      </trkpt>
      <trkpt lat="43.21055" lon="2.35797">
        <ele>110.69</ele>
        <time>2013-06-23T05:32:47Z</time>
      </trkpt>
      <trkpt lat="43.21055" lon="2.35802">
        <ele>111.17</ele>
        <time>2013-06-23T05:32:48Z</time>
      </trkpt>
      <trkpt lat="43.21053" lon="2.35808">
        <ele>112.13</ele>
        <time>2013-06-23T05:32:49Z</time>
      </trkpt>
      <trkpt lat="43.21051" lon="2.35814">
        <ele>112.61</ele>
        <time>2013-06-23T05:32:50Z</time>
      </trkpt>
      <trkpt lat="43.21049" lon="2.35819">
        <ele>113.09</ele>
        <time>2013-06-23T05:32:51Z</time>
      </trkpt>
      <trkpt lat="43.21047" lon="2.35825">
        <ele>113.57</ele>
        <time>2013-06-23T05:32:52Z</time>
      </trkpt>
      <trkpt lat="43.21046" lon="2.35831">
        <ele>113.57</ele>
        <time>2013-06-23T05:32:53Z</time>
      </trkpt>
      <trkpt lat="43.21022" lon="2.35952">
        <ele>115.01</ele>
        <time>2013-06-23T05:33:12Z</time>
      </trkpt>
      <trkpt lat="43.21004" lon="2.36036">
        <ele>113.57</ele>
        <time>2013-06-23T05:33:25Z</time>
      </trkpt>
      <trkpt lat="43.20998" lon="2.36066">
        <ele>111.65</ele>
        <time>2013-06-23T05:33:29Z</time>
      </trkpt>
      <trkpt lat="43.20997" lon="2.36073">
        <ele>110.69</ele>
        <time>2013-06-23T05:33:30Z</time>
      </trkpt>
      <trkpt lat="43.20996" lon="2.36079">
        <ele>109.73</ele>
        <time>2013-06-23T05:33:31Z</time>
      </trkpt>
      <trkpt lat="43.20993" lon="2.36085">
        <ele>109.25</ele>
        <time>2013-06-23T05:33:32Z</time>
      </trkpt>
      <trkpt lat="43.2099" lon="2.36088">
        <ele>108.77</ele>
        <time>2013-06-23T05:33:33Z</time>
      </trkpt>
      <trkpt lat="43.20987" lon="2.36089">
        <ele>108.29</ele>
        <time>2013-06-23T05:33:34Z</time>
      </trkpt>
      <trkpt lat="43.20984" lon="2.36088">
        <ele>107.81</ele>
        <time>2013-06-23T05:33:35Z</time>
      </trkpt>
      <trkpt lat="43.20982" lon="2.36084">
        <ele>107.32</ele>
        <time>2013-06-23T05:33:36Z</time>
      </trkpt>
      <trkpt lat="43.20981" lon="2.3608">
        <ele>107.32</ele>
        <time>2013-06-23T05:33:37Z</time>
      </trkpt>
      <trkpt lat="43.20981" lon="2.36075">
        <ele>106.84</ele>
        <time>2013-06-23T05:33:38Z</time>
      </trkpt>
      <trkpt lat="43.20978" lon="2.3607">
        <ele>106.84</ele>
        <time>2013-06-23T05:33:39Z</time>
      </trkpt>
      <trkpt lat="43.20975" lon="2.36067">
        <ele>106.36</ele>
        <time>2013-06-23T05:33:40Z</time>
      </trkpt>
      <trkpt lat="43.20974" lon="2.36063">
        <ele>105.88</ele>
        <time>2013-06-23T05:33:41Z</time>
      </trkpt>
      <trkpt lat="43.20974" lon="2.36058">
        <ele>105.4</ele>
        <time>2013-06-23T05:33:42Z</time>
      </trkpt>
      <trkpt lat="43.20972" lon="2.36054">
        <ele>104.92</ele>
        <time>2013-06-23T05:33:43Z</time>
      </trkpt>
      <trkpt lat="43.20969" lon="2.3605">
        <ele>104.44</ele>
        <time>2013-06-23T05:33:44Z</time>
      </trkpt>
      <trkpt lat="43.20967" lon="2.36046">
        <ele>104.44</ele>
        <time>2013-06-23T05:33:45Z</time>
      </trkpt>
      <trkpt lat="43.20964" lon="2.36041">
        <ele>104.44</ele>
        <time>2013-06-23T05:33:46Z</time>
      </trkpt>
      <trkpt lat="43.20962" lon="2.36036">
        <ele>103.96</ele>
        <time>2013-06-23T05:33:47Z</time>
      </trkpt>
      <trkpt lat="43.20958" lon="2.36033">
        <ele>103.96</ele>
        <time>2013-06-23T05:33:48Z</time>
      </trkpt>
      <trkpt lat="43.20954" lon="2.3603">
        <ele>103.48</ele>
        <time>2013-06-23T05:33:49Z</time>
      </trkpt>
      <trkpt lat="43.20944" lon="2.36024">
        <ele>103.96</ele>
        <time>2013-06-23T05:33:51Z</time>
      </trkpt>
      <trkpt lat="43.2094" lon="2.36021">
        <ele>103.96</ele>
        <time>2013-06-23T05:33:52Z</time>
      </trkpt>
      <trkpt lat="43.20937" lon="2.36016">
        <ele>103.96</ele>
        <time>2013-06-23T05:33:53Z</time>
      </trkpt>
      <trkpt lat="43.20879" lon="2.35957">
        <ele>103.96</ele>
        <time>2013-06-23T05:34:07Z</time>
      </trkpt>
      <trkpt lat="43.20836" lon="2.35942">
        <ele>103.48</ele>
        <time>2013-06-23T05:34:15Z</time>
      </trkpt>
      <trkpt lat="43.2083" lon="2.3594">
        <ele>103</ele>
        <time>2013-06-23T05:34:16Z</time>
      </trkpt>
      <trkpt lat="43.20825" lon="2.35939">
        <ele>103</ele>
        <time>2013-06-23T05:34:17Z</time>
      </trkpt>
      <trkpt lat="43.20769" lon="2.35934">
        <ele>105.88</ele>
        <time>2013-06-23T05:34:27Z</time>
      </trkpt>
      <trkpt lat="43.20716" lon="2.35922">
        <ele>104.92</ele>
        <time>2013-06-23T05:34:37Z</time>
      </trkpt>
      <trkpt lat="43.20711" lon="2.35923">
        <ele>105.4</ele>
        <time>2013-06-23T05:34:38Z</time>
      </trkpt>
      <trkpt lat="43.207" lon="2.35926">
        <ele>105.4</ele>
        <time>2013-06-23T05:34:40Z</time>
      </trkpt>
      <trkpt lat="43.20673" lon="2.35937">
        <ele>105.4</ele>
        <time>2013-06-23T05:34:45Z</time>
      </trkpt>
      <trkpt lat="43.20668" lon="2.35938">
        <ele>105.88</ele>
        <time>2013-06-23T05:34:46Z</time>
      </trkpt>
      <trkpt lat="43.20594" lon="2.35948">
        <ele>108.29</ele>
        <time>2013-06-23T05:35:00Z</time>
      </trkpt>
      <trkpt lat="43.20589" lon="2.35949">
        <ele>108.77</ele>
        <time>2013-06-23T05:35:01Z</time>
      </trkpt>
      <trkpt lat="43.20503" lon="2.35952">
        <ele>108.29</ele>
        <time>2013-06-23T05:35:16Z</time>
      </trkpt>
      <trkpt lat="43.20465" lon="2.35952">
        <ele>107.81</ele>
        <time>2013-06-23T05:35:23Z</time>
      </trkpt>
      <trkpt lat="43.2046" lon="2.35953">
        <ele>107.81</ele>
        <time>2013-06-23T05:35:24Z</time>
      </trkpt>
      <trkpt lat="43.20456" lon="2.35956">
        <ele>108.29</ele>
        <time>2013-06-23T05:35:25Z</time>
      </trkpt>
      <trkpt lat="43.20451" lon="2.3596">
        <ele>108.29</ele>
        <time>2013-06-23T05:35:26Z</time>
      </trkpt>
      <trkpt lat="43.20447" lon="2.35964">
        <ele>108.29</ele>
        <time>2013-06-23T05:35:27Z</time>
      </trkpt>
      <trkpt lat="43.20443" lon="2.35969">
        <ele>108.29</ele>
        <time>2013-06-23T05:35:28Z</time>
      </trkpt>
      <trkpt lat="43.20417" lon="2.35997">
        <ele>109.25</ele>
        <time>2013-06-23T05:35:34Z</time>
      </trkpt>
      <trkpt lat="43.20412" lon="2.36001">
        <ele>109.25</ele>
        <time>2013-06-23T05:35:35Z</time>
      </trkpt>
      <trkpt lat="43.20407" lon="2.36004">
        <ele>109.25</ele>
        <time>2013-06-23T05:35:36Z</time>
      </trkpt>
      <trkpt lat="43.20401" lon="2.36006">
        <ele>109.25</ele>
        <time>2013-06-23T05:35:37Z</time>
      </trkpt>
      <trkpt lat="43.20396" lon="2.36008">
        <ele>109.73</ele>
        <time>2013-06-23T05:35:38Z</time>
      </trkpt>
      <trkpt lat="43.2039" lon="2.3601">
        <ele>109.73</ele>
        <time>2013-06-23T05:35:39Z</time>
      </trkpt>
      <trkpt lat="43.20385" lon="2.36011">
        <ele>109.73</ele>
        <time>2013-06-23T05:35:40Z</time>
      </trkpt>
      <trkpt lat="43.2038" lon="2.36012">
        <ele>109.73</ele>
        <time>2013-06-23T05:35:41Z</time>
      </trkpt>
      <trkpt lat="43.20369" lon="2.36012">
        <ele>110.21</ele>
        <time>2013-06-23T05:35:43Z</time>
      </trkpt>
      <trkpt lat="43.20364" lon="2.36011">
        <ele>110.21</ele>
        <time>2013-06-23T05:35:44Z</time>
      </trkpt>
      <trkpt lat="43.20358" lon="2.36009">
        <ele>110.69</ele>
        <time>2013-06-23T05:35:45Z</time>
      </trkpt>
      <trkpt lat="43.20353" lon="2.36007">
        <ele>110.69</ele>
        <time>2013-06-23T05:35:46Z</time>
      </trkpt>
      <trkpt lat="43.20348" lon="2.36004">
        <ele>110.69</ele>
        <time>2013-06-23T05:35:47Z</time>
      </trkpt>
      <trkpt lat="43.20262" lon="2.35967">
        <ele>109.25</ele>
        <time>2013-06-23T05:36:04Z</time>
      </trkpt>
      <trkpt lat="43.20257" lon="2.35967">
        <ele>108.77</ele>
        <time>2013-06-23T05:36:05Z</time>
      </trkpt>
      <trkpt lat="43.20251" lon="2.35968">
        <ele>108.77</ele>
        <time>2013-06-23T05:36:06Z</time>
      </trkpt>
      <trkpt lat="43.20171" lon="2.35987">
        <ele>110.21</ele>
        <time>2013-06-23T05:36:21Z</time>
      </trkpt>
      <trkpt lat="43.20166" lon="2.35987">
        <ele>110.69</ele>
        <time>2013-06-23T05:36:22Z</time>
      </trkpt>
      <trkpt lat="43.20161" lon="2.35986">
        <ele>110.69</ele>
        <time>2013-06-23T05:36:23Z</time>
      </trkpt>
      <trkpt lat="43.20156" lon="2.35984">
        <ele>110.69</ele>
        <time>2013-06-23T05:36:24Z</time>
      </trkpt>
      <trkpt lat="43.20152" lon="2.35981">
        <ele>110.69</ele>
        <time>2013-06-23T05:36:25Z</time>
      </trkpt>
      <trkpt lat="43.20148" lon="2.35979">
        <ele>111.17</ele>
        <time>2013-06-23T05:36:26Z</time>
      </trkpt>
      <trkpt lat="43.20144" lon="2.35975">
        <ele>111.17</ele>
        <time>2013-06-23T05:36:27Z</time>
      </trkpt>
      <trkpt lat="43.2014" lon="2.35971">
        <ele>111.65</ele>
        <time>2013-06-23T05:36:28Z</time>
      </trkpt>
      <trkpt lat="43.20124" lon="2.35946">
        <ele>111.65</ele>
        <time>2013-06-23T05:36:33Z</time>
      </trkpt>
      <trkpt lat="43.20121" lon="2.3594">
        <ele>111.65</ele>
        <time>2013-06-23T05:36:34Z</time>
      </trkpt>
      <trkpt lat="43.20088" lon="2.35884">
        <ele>112.13</ele>
        <time>2013-06-23T05:36:44Z</time>
      </trkpt>
      <trkpt lat="43.20017" lon="2.35844">
        <ele>115.5</ele>
        <time>2013-06-23T05:37:01Z</time>
      </trkpt>
      <trkpt lat="43.19928" lon="2.35818">
        <ele>120.78</ele>
        <time>2013-06-23T05:37:21Z</time>
      </trkpt>
      <trkpt lat="43.19852" lon="2.35796">
        <ele>124.15</ele>
        <time>2013-06-23T05:37:38Z</time>
      </trkpt>
      <trkpt lat="43.198" lon="2.35771">
        <ele>125.59</ele>
        <time>2013-06-23T05:37:50Z</time>
      </trkpt>
      <trkpt lat="43.19795" lon="2.3577">
        <ele>125.59</ele>
        <time>2013-06-23T05:37:51Z</time>
      </trkpt>
      <trkpt lat="43.19791" lon="2.3577">
        <ele>125.59</ele>
        <time>2013-06-23T05:37:52Z</time>
      </trkpt>
      <trkpt lat="43.19763" lon="2.35771">
        <ele>125.11</ele>
        <time>2013-06-23T05:37:58Z</time>
      </trkpt>
      <trkpt lat="43.19758" lon="2.3577">
        <ele>125.11</ele>
        <time>2013-06-23T05:37:59Z</time>
      </trkpt>
      <trkpt lat="43.19753" lon="2.35768">
        <ele>125.59</ele>
        <time>2013-06-23T05:38:00Z</time>
      </trkpt>
      <trkpt lat="43.19745" lon="2.35764">
        <ele>126.07</ele>
        <time>2013-06-23T05:38:02Z</time>
      </trkpt>
      <trkpt lat="43.1974" lon="2.35763">
        <ele>126.07</ele>
        <time>2013-06-23T05:38:03Z</time>
      </trkpt>
      <trkpt lat="43.19736" lon="2.35763">
        <ele>126.07</ele>
        <time>2013-06-23T05:38:04Z</time>
      </trkpt>
      <trkpt lat="43.19731" lon="2.35764">
        <ele>126.07</ele>
        <time>2013-06-23T05:38:05Z</time>
      </trkpt>
      <trkpt lat="43.19726" lon="2.35765">
        <ele>126.55</ele>
        <time>2013-06-23T05:38:06Z</time>
      </trkpt>
      <trkpt lat="43.19721" lon="2.35768">
        <ele>126.55</ele>
        <time>2013-06-23T05:38:07Z</time>
      </trkpt>
      <trkpt lat="43.19718" lon="2.35772">
        <ele>126.55</ele>
        <time>2013-06-23T05:38:08Z</time>
      </trkpt>
      <trkpt lat="43.19714" lon="2.35777">
        <ele>126.55</ele>
        <time>2013-06-23T05:38:09Z</time>
      </trkpt>
      <trkpt lat="43.19712" lon="2.35783">
        <ele>126.55</ele>
        <time>2013-06-23T05:38:10Z</time>
      </trkpt>
      <trkpt lat="43.1971" lon="2.3579">
        <ele>127.03</ele>
        <time>2013-06-23T05:38:11Z</time>
      </trkpt>
      <trkpt lat="43.19709" lon="2.35797">
        <ele>127.03</ele>
        <time>2013-06-23T05:38:12Z</time>
      </trkpt>
      <trkpt lat="43.19708" lon="2.35804">
        <ele>127.03</ele>
        <time>2013-06-23T05:38:13Z</time>
      </trkpt>
      <trkpt lat="43.19698" lon="2.35862">
        <ele>127.99</ele>
        <time>2013-06-23T05:38:21Z</time>
      </trkpt>
      <trkpt lat="43.19697" lon="2.3587">
        <ele>127.99</ele>
        <time>2013-06-23T05:38:22Z</time>
      </trkpt>
      <trkpt lat="43.19652" lon="2.35964">
        <ele>130.4</ele>
        <time>2013-06-23T05:38:37Z</time>
      </trkpt>
      <trkpt lat="43.19586" lon="2.36045">
        <ele>134.72</ele>
        <time>2013-06-23T05:38:54Z</time>
      </trkpt>
      <trkpt lat="43.19521" lon="2.36143">
        <ele>138.57</ele>
        <time>2013-06-23T05:39:14Z</time>
      </trkpt>
      <trkpt lat="43.19495" lon="2.36172">
        <ele>140.01</ele>
        <time>2013-06-23T05:39:21Z</time>
      </trkpt>
      <trkpt lat="43.19482" lon="2.36182">
        <ele>140.97</ele>
        <time>2013-06-23T05:39:24Z</time>
      </trkpt>
      <trkpt lat="43.1941" lon="2.36199">
        <ele>140.97</ele>
        <time>2013-06-23T05:39:39Z</time>
      </trkpt>
      <trkpt lat="43.19308" lon="2.36205">
        <ele>140.49</ele>
        <time>2013-06-23T05:39:58Z</time>
      </trkpt>
      <trkpt lat="43.19202" lon="2.36203">
        <ele>143.37</ele>
        <time>2013-06-23T05:40:17Z</time>
      </trkpt>
      <trkpt lat="43.19178" lon="2.36203">
        <ele>144.82</ele>
        <time>2013-06-23T05:40:22Z</time>
      </trkpt>
      <trkpt lat="43.19095" lon="2.36209">
        <ele>147.7</ele>
        <time>2013-06-23T05:40:39Z</time>
      </trkpt>
      <trkpt lat="43.19038" lon="2.36224">
        <ele>149.14</ele>
        <time>2013-06-23T05:40:51Z</time>
      </trkpt>
      <trkpt lat="43.19034" lon="2.36223">
        <ele>149.14</ele>
        <time>2013-06-23T05:40:52Z</time>
      </trkpt>
      <trkpt lat="43.19029" lon="2.36222">
        <ele>149.62</ele>
        <time>2013-06-23T05:40:53Z</time>
      </trkpt>
      <trkpt lat="43.19024" lon="2.36221">
        <ele>149.62</ele>
        <time>2013-06-23T05:40:54Z</time>
      </trkpt>
      <trkpt lat="43.1902" lon="2.36222">
        <ele>149.62</ele>
        <time>2013-06-23T05:40:55Z</time>
      </trkpt>
      <trkpt lat="43.19016" lon="2.36225">
        <ele>150.1</ele>
        <time>2013-06-23T05:40:56Z</time>
      </trkpt>
      <trkpt lat="43.19012" lon="2.36229">
        <ele>150.58</ele>
        <time>2013-06-23T05:40:57Z</time>
      </trkpt>
      <trkpt lat="43.19009" lon="2.36234">
        <ele>150.58</ele>
        <time>2013-06-23T05:40:58Z</time>
      </trkpt>
      <trkpt lat="43.19007" lon="2.3624">
        <ele>150.58</ele>
        <time>2013-06-23T05:40:59Z</time>
      </trkpt>
      <trkpt lat="43.19005" lon="2.36246">
        <ele>151.06</ele>
        <time>2013-06-23T05:41:00Z</time>
      </trkpt>
      <trkpt lat="43.19002" lon="2.36251">
        <ele>151.54</ele>
        <time>2013-06-23T05:41:01Z</time>
      </trkpt>
      <trkpt lat="43.18999" lon="2.36255">
        <ele>151.54</ele>
        <time>2013-06-23T05:41:02Z</time>
      </trkpt>
      <trkpt lat="43.18995" lon="2.3626">
        <ele>152.03</ele>
        <time>2013-06-23T05:41:03Z</time>
      </trkpt>
      <trkpt lat="43.18933" lon="2.36323">
        <ele>155.39</ele>
        <time>2013-06-23T05:41:18Z</time>
      </trkpt>
      <trkpt lat="43.18884" lon="2.36386">
        <ele>155.87</ele>
        <time>2013-06-23T05:41:30Z</time>
      </trkpt>
      <trkpt lat="43.18833" lon="2.36453">
        <ele>154.91</ele>
        <time>2013-06-23T05:41:41Z</time>
      </trkpt>
      <trkpt lat="43.18792" lon="2.365">
        <ele>153.95</ele>
        <time>2013-06-23T05:41:50Z</time>
      </trkpt>
      <trkpt lat="43.18787" lon="2.36505">
        <ele>154.43</ele>
        <time>2013-06-23T05:41:51Z</time>
      </trkpt>
      <trkpt lat="43.18783" lon="2.36509">
        <ele>154.91</ele>
        <time>2013-06-23T05:41:52Z</time>
      </trkpt>
      <trkpt lat="43.18703" lon="2.36576">
        <ele>153.47</ele>
        <time>2013-06-23T05:42:05Z</time>
      </trkpt>
      <trkpt lat="43.18593" lon="2.36676">
        <ele>150.58</ele>
        <time>2013-06-23T05:42:23Z</time>
      </trkpt>
      <trkpt lat="43.18506" lon="2.36779">
        <ele>147.22</ele>
        <time>2013-06-23T05:42:38Z</time>
      </trkpt>
      <trkpt lat="43.18411" lon="2.36892">
        <ele>143.85</ele>
        <time>2013-06-23T05:42:53Z</time>
      </trkpt>
      <trkpt lat="43.18326" lon="2.36971">
        <ele>143.85</ele>
        <time>2013-06-23T05:43:07Z</time>
      </trkpt>
      <trkpt lat="43.18284" lon="2.37031">
        <ele>144.82</ele>
        <time>2013-06-23T05:43:16Z</time>
      </trkpt>
      <trkpt lat="43.1828" lon="2.37038">
        <ele>144.82</ele>
        <time>2013-06-23T05:43:17Z</time>
      </trkpt>
      <trkpt lat="43.18218" lon="2.3712">
        <ele>147.7</ele>
        <time>2013-06-23T05:43:30Z</time>
      </trkpt>
      <trkpt lat="43.18149" lon="2.37227">
        <ele>145.78</ele>
        <time>2013-06-23T05:43:45Z</time>
      </trkpt>
      <trkpt lat="43.18085" lon="2.37333">
        <ele>147.22</ele>
        <time>2013-06-23T05:44:00Z</time>
      </trkpt>
      <trkpt lat="43.18009" lon="2.37461">
        <ele>150.1</ele>
        <time>2013-06-23T05:44:19Z</time>
      </trkpt>
      <trkpt lat="43.17916" lon="2.37616">
        <ele>154.91</ele>
        <time>2013-06-23T05:44:42Z</time>
      </trkpt>
      <trkpt lat="43.17832" lon="2.37759">
        <ele>158.75</ele>
        <time>2013-06-23T05:45:03Z</time>
      </trkpt>
      <trkpt lat="43.1778" lon="2.37891">
        <ele>162.12</ele>
        <time>2013-06-23T05:45:20Z</time>
      </trkpt>
      <trkpt lat="43.17726" lon="2.38026">
        <ele>165</ele>
        <time>2013-06-23T05:45:38Z</time>
      </trkpt>
      <trkpt lat="43.17685" lon="2.38125">
        <ele>165.96</ele>
        <time>2013-06-23T05:45:52Z</time>
      </trkpt>
      <trkpt lat="43.17621" lon="2.3824">
        <ele>165.96</ele>
        <time>2013-06-23T05:46:11Z</time>
      </trkpt>
      <trkpt lat="43.17586" lon="2.38294">
        <ele>165.48</ele>
        <time>2013-06-23T05:46:21Z</time>
      </trkpt>
      <trkpt lat="43.17582" lon="2.38299">
        <ele>165.48</ele>
        <time>2013-06-23T05:46:22Z</time>
      </trkpt>
      <trkpt lat="43.17577" lon="2.38302">
        <ele>165.48</ele>
        <time>2013-06-23T05:46:23Z</time>
      </trkpt>
      <trkpt lat="43.17572" lon="2.38304">
        <ele>165.48</ele>
        <time>2013-06-23T05:46:24Z</time>
      </trkpt>
      <trkpt lat="43.17567" lon="2.38305">
        <ele>165.48</ele>
        <time>2013-06-23T05:46:25Z</time>
      </trkpt>
      <trkpt lat="43.17561" lon="2.38305">
        <ele>165.48</ele>
        <time>2013-06-23T05:46:26Z</time>
      </trkpt>
      <trkpt lat="43.17556" lon="2.38303">
        <ele>165</ele>
        <time>2013-06-23T05:46:27Z</time>
      </trkpt>
      <trkpt lat="43.1755" lon="2.38302">
        <ele>164.52</ele>
        <time>2013-06-23T05:46:28Z</time>
      </trkpt>
      <trkpt lat="43.17491" lon="2.38281">
        <ele>163.56</ele>
        <time>2013-06-23T05:46:41Z</time>
      </trkpt>
      <trkpt lat="43.17483" lon="2.38278">
        <ele>164.04</ele>
        <time>2013-06-23T05:46:43Z</time>
      </trkpt>
      <trkpt lat="43.1747" lon="2.38273">
        <ele>165</ele>
        <time>2013-06-23T05:46:46Z</time>
      </trkpt>
      <trkpt lat="43.17466" lon="2.38271">
        <ele>165</ele>
        <time>2013-06-23T05:46:47Z</time>
      </trkpt>
      <trkpt lat="43.17461" lon="2.38271">
        <ele>165</ele>
        <time>2013-06-23T05:46:48Z</time>
      </trkpt>
      <trkpt lat="43.17452" lon="2.38271">
        <ele>165</ele>
        <time>2013-06-23T05:46:50Z</time>
      </trkpt>
      <trkpt lat="43.17448" lon="2.38272">
        <ele>165</ele>
        <time>2013-06-23T05:46:51Z</time>
      </trkpt>
      <trkpt lat="43.17443" lon="2.38274">
        <ele>165.48</ele>
        <time>2013-06-23T05:46:52Z</time>
      </trkpt>
      <trkpt lat="43.17439" lon="2.38277">
        <ele>165.48</ele>
        <time>2013-06-23T05:46:53Z</time>
      </trkpt>
      <trkpt lat="43.17436" lon="2.3828">
        <ele>165.48</ele>
        <time>2013-06-23T05:46:54Z</time>
      </trkpt>
      <trkpt lat="43.17432" lon="2.38284">
        <ele>165.96</ele>
        <time>2013-06-23T05:46:55Z</time>
      </trkpt>
      <trkpt lat="43.1741" lon="2.38315">
        <ele>167.41</ele>
        <time>2013-06-23T05:47:02Z</time>
      </trkpt>
      <trkpt lat="43.17407" lon="2.38319">
        <ele>167.89</ele>
        <time>2013-06-23T05:47:03Z</time>
      </trkpt>
      <trkpt lat="43.17399" lon="2.38325">
        <ele>168.37</ele>
        <time>2013-06-23T05:47:05Z</time>
      </trkpt>
      <trkpt lat="43.17395" lon="2.38326">
        <ele>168.85</ele>
        <time>2013-06-23T05:47:06Z</time>
      </trkpt>
      <trkpt lat="43.17391" lon="2.38327">
        <ele>168.85</ele>
        <time>2013-06-23T05:47:07Z</time>
      </trkpt>
      <trkpt lat="43.17375" lon="2.38328">
        <ele>170.29</ele>
        <time>2013-06-23T05:47:11Z</time>
      </trkpt>
      <trkpt lat="43.17371" lon="2.3833">
        <ele>170.77</ele>
        <time>2013-06-23T05:47:12Z</time>
      </trkpt>
      <trkpt lat="43.17367" lon="2.38332">
        <ele>171.25</ele>
        <time>2013-06-23T05:47:13Z</time>
      </trkpt>
      <trkpt lat="43.17324" lon="2.38381">
        <ele>173.66</ele>
        <time>2013-06-23T05:47:26Z</time>
      </trkpt>
      <trkpt lat="43.17299" lon="2.38428">
        <ele>178.94</ele>
        <time>2013-06-23T05:47:37Z</time>
      </trkpt>
      <trkpt lat="43.17276" lon="2.38477">
        <ele>178.46</ele>
        <time>2013-06-23T05:47:48Z</time>
      </trkpt>
      <trkpt lat="43.17252" lon="2.38512">
        <ele>180.38</ele>
        <time>2013-06-23T05:47:56Z</time>
      </trkpt>
      <trkpt lat="43.17249" lon="2.38515">
        <ele>180.87</ele>
        <time>2013-06-23T05:47:57Z</time>
      </trkpt>
      <trkpt lat="43.17213" lon="2.38564">
        <ele>185.19</ele>
        <time>2013-06-23T05:48:09Z</time>
      </trkpt>
      <trkpt lat="43.17182" lon="2.38596">
        <ele>184.23</ele>
        <time>2013-06-23T05:48:18Z</time>
      </trkpt>
      <trkpt lat="43.17179" lon="2.38601">
        <ele>184.23</ele>
        <time>2013-06-23T05:48:19Z</time>
      </trkpt>
      <trkpt lat="43.17142" lon="2.38653">
        <ele>181.35</ele>
        <time>2013-06-23T05:48:31Z</time>
      </trkpt>
      <trkpt lat="43.17138" lon="2.38655">
        <ele>181.35</ele>
        <time>2013-06-23T05:48:32Z</time>
      </trkpt>
      <trkpt lat="43.17135" lon="2.38656">
        <ele>180.87</ele>
        <time>2013-06-23T05:48:33Z</time>
      </trkpt>
      <trkpt lat="43.17132" lon="2.38656">
        <ele>180.38</ele>
        <time>2013-06-23T05:48:34Z</time>
      </trkpt>
      <trkpt lat="43.17129" lon="2.38657">
        <ele>180.38</ele>
        <time>2013-06-23T05:48:35Z</time>
      </trkpt>
      <trkpt lat="43.17127" lon="2.38658">
        <ele>180.38</ele>
        <time>2013-06-23T05:48:36Z</time>
      </trkpt>
      <trkpt lat="43.17124" lon="2.38658">
        <ele>178.94</ele>
        <time>2013-06-23T05:48:46Z</time>
      </trkpt>
      <trkpt lat="43.17123" lon="2.38659">
        <ele>175.1</ele>
        <time>2013-06-23T05:49:18Z</time>
      </trkpt>
      <trkpt lat="43.17108" lon="2.38671">
        <ele>175.58</ele>
        <time>2013-06-23T05:49:33Z</time>
      </trkpt>
      <trkpt lat="43.17061" lon="2.38711">
        <ele>177.98</ele>
        <time>2013-06-23T05:49:48Z</time>
      </trkpt>
      <trkpt lat="43.1706" lon="2.38714">
        <ele>178.46</ele>
        <time>2013-06-23T05:49:49Z</time>
      </trkpt>
      <trkpt lat="43.17043" lon="2.38741">
        <ele>182.79</ele>
        <time>2013-06-23T05:50:00Z</time>
      </trkpt>
      <trkpt lat="43.1701" lon="2.38801">
        <ele>185.19</ele>
        <time>2013-06-23T05:50:15Z</time>
      </trkpt>
      <trkpt lat="43.16997" lon="2.38859">
        <ele>188.08</ele>
        <time>2013-06-23T05:50:30Z</time>
      </trkpt>
      <trkpt lat="43.16993" lon="2.38883">
        <ele>189.04</ele>
        <time>2013-06-23T05:50:41Z</time>
      </trkpt>
      <trkpt lat="43.16994" lon="2.38884">
        <ele>189.04</ele>
        <time>2013-06-23T05:50:42Z</time>
      </trkpt>
      <trkpt lat="43.16995" lon="2.38883">
        <ele>189.04</ele>
        <time>2013-06-23T05:50:43Z</time>
      </trkpt>
      <trkpt lat="43.16996" lon="2.38882">
        <ele>188.56</ele>
        <time>2013-06-23T05:50:44Z</time>
      </trkpt>
      <trkpt lat="43.16998" lon="2.3888">
        <ele>188.56</ele>
        <time>2013-06-23T05:50:45Z</time>
      </trkpt>
      <trkpt lat="43.16999" lon="2.3888">
        <ele>188.56</ele>
        <time>2013-06-23T05:50:46Z</time>
      </trkpt>
      <trkpt lat="43.17001" lon="2.38881">
        <ele>188.08</ele>
        <time>2013-06-23T05:50:47Z</time>
      </trkpt>
      <trkpt lat="43.17009" lon="2.38879">
        <ele>185.67</ele>
        <time>2013-06-23T05:51:01Z</time>
      </trkpt>
      <trkpt lat="43.17008" lon="2.38879">
        <ele>185.19</ele>
        <time>2013-06-23T05:51:02Z</time>
      </trkpt>
      <trkpt lat="43.17007" lon="2.38878">
        <ele>185.19</ele>
        <time>2013-06-23T05:51:03Z</time>
      </trkpt>
      <trkpt lat="43.17005" lon="2.38878">
        <ele>185.19</ele>
        <time>2013-06-23T05:51:04Z</time>
      </trkpt>
      <trkpt lat="43.17004" lon="2.38878">
        <ele>185.19</ele>
        <time>2013-06-23T05:51:05Z</time>
      </trkpt>
      <trkpt lat="43.17003" lon="2.38877">
        <ele>185.19</ele>
        <time>2013-06-23T05:51:06Z</time>
      </trkpt>
      <trkpt lat="43.17002" lon="2.38877">
        <ele>185.19</ele>
        <time>2013-06-23T05:51:07Z</time>
      </trkpt>
      <trkpt lat="43.17001" lon="2.38876">
        <ele>185.19</ele>
        <time>2013-06-23T05:51:08Z</time>
      </trkpt>
      <trkpt lat="43.17" lon="2.38875">
        <ele>184.71</ele>
        <time>2013-06-23T05:51:09Z</time>
      </trkpt>
      <trkpt lat="43.17" lon="2.38874">
        <ele>184.23</ele>
        <time>2013-06-23T05:51:10Z</time>
      </trkpt>
      <trkpt lat="43.16999" lon="2.38872">
        <ele>184.23</ele>
        <time>2013-06-23T05:51:11Z</time>
      </trkpt>
      <trkpt lat="43.16999" lon="2.3887">
        <ele>183.75</ele>
        <time>2013-06-23T05:51:12Z</time>
      </trkpt>
      <trkpt lat="43.17003" lon="2.3884">
        <ele>181.35</ele>
        <time>2013-06-23T05:51:29Z</time>
      </trkpt>
      <trkpt lat="43.17009" lon="2.38809">
        <ele>180.87</ele>
        <time>2013-06-23T05:51:46Z</time>
      </trkpt>
      <trkpt lat="43.17014" lon="2.3878">
        <ele>178.46</ele>
        <time>2013-06-23T05:52:02Z</time>
      </trkpt>
      <trkpt lat="43.17013" lon="2.38755">
        <ele>177.5</ele>
        <time>2013-06-23T05:52:17Z</time>
      </trkpt>
      <trkpt lat="43.17005" lon="2.38743">
        <ele>177.02</ele>
        <time>2013-06-23T05:52:32Z</time>
      </trkpt>
      <trkpt lat="43.17001" lon="2.3874">
        <ele>175.58</ele>
        <time>2013-06-23T05:52:42Z</time>
      </trkpt>
      <trkpt lat="43.17" lon="2.38742">
        <ele>176.54</ele>
        <time>2013-06-23T05:52:56Z</time>
      </trkpt>
      <trkpt lat="43.17002" lon="2.38742">
        <ele>179.42</ele>
        <time>2013-06-23T05:53:17Z</time>
      </trkpt>
      <trkpt lat="43.17003" lon="2.3874">
        <ele>180.38</ele>
        <time>2013-06-23T05:53:36Z</time>
      </trkpt>
      <trkpt lat="43.17002" lon="2.3874">
        <ele>181.83</ele>
        <time>2013-06-23T05:53:56Z</time>
      </trkpt>
      <trkpt lat="43.17" lon="2.38741">
        <ele>180.38</ele>
        <time>2013-06-23T05:54:15Z</time>
      </trkpt>
      <trkpt lat="43.17001" lon="2.38742">
        <ele>180.87</ele>
        <time>2013-06-23T05:54:43Z</time>
      </trkpt>
      <trkpt lat="43.17" lon="2.38743">
        <ele>180.87</ele>
        <time>2013-06-23T05:55:08Z</time>
      </trkpt>
      <trkpt lat="43.17002" lon="2.38742">
        <ele>178.94</ele>
        <time>2013-06-23T05:55:28Z</time>
      </trkpt>
      <trkpt lat="43.17001" lon="2.38739">
        <ele>182.79</ele>
        <time>2013-06-23T05:55:44Z</time>
      </trkpt>
      <trkpt lat="43.17001" lon="2.3874">
        <ele>184.71</ele>
        <time>2013-06-23T05:56:08Z</time>
      </trkpt>
      <trkpt lat="43.17001" lon="2.38742">
        <ele>183.75</ele>
        <time>2013-06-23T05:56:33Z</time>
      </trkpt>
      <trkpt lat="43.17" lon="2.38741">
        <ele>183.27</ele>
        <time>2013-06-23T05:56:51Z</time>
      </trkpt>
      <trkpt lat="43.17" lon="2.38738">
        <ele>186.15</ele>
        <time>2013-06-23T05:57:13Z</time>
      </trkpt>
      <trkpt lat="43.17001" lon="2.38738">
        <ele>182.79</ele>
        <time>2013-06-23T05:57:34Z</time>
      </trkpt>
      <trkpt lat="43.16999" lon="2.38737">
        <ele>181.83</ele>
        <time>2013-06-23T05:57:55Z</time>
      </trkpt>
      <trkpt lat="43.16999" lon="2.38738">
        <ele>180.87</ele>
        <time>2013-06-23T05:58:11Z</time>
      </trkpt>
      <trkpt lat="43.16999" lon="2.38737">
        <ele>181.83</ele>
        <time>2013-06-23T05:58:30Z</time>
      </trkpt>
      <trkpt lat="43.17" lon="2.38738">
        <ele>179.9</ele>
        <time>2013-06-23T05:58:48Z</time>
      </trkpt>
      <trkpt lat="43.16998" lon="2.38739">
        <ele>177.5</ele>
        <time>2013-06-23T05:59:12Z</time>
      </trkpt>
      <trkpt lat="43.16998" lon="2.3874">
        <ele>172.69</ele>
        <time>2013-06-23T05:59:36Z</time>
      </trkpt>
      <trkpt lat="43.16996" lon="2.38741">
        <ele>169.81</ele>
        <time>2013-06-23T05:59:59Z</time>
      </trkpt>
      <trkpt lat="43.16997" lon="2.3874">
        <ele>167.41</ele>
        <time>2013-06-23T06:00:24Z</time>
      </trkpt>
      <trkpt lat="43.16998" lon="2.38743">
        <ele>165.96</ele>
        <time>2013-06-23T06:00:45Z</time>
      </trkpt>
      <trkpt lat="43.16997" lon="2.38743">
        <ele>169.33</ele>
        <time>2013-06-23T06:01:15Z</time>
      </trkpt>
      <trkpt lat="43.16997" lon="2.38741">
        <ele>170.77</ele>
        <time>2013-06-23T06:01:39Z</time>
      </trkpt>
      <trkpt lat="43.16997" lon="2.38741">
        <ele>172.21</ele>
        <time>2013-06-23T06:02:02Z</time>
      </trkpt>
      <trkpt lat="43.16996" lon="2.38741">
        <ele>172.69</ele>
        <time>2013-06-23T06:02:26Z</time>
      </trkpt>
      <trkpt lat="43.16996" lon="2.38741">
        <ele>171.73</ele>
        <time>2013-06-23T06:02:48Z</time>
      </trkpt>
      <trkpt lat="43.16995" lon="2.38743">
        <ele>172.69</ele>
        <time>2013-06-23T06:03:09Z</time>
      </trkpt>
      <trkpt lat="43.16994" lon="2.38743">
        <ele>168.85</ele>
        <time>2013-06-23T06:03:30Z</time>
      </trkpt>
      <trkpt lat="43.16997" lon="2.38745">
        <ele>164.52</ele>
        <time>2013-06-23T06:03:55Z</time>
      </trkpt>
      <trkpt lat="43.16998" lon="2.38743">
        <ele>168.37</ele>
        <time>2013-06-23T06:04:20Z</time>
      </trkpt>
      <trkpt lat="43.16998" lon="2.38745">
        <ele>166.45</ele>
        <time>2013-06-23T06:04:48Z</time>
      </trkpt>
      <trkpt lat="43.16998" lon="2.38743">
        <ele>167.89</ele>
        <time>2013-06-23T06:05:01Z</time>
      </trkpt>
      <trkpt lat="43.16998" lon="2.38739">
        <ele>168.85</ele>
        <time>2013-06-23T06:05:03Z</time>
      </trkpt>
      <trkpt lat="43.16998" lon="2.38727">
        <ele>172.21</ele>
        <time>2013-06-23T06:05:16Z</time>
      </trkpt>
      <trkpt lat="43.16997" lon="2.38726">
        <ele>173.66</ele>
        <time>2013-06-23T06:05:42Z</time>
      </trkpt>
      <trkpt lat="43.16999" lon="2.38726">
        <ele>176.06</ele>
        <time>2013-06-23T06:06:11Z</time>
      </trkpt>
      <trkpt lat="43.16998" lon="2.38726">
        <ele>173.66</ele>
        <time>2013-06-23T06:06:34Z</time>
      </trkpt>
      <trkpt lat="43.16998" lon="2.38728">
        <ele>173.17</ele>
        <time>2013-06-23T06:06:59Z</time>
      </trkpt>
      <trkpt lat="43.16997" lon="2.38727">
        <ele>173.66</ele>
        <time>2013-06-23T06:07:23Z</time>
      </trkpt>
      <trkpt lat="43.16997" lon="2.38727">
        <ele>173.66</ele>
        <time>2013-06-23T06:07:47Z</time>
      </trkpt>
      <trkpt lat="43.16997" lon="2.3873">
        <ele>175.1</ele>
        <time>2013-06-23T06:07:57Z</time>
      </trkpt>
      <trkpt lat="43.17006" lon="2.38743">
        <ele>174.14</ele>
        <time>2013-06-23T06:08:10Z</time>
      </trkpt>
      <trkpt lat="43.17007" lon="2.38744">
        <ele>174.14</ele>
        <time>2013-06-23T06:08:11Z</time>
      </trkpt>
      <trkpt lat="43.17015" lon="2.38753">
        <ele>176.54</ele>
        <time>2013-06-23T06:08:23Z</time>
      </trkpt>
      <trkpt lat="43.17014" lon="2.38779">
        <ele>180.38</ele>
        <time>2013-06-23T06:08:39Z</time>
      </trkpt>
      <trkpt lat="43.17014" lon="2.38786">
        <ele>181.35</ele>
        <time>2013-06-23T06:08:43Z</time>
      </trkpt>
      <trkpt lat="43.17007" lon="2.3881">
        <ele>182.31</ele>
        <time>2013-06-23T06:08:57Z</time>
      </trkpt>
      <trkpt lat="43.17002" lon="2.38838">
        <ele>184.23</ele>
        <time>2013-06-23T06:09:12Z</time>
      </trkpt>
      <trkpt lat="43.16998" lon="2.38854">
        <ele>185.67</ele>
        <time>2013-06-23T06:09:20Z</time>
      </trkpt>
      <trkpt lat="43.16997" lon="2.38856">
        <ele>185.67</ele>
        <time>2013-06-23T06:09:21Z</time>
      </trkpt>
      <trkpt lat="43.16996" lon="2.38875">
        <ele>185.19</ele>
        <time>2013-06-23T06:09:32Z</time>
      </trkpt>
      <trkpt lat="43.16997" lon="2.38876">
        <ele>185.19</ele>
        <time>2013-06-23T06:09:33Z</time>
      </trkpt>
      <trkpt lat="43.16998" lon="2.38877">
        <ele>184.71</ele>
        <time>2013-06-23T06:09:34Z</time>
      </trkpt>
      <trkpt lat="43.16999" lon="2.38878">
        <ele>184.71</ele>
        <time>2013-06-23T06:09:35Z</time>
      </trkpt>
      <trkpt lat="43.17" lon="2.38879">
        <ele>184.71</ele>
        <time>2013-06-23T06:09:36Z</time>
      </trkpt>
      <trkpt lat="43.17015" lon="2.38882">
        <ele>184.23</ele>
        <time>2013-06-23T06:09:51Z</time>
      </trkpt>
      <trkpt lat="43.17016" lon="2.38882">
        <ele>183.75</ele>
        <time>2013-06-23T06:09:52Z</time>
      </trkpt>
      <trkpt lat="43.17018" lon="2.38883">
        <ele>183.75</ele>
        <time>2013-06-23T06:09:53Z</time>
      </trkpt>
      <trkpt lat="43.17019" lon="2.38884">
        <ele>183.27</ele>
        <time>2013-06-23T06:09:54Z</time>
      </trkpt>
      <trkpt lat="43.17021" lon="2.38885">
        <ele>183.27</ele>
        <time>2013-06-23T06:09:55Z</time>
      </trkpt>
      <trkpt lat="43.17022" lon="2.38886">
        <ele>182.79</ele>
        <time>2013-06-23T06:09:56Z</time>
      </trkpt>
      <trkpt lat="43.17023" lon="2.38887">
        <ele>182.79</ele>
        <time>2013-06-23T06:09:57Z</time>
      </trkpt>
      <trkpt lat="43.17024" lon="2.38889">
        <ele>182.79</ele>
        <time>2013-06-23T06:09:58Z</time>
      </trkpt>
      <trkpt lat="43.17025" lon="2.38892">
        <ele>182.79</ele>
        <time>2013-06-23T06:09:59Z</time>
      </trkpt>
      <trkpt lat="43.17025" lon="2.38894">
        <ele>182.79</ele>
        <time>2013-06-23T06:10:00Z</time>
      </trkpt>
      <trkpt lat="43.17025" lon="2.38896">
        <ele>182.79</ele>
        <time>2013-06-23T06:10:01Z</time>
      </trkpt>
      <trkpt lat="43.17025" lon="2.38898">
        <ele>182.79</ele>
        <time>2013-06-23T06:10:02Z</time>
      </trkpt>
      <trkpt lat="43.17025" lon="2.389">
        <ele>182.79</ele>
        <time>2013-06-23T06:10:03Z</time>
      </trkpt>
      <trkpt lat="43.17025" lon="2.38902">
        <ele>182.79</ele>
        <time>2013-06-23T06:10:04Z</time>
      </trkpt>
      <trkpt lat="43.17025" lon="2.38904">
        <ele>182.79</ele>
        <time>2013-06-23T06:10:05Z</time>
      </trkpt>
      <trkpt lat="43.17025" lon="2.38913">
        <ele>182.79</ele>
        <time>2013-06-23T06:10:09Z</time>
      </trkpt>
      <trkpt lat="43.17025" lon="2.38915">
        <ele>182.79</ele>
        <time>2013-06-23T06:10:10Z</time>
      </trkpt>
      <trkpt lat="43.17025" lon="2.38917">
        <ele>182.79</ele>
        <time>2013-06-23T06:10:11Z</time>
      </trkpt>
      <trkpt lat="43.17025" lon="2.38918">
        <ele>182.79</ele>
        <time>2013-06-23T06:10:12Z</time>
      </trkpt>
      <trkpt lat="43.17026" lon="2.3892">
        <ele>182.79</ele>
        <time>2013-06-23T06:10:13Z</time>
      </trkpt>
      <trkpt lat="43.17026" lon="2.38922">
        <ele>182.79</ele>
        <time>2013-06-23T06:10:14Z</time>
      </trkpt>
      <trkpt lat="43.17026" lon="2.38924">
        <ele>182.31</ele>
        <time>2013-06-23T06:10:15Z</time>
      </trkpt>
      <trkpt lat="43.17027" lon="2.38927">
        <ele>182.31</ele>
        <time>2013-06-23T06:10:16Z</time>
      </trkpt>
      <trkpt lat="43.17037" lon="2.38955">
        <ele>180.87</ele>
        <time>2013-06-23T06:10:31Z</time>
      </trkpt>
      <trkpt lat="43.17051" lon="2.38983">
        <ele>178.94</ele>
        <time>2013-06-23T06:10:48Z</time>
      </trkpt>
      <trkpt lat="43.17059" lon="2.39">
        <ele>177.98</ele>
        <time>2013-06-23T06:10:59Z</time>
      </trkpt>
      <trkpt lat="43.1706" lon="2.39001">
        <ele>177.98</ele>
        <time>2013-06-23T06:11:00Z</time>
      </trkpt>
      <trkpt lat="43.17061" lon="2.39003">
        <ele>177.98</ele>
        <time>2013-06-23T06:11:01Z</time>
      </trkpt>
      <trkpt lat="43.17062" lon="2.39004">
        <ele>177.98</ele>
        <time>2013-06-23T06:11:02Z</time>
      </trkpt>
      <trkpt lat="43.17062" lon="2.39006">
        <ele>177.98</ele>
        <time>2013-06-23T06:11:03Z</time>
      </trkpt>
      <trkpt lat="43.17063" lon="2.39007">
        <ele>177.98</ele>
        <time>2013-06-23T06:11:04Z</time>
      </trkpt>
      <trkpt lat="43.17068" lon="2.39022">
        <ele>178.94</ele>
        <time>2013-06-23T06:11:18Z</time>
      </trkpt>
      <trkpt lat="43.17068" lon="2.39023">
        <ele>178.46</ele>
        <time>2013-06-23T06:11:23Z</time>
      </trkpt>
      <trkpt lat="43.17069" lon="2.39024">
        <ele>177.98</ele>
        <time>2013-06-23T06:11:24Z</time>
      </trkpt>
      <trkpt lat="43.1707" lon="2.39025">
        <ele>177.98</ele>
        <time>2013-06-23T06:11:25Z</time>
      </trkpt>
      <trkpt lat="43.17071" lon="2.39027">
        <ele>177.98</ele>
        <time>2013-06-23T06:11:26Z</time>
      </trkpt>
      <trkpt lat="43.1707" lon="2.39029">
        <ele>177.98</ele>
        <time>2013-06-23T06:11:27Z</time>
      </trkpt>
      <trkpt lat="43.17067" lon="2.39033">
        <ele>178.46</ele>
        <time>2013-06-23T06:11:39Z</time>
      </trkpt>
      <trkpt lat="43.17066" lon="2.39032">
        <ele>178.46</ele>
        <time>2013-06-23T06:12:03Z</time>
      </trkpt>
      <trkpt lat="43.17067" lon="2.39034">
        <ele>180.87</ele>
        <time>2013-06-23T06:12:29Z</time>
      </trkpt>
      <trkpt lat="43.17068" lon="2.39034">
        <ele>178.46</ele>
        <time>2013-06-23T06:12:52Z</time>
      </trkpt>
      <trkpt lat="43.17068" lon="2.39032">
        <ele>176.54</ele>
        <time>2013-06-23T06:13:21Z</time>
      </trkpt>
      <trkpt lat="43.17068" lon="2.39034">
        <ele>176.06</ele>
        <time>2013-06-23T06:13:51Z</time>
      </trkpt>
      <trkpt lat="43.17068" lon="2.39033">
        <ele>177.5</ele>
        <time>2013-06-23T06:14:19Z</time>
      </trkpt>
      <trkpt lat="43.17068" lon="2.39033">
        <ele>177.5</ele>
        <time>2013-06-23T06:14:50Z</time>
      </trkpt>
      <trkpt lat="43.17067" lon="2.39031">
        <ele>178.46</ele>
        <time>2013-06-23T06:15:13Z</time>
      </trkpt>
      <trkpt lat="43.17068" lon="2.39032">
        <ele>175.1</ele>
        <time>2013-06-23T06:15:39Z</time>
      </trkpt>
      <trkpt lat="43.17067" lon="2.39033">
        <ele>175.58</ele>
        <time>2013-06-23T06:16:00Z</time>
      </trkpt>
      <trkpt lat="43.17069" lon="2.39034">
        <ele>173.66</ele>
        <time>2013-06-23T06:16:26Z</time>
      </trkpt>
      <trkpt lat="43.17067" lon="2.39034">
        <ele>172.21</ele>
        <time>2013-06-23T06:16:57Z</time>
      </trkpt>
      <trkpt lat="43.17069" lon="2.39034">
        <ele>173.17</ele>
        <time>2013-06-23T06:17:28Z</time>
      </trkpt>
      <trkpt lat="43.17069" lon="2.39033">
        <ele>173.17</ele>
        <time>2013-06-23T06:17:56Z</time>
      </trkpt>
      <trkpt lat="43.17069" lon="2.39032">
        <ele>172.69</ele>
        <time>2013-06-23T06:18:09Z</time>
      </trkpt>
      <trkpt lat="43.17068" lon="2.39033">
        <ele>172.69</ele>
        <time>2013-06-23T06:18:26Z</time>
      </trkpt>
      <trkpt lat="43.17069" lon="2.39032">
        <ele>174.62</ele>
        <time>2013-06-23T06:18:48Z</time>
      </trkpt>
      <trkpt lat="43.17069" lon="2.39033">
        <ele>175.1</ele>
        <time>2013-06-23T06:19:09Z</time>
      </trkpt>
      <trkpt lat="43.17067" lon="2.39034">
        <ele>178.94</ele>
        <time>2013-06-23T06:19:34Z</time>
      </trkpt>
      <trkpt lat="43.17068" lon="2.39034">
        <ele>176.54</ele>
        <time>2013-06-23T06:20:02Z</time>
      </trkpt>
      <trkpt lat="43.17069" lon="2.39032">
        <ele>178.46</ele>
        <time>2013-06-23T06:20:34Z</time>
      </trkpt>
      <trkpt lat="43.17068" lon="2.39031">
        <ele>177.98</ele>
        <time>2013-06-23T06:20:50Z</time>
      </trkpt>
      <trkpt lat="43.17068" lon="2.39033">
        <ele>177.98</ele>
        <time>2013-06-23T06:21:11Z</time>
      </trkpt>
      <trkpt lat="43.1707" lon="2.39034">
        <ele>177.02</ele>
        <time>2013-06-23T06:21:19Z</time>
      </trkpt>
      <trkpt lat="43.1707" lon="2.39036">
        <ele>176.54</ele>
        <time>2013-06-23T06:21:20Z</time>
      </trkpt>
      <trkpt lat="43.17069" lon="2.3906">
        <ele>176.06</ele>
        <time>2013-06-23T06:21:29Z</time>
      </trkpt>
      <trkpt lat="43.17069" lon="2.39072">
        <ele>176.54</ele>
        <time>2013-06-23T06:21:33Z</time>
      </trkpt>
      <trkpt lat="43.17068" lon="2.39078">
        <ele>176.54</ele>
        <time>2013-06-23T06:21:35Z</time>
      </trkpt>
      <trkpt lat="43.17073" lon="2.39075">
        <ele>176.54</ele>
        <time>2013-06-23T06:21:39Z</time>
      </trkpt>
      <trkpt lat="43.17071" lon="2.39034">
        <ele>177.5</ele>
        <time>2013-06-23T06:21:51Z</time>
      </trkpt>
      <trkpt lat="43.17071" lon="2.39031">
        <ele>177.5</ele>
        <time>2013-06-23T06:22:03Z</time>
      </trkpt>
      <trkpt lat="43.17071" lon="2.3903">
        <ele>177.02</ele>
        <time>2013-06-23T06:22:10Z</time>
      </trkpt>
      <trkpt lat="43.17072" lon="2.39032">
        <ele>177.02</ele>
        <time>2013-06-23T06:22:11Z</time>
      </trkpt>
      <trkpt lat="43.1707" lon="2.39049">
        <ele>177.02</ele>
        <time>2013-06-23T06:22:17Z</time>
      </trkpt>
      <trkpt lat="43.17072" lon="2.39037">
        <ele>176.06</ele>
        <time>2013-06-23T06:22:24Z</time>
      </trkpt>
      <trkpt lat="43.17072" lon="2.39032">
        <ele>176.54</ele>
        <time>2013-06-23T06:22:26Z</time>
      </trkpt>
      <trkpt lat="43.1707" lon="2.39033">
        <ele>177.02</ele>
        <time>2013-06-23T06:22:38Z</time>
      </trkpt>
      <trkpt lat="43.1707" lon="2.39034">
        <ele>177.02</ele>
        <time>2013-06-23T06:23:02Z</time>
      </trkpt>
      <trkpt lat="43.1707" lon="2.39034">
        <ele>177.02</ele>
        <time>2013-06-23T06:23:28Z</time>
      </trkpt>
      <trkpt lat="43.17071" lon="2.39033">
        <ele>177.98</ele>
        <time>2013-06-23T06:23:49Z</time>
      </trkpt>
      <trkpt lat="43.17071" lon="2.39033">
        <ele>177.5</ele>
        <time>2013-06-23T06:24:07Z</time>
      </trkpt>
      <trkpt lat="43.1707" lon="2.39036">
        <ele>179.9</ele>
        <time>2013-06-23T06:24:35Z</time>
      </trkpt>
      <trkpt lat="43.17069" lon="2.39034">
        <ele>178.94</ele>
        <time>2013-06-23T06:24:58Z</time>
      </trkpt>
      <trkpt lat="43.17068" lon="2.39032">
        <ele>178.46</ele>
        <time>2013-06-23T06:25:11Z</time>
      </trkpt>
      <trkpt lat="43.17068" lon="2.39032">
        <ele>177.02</ele>
        <time>2013-06-23T06:25:34Z</time>
      </trkpt>
      <trkpt lat="43.1707" lon="2.39033">
        <ele>176.54</ele>
        <time>2013-06-23T06:25:53Z</time>
      </trkpt>
      <trkpt lat="43.17069" lon="2.3903">
        <ele>175.58</ele>
        <time>2013-06-23T06:26:18Z</time>
      </trkpt>
      <trkpt lat="43.17071" lon="2.39035">
        <ele>175.1</ele>
        <time>2013-06-23T06:26:34Z</time>
      </trkpt>
      <trkpt lat="43.1707" lon="2.39058">
        <ele>175.1</ele>
        <time>2013-06-23T06:26:46Z</time>
      </trkpt>
      <trkpt lat="43.1707" lon="2.39075">
        <ele>175.1</ele>
        <time>2013-06-23T06:26:50Z</time>
      </trkpt>
      <trkpt lat="43.17061" lon="2.39083">
        <ele>176.06</ele>
        <time>2013-06-23T06:26:54Z</time>
      </trkpt>
      <trkpt lat="43.17041" lon="2.39078">
        <ele>179.42</ele>
        <time>2013-06-23T06:27:06Z</time>
      </trkpt>
      <trkpt lat="43.1704" lon="2.3908">
        <ele>179.9</ele>
        <time>2013-06-23T06:27:22Z</time>
      </trkpt>
      <trkpt lat="43.17042" lon="2.39078">
        <ele>179.42</ele>
        <time>2013-06-23T06:27:41Z</time>
      </trkpt>
      <trkpt lat="43.17045" lon="2.39081">
        <ele>178.46</ele>
        <time>2013-06-23T06:27:56Z</time>
      </trkpt>
      <trkpt lat="43.17069" lon="2.39085">
        <ele>177.02</ele>
        <time>2013-06-23T06:28:06Z</time>
      </trkpt>
      <trkpt lat="43.17085" lon="2.39086">
        <ele>176.06</ele>
        <time>2013-06-23T06:28:14Z</time>
      </trkpt>
      <trkpt lat="43.17086" lon="2.39084">
        <ele>177.02</ele>
        <time>2013-06-23T06:28:31Z</time>
      </trkpt>
      <trkpt lat="43.17084" lon="2.39085">
        <ele>176.54</ele>
        <time>2013-06-23T06:28:47Z</time>
      </trkpt>
      <trkpt lat="43.17086" lon="2.39084">
        <ele>176.06</ele>
        <time>2013-06-23T06:29:24Z</time>
      </trkpt>
      <trkpt lat="43.17085" lon="2.39084">
        <ele>176.06</ele>
        <time>2013-06-23T06:29:44Z</time>
      </trkpt>
      <trkpt lat="43.17086" lon="2.39084">
        <ele>177.02</ele>
        <time>2013-06-23T06:30:07Z</time>
      </trkpt>
      <trkpt lat="43.17087" lon="2.39085">
        <ele>175.58</ele>
        <time>2013-06-23T06:30:41Z</time>
      </trkpt>
      <trkpt lat="43.17085" lon="2.39085">
        <ele>176.06</ele>
        <time>2013-06-23T06:31:07Z</time>
      </trkpt>
      <trkpt lat="43.17084" lon="2.39085">
        <ele>176.54</ele>
        <time>2013-06-23T06:31:31Z</time>
      </trkpt>
      <trkpt lat="43.17084" lon="2.39085">
        <ele>179.42</ele>
        <time>2013-06-23T06:32:02Z</time>
      </trkpt>
      <trkpt lat="43.17083" lon="2.39084">
        <ele>180.87</ele>
        <time>2013-06-23T06:32:19Z</time>
      </trkpt>
      <trkpt lat="43.17083" lon="2.39086">
        <ele>177.98</ele>
        <time>2013-06-23T06:32:48Z</time>
      </trkpt>
      <trkpt lat="43.17084" lon="2.39087">
        <ele>178.94</ele>
        <time>2013-06-23T06:33:20Z</time>
      </trkpt>
      <trkpt lat="43.17083" lon="2.39085">
        <ele>177.98</ele>
        <time>2013-06-23T06:33:33Z</time>
      </trkpt>
      <trkpt lat="43.17082" lon="2.39088">
        <ele>177.5</ele>
        <time>2013-06-23T06:33:56Z</time>
      </trkpt>
      <trkpt lat="43.17083" lon="2.39085">
        <ele>178.46</ele>
        <time>2013-06-23T06:34:16Z</time>
      </trkpt>
      <trkpt lat="43.17083" lon="2.39086">
        <ele>178.46</ele>
        <time>2013-06-23T06:34:38Z</time>
      </trkpt>
      <trkpt lat="43.17082" lon="2.39083">
        <ele>176.06</ele>
        <time>2013-06-23T06:34:56Z</time>
      </trkpt>
      <trkpt lat="43.17083" lon="2.39086">
        <ele>175.58</ele>
        <time>2013-06-23T06:35:12Z</time>
      </trkpt>
      <trkpt lat="43.17084" lon="2.39087">
        <ele>175.1</ele>
        <time>2013-06-23T06:35:45Z</time>
      </trkpt>
      <trkpt lat="43.17082" lon="2.39086">
        <ele>175.1</ele>
        <time>2013-06-23T06:35:59Z</time>
      </trkpt>
      <trkpt lat="43.17081" lon="2.39086">
        <ele>177.5</ele>
        <time>2013-06-23T06:36:24Z</time>
      </trkpt>
      <trkpt lat="43.1708" lon="2.39087">
        <ele>177.5</ele>
        <time>2013-06-23T06:36:44Z</time>
      </trkpt>
      <trkpt lat="43.17082" lon="2.39087">
        <ele>176.54</ele>
        <time>2013-06-23T06:37:14Z</time>
      </trkpt>
      <trkpt lat="43.17081" lon="2.39085">
        <ele>177.98</ele>
        <time>2013-06-23T06:37:41Z</time>
      </trkpt>
      <trkpt lat="43.17079" lon="2.39083">
        <ele>178.46</ele>
        <time>2013-06-23T06:38:14Z</time>
      </trkpt>
      <trkpt lat="43.17078" lon="2.39083">
        <ele>177.98</ele>
        <time>2013-06-23T06:38:15Z</time>
      </trkpt>
      <trkpt lat="43.17074" lon="2.39083">
        <ele>176.54</ele>
        <time>2013-06-23T06:38:26Z</time>
      </trkpt>
      <trkpt lat="43.17073" lon="2.39082">
        <ele>177.02</ele>
        <time>2013-06-23T06:38:42Z</time>
      </trkpt>
      <trkpt lat="43.1707" lon="2.39078">
        <ele>177.02</ele>
        <time>2013-06-23T06:38:53Z</time>
      </trkpt>
      <trkpt lat="43.1707" lon="2.39075">
        <ele>177.02</ele>
        <time>2013-06-23T06:38:55Z</time>
      </trkpt>
      <trkpt lat="43.17073" lon="2.39064">
        <ele>176.54</ele>
        <time>2013-06-23T06:39:02Z</time>
      </trkpt>
      <trkpt lat="43.17072" lon="2.39053">
        <ele>176.54</ele>
        <time>2013-06-23T06:39:08Z</time>
      </trkpt>
      <trkpt lat="43.17072" lon="2.39034">
        <ele>176.54</ele>
        <time>2013-06-23T06:39:19Z</time>
      </trkpt>
      <trkpt lat="43.17071" lon="2.39021">
        <ele>177.5</ele>
        <time>2013-06-23T06:39:26Z</time>
      </trkpt>
      <trkpt lat="43.17067" lon="2.39014">
        <ele>177.5</ele>
        <time>2013-06-23T06:39:30Z</time>
      </trkpt>
      <trkpt lat="43.17066" lon="2.39012">
        <ele>177.5</ele>
        <time>2013-06-23T06:39:31Z</time>
      </trkpt>
      <trkpt lat="43.17065" lon="2.3901">
        <ele>177.5</ele>
        <time>2013-06-23T06:39:32Z</time>
      </trkpt>
      <trkpt lat="43.17049" lon="2.38977">
        <ele>178.94</ele>
        <time>2013-06-23T06:39:46Z</time>
      </trkpt>
      <trkpt lat="43.17036" lon="2.38954">
        <ele>179.42</ele>
        <time>2013-06-23T06:39:57Z</time>
      </trkpt>
      <trkpt lat="43.17027" lon="2.38925">
        <ele>181.35</ele>
        <time>2013-06-23T06:40:09Z</time>
      </trkpt>
      <trkpt lat="43.17025" lon="2.3889">
        <ele>180.38</ele>
        <time>2013-06-23T06:40:21Z</time>
      </trkpt>
      <trkpt lat="43.17024" lon="2.38889">
        <ele>180.38</ele>
        <time>2013-06-23T06:40:22Z</time>
      </trkpt>
      <trkpt lat="43.17023" lon="2.38887">
        <ele>180.38</ele>
        <time>2013-06-23T06:40:23Z</time>
      </trkpt>
      <trkpt lat="43.17022" lon="2.38886">
        <ele>180.38</ele>
        <time>2013-06-23T06:40:24Z</time>
      </trkpt>
      <trkpt lat="43.17019" lon="2.38884">
        <ele>181.35</ele>
        <time>2013-06-23T06:40:27Z</time>
      </trkpt>
      <trkpt lat="43.17018" lon="2.38884">
        <ele>181.35</ele>
        <time>2013-06-23T06:40:28Z</time>
      </trkpt>
      <trkpt lat="43.17007" lon="2.38881">
        <ele>181.35</ele>
        <time>2013-06-23T06:40:39Z</time>
      </trkpt>
      <trkpt lat="43.17006" lon="2.38879">
        <ele>181.35</ele>
        <time>2013-06-23T06:40:40Z</time>
      </trkpt>
      <trkpt lat="43.17004" lon="2.38878">
        <ele>181.35</ele>
        <time>2013-06-23T06:40:41Z</time>
      </trkpt>
      <trkpt lat="43.17003" lon="2.38877">
        <ele>181.35</ele>
        <time>2013-06-23T06:40:42Z</time>
      </trkpt>
      <trkpt lat="43.17001" lon="2.38875">
        <ele>181.35</ele>
        <time>2013-06-23T06:40:43Z</time>
      </trkpt>
      <trkpt lat="43.17" lon="2.38872">
        <ele>181.35</ele>
        <time>2013-06-23T06:40:44Z</time>
      </trkpt>
      <trkpt lat="43.16998" lon="2.3887">
        <ele>181.35</ele>
        <time>2013-06-23T06:40:45Z</time>
      </trkpt>
      <trkpt lat="43.16997" lon="2.38866">
        <ele>181.35</ele>
        <time>2013-06-23T06:40:46Z</time>
      </trkpt>
      <trkpt lat="43.16997" lon="2.38861">
        <ele>181.35</ele>
        <time>2013-06-23T06:40:47Z</time>
      </trkpt>
      <trkpt lat="43.16997" lon="2.38857">
        <ele>181.35</ele>
        <time>2013-06-23T06:40:48Z</time>
      </trkpt>
      <trkpt lat="43.16998" lon="2.38853">
        <ele>180.87</ele>
        <time>2013-06-23T06:40:49Z</time>
      </trkpt>
      <trkpt lat="43.1701" lon="2.38793">
        <ele>177.98</ele>
        <time>2013-06-23T06:41:03Z</time>
      </trkpt>
      <trkpt lat="43.1703" lon="2.38759">
        <ele>177.02</ele>
        <time>2013-06-23T06:41:13Z</time>
      </trkpt>
      <trkpt lat="43.17051" lon="2.38731">
        <ele>175.1</ele>
        <time>2013-06-23T06:41:25Z</time>
      </trkpt>
      <trkpt lat="43.17052" lon="2.38728">
        <ele>175.1</ele>
        <time>2013-06-23T06:41:26Z</time>
      </trkpt>
      <trkpt lat="43.17053" lon="2.38726">
        <ele>175.1</ele>
        <time>2013-06-23T06:41:27Z</time>
      </trkpt>
      <trkpt lat="43.17053" lon="2.38723">
        <ele>175.1</ele>
        <time>2013-06-23T06:41:28Z</time>
      </trkpt>
      <trkpt lat="43.17053" lon="2.38719">
        <ele>175.1</ele>
        <time>2013-06-23T06:41:29Z</time>
      </trkpt>
      <trkpt lat="43.17052" lon="2.38716">
        <ele>174.62</ele>
        <time>2013-06-23T06:41:30Z</time>
      </trkpt>
      <trkpt lat="43.1705" lon="2.38712">
        <ele>174.62</ele>
        <time>2013-06-23T06:41:31Z</time>
      </trkpt>
      <trkpt lat="43.17047" lon="2.38708">
        <ele>174.14</ele>
        <time>2013-06-23T06:41:32Z</time>
      </trkpt>
      <trkpt lat="43.17044" lon="2.38704">
        <ele>174.14</ele>
        <time>2013-06-23T06:41:33Z</time>
      </trkpt>
      <trkpt lat="43.17042" lon="2.38701">
        <ele>174.14</ele>
        <time>2013-06-23T06:41:34Z</time>
      </trkpt>
      <trkpt lat="43.17015" lon="2.38703">
        <ele>174.62</ele>
        <time>2013-06-23T06:41:44Z</time>
      </trkpt>
      <trkpt lat="43.17" lon="2.38716">
        <ele>175.58</ele>
        <time>2013-06-23T06:41:57Z</time>
      </trkpt>
      <trkpt lat="43.17001" lon="2.38717">
        <ele>175.58</ele>
        <time>2013-06-23T06:42:16Z</time>
      </trkpt>
      <trkpt lat="43.17003" lon="2.38716">
        <ele>175.1</ele>
        <time>2013-06-23T06:42:49Z</time>
      </trkpt>
      <trkpt lat="43.17001" lon="2.38716">
        <ele>173.66</ele>
        <time>2013-06-23T06:43:08Z</time>
      </trkpt>
      <trkpt lat="43.17001" lon="2.38717">
        <ele>173.66</ele>
        <time>2013-06-23T06:43:35Z</time>
      </trkpt>
      <trkpt lat="43.17" lon="2.38717">
        <ele>173.66</ele>
        <time>2013-06-23T06:44:07Z</time>
      </trkpt>
      <trkpt lat="43.16999" lon="2.38715">
        <ele>171.73</ele>
        <time>2013-06-23T06:44:37Z</time>
      </trkpt>
      <trkpt lat="43.17" lon="2.38715">
        <ele>172.69</ele>
        <time>2013-06-23T06:44:58Z</time>
      </trkpt>
      <trkpt lat="43.17001" lon="2.38715">
        <ele>173.17</ele>
        <time>2013-06-23T06:45:27Z</time>
      </trkpt>
      <trkpt lat="43.16997" lon="2.38714">
        <ele>175.58</ele>
        <time>2013-06-23T06:45:38Z</time>
      </trkpt>
      <trkpt lat="43.16995" lon="2.38716">
        <ele>175.58</ele>
        <time>2013-06-23T06:45:53Z</time>
      </trkpt>
      <trkpt lat="43.16994" lon="2.38716">
        <ele>175.1</ele>
        <time>2013-06-23T06:45:54Z</time>
      </trkpt>
      <trkpt lat="43.16993" lon="2.38716">
        <ele>175.58</ele>
        <time>2013-06-23T06:45:55Z</time>
      </trkpt>
      <trkpt lat="43.16968" lon="2.38717">
        <ele>176.54</ele>
        <time>2013-06-23T06:46:09Z</time>
      </trkpt>
      <trkpt lat="43.16951" lon="2.38715">
        <ele>177.98</ele>
        <time>2013-06-23T06:46:18Z</time>
      </trkpt>
      <trkpt lat="43.16941" lon="2.38692">
        <ele>177.98</ele>
        <time>2013-06-23T06:46:28Z</time>
      </trkpt>
      <trkpt lat="43.16913" lon="2.38694">
        <ele>176.54</ele>
        <time>2013-06-23T06:46:40Z</time>
      </trkpt>
      <trkpt lat="43.16907" lon="2.38699">
        <ele>176.54</ele>
        <time>2013-06-23T06:46:43Z</time>
      </trkpt>
      <trkpt lat="43.16904" lon="2.38735">
        <ele>177.98</ele>
        <time>2013-06-23T06:46:54Z</time>
      </trkpt>
      <trkpt lat="43.16905" lon="2.38744">
        <ele>178.94</ele>
        <time>2013-06-23T06:46:57Z</time>
      </trkpt>
      <trkpt lat="43.16904" lon="2.38759">
        <ele>179.42</ele>
        <time>2013-06-23T06:47:02Z</time>
      </trkpt>
      <trkpt lat="43.16893" lon="2.38762">
        <ele>179.9</ele>
        <time>2013-06-23T06:47:07Z</time>
      </trkpt>
      <trkpt lat="43.16884" lon="2.3876">
        <ele>180.38</ele>
        <time>2013-06-23T06:47:11Z</time>
      </trkpt>
      <trkpt lat="43.16876" lon="2.38793">
        <ele>180.87</ele>
        <time>2013-06-23T06:47:21Z</time>
      </trkpt>
      <trkpt lat="43.16869" lon="2.38863">
        <ele>181.83</ele>
        <time>2013-06-23T06:47:37Z</time>
      </trkpt>
      <trkpt lat="43.16862" lon="2.38927">
        <ele>184.23</ele>
        <time>2013-06-23T06:47:52Z</time>
      </trkpt>
      <trkpt lat="43.16861" lon="2.38947">
        <ele>185.67</ele>
        <time>2013-06-23T06:48:00Z</time>
      </trkpt>
      <trkpt lat="43.16863" lon="2.38952">
        <ele>186.15</ele>
        <time>2013-06-23T06:48:03Z</time>
      </trkpt>
      <trkpt lat="43.16866" lon="2.38954">
        <ele>186.15</ele>
        <time>2013-06-23T06:48:05Z</time>
      </trkpt>
      <trkpt lat="43.16868" lon="2.38954">
        <ele>186.63</ele>
        <time>2013-06-23T06:48:06Z</time>
      </trkpt>
      <trkpt lat="43.16871" lon="2.38954">
        <ele>186.15</ele>
        <time>2013-06-23T06:48:07Z</time>
      </trkpt>
      <trkpt lat="43.16874" lon="2.38954">
        <ele>186.15</ele>
        <time>2013-06-23T06:48:08Z</time>
      </trkpt>
      <trkpt lat="43.16877" lon="2.38953">
        <ele>186.15</ele>
        <time>2013-06-23T06:48:09Z</time>
      </trkpt>
      <trkpt lat="43.1688" lon="2.38952">
        <ele>186.15</ele>
        <time>2013-06-23T06:48:10Z</time>
      </trkpt>
      <trkpt lat="43.16883" lon="2.38951">
        <ele>186.15</ele>
        <time>2013-06-23T06:48:11Z</time>
      </trkpt>
      <trkpt lat="43.16931" lon="2.38926">
        <ele>185.19</ele>
        <time>2013-06-23T06:48:24Z</time>
      </trkpt>
      <trkpt lat="43.16935" lon="2.38924">
        <ele>185.19</ele>
        <time>2013-06-23T06:48:25Z</time>
      </trkpt>
      <trkpt lat="43.16938" lon="2.38921">
        <ele>185.19</ele>
        <time>2013-06-23T06:48:26Z</time>
      </trkpt>
      <trkpt lat="43.16941" lon="2.38918">
        <ele>185.19</ele>
        <time>2013-06-23T06:48:27Z</time>
      </trkpt>
      <trkpt lat="43.16945" lon="2.38916">
        <ele>184.71</ele>
        <time>2013-06-23T06:48:28Z</time>
      </trkpt>
      <trkpt lat="43.16948" lon="2.38914">
        <ele>184.71</ele>
        <time>2013-06-23T06:48:29Z</time>
      </trkpt>
      <trkpt lat="43.16968" lon="2.38903">
        <ele>184.71</ele>
        <time>2013-06-23T06:48:35Z</time>
      </trkpt>
      <trkpt lat="43.16971" lon="2.38904">
        <ele>184.71</ele>
        <time>2013-06-23T06:48:36Z</time>
      </trkpt>
      <trkpt lat="43.16975" lon="2.38907">
        <ele>184.71</ele>
        <time>2013-06-23T06:48:37Z</time>
      </trkpt>
      <trkpt lat="43.16977" lon="2.38911">
        <ele>184.71</ele>
        <time>2013-06-23T06:48:38Z</time>
      </trkpt>
      <trkpt lat="43.16979" lon="2.38915">
        <ele>185.19</ele>
        <time>2013-06-23T06:48:39Z</time>
      </trkpt>
      <trkpt lat="43.1698" lon="2.3892">
        <ele>185.19</ele>
        <time>2013-06-23T06:48:40Z</time>
      </trkpt>
      <trkpt lat="43.16979" lon="2.38926">
        <ele>185.19</ele>
        <time>2013-06-23T06:48:41Z</time>
      </trkpt>
      <trkpt lat="43.16978" lon="2.38931">
        <ele>185.19</ele>
        <time>2013-06-23T06:48:42Z</time>
      </trkpt>
      <trkpt lat="43.16976" lon="2.38936">
        <ele>185.19</ele>
        <time>2013-06-23T06:48:43Z</time>
      </trkpt>
      <trkpt lat="43.16955" lon="2.39">
        <ele>187.11</ele>
        <time>2013-06-23T06:48:57Z</time>
      </trkpt>
      <trkpt lat="43.16929" lon="2.39081">
        <ele>188.08</ele>
        <time>2013-06-23T06:49:15Z</time>
      </trkpt>
      <trkpt lat="43.16886" lon="2.39174">
        <ele>190</ele>
        <time>2013-06-23T06:49:37Z</time>
      </trkpt>
      <trkpt lat="43.16879" lon="2.39239">
        <ele>191.44</ele>
        <time>2013-06-23T06:49:51Z</time>
      </trkpt>
      <trkpt lat="43.16888" lon="2.39307">
        <ele>191.44</ele>
        <time>2013-06-23T06:50:05Z</time>
      </trkpt>
      <trkpt lat="43.16892" lon="2.3934">
        <ele>191.44</ele>
        <time>2013-06-23T06:50:11Z</time>
      </trkpt>
      <trkpt lat="43.16894" lon="2.3936">
        <ele>191.92</ele>
        <time>2013-06-23T06:50:14Z</time>
      </trkpt>
      <trkpt lat="43.16894" lon="2.39367">
        <ele>191.92</ele>
        <time>2013-06-23T06:50:15Z</time>
      </trkpt>
      <trkpt lat="43.16881" lon="2.39494">
        <ele>192.4</ele>
        <time>2013-06-23T06:50:32Z</time>
      </trkpt>
      <trkpt lat="43.16871" lon="2.39619">
        <ele>191.44</ele>
        <time>2013-06-23T06:50:47Z</time>
      </trkpt>
      <trkpt lat="43.16877" lon="2.39774">
        <ele>190.48</ele>
        <time>2013-06-23T06:51:05Z</time>
      </trkpt>
      <trkpt lat="43.16871" lon="2.39818">
        <ele>191.92</ele>
        <time>2013-06-23T06:51:11Z</time>
      </trkpt>
      <trkpt lat="43.16859" lon="2.39914">
        <ele>196.25</ele>
        <time>2013-06-23T06:51:27Z</time>
      </trkpt>
      <trkpt lat="43.1684" lon="2.3998">
        <ele>200.57</ele>
        <time>2013-06-23T06:51:41Z</time>
      </trkpt>
      <trkpt lat="43.16827" lon="2.40012">
        <ele>206.34</ele>
        <time>2013-06-23T06:51:50Z</time>
      </trkpt>
      <trkpt lat="43.16798" lon="2.40027">
        <ele>210.67</ele>
        <time>2013-06-23T06:52:01Z</time>
      </trkpt>
      <trkpt lat="43.16777" lon="2.40038">
        <ele>213.07</ele>
        <time>2013-06-23T06:52:09Z</time>
      </trkpt>
      <trkpt lat="43.16744" lon="2.40051">
        <ele>214.99</ele>
        <time>2013-06-23T06:52:23Z</time>
      </trkpt>
      <trkpt lat="43.16742" lon="2.4005">
        <ele>214.51</ele>
        <time>2013-06-23T06:52:24Z</time>
      </trkpt>
      <trkpt lat="43.16741" lon="2.40048">
        <ele>214.51</ele>
        <time>2013-06-23T06:52:25Z</time>
      </trkpt>
      <trkpt lat="43.16739" lon="2.40045">
        <ele>214.51</ele>
        <time>2013-06-23T06:52:26Z</time>
      </trkpt>
      <trkpt lat="43.16739" lon="2.40041">
        <ele>214.03</ele>
        <time>2013-06-23T06:52:27Z</time>
      </trkpt>
      <trkpt lat="43.16739" lon="2.40037">
        <ele>214.03</ele>
        <time>2013-06-23T06:52:28Z</time>
      </trkpt>
      <trkpt lat="43.16734" lon="2.39962">
        <ele>209.7</ele>
        <time>2013-06-23T06:52:39Z</time>
      </trkpt>
      <trkpt lat="43.16733" lon="2.39953">
        <ele>209.7</ele>
        <time>2013-06-23T06:52:40Z</time>
      </trkpt>
      <trkpt lat="43.16728" lon="2.39888">
        <ele>208.26</ele>
        <time>2013-06-23T06:52:48Z</time>
      </trkpt>
      <trkpt lat="43.16725" lon="2.39883">
        <ele>208.26</ele>
        <time>2013-06-23T06:52:49Z</time>
      </trkpt>
      <trkpt lat="43.16722" lon="2.39879">
        <ele>208.74</ele>
        <time>2013-06-23T06:52:50Z</time>
      </trkpt>
      <trkpt lat="43.16719" lon="2.39878">
        <ele>208.74</ele>
        <time>2013-06-23T06:52:51Z</time>
      </trkpt>
      <trkpt lat="43.16716" lon="2.39879">
        <ele>209.22</ele>
        <time>2013-06-23T06:52:52Z</time>
      </trkpt>
      <trkpt lat="43.16699" lon="2.39902">
        <ele>212.59</ele>
        <time>2013-06-23T06:53:03Z</time>
      </trkpt>
      <trkpt lat="43.16685" lon="2.39937">
        <ele>214.99</ele>
        <time>2013-06-23T06:53:13Z</time>
      </trkpt>
      <trkpt lat="43.16675" lon="2.3997">
        <ele>216.91</ele>
        <time>2013-06-23T06:53:22Z</time>
      </trkpt>
      <trkpt lat="43.16661" lon="2.39969">
        <ele>220.28</ele>
        <time>2013-06-23T06:53:30Z</time>
      </trkpt>
      <trkpt lat="43.1666" lon="2.39963">
        <ele>220.76</ele>
        <time>2013-06-23T06:53:32Z</time>
      </trkpt>
      <trkpt lat="43.16659" lon="2.39938">
        <ele>221.72</ele>
        <time>2013-06-23T06:53:43Z</time>
      </trkpt>
      <trkpt lat="43.16649" lon="2.39927">
        <ele>223.64</ele>
        <time>2013-06-23T06:53:52Z</time>
      </trkpt>
      <trkpt lat="43.16644" lon="2.39912">
        <ele>224.61</ele>
        <time>2013-06-23T06:53:58Z</time>
      </trkpt>
      <trkpt lat="43.16636" lon="2.39897">
        <ele>226.05</ele>
        <time>2013-06-23T06:54:03Z</time>
      </trkpt>
      <trkpt lat="43.16634" lon="2.39892">
        <ele>226.53</ele>
        <time>2013-06-23T06:54:05Z</time>
      </trkpt>
      <trkpt lat="43.16627" lon="2.39886">
        <ele>227.01</ele>
        <time>2013-06-23T06:54:09Z</time>
      </trkpt>
      <trkpt lat="43.1662" lon="2.39874">
        <ele>228.93</ele>
        <time>2013-06-23T06:54:14Z</time>
      </trkpt>
      <trkpt lat="43.16618" lon="2.3987">
        <ele>229.89</ele>
        <time>2013-06-23T06:54:16Z</time>
      </trkpt>
      <trkpt lat="43.1661" lon="2.39858">
        <ele>233.74</ele>
        <time>2013-06-23T06:54:23Z</time>
      </trkpt>
      <trkpt lat="43.16597" lon="2.39854">
        <ele>236.62</ele>
        <time>2013-06-23T06:54:34Z</time>
      </trkpt>
      <trkpt lat="43.16592" lon="2.39838">
        <ele>238.54</ele>
        <time>2013-06-23T06:54:40Z</time>
      </trkpt>
      <trkpt lat="43.16595" lon="2.39822">
        <ele>238.54</ele>
        <time>2013-06-23T06:54:44Z</time>
      </trkpt>
      <trkpt lat="43.16589" lon="2.39805">
        <ele>238.06</ele>
        <time>2013-06-23T06:54:48Z</time>
      </trkpt>
      <trkpt lat="43.16587" lon="2.39782">
        <ele>236.62</ele>
        <time>2013-06-23T06:54:53Z</time>
      </trkpt>
      <trkpt lat="43.16588" lon="2.39761">
        <ele>235.18</ele>
        <time>2013-06-23T06:54:56Z</time>
      </trkpt>
      <trkpt lat="43.16586" lon="2.39752">
        <ele>234.7</ele>
        <time>2013-06-23T06:54:57Z</time>
      </trkpt>
      <trkpt lat="43.16584" lon="2.39746">
        <ele>234.22</ele>
        <time>2013-06-23T06:54:58Z</time>
      </trkpt>
      <trkpt lat="43.16575" lon="2.39702">
        <ele>233.26</ele>
        <time>2013-06-23T06:55:08Z</time>
      </trkpt>
      <trkpt lat="43.16569" lon="2.39654">
        <ele>235.66</ele>
        <time>2013-06-23T06:55:20Z</time>
      </trkpt>
      <trkpt lat="43.16565" lon="2.39623">
        <ele>239.99</ele>
        <time>2013-06-23T06:55:33Z</time>
      </trkpt>
      <trkpt lat="43.16561" lon="2.3958">
        <ele>245.27</ele>
        <time>2013-06-23T06:55:47Z</time>
      </trkpt>
      <trkpt lat="43.16558" lon="2.39542">
        <ele>249.12</ele>
        <time>2013-06-23T06:56:00Z</time>
      </trkpt>
      <trkpt lat="43.16545" lon="2.395">
        <ele>249.12</ele>
        <time>2013-06-23T06:56:10Z</time>
      </trkpt>
      <trkpt lat="43.16544" lon="2.39492">
        <ele>249.12</ele>
        <time>2013-06-23T06:56:11Z</time>
      </trkpt>
      <trkpt lat="43.16544" lon="2.39485">
        <ele>249.12</ele>
        <time>2013-06-23T06:56:12Z</time>
      </trkpt>
      <trkpt lat="43.16542" lon="2.39471">
        <ele>249.12</ele>
        <time>2013-06-23T06:56:14Z</time>
      </trkpt>
      <trkpt lat="43.16541" lon="2.39459">
        <ele>249.12</ele>
        <time>2013-06-23T06:56:16Z</time>
      </trkpt>
      <trkpt lat="43.16541" lon="2.39453">
        <ele>249.6</ele>
        <time>2013-06-23T06:56:17Z</time>
      </trkpt>
      <trkpt lat="43.16541" lon="2.39448">
        <ele>249.6</ele>
        <time>2013-06-23T06:56:18Z</time>
      </trkpt>
      <trkpt lat="43.1654" lon="2.39443">
        <ele>249.6</ele>
        <time>2013-06-23T06:56:19Z</time>
      </trkpt>
      <trkpt lat="43.1654" lon="2.3944">
        <ele>249.6</ele>
        <time>2013-06-23T06:56:20Z</time>
      </trkpt>
      <trkpt lat="43.16537" lon="2.3939">
        <ele>250.56</ele>
        <time>2013-06-23T06:56:33Z</time>
      </trkpt>
      <trkpt lat="43.16539" lon="2.39336">
        <ele>252.96</ele>
        <time>2013-06-23T06:56:46Z</time>
      </trkpt>
      <trkpt lat="43.16535" lon="2.39285">
        <ele>257.77</ele>
        <time>2013-06-23T06:56:59Z</time>
      </trkpt>
      <trkpt lat="43.1653" lon="2.39278">
        <ele>258.73</ele>
        <time>2013-06-23T06:57:02Z</time>
      </trkpt>
      <trkpt lat="43.16516" lon="2.39288">
        <ele>261.14</ele>
        <time>2013-06-23T06:57:08Z</time>
      </trkpt>
      <trkpt lat="43.16518" lon="2.39316">
        <ele>263.54</ele>
        <time>2013-06-23T06:57:15Z</time>
      </trkpt>
      <trkpt lat="43.16513" lon="2.39341">
        <ele>264.02</ele>
        <time>2013-06-23T06:57:19Z</time>
      </trkpt>
      <trkpt lat="43.16512" lon="2.39357">
        <ele>264.98</ele>
        <time>2013-06-23T06:57:22Z</time>
      </trkpt>
      <trkpt lat="43.16504" lon="2.39395">
        <ele>264.02</ele>
        <time>2013-06-23T06:57:31Z</time>
      </trkpt>
      <trkpt lat="43.16494" lon="2.39433">
        <ele>262.58</ele>
        <time>2013-06-23T06:57:37Z</time>
      </trkpt>
      <trkpt lat="43.16492" lon="2.39445">
        <ele>262.1</ele>
        <time>2013-06-23T06:57:39Z</time>
      </trkpt>
      <trkpt lat="43.16488" lon="2.39491">
        <ele>261.14</ele>
        <time>2013-06-23T06:57:47Z</time>
      </trkpt>
      <trkpt lat="43.16496" lon="2.3953">
        <ele>259.69</ele>
        <time>2013-06-23T06:57:54Z</time>
      </trkpt>
      <trkpt lat="43.16501" lon="2.39562">
        <ele>258.73</ele>
        <time>2013-06-23T06:57:59Z</time>
      </trkpt>
      <trkpt lat="43.16503" lon="2.39581">
        <ele>258.25</ele>
        <time>2013-06-23T06:58:02Z</time>
      </trkpt>
      <trkpt lat="43.165" lon="2.39625">
        <ele>259.21</ele>
        <time>2013-06-23T06:58:10Z</time>
      </trkpt>
      <trkpt lat="43.16492" lon="2.39645">
        <ele>259.69</ele>
        <time>2013-06-23T06:58:15Z</time>
      </trkpt>
      <trkpt lat="43.16493" lon="2.39668">
        <ele>259.21</ele>
        <time>2013-06-23T06:58:19Z</time>
      </trkpt>
      <trkpt lat="43.16491" lon="2.39689">
        <ele>259.69</ele>
        <time>2013-06-23T06:58:23Z</time>
      </trkpt>
      <trkpt lat="43.16492" lon="2.39709">
        <ele>259.69</ele>
        <time>2013-06-23T06:58:28Z</time>
      </trkpt>
      <trkpt lat="43.16494" lon="2.39723">
        <ele>258.73</ele>
        <time>2013-06-23T06:58:31Z</time>
      </trkpt>
      <trkpt lat="43.16482" lon="2.39767">
        <ele>255.37</ele>
        <time>2013-06-23T06:58:39Z</time>
      </trkpt>
      <trkpt lat="43.16488" lon="2.39813">
        <ele>254.41</ele>
        <time>2013-06-23T06:58:46Z</time>
      </trkpt>
      <trkpt lat="43.16508" lon="2.39854">
        <ele>251.52</ele>
        <time>2013-06-23T06:58:53Z</time>
      </trkpt>
      <trkpt lat="43.1651" lon="2.39871">
        <ele>251.52</ele>
        <time>2013-06-23T06:58:56Z</time>
      </trkpt>
      <trkpt lat="43.16509" lon="2.39908">
        <ele>251.04</ele>
        <time>2013-06-23T06:59:03Z</time>
      </trkpt>
      <trkpt lat="43.16508" lon="2.39952">
        <ele>251.04</ele>
        <time>2013-06-23T06:59:09Z</time>
      </trkpt>
      <trkpt lat="43.16507" lon="2.39967">
        <ele>250.08</ele>
        <time>2013-06-23T06:59:11Z</time>
      </trkpt>
      <trkpt lat="43.16508" lon="2.40005">
        <ele>249.12</ele>
        <time>2013-06-23T06:59:16Z</time>
      </trkpt>
      <trkpt lat="43.16511" lon="2.40018">
        <ele>248.16</ele>
        <time>2013-06-23T06:59:18Z</time>
      </trkpt>
      <trkpt lat="43.16513" lon="2.40046">
        <ele>247.2</ele>
        <time>2013-06-23T06:59:22Z</time>
      </trkpt>
      <trkpt lat="43.16515" lon="2.40059">
        <ele>246.72</ele>
        <time>2013-06-23T06:59:24Z</time>
      </trkpt>
      <trkpt lat="43.16526" lon="2.40088">
        <ele>246.23</ele>
        <time>2013-06-23T06:59:32Z</time>
      </trkpt>
      <trkpt lat="43.1655" lon="2.40094">
        <ele>240.47</ele>
        <time>2013-06-23T06:59:39Z</time>
      </trkpt>
      <trkpt lat="43.16568" lon="2.40098">
        <ele>234.22</ele>
        <time>2013-06-23T06:59:45Z</time>
      </trkpt>
      <trkpt lat="43.16578" lon="2.4011">
        <ele>231.81</ele>
        <time>2013-06-23T06:59:49Z</time>
      </trkpt>
      <trkpt lat="43.16583" lon="2.40119">
        <ele>228.45</ele>
        <time>2013-06-23T06:59:52Z</time>
      </trkpt>
      <trkpt lat="43.16597" lon="2.40145">
        <ele>222.68</ele>
        <time>2013-06-23T06:59:58Z</time>
      </trkpt>
      <trkpt lat="43.16607" lon="2.40156">
        <ele>221.24</ele>
        <time>2013-06-23T07:00:01Z</time>
      </trkpt>
      <trkpt lat="43.16608" lon="2.40161">
        <ele>220.76</ele>
        <time>2013-06-23T07:00:02Z</time>
      </trkpt>
      <trkpt lat="43.1661" lon="2.40167">
        <ele>220.76</ele>
        <time>2013-06-23T07:00:03Z</time>
      </trkpt>
      <trkpt lat="43.1661" lon="2.40173">
        <ele>220.76</ele>
        <time>2013-06-23T07:00:04Z</time>
      </trkpt>
      <trkpt lat="43.16611" lon="2.40179">
        <ele>221.24</ele>
        <time>2013-06-23T07:00:05Z</time>
      </trkpt>
      <trkpt lat="43.16612" lon="2.40185">
        <ele>221.72</ele>
        <time>2013-06-23T07:00:06Z</time>
      </trkpt>
      <trkpt lat="43.16612" lon="2.40205">
        <ele>225.09</ele>
        <time>2013-06-23T07:00:11Z</time>
      </trkpt>
      <trkpt lat="43.16613" lon="2.40209">
        <ele>226.05</ele>
        <time>2013-06-23T07:00:12Z</time>
      </trkpt>
      <trkpt lat="43.16613" lon="2.40212">
        <ele>226.05</ele>
        <time>2013-06-23T07:00:13Z</time>
      </trkpt>
      <trkpt lat="43.16613" lon="2.40215">
        <ele>227.01</ele>
        <time>2013-06-23T07:00:14Z</time>
      </trkpt>
      <trkpt lat="43.16613" lon="2.40218">
        <ele>227.49</ele>
        <time>2013-06-23T07:00:15Z</time>
      </trkpt>
      <trkpt lat="43.16613" lon="2.4022">
        <ele>227.97</ele>
        <time>2013-06-23T07:00:16Z</time>
      </trkpt>
      <trkpt lat="43.16613" lon="2.40223">
        <ele>228.45</ele>
        <time>2013-06-23T07:00:17Z</time>
      </trkpt>
      <trkpt lat="43.16614" lon="2.40224">
        <ele>228.93</ele>
        <time>2013-06-23T07:00:18Z</time>
      </trkpt>
      <trkpt lat="43.16614" lon="2.40229">
        <ele>229.89</ele>
        <time>2013-06-23T07:00:20Z</time>
      </trkpt>
      <trkpt lat="43.16614" lon="2.40231">
        <ele>230.37</ele>
        <time>2013-06-23T07:00:21Z</time>
      </trkpt>
      <trkpt lat="43.16614" lon="2.40233">
        <ele>230.37</ele>
        <time>2013-06-23T07:00:22Z</time>
      </trkpt>
      <trkpt lat="43.16614" lon="2.40236">
        <ele>230.85</ele>
        <time>2013-06-23T07:00:23Z</time>
      </trkpt>
      <trkpt lat="43.16614" lon="2.40238">
        <ele>230.85</ele>
        <time>2013-06-23T07:00:24Z</time>
      </trkpt>
      <trkpt lat="43.1662" lon="2.40264">
        <ele>229.41</ele>
        <time>2013-06-23T07:00:31Z</time>
      </trkpt>
      <trkpt lat="43.16623" lon="2.4027">
        <ele>228.45</ele>
        <time>2013-06-23T07:00:32Z</time>
      </trkpt>
      <trkpt lat="43.16627" lon="2.40276">
        <ele>227.97</ele>
        <time>2013-06-23T07:00:33Z</time>
      </trkpt>
      <trkpt lat="43.16632" lon="2.40281">
        <ele>227.01</ele>
        <time>2013-06-23T07:00:34Z</time>
      </trkpt>
      <trkpt lat="43.16637" lon="2.40284">
        <ele>226.53</ele>
        <time>2013-06-23T07:00:35Z</time>
      </trkpt>
      <trkpt lat="43.16642" lon="2.40288">
        <ele>226.05</ele>
        <time>2013-06-23T07:00:36Z</time>
      </trkpt>
      <trkpt lat="43.16647" lon="2.4029">
        <ele>226.05</ele>
        <time>2013-06-23T07:00:37Z</time>
      </trkpt>
      <trkpt lat="43.16668" lon="2.40302">
        <ele>226.53</ele>
        <time>2013-06-23T07:00:42Z</time>
      </trkpt>
      <trkpt lat="43.16664" lon="2.40306">
        <ele>227.01</ele>
        <time>2013-06-23T07:00:46Z</time>
      </trkpt>
      <trkpt lat="43.16662" lon="2.40306">
        <ele>227.01</ele>
        <time>2013-06-23T07:00:47Z</time>
      </trkpt>
      <trkpt lat="43.1666" lon="2.40307">
        <ele>227.01</ele>
        <time>2013-06-23T07:00:48Z</time>
      </trkpt>
      <trkpt lat="43.16657" lon="2.40307">
        <ele>227.49</ele>
        <time>2013-06-23T07:00:49Z</time>
      </trkpt>
      <trkpt lat="43.16632" lon="2.40325">
        <ele>231.33</ele>
        <time>2013-06-23T07:01:01Z</time>
      </trkpt>
      <trkpt lat="43.16603" lon="2.40344">
        <ele>235.18</ele>
        <time>2013-06-23T07:01:13Z</time>
      </trkpt>
      <trkpt lat="43.16584" lon="2.40374">
        <ele>238.06</ele>
        <time>2013-06-23T07:01:23Z</time>
      </trkpt>
      <trkpt lat="43.1658" lon="2.40377">
        <ele>239.02</ele>
        <time>2013-06-23T07:01:25Z</time>
      </trkpt>
      <trkpt lat="43.16578" lon="2.40379">
        <ele>239.99</ele>
        <time>2013-06-23T07:01:26Z</time>
      </trkpt>
      <trkpt lat="43.16577" lon="2.40383">
        <ele>239.99</ele>
        <time>2013-06-23T07:01:27Z</time>
      </trkpt>
      <trkpt lat="43.16576" lon="2.40386">
        <ele>240.47</ele>
        <time>2013-06-23T07:01:28Z</time>
      </trkpt>
      <trkpt lat="43.16575" lon="2.40389">
        <ele>240.95</ele>
        <time>2013-06-23T07:01:29Z</time>
      </trkpt>
      <trkpt lat="43.16558" lon="2.40421">
        <ele>242.39</ele>
        <time>2013-06-23T07:01:39Z</time>
      </trkpt>
      <trkpt lat="43.16529" lon="2.40448">
        <ele>242.87</ele>
        <time>2013-06-23T07:01:51Z</time>
      </trkpt>
      <trkpt lat="43.16502" lon="2.40445">
        <ele>248.64</ele>
        <time>2013-06-23T07:02:04Z</time>
      </trkpt>
      <trkpt lat="43.16495" lon="2.40408">
        <ele>253.93</ele>
        <time>2013-06-23T07:02:18Z</time>
      </trkpt>
      <trkpt lat="43.16496" lon="2.40355">
        <ele>256.81</ele>
        <time>2013-06-23T07:02:36Z</time>
      </trkpt>
      <trkpt lat="43.1649" lon="2.40322">
        <ele>257.77</ele>
        <time>2013-06-23T07:02:44Z</time>
      </trkpt>
      <trkpt lat="43.16489" lon="2.40317">
        <ele>257.77</ele>
        <time>2013-06-23T07:02:45Z</time>
      </trkpt>
      <trkpt lat="43.16488" lon="2.4031">
        <ele>257.29</ele>
        <time>2013-06-23T07:02:46Z</time>
      </trkpt>
      <trkpt lat="43.16485" lon="2.40303">
        <ele>256.81</ele>
        <time>2013-06-23T07:02:47Z</time>
      </trkpt>
      <trkpt lat="43.16483" lon="2.40295">
        <ele>256.33</ele>
        <time>2013-06-23T07:02:48Z</time>
      </trkpt>
      <trkpt lat="43.1648" lon="2.40287">
        <ele>255.85</ele>
        <time>2013-06-23T07:02:49Z</time>
      </trkpt>
      <trkpt lat="43.16477" lon="2.40277">
        <ele>255.37</ele>
        <time>2013-06-23T07:02:50Z</time>
      </trkpt>
      <trkpt lat="43.16472" lon="2.40268">
        <ele>254.41</ele>
        <time>2013-06-23T07:02:51Z</time>
      </trkpt>
      <trkpt lat="43.16466" lon="2.40259">
        <ele>253.93</ele>
        <time>2013-06-23T07:02:52Z</time>
      </trkpt>
      <trkpt lat="43.16461" lon="2.40251">
        <ele>252.96</ele>
        <time>2013-06-23T07:02:53Z</time>
      </trkpt>
      <trkpt lat="43.16456" lon="2.40243">
        <ele>252.48</ele>
        <time>2013-06-23T07:02:54Z</time>
      </trkpt>
      <trkpt lat="43.16452" lon="2.40235">
        <ele>252</ele>
        <time>2013-06-23T07:02:55Z</time>
      </trkpt>
      <trkpt lat="43.16449" lon="2.40227">
        <ele>251.04</ele>
        <time>2013-06-23T07:02:56Z</time>
      </trkpt>
      <trkpt lat="43.16447" lon="2.40219">
        <ele>251.04</ele>
        <time>2013-06-23T07:02:57Z</time>
      </trkpt>
      <trkpt lat="43.16445" lon="2.40211">
        <ele>250.56</ele>
        <time>2013-06-23T07:02:58Z</time>
      </trkpt>
      <trkpt lat="43.16442" lon="2.40203">
        <ele>250.56</ele>
        <time>2013-06-23T07:02:59Z</time>
      </trkpt>
      <trkpt lat="43.16439" lon="2.40197">
        <ele>251.04</ele>
        <time>2013-06-23T07:03:00Z</time>
      </trkpt>
      <trkpt lat="43.16435" lon="2.40187">
        <ele>251.04</ele>
        <time>2013-06-23T07:03:02Z</time>
      </trkpt>
      <trkpt lat="43.16432" lon="2.40186">
        <ele>251.52</ele>
        <time>2013-06-23T07:03:03Z</time>
      </trkpt>
      <trkpt lat="43.16429" lon="2.40185">
        <ele>251.04</ele>
        <time>2013-06-23T07:03:04Z</time>
      </trkpt>
      <trkpt lat="43.16425" lon="2.40187">
        <ele>251.04</ele>
        <time>2013-06-23T07:03:05Z</time>
      </trkpt>
      <trkpt lat="43.16416" lon="2.40192">
        <ele>250.56</ele>
        <time>2013-06-23T07:03:07Z</time>
      </trkpt>
      <trkpt lat="43.16401" lon="2.40198">
        <ele>250.08</ele>
        <time>2013-06-23T07:03:10Z</time>
      </trkpt>
      <trkpt lat="43.16379" lon="2.40211">
        <ele>251.04</ele>
        <time>2013-06-23T07:03:16Z</time>
      </trkpt>
      <trkpt lat="43.16364" lon="2.40227">
        <ele>251.04</ele>
        <time>2013-06-23T07:03:20Z</time>
      </trkpt>
      <trkpt lat="43.16353" lon="2.40234">
        <ele>251.52</ele>
        <time>2013-06-23T07:03:23Z</time>
      </trkpt>
      <trkpt lat="43.16322" lon="2.40245">
        <ele>249.12</ele>
        <time>2013-06-23T07:03:29Z</time>
      </trkpt>
      <trkpt lat="43.16301" lon="2.40197">
        <ele>245.27</ele>
        <time>2013-06-23T07:03:34Z</time>
      </trkpt>
      <trkpt lat="43.16273" lon="2.40175">
        <ele>240.47</ele>
        <time>2013-06-23T07:03:41Z</time>
      </trkpt>
      <trkpt lat="43.16246" lon="2.40173">
        <ele>236.14</ele>
        <time>2013-06-23T07:03:46Z</time>
      </trkpt>
      <trkpt lat="43.16244" lon="2.40177">
        <ele>235.66</ele>
        <time>2013-06-23T07:03:47Z</time>
      </trkpt>
      <trkpt lat="43.16242" lon="2.40183">
        <ele>235.66</ele>
        <time>2013-06-23T07:03:48Z</time>
      </trkpt>
      <trkpt lat="43.16238" lon="2.40187">
        <ele>235.18</ele>
        <time>2013-06-23T07:03:49Z</time>
      </trkpt>
      <trkpt lat="43.16234" lon="2.40192">
        <ele>234.7</ele>
        <time>2013-06-23T07:03:50Z</time>
      </trkpt>
      <trkpt lat="43.1623" lon="2.40197">
        <ele>234.22</ele>
        <time>2013-06-23T07:03:51Z</time>
      </trkpt>
      <trkpt lat="43.16226" lon="2.40202">
        <ele>233.74</ele>
        <time>2013-06-23T07:03:52Z</time>
      </trkpt>
      <trkpt lat="43.16222" lon="2.40206">
        <ele>232.78</ele>
        <time>2013-06-23T07:03:53Z</time>
      </trkpt>
      <trkpt lat="43.16217" lon="2.40207">
        <ele>232.3</ele>
        <time>2013-06-23T07:03:54Z</time>
      </trkpt>
      <trkpt lat="43.16212" lon="2.40207">
        <ele>231.33</ele>
        <time>2013-06-23T07:03:55Z</time>
      </trkpt>
      <trkpt lat="43.16179" lon="2.40225">
        <ele>228.93</ele>
        <time>2013-06-23T07:04:02Z</time>
      </trkpt>
      <trkpt lat="43.16163" lon="2.40265">
        <ele>227.49</ele>
        <time>2013-06-23T07:04:07Z</time>
      </trkpt>
      <trkpt lat="43.16161" lon="2.40286">
        <ele>227.01</ele>
        <time>2013-06-23T07:04:09Z</time>
      </trkpt>
      <trkpt lat="43.16159" lon="2.40304">
        <ele>227.01</ele>
        <time>2013-06-23T07:04:11Z</time>
      </trkpt>
      <trkpt lat="43.1615" lon="2.4031">
        <ele>227.49</ele>
        <time>2013-06-23T07:04:15Z</time>
      </trkpt>
      <trkpt lat="43.16142" lon="2.40341">
        <ele>227.97</ele>
        <time>2013-06-23T07:04:23Z</time>
      </trkpt>
      <trkpt lat="43.16121" lon="2.40348">
        <ele>227.01</ele>
        <time>2013-06-23T07:04:28Z</time>
      </trkpt>
      <trkpt lat="43.16104" lon="2.40339">
        <ele>227.97</ele>
        <time>2013-06-23T07:04:32Z</time>
      </trkpt>
      <trkpt lat="43.16099" lon="2.40371">
        <ele>225.09</ele>
        <time>2013-06-23T07:04:40Z</time>
      </trkpt>
      <trkpt lat="43.16095" lon="2.40407">
        <ele>219.32</ele>
        <time>2013-06-23T07:04:47Z</time>
      </trkpt>
      <trkpt lat="43.16092" lon="2.40414">
        <ele>216.91</ele>
        <time>2013-06-23T07:04:53Z</time>
      </trkpt>
      <trkpt lat="43.16087" lon="2.40418">
        <ele>215.47</ele>
        <time>2013-06-23T07:05:05Z</time>
      </trkpt>
      <trkpt lat="43.16081" lon="2.40421">
        <ele>217.4</ele>
        <time>2013-06-23T07:05:11Z</time>
      </trkpt>
      <trkpt lat="43.16077" lon="2.40424">
        <ele>220.76</ele>
        <time>2013-06-23T07:05:19Z</time>
      </trkpt>
      <trkpt lat="43.16053" lon="2.40415">
        <ele>222.2</ele>
        <time>2013-06-23T07:05:30Z</time>
      </trkpt>
      <trkpt lat="43.16021" lon="2.4041">
        <ele>224.12</ele>
        <time>2013-06-23T07:05:41Z</time>
      </trkpt>
      <trkpt lat="43.15995" lon="2.40423">
        <ele>225.09</ele>
        <time>2013-06-23T07:05:52Z</time>
      </trkpt>
      <trkpt lat="43.1598" lon="2.40455">
        <ele>225.57</ele>
        <time>2013-06-23T07:06:01Z</time>
      </trkpt>
      <trkpt lat="43.15978" lon="2.40461">
        <ele>224.61</ele>
        <time>2013-06-23T07:06:02Z</time>
      </trkpt>
      <trkpt lat="43.15975" lon="2.40467">
        <ele>224.12</ele>
        <time>2013-06-23T07:06:03Z</time>
      </trkpt>
      <trkpt lat="43.15971" lon="2.40472">
        <ele>223.16</ele>
        <time>2013-06-23T07:06:04Z</time>
      </trkpt>
      <trkpt lat="43.1596" lon="2.40482">
        <ele>220.28</ele>
        <time>2013-06-23T07:06:11Z</time>
      </trkpt>
      <trkpt lat="43.15962" lon="2.40493">
        <ele>222.2</ele>
        <time>2013-06-23T07:06:23Z</time>
      </trkpt>
      <trkpt lat="43.15961" lon="2.40496">
        <ele>222.2</ele>
        <time>2013-06-23T07:06:26Z</time>
      </trkpt>
      <trkpt lat="43.15961" lon="2.40498">
        <ele>222.68</ele>
        <time>2013-06-23T07:06:27Z</time>
      </trkpt>
      <trkpt lat="43.15962" lon="2.405">
        <ele>223.16</ele>
        <time>2013-06-23T07:06:28Z</time>
      </trkpt>
      <trkpt lat="43.15962" lon="2.40501">
        <ele>223.64</ele>
        <time>2013-06-23T07:06:29Z</time>
      </trkpt>
      <trkpt lat="43.15963" lon="2.40503">
        <ele>223.64</ele>
        <time>2013-06-23T07:06:30Z</time>
      </trkpt>
      <trkpt lat="43.15963" lon="2.40504">
        <ele>224.12</ele>
        <time>2013-06-23T07:06:31Z</time>
      </trkpt>
      <trkpt lat="43.15964" lon="2.40506">
        <ele>224.12</ele>
        <time>2013-06-23T07:06:32Z</time>
      </trkpt>
      <trkpt lat="43.15964" lon="2.40508">
        <ele>224.61</ele>
        <time>2013-06-23T07:06:33Z</time>
      </trkpt>
      <trkpt lat="43.15965" lon="2.4051">
        <ele>225.09</ele>
        <time>2013-06-23T07:06:34Z</time>
      </trkpt>
      <trkpt lat="43.15966" lon="2.40513">
        <ele>225.57</ele>
        <time>2013-06-23T07:06:35Z</time>
      </trkpt>
      <trkpt lat="43.15966" lon="2.40517">
        <ele>226.05</ele>
        <time>2013-06-23T07:06:36Z</time>
      </trkpt>
      <trkpt lat="43.15974" lon="2.40543">
        <ele>227.97</ele>
        <time>2013-06-23T07:06:42Z</time>
      </trkpt>
      <trkpt lat="43.15978" lon="2.40554">
        <ele>228.45</ele>
        <time>2013-06-23T07:06:44Z</time>
      </trkpt>
      <trkpt lat="43.15979" lon="2.4056">
        <ele>228.45</ele>
        <time>2013-06-23T07:06:45Z</time>
      </trkpt>
      <trkpt lat="43.15979" lon="2.40566">
        <ele>228.93</ele>
        <time>2013-06-23T07:06:46Z</time>
      </trkpt>
      <trkpt lat="43.15981" lon="2.40597">
        <ele>229.41</ele>
        <time>2013-06-23T07:06:51Z</time>
      </trkpt>
      <trkpt lat="43.15981" lon="2.40604">
        <ele>228.93</ele>
        <time>2013-06-23T07:06:52Z</time>
      </trkpt>
      <trkpt lat="43.1598" lon="2.40611">
        <ele>228.93</ele>
        <time>2013-06-23T07:06:53Z</time>
      </trkpt>
      <trkpt lat="43.15981" lon="2.40618">
        <ele>228.93</ele>
        <time>2013-06-23T07:06:54Z</time>
      </trkpt>
      <trkpt lat="43.15982" lon="2.40625">
        <ele>229.41</ele>
        <time>2013-06-23T07:06:55Z</time>
      </trkpt>
      <trkpt lat="43.15983" lon="2.40633">
        <ele>229.41</ele>
        <time>2013-06-23T07:06:56Z</time>
      </trkpt>
      <trkpt lat="43.15984" lon="2.40639">
        <ele>229.41</ele>
        <time>2013-06-23T07:06:57Z</time>
      </trkpt>
      <trkpt lat="43.15985" lon="2.40645">
        <ele>229.41</ele>
        <time>2013-06-23T07:06:58Z</time>
      </trkpt>
      <trkpt lat="43.1599" lon="2.40667">
        <ele>228.93</ele>
        <time>2013-06-23T07:07:01Z</time>
      </trkpt>
      <trkpt lat="43.15992" lon="2.40675">
        <ele>228.93</ele>
        <time>2013-06-23T07:07:02Z</time>
      </trkpt>
      <trkpt lat="43.15992" lon="2.40684">
        <ele>228.93</ele>
        <time>2013-06-23T07:07:03Z</time>
      </trkpt>
      <trkpt lat="43.15993" lon="2.40699">
        <ele>228.93</ele>
        <time>2013-06-23T07:07:05Z</time>
      </trkpt>
      <trkpt lat="43.15993" lon="2.40706">
        <ele>228.93</ele>
        <time>2013-06-23T07:07:06Z</time>
      </trkpt>
      <trkpt lat="43.15993" lon="2.40712">
        <ele>228.45</ele>
        <time>2013-06-23T07:07:07Z</time>
      </trkpt>
      <trkpt lat="43.15994" lon="2.40718">
        <ele>228.45</ele>
        <time>2013-06-23T07:07:08Z</time>
      </trkpt>
      <trkpt lat="43.15995" lon="2.40724">
        <ele>228.45</ele>
        <time>2013-06-23T07:07:09Z</time>
      </trkpt>
      <trkpt lat="43.15995" lon="2.40731">
        <ele>227.97</ele>
        <time>2013-06-23T07:07:10Z</time>
      </trkpt>
      <trkpt lat="43.15996" lon="2.40738">
        <ele>227.97</ele>
        <time>2013-06-23T07:07:11Z</time>
      </trkpt>
      <trkpt lat="43.15996" lon="2.40747">
        <ele>227.01</ele>
        <time>2013-06-23T07:07:12Z</time>
      </trkpt>
      <trkpt lat="43.15997" lon="2.40763">
        <ele>226.53</ele>
        <time>2013-06-23T07:07:14Z</time>
      </trkpt>
      <trkpt lat="43.15996" lon="2.40771">
        <ele>226.05</ele>
        <time>2013-06-23T07:07:15Z</time>
      </trkpt>
      <trkpt lat="43.15995" lon="2.40779">
        <ele>225.57</ele>
        <time>2013-06-23T07:07:16Z</time>
      </trkpt>
      <trkpt lat="43.15995" lon="2.40786">
        <ele>225.09</ele>
        <time>2013-06-23T07:07:17Z</time>
      </trkpt>
      <trkpt lat="43.15994" lon="2.40792">
        <ele>224.61</ele>
        <time>2013-06-23T07:07:18Z</time>
      </trkpt>
      <trkpt lat="43.15993" lon="2.40798">
        <ele>224.12</ele>
        <time>2013-06-23T07:07:19Z</time>
      </trkpt>
      <trkpt lat="43.15993" lon="2.40804">
        <ele>223.64</ele>
        <time>2013-06-23T07:07:20Z</time>
      </trkpt>
      <trkpt lat="43.15995" lon="2.40811">
        <ele>223.16</ele>
        <time>2013-06-23T07:07:21Z</time>
      </trkpt>
      <trkpt lat="43.15998" lon="2.40816">
        <ele>222.68</ele>
        <time>2013-06-23T07:07:22Z</time>
      </trkpt>
      <trkpt lat="43.16001" lon="2.40821">
        <ele>222.68</ele>
        <time>2013-06-23T07:07:23Z</time>
      </trkpt>
      <trkpt lat="43.16004" lon="2.40826">
        <ele>222.68</ele>
        <time>2013-06-23T07:07:24Z</time>
      </trkpt>
      <trkpt lat="43.16023" lon="2.40866">
        <ele>227.49</ele>
        <time>2013-06-23T07:07:34Z</time>
      </trkpt>
      <trkpt lat="43.16023" lon="2.40882">
        <ele>227.97</ele>
        <time>2013-06-23T07:07:44Z</time>
      </trkpt>
      <trkpt lat="43.16023" lon="2.40882">
        <ele>227.01</ele>
        <time>2013-06-23T07:08:10Z</time>
      </trkpt>
      <trkpt lat="43.16024" lon="2.40887">
        <ele>227.49</ele>
        <time>2013-06-23T07:08:20Z</time>
      </trkpt>
      <trkpt lat="43.16025" lon="2.40889">
        <ele>227.49</ele>
        <time>2013-06-23T07:08:21Z</time>
      </trkpt>
      <trkpt lat="43.16027" lon="2.40891">
        <ele>227.49</ele>
        <time>2013-06-23T07:08:22Z</time>
      </trkpt>
      <trkpt lat="43.16036" lon="2.40925">
        <ele>231.33</ele>
        <time>2013-06-23T07:08:32Z</time>
      </trkpt>
      <trkpt lat="43.16046" lon="2.40956">
        <ele>235.18</ele>
        <time>2013-06-23T07:08:43Z</time>
      </trkpt>
      <trkpt lat="43.16048" lon="2.40957">
        <ele>235.66</ele>
        <time>2013-06-23T07:08:44Z</time>
      </trkpt>
      <trkpt lat="43.1605" lon="2.40959">
        <ele>235.66</ele>
        <time>2013-06-23T07:08:45Z</time>
      </trkpt>
      <trkpt lat="43.16051" lon="2.40961">
        <ele>235.66</ele>
        <time>2013-06-23T07:08:46Z</time>
      </trkpt>
      <trkpt lat="43.16052" lon="2.40963">
        <ele>235.66</ele>
        <time>2013-06-23T07:08:47Z</time>
      </trkpt>
      <trkpt lat="43.16053" lon="2.40965">
        <ele>236.14</ele>
        <time>2013-06-23T07:08:48Z</time>
      </trkpt>
      <trkpt lat="43.16054" lon="2.40966">
        <ele>236.14</ele>
        <time>2013-06-23T07:08:49Z</time>
      </trkpt>
      <trkpt lat="43.16059" lon="2.40973">
        <ele>237.1</ele>
        <time>2013-06-23T07:08:53Z</time>
      </trkpt>
      <trkpt lat="43.1606" lon="2.40974">
        <ele>237.58</ele>
        <time>2013-06-23T07:08:54Z</time>
      </trkpt>
      <trkpt lat="43.16062" lon="2.40976">
        <ele>237.58</ele>
        <time>2013-06-23T07:08:55Z</time>
      </trkpt>
      <trkpt lat="43.16067" lon="2.40983">
        <ele>239.51</ele>
        <time>2013-06-23T07:09:08Z</time>
      </trkpt>
      <trkpt lat="43.16068" lon="2.40986">
        <ele>239.51</ele>
        <time>2013-06-23T07:09:29Z</time>
      </trkpt>
      <trkpt lat="43.16076" lon="2.40998">
        <ele>241.43</ele>
        <time>2013-06-23T07:09:37Z</time>
      </trkpt>
      <trkpt lat="43.16088" lon="2.41015">
        <ele>243.83</ele>
        <time>2013-06-23T07:09:48Z</time>
      </trkpt>
      <trkpt lat="43.16094" lon="2.4103">
        <ele>244.79</ele>
        <time>2013-06-23T07:10:00Z</time>
      </trkpt>
      <trkpt lat="43.16104" lon="2.41063">
        <ele>248.16</ele>
        <time>2013-06-23T07:10:12Z</time>
      </trkpt>
      <trkpt lat="43.16104" lon="2.41066">
        <ele>248.64</ele>
        <time>2013-06-23T07:10:13Z</time>
      </trkpt>
      <trkpt lat="43.16104" lon="2.41068">
        <ele>249.12</ele>
        <time>2013-06-23T07:10:14Z</time>
      </trkpt>
      <trkpt lat="43.16103" lon="2.41071">
        <ele>249.12</ele>
        <time>2013-06-23T07:10:15Z</time>
      </trkpt>
      <trkpt lat="43.16102" lon="2.41073">
        <ele>249.12</ele>
        <time>2013-06-23T07:10:16Z</time>
      </trkpt>
      <trkpt lat="43.16102" lon="2.41077">
        <ele>249.6</ele>
        <time>2013-06-23T07:10:17Z</time>
      </trkpt>
      <trkpt lat="43.16102" lon="2.4108">
        <ele>249.6</ele>
        <time>2013-06-23T07:10:18Z</time>
      </trkpt>
      <trkpt lat="43.16102" lon="2.41083">
        <ele>250.08</ele>
        <time>2013-06-23T07:10:19Z</time>
      </trkpt>
      <trkpt lat="43.16102" lon="2.41085">
        <ele>250.08</ele>
        <time>2013-06-23T07:10:20Z</time>
      </trkpt>
      <trkpt lat="43.16101" lon="2.41088">
        <ele>250.08</ele>
        <time>2013-06-23T07:10:21Z</time>
      </trkpt>
      <trkpt lat="43.16099" lon="2.41091">
        <ele>250.56</ele>
        <time>2013-06-23T07:10:22Z</time>
      </trkpt>
      <trkpt lat="43.16098" lon="2.41094">
        <ele>250.56</ele>
        <time>2013-06-23T07:10:23Z</time>
      </trkpt>
      <trkpt lat="43.16097" lon="2.41096">
        <ele>251.04</ele>
        <time>2013-06-23T07:10:24Z</time>
      </trkpt>
      <trkpt lat="43.16095" lon="2.41098">
        <ele>251.52</ele>
        <time>2013-06-23T07:10:25Z</time>
      </trkpt>
      <trkpt lat="43.16094" lon="2.411">
        <ele>252</ele>
        <time>2013-06-23T07:10:26Z</time>
      </trkpt>
      <trkpt lat="43.16093" lon="2.41102">
        <ele>252.96</ele>
        <time>2013-06-23T07:10:27Z</time>
      </trkpt>
      <trkpt lat="43.16082" lon="2.41118">
        <ele>254.41</ele>
        <time>2013-06-23T07:10:37Z</time>
      </trkpt>
      <trkpt lat="43.16076" lon="2.41122">
        <ele>254.89</ele>
        <time>2013-06-23T07:10:48Z</time>
      </trkpt>
      <trkpt lat="43.16075" lon="2.41122">
        <ele>253.44</ele>
        <time>2013-06-23T07:11:00Z</time>
      </trkpt>
      <trkpt lat="43.16073" lon="2.41125">
        <ele>253.44</ele>
        <time>2013-06-23T07:11:10Z</time>
      </trkpt>
      <trkpt lat="43.16072" lon="2.41126">
        <ele>253.44</ele>
        <time>2013-06-23T07:11:11Z</time>
      </trkpt>
      <trkpt lat="43.16069" lon="2.41127">
        <ele>252.96</ele>
        <time>2013-06-23T07:11:12Z</time>
      </trkpt>
      <trkpt lat="43.16066" lon="2.41129">
        <ele>252.96</ele>
        <time>2013-06-23T07:11:13Z</time>
      </trkpt>
      <trkpt lat="43.16063" lon="2.41132">
        <ele>253.44</ele>
        <time>2013-06-23T07:11:14Z</time>
      </trkpt>
      <trkpt lat="43.1606" lon="2.41135">
        <ele>253.44</ele>
        <time>2013-06-23T07:11:15Z</time>
      </trkpt>
      <trkpt lat="43.16058" lon="2.41138">
        <ele>252.96</ele>
        <time>2013-06-23T07:11:16Z</time>
      </trkpt>
      <trkpt lat="43.16056" lon="2.41141">
        <ele>252.96</ele>
        <time>2013-06-23T07:11:17Z</time>
      </trkpt>
      <trkpt lat="43.16049" lon="2.41175">
        <ele>253.44</ele>
        <time>2013-06-23T07:11:24Z</time>
      </trkpt>
      <trkpt lat="43.16046" lon="2.41179">
        <ele>253.93</ele>
        <time>2013-06-23T07:11:25Z</time>
      </trkpt>
      <trkpt lat="43.16044" lon="2.41184">
        <ele>254.41</ele>
        <time>2013-06-23T07:11:26Z</time>
      </trkpt>
      <trkpt lat="43.16041" lon="2.41187">
        <ele>254.41</ele>
        <time>2013-06-23T07:11:27Z</time>
      </trkpt>
      <trkpt lat="43.16037" lon="2.41191">
        <ele>254.41</ele>
        <time>2013-06-23T07:11:28Z</time>
      </trkpt>
      <trkpt lat="43.16034" lon="2.41195">
        <ele>254.41</ele>
        <time>2013-06-23T07:11:29Z</time>
      </trkpt>
      <trkpt lat="43.1603" lon="2.41199">
        <ele>254.89</ele>
        <time>2013-06-23T07:11:30Z</time>
      </trkpt>
      <trkpt lat="43.16027" lon="2.41203">
        <ele>254.89</ele>
        <time>2013-06-23T07:11:31Z</time>
      </trkpt>
      <trkpt lat="43.16024" lon="2.41207">
        <ele>255.37</ele>
        <time>2013-06-23T07:11:32Z</time>
      </trkpt>
      <trkpt lat="43.16021" lon="2.41211">
        <ele>255.37</ele>
        <time>2013-06-23T07:11:33Z</time>
      </trkpt>
      <trkpt lat="43.16018" lon="2.41215">
        <ele>255.85</ele>
        <time>2013-06-23T07:11:34Z</time>
      </trkpt>
      <trkpt lat="43.16014" lon="2.41217">
        <ele>255.85</ele>
        <time>2013-06-23T07:11:35Z</time>
      </trkpt>
      <trkpt lat="43.1601" lon="2.4122">
        <ele>255.85</ele>
        <time>2013-06-23T07:11:36Z</time>
      </trkpt>
      <trkpt lat="43.16" lon="2.41223">
        <ele>256.81</ele>
        <time>2013-06-23T07:11:39Z</time>
      </trkpt>
      <trkpt lat="43.15986" lon="2.4122">
        <ele>258.25</ele>
        <time>2013-06-23T07:11:44Z</time>
      </trkpt>
      <trkpt lat="43.15983" lon="2.4122">
        <ele>258.25</ele>
        <time>2013-06-23T07:11:45Z</time>
      </trkpt>
      <trkpt lat="43.1598" lon="2.4122">
        <ele>258.73</ele>
        <time>2013-06-23T07:11:46Z</time>
      </trkpt>
      <trkpt lat="43.15978" lon="2.41219">
        <ele>259.21</ele>
        <time>2013-06-23T07:11:47Z</time>
      </trkpt>
      <trkpt lat="43.15975" lon="2.41218">
        <ele>259.69</ele>
        <time>2013-06-23T07:11:48Z</time>
      </trkpt>
      <trkpt lat="43.15944" lon="2.41214">
        <ele>261.62</ele>
        <time>2013-06-23T07:12:00Z</time>
      </trkpt>
      <trkpt lat="43.1593" lon="2.41212">
        <ele>263.54</ele>
        <time>2013-06-23T07:12:12Z</time>
      </trkpt>
      <trkpt lat="43.15896" lon="2.41196">
        <ele>263.54</ele>
        <time>2013-06-23T07:12:26Z</time>
      </trkpt>
      <trkpt lat="43.15879" lon="2.41189">
        <ele>263.54</ele>
        <time>2013-06-23T07:12:32Z</time>
      </trkpt>
      <trkpt lat="43.15864" lon="2.41189">
        <ele>263.54</ele>
        <time>2013-06-23T07:12:36Z</time>
      </trkpt>
      <trkpt lat="43.1586" lon="2.41188">
        <ele>263.06</ele>
        <time>2013-06-23T07:12:37Z</time>
      </trkpt>
      <trkpt lat="43.15856" lon="2.41188">
        <ele>263.06</ele>
        <time>2013-06-23T07:12:38Z</time>
      </trkpt>
      <trkpt lat="43.15814" lon="2.41189">
        <ele>261.14</ele>
        <time>2013-06-23T07:12:50Z</time>
      </trkpt>
      <trkpt lat="43.15762" lon="2.412">
        <ele>259.21</ele>
        <time>2013-06-23T07:13:03Z</time>
      </trkpt>
      <trkpt lat="43.15758" lon="2.41202">
        <ele>259.21</ele>
        <time>2013-06-23T07:13:04Z</time>
      </trkpt>
      <trkpt lat="43.15754" lon="2.41203">
        <ele>258.73</ele>
        <time>2013-06-23T07:13:05Z</time>
      </trkpt>
      <trkpt lat="43.1575" lon="2.41204">
        <ele>258.25</ele>
        <time>2013-06-23T07:13:06Z</time>
      </trkpt>
      <trkpt lat="43.15746" lon="2.41205">
        <ele>257.77</ele>
        <time>2013-06-23T07:13:07Z</time>
      </trkpt>
      <trkpt lat="43.15712" lon="2.41214">
        <ele>252</ele>
        <time>2013-06-23T07:13:18Z</time>
      </trkpt>
      <trkpt lat="43.15709" lon="2.41215">
        <ele>251.52</ele>
        <time>2013-06-23T07:13:19Z</time>
      </trkpt>
      <trkpt lat="43.15706" lon="2.41217">
        <ele>251.04</ele>
        <time>2013-06-23T07:13:20Z</time>
      </trkpt>
      <trkpt lat="43.15675" lon="2.41226">
        <ele>250.56</ele>
        <time>2013-06-23T07:13:29Z</time>
      </trkpt>
      <trkpt lat="43.15658" lon="2.41224">
        <ele>250.56</ele>
        <time>2013-06-23T07:13:33Z</time>
      </trkpt>
      <trkpt lat="43.15653" lon="2.41224">
        <ele>250.56</ele>
        <time>2013-06-23T07:13:34Z</time>
      </trkpt>
      <trkpt lat="43.15648" lon="2.41224">
        <ele>250.56</ele>
        <time>2013-06-23T07:13:35Z</time>
      </trkpt>
      <trkpt lat="43.15646" lon="2.41224">
        <ele>250.56</ele>
        <time>2013-06-23T07:13:36Z</time>
      </trkpt>
      <trkpt lat="43.15641" lon="2.41225">
        <ele>250.08</ele>
        <time>2013-06-23T07:13:40Z</time>
      </trkpt>
      <trkpt lat="43.15639" lon="2.41227">
        <ele>250.08</ele>
        <time>2013-06-23T07:13:41Z</time>
      </trkpt>
      <trkpt lat="43.15634" lon="2.41233">
        <ele>249.12</ele>
        <time>2013-06-23T07:13:44Z</time>
      </trkpt>
      <trkpt lat="43.15633" lon="2.41233">
        <ele>249.12</ele>
        <time>2013-06-23T07:13:45Z</time>
      </trkpt>
      <trkpt lat="43.15631" lon="2.41234">
        <ele>248.64</ele>
        <time>2013-06-23T07:13:46Z</time>
      </trkpt>
      <trkpt lat="43.1563" lon="2.41236">
        <ele>248.64</ele>
        <time>2013-06-23T07:13:47Z</time>
      </trkpt>
      <trkpt lat="43.15629" lon="2.41238">
        <ele>248.16</ele>
        <time>2013-06-23T07:13:48Z</time>
      </trkpt>
      <trkpt lat="43.15627" lon="2.41239">
        <ele>248.16</ele>
        <time>2013-06-23T07:13:49Z</time>
      </trkpt>
      <trkpt lat="43.15624" lon="2.41241">
        <ele>247.68</ele>
        <time>2013-06-23T07:13:50Z</time>
      </trkpt>
      <trkpt lat="43.15622" lon="2.41243">
        <ele>247.2</ele>
        <time>2013-06-23T07:13:51Z</time>
      </trkpt>
      <trkpt lat="43.15619" lon="2.41246">
        <ele>247.2</ele>
        <time>2013-06-23T07:13:52Z</time>
      </trkpt>
      <trkpt lat="43.15617" lon="2.41249">
        <ele>247.2</ele>
        <time>2013-06-23T07:13:53Z</time>
      </trkpt>
      <trkpt lat="43.15614" lon="2.41253">
        <ele>247.68</ele>
        <time>2013-06-23T07:13:54Z</time>
      </trkpt>
      <trkpt lat="43.15611" lon="2.41255">
        <ele>247.68</ele>
        <time>2013-06-23T07:13:55Z</time>
      </trkpt>
      <trkpt lat="43.15608" lon="2.41256">
        <ele>247.2</ele>
        <time>2013-06-23T07:13:56Z</time>
      </trkpt>
      <trkpt lat="43.15596" lon="2.41265">
        <ele>246.72</ele>
        <time>2013-06-23T07:14:00Z</time>
      </trkpt>
      <trkpt lat="43.15592" lon="2.41266">
        <ele>246.23</ele>
        <time>2013-06-23T07:14:01Z</time>
      </trkpt>
      <trkpt lat="43.15589" lon="2.41268">
        <ele>245.75</ele>
        <time>2013-06-23T07:14:02Z</time>
      </trkpt>
      <trkpt lat="43.15586" lon="2.41269">
        <ele>244.79</ele>
        <time>2013-06-23T07:14:03Z</time>
      </trkpt>
      <trkpt lat="43.15585" lon="2.4127">
        <ele>244.31</ele>
        <time>2013-06-23T07:14:04Z</time>
      </trkpt>
      <trkpt lat="43.15582" lon="2.41272">
        <ele>244.31</ele>
        <time>2013-06-23T07:14:05Z</time>
      </trkpt>
      <trkpt lat="43.15579" lon="2.41274">
        <ele>243.83</ele>
        <time>2013-06-23T07:14:06Z</time>
      </trkpt>
      <trkpt lat="43.15576" lon="2.41275">
        <ele>242.87</ele>
        <time>2013-06-23T07:14:07Z</time>
      </trkpt>
      <trkpt lat="43.15573" lon="2.41276">
        <ele>242.87</ele>
        <time>2013-06-23T07:14:08Z</time>
      </trkpt>
      <trkpt lat="43.1557" lon="2.41278">
        <ele>242.39</ele>
        <time>2013-06-23T07:14:09Z</time>
      </trkpt>
      <trkpt lat="43.15567" lon="2.41281">
        <ele>241.43</ele>
        <time>2013-06-23T07:14:10Z</time>
      </trkpt>
      <trkpt lat="43.15563" lon="2.41283">
        <ele>240.95</ele>
        <time>2013-06-23T07:14:11Z</time>
      </trkpt>
      <trkpt lat="43.15559" lon="2.41286">
        <ele>240.95</ele>
        <time>2013-06-23T07:14:12Z</time>
      </trkpt>
      <trkpt lat="43.15556" lon="2.41289">
        <ele>240.95</ele>
        <time>2013-06-23T07:14:13Z</time>
      </trkpt>
      <trkpt lat="43.15545" lon="2.41295">
        <ele>240.47</ele>
        <time>2013-06-23T07:14:16Z</time>
      </trkpt>
      <trkpt lat="43.15518" lon="2.41317">
        <ele>240.95</ele>
        <time>2013-06-23T07:14:23Z</time>
      </trkpt>
      <trkpt lat="43.15514" lon="2.41319">
        <ele>240.95</ele>
        <time>2013-06-23T07:14:24Z</time>
      </trkpt>
      <trkpt lat="43.1551" lon="2.41321">
        <ele>240.95</ele>
        <time>2013-06-23T07:14:25Z</time>
      </trkpt>
      <trkpt lat="43.15507" lon="2.41324">
        <ele>241.43</ele>
        <time>2013-06-23T07:14:26Z</time>
      </trkpt>
      <trkpt lat="43.15503" lon="2.41326">
        <ele>241.91</ele>
        <time>2013-06-23T07:14:27Z</time>
      </trkpt>
      <trkpt lat="43.155" lon="2.41328">
        <ele>241.91</ele>
        <time>2013-06-23T07:14:28Z</time>
      </trkpt>
      <trkpt lat="43.1548" lon="2.41338">
        <ele>244.31</ele>
        <time>2013-06-23T07:14:38Z</time>
      </trkpt>
      <trkpt lat="43.15453" lon="2.41347">
        <ele>247.2</ele>
        <time>2013-06-23T07:14:49Z</time>
      </trkpt>
      <trkpt lat="43.15434" lon="2.41355">
        <ele>245.75</ele>
        <time>2013-06-23T07:14:58Z</time>
      </trkpt>
      <trkpt lat="43.15431" lon="2.41359">
        <ele>245.75</ele>
        <time>2013-06-23T07:14:59Z</time>
      </trkpt>
      <trkpt lat="43.15429" lon="2.41363">
        <ele>245.75</ele>
        <time>2013-06-23T07:15:00Z</time>
      </trkpt>
      <trkpt lat="43.15418" lon="2.41375">
        <ele>245.27</ele>
        <time>2013-06-23T07:15:04Z</time>
      </trkpt>
      <trkpt lat="43.15416" lon="2.41379">
        <ele>245.27</ele>
        <time>2013-06-23T07:15:05Z</time>
      </trkpt>
      <trkpt lat="43.15402" lon="2.41396">
        <ele>244.31</ele>
        <time>2013-06-23T07:15:11Z</time>
      </trkpt>
      <trkpt lat="43.15392" lon="2.41403">
        <ele>243.83</ele>
        <time>2013-06-23T07:15:19Z</time>
      </trkpt>
      <trkpt lat="43.15389" lon="2.41404">
        <ele>244.31</ele>
        <time>2013-06-23T07:15:34Z</time>
      </trkpt>
      <trkpt lat="43.15385" lon="2.41405">
        <ele>242.87</ele>
        <time>2013-06-23T07:15:57Z</time>
      </trkpt>
      <trkpt lat="43.1538" lon="2.41407">
        <ele>241.91</ele>
        <time>2013-06-23T07:16:00Z</time>
      </trkpt>
      <trkpt lat="43.15377" lon="2.41414">
        <ele>242.39</ele>
        <time>2013-06-23T07:16:10Z</time>
      </trkpt>
      <trkpt lat="43.15373" lon="2.41422">
        <ele>246.72</ele>
        <time>2013-06-23T07:16:20Z</time>
      </trkpt>
      <trkpt lat="43.15375" lon="2.41447">
        <ele>252.96</ele>
        <time>2013-06-23T07:16:27Z</time>
      </trkpt>
      <trkpt lat="43.15378" lon="2.41448">
        <ele>252.96</ele>
        <time>2013-06-23T07:16:28Z</time>
      </trkpt>
      <trkpt lat="43.15381" lon="2.41449">
        <ele>252.48</ele>
        <time>2013-06-23T07:16:29Z</time>
      </trkpt>
      <trkpt lat="43.15389" lon="2.41451">
        <ele>252</ele>
        <time>2013-06-23T07:16:31Z</time>
      </trkpt>
      <trkpt lat="43.15393" lon="2.41449">
        <ele>251.52</ele>
        <time>2013-06-23T07:16:32Z</time>
      </trkpt>
      <trkpt lat="43.15408" lon="2.41438">
        <ele>249.12</ele>
        <time>2013-06-23T07:16:36Z</time>
      </trkpt>
      <trkpt lat="43.15417" lon="2.41432">
        <ele>248.16</ele>
        <time>2013-06-23T07:16:38Z</time>
      </trkpt>
      <trkpt lat="43.15421" lon="2.4143">
        <ele>247.68</ele>
        <time>2013-06-23T07:16:39Z</time>
      </trkpt>
      <trkpt lat="43.15425" lon="2.41426">
        <ele>247.68</ele>
        <time>2013-06-23T07:16:40Z</time>
      </trkpt>
      <trkpt lat="43.15427" lon="2.41422">
        <ele>247.2</ele>
        <time>2013-06-23T07:16:41Z</time>
      </trkpt>
      <trkpt lat="43.15429" lon="2.41416">
        <ele>247.2</ele>
        <time>2013-06-23T07:16:42Z</time>
      </trkpt>
      <trkpt lat="43.15432" lon="2.41414">
        <ele>246.72</ele>
        <time>2013-06-23T07:16:43Z</time>
      </trkpt>
      <trkpt lat="43.15436" lon="2.41413">
        <ele>246.23</ele>
        <time>2013-06-23T07:16:44Z</time>
      </trkpt>
      <trkpt lat="43.15439" lon="2.41412">
        <ele>245.75</ele>
        <time>2013-06-23T07:16:45Z</time>
      </trkpt>
      <trkpt lat="43.15442" lon="2.4141">
        <ele>244.79</ele>
        <time>2013-06-23T07:16:46Z</time>
      </trkpt>
      <trkpt lat="43.15445" lon="2.41408">
        <ele>244.31</ele>
        <time>2013-06-23T07:16:47Z</time>
      </trkpt>
      <trkpt lat="43.15449" lon="2.41405">
        <ele>243.83</ele>
        <time>2013-06-23T07:16:48Z</time>
      </trkpt>
      <trkpt lat="43.1546" lon="2.41399">
        <ele>240.47</ele>
        <time>2013-06-23T07:16:53Z</time>
      </trkpt>
      <trkpt lat="43.15462" lon="2.41399">
        <ele>239.51</ele>
        <time>2013-06-23T07:16:54Z</time>
      </trkpt>
      <trkpt lat="43.15464" lon="2.41397">
        <ele>239.51</ele>
        <time>2013-06-23T07:16:55Z</time>
      </trkpt>
      <trkpt lat="43.15466" lon="2.41396">
        <ele>239.02</ele>
        <time>2013-06-23T07:16:56Z</time>
      </trkpt>
      <trkpt lat="43.15467" lon="2.41395">
        <ele>238.54</ele>
        <time>2013-06-23T07:16:57Z</time>
      </trkpt>
      <trkpt lat="43.15472" lon="2.41394">
        <ele>237.58</ele>
        <time>2013-06-23T07:17:01Z</time>
      </trkpt>
      <trkpt lat="43.15473" lon="2.41393">
        <ele>237.58</ele>
        <time>2013-06-23T07:17:02Z</time>
      </trkpt>
      <trkpt lat="43.15474" lon="2.41393">
        <ele>237.1</ele>
        <time>2013-06-23T07:17:03Z</time>
      </trkpt>
      <trkpt lat="43.15476" lon="2.41392">
        <ele>237.1</ele>
        <time>2013-06-23T07:17:04Z</time>
      </trkpt>
      <trkpt lat="43.15478" lon="2.41392">
        <ele>236.62</ele>
        <time>2013-06-23T07:17:05Z</time>
      </trkpt>
      <trkpt lat="43.1549" lon="2.41384">
        <ele>236.62</ele>
        <time>2013-06-23T07:17:14Z</time>
      </trkpt>
      <trkpt lat="43.15492" lon="2.41383">
        <ele>236.62</ele>
        <time>2013-06-23T07:17:15Z</time>
      </trkpt>
      <trkpt lat="43.15494" lon="2.41382">
        <ele>236.62</ele>
        <time>2013-06-23T07:17:16Z</time>
      </trkpt>
      <trkpt lat="43.15497" lon="2.41382">
        <ele>236.62</ele>
        <time>2013-06-23T07:17:17Z</time>
      </trkpt>
      <trkpt lat="43.155" lon="2.41381">
        <ele>236.62</ele>
        <time>2013-06-23T07:17:18Z</time>
      </trkpt>
      <trkpt lat="43.15504" lon="2.4138">
        <ele>236.14</ele>
        <time>2013-06-23T07:17:19Z</time>
      </trkpt>
      <trkpt lat="43.15508" lon="2.41378">
        <ele>236.14</ele>
        <time>2013-06-23T07:17:20Z</time>
      </trkpt>
      <trkpt lat="43.15512" lon="2.41376">
        <ele>235.66</ele>
        <time>2013-06-23T07:17:21Z</time>
      </trkpt>
      <trkpt lat="43.15517" lon="2.41374">
        <ele>235.66</ele>
        <time>2013-06-23T07:17:22Z</time>
      </trkpt>
      <trkpt lat="43.15531" lon="2.41368">
        <ele>235.18</ele>
        <time>2013-06-23T07:17:25Z</time>
      </trkpt>
      <trkpt lat="43.15535" lon="2.41364">
        <ele>235.18</ele>
        <time>2013-06-23T07:17:26Z</time>
      </trkpt>
      <trkpt lat="43.15545" lon="2.41357">
        <ele>234.7</ele>
        <time>2013-06-23T07:17:28Z</time>
      </trkpt>
      <trkpt lat="43.1555" lon="2.41354">
        <ele>234.7</ele>
        <time>2013-06-23T07:17:29Z</time>
      </trkpt>
      <trkpt lat="43.15556" lon="2.41352">
        <ele>234.22</ele>
        <time>2013-06-23T07:17:30Z</time>
      </trkpt>
      <trkpt lat="43.1556" lon="2.41348">
        <ele>234.22</ele>
        <time>2013-06-23T07:17:31Z</time>
      </trkpt>
      <trkpt lat="43.15565" lon="2.41345">
        <ele>234.22</ele>
        <time>2013-06-23T07:17:32Z</time>
      </trkpt>
      <trkpt lat="43.15569" lon="2.41342">
        <ele>234.22</ele>
        <time>2013-06-23T07:17:33Z</time>
      </trkpt>
      <trkpt lat="43.15581" lon="2.41331">
        <ele>234.22</ele>
        <time>2013-06-23T07:17:36Z</time>
      </trkpt>
      <trkpt lat="43.15586" lon="2.41328">
        <ele>234.7</ele>
        <time>2013-06-23T07:17:37Z</time>
      </trkpt>
      <trkpt lat="43.1559" lon="2.41327">
        <ele>234.7</ele>
        <time>2013-06-23T07:17:38Z</time>
      </trkpt>
      <trkpt lat="43.15599" lon="2.41323">
        <ele>234.7</ele>
        <time>2013-06-23T07:17:40Z</time>
      </trkpt>
      <trkpt lat="43.15603" lon="2.41319">
        <ele>234.7</ele>
        <time>2013-06-23T07:17:41Z</time>
      </trkpt>
      <trkpt lat="43.15606" lon="2.41317">
        <ele>234.7</ele>
        <time>2013-06-23T07:17:42Z</time>
      </trkpt>
      <trkpt lat="43.15609" lon="2.41317">
        <ele>234.7</ele>
        <time>2013-06-23T07:17:43Z</time>
      </trkpt>
      <trkpt lat="43.15611" lon="2.41318">
        <ele>234.7</ele>
        <time>2013-06-23T07:17:44Z</time>
      </trkpt>
      <trkpt lat="43.15615" lon="2.4132">
        <ele>234.7</ele>
        <time>2013-06-23T07:17:45Z</time>
      </trkpt>
      <trkpt lat="43.15618" lon="2.4132">
        <ele>234.7</ele>
        <time>2013-06-23T07:17:46Z</time>
      </trkpt>
      <trkpt lat="43.15622" lon="2.41319">
        <ele>234.22</ele>
        <time>2013-06-23T07:17:47Z</time>
      </trkpt>
      <trkpt lat="43.15625" lon="2.41318">
        <ele>234.22</ele>
        <time>2013-06-23T07:17:48Z</time>
      </trkpt>
      <trkpt lat="43.1564" lon="2.41317">
        <ele>233.26</ele>
        <time>2013-06-23T07:17:52Z</time>
      </trkpt>
      <trkpt lat="43.15645" lon="2.41317">
        <ele>232.78</ele>
        <time>2013-06-23T07:17:53Z</time>
      </trkpt>
      <trkpt lat="43.1565" lon="2.41315">
        <ele>232.78</ele>
        <time>2013-06-23T07:17:54Z</time>
      </trkpt>
      <trkpt lat="43.15653" lon="2.41312">
        <ele>232.78</ele>
        <time>2013-06-23T07:17:55Z</time>
      </trkpt>
      <trkpt lat="43.15657" lon="2.41309">
        <ele>232.78</ele>
        <time>2013-06-23T07:17:56Z</time>
      </trkpt>
      <trkpt lat="43.1566" lon="2.41306">
        <ele>233.26</ele>
        <time>2013-06-23T07:17:57Z</time>
      </trkpt>
      <trkpt lat="43.15663" lon="2.41302">
        <ele>233.26</ele>
        <time>2013-06-23T07:17:58Z</time>
      </trkpt>
      <trkpt lat="43.15665" lon="2.41298">
        <ele>233.26</ele>
        <time>2013-06-23T07:17:59Z</time>
      </trkpt>
      <trkpt lat="43.15666" lon="2.41296">
        <ele>233.74</ele>
        <time>2013-06-23T07:18:00Z</time>
      </trkpt>
      <trkpt lat="43.15668" lon="2.41294">
        <ele>233.74</ele>
        <time>2013-06-23T07:18:01Z</time>
      </trkpt>
      <trkpt lat="43.15671" lon="2.41294">
        <ele>233.74</ele>
        <time>2013-06-23T07:18:02Z</time>
      </trkpt>
      <trkpt lat="43.15675" lon="2.41293">
        <ele>234.22</ele>
        <time>2013-06-23T07:18:03Z</time>
      </trkpt>
      <trkpt lat="43.15678" lon="2.41293">
        <ele>234.22</ele>
        <time>2013-06-23T07:18:04Z</time>
      </trkpt>
      <trkpt lat="43.15697" lon="2.4129">
        <ele>234.7</ele>
        <time>2013-06-23T07:18:11Z</time>
      </trkpt>
      <trkpt lat="43.15701" lon="2.4129">
        <ele>234.7</ele>
        <time>2013-06-23T07:18:13Z</time>
      </trkpt>
      <trkpt lat="43.15703" lon="2.41292">
        <ele>234.7</ele>
        <time>2013-06-23T07:18:14Z</time>
      </trkpt>
      <trkpt lat="43.15707" lon="2.41294">
        <ele>234.22</ele>
        <time>2013-06-23T07:18:15Z</time>
      </trkpt>
      <trkpt lat="43.15712" lon="2.41296">
        <ele>233.74</ele>
        <time>2013-06-23T07:18:16Z</time>
      </trkpt>
      <trkpt lat="43.15717" lon="2.41297">
        <ele>233.26</ele>
        <time>2013-06-23T07:18:17Z</time>
      </trkpt>
      <trkpt lat="43.15722" lon="2.41296">
        <ele>232.78</ele>
        <time>2013-06-23T07:18:18Z</time>
      </trkpt>
      <trkpt lat="43.15726" lon="2.41296">
        <ele>232.78</ele>
        <time>2013-06-23T07:18:19Z</time>
      </trkpt>
      <trkpt lat="43.15752" lon="2.41291">
        <ele>233.26</ele>
        <time>2013-06-23T07:18:26Z</time>
      </trkpt>
      <trkpt lat="43.15756" lon="2.41291">
        <ele>233.26</ele>
        <time>2013-06-23T07:18:27Z</time>
      </trkpt>
      <trkpt lat="43.15767" lon="2.41287">
        <ele>232.78</ele>
        <time>2013-06-23T07:18:29Z</time>
      </trkpt>
      <trkpt lat="43.15772" lon="2.41285">
        <ele>232.78</ele>
        <time>2013-06-23T07:18:30Z</time>
      </trkpt>
      <trkpt lat="43.15777" lon="2.41285">
        <ele>232.3</ele>
        <time>2013-06-23T07:18:31Z</time>
      </trkpt>
      <trkpt lat="43.15781" lon="2.41285">
        <ele>232.3</ele>
        <time>2013-06-23T07:18:32Z</time>
      </trkpt>
      <trkpt lat="43.15785" lon="2.41284">
        <ele>232.3</ele>
        <time>2013-06-23T07:18:33Z</time>
      </trkpt>
      <trkpt lat="43.15789" lon="2.41282">
        <ele>232.3</ele>
        <time>2013-06-23T07:18:34Z</time>
      </trkpt>
      <trkpt lat="43.15792" lon="2.41282">
        <ele>232.3</ele>
        <time>2013-06-23T07:18:35Z</time>
      </trkpt>
      <trkpt lat="43.15795" lon="2.41281">
        <ele>231.81</ele>
        <time>2013-06-23T07:18:36Z</time>
      </trkpt>
      <trkpt lat="43.15798" lon="2.41281">
        <ele>231.81</ele>
        <time>2013-06-23T07:18:37Z</time>
      </trkpt>
      <trkpt lat="43.15801" lon="2.4128">
        <ele>231.33</ele>
        <time>2013-06-23T07:18:38Z</time>
      </trkpt>
      <trkpt lat="43.15805" lon="2.41278">
        <ele>231.33</ele>
        <time>2013-06-23T07:18:39Z</time>
      </trkpt>
      <trkpt lat="43.15808" lon="2.41278">
        <ele>231.33</ele>
        <time>2013-06-23T07:18:40Z</time>
      </trkpt>
      <trkpt lat="43.15812" lon="2.41278">
        <ele>231.33</ele>
        <time>2013-06-23T07:18:41Z</time>
      </trkpt>
      <trkpt lat="43.15817" lon="2.41278">
        <ele>231.33</ele>
        <time>2013-06-23T07:18:42Z</time>
      </trkpt>
      <trkpt lat="43.15862" lon="2.41273">
        <ele>231.81</ele>
        <time>2013-06-23T07:18:55Z</time>
      </trkpt>
      <trkpt lat="43.15881" lon="2.41273">
        <ele>231.33</ele>
        <time>2013-06-23T07:19:00Z</time>
      </trkpt>
      <trkpt lat="43.15885" lon="2.41274">
        <ele>231.33</ele>
        <time>2013-06-23T07:19:01Z</time>
      </trkpt>
      <trkpt lat="43.15889" lon="2.41275">
        <ele>231.33</ele>
        <time>2013-06-23T07:19:02Z</time>
      </trkpt>
      <trkpt lat="43.15893" lon="2.41274">
        <ele>231.33</ele>
        <time>2013-06-23T07:19:03Z</time>
      </trkpt>
      <trkpt lat="43.15897" lon="2.41274">
        <ele>231.33</ele>
        <time>2013-06-23T07:19:04Z</time>
      </trkpt>
      <trkpt lat="43.15902" lon="2.41274">
        <ele>230.85</ele>
        <time>2013-06-23T07:19:05Z</time>
      </trkpt>
      <trkpt lat="43.15911" lon="2.41275">
        <ele>230.85</ele>
        <time>2013-06-23T07:19:07Z</time>
      </trkpt>
      <trkpt lat="43.15915" lon="2.41276">
        <ele>230.85</ele>
        <time>2013-06-23T07:19:08Z</time>
      </trkpt>
      <trkpt lat="43.1596" lon="2.41291">
        <ele>229.89</ele>
        <time>2013-06-23T07:19:18Z</time>
      </trkpt>
      <trkpt lat="43.15964" lon="2.41293">
        <ele>229.89</ele>
        <time>2013-06-23T07:19:19Z</time>
      </trkpt>
      <trkpt lat="43.15995" lon="2.413">
        <ele>228.45</ele>
        <time>2013-06-23T07:19:27Z</time>
      </trkpt>
      <trkpt lat="43.16" lon="2.41299">
        <ele>227.97</ele>
        <time>2013-06-23T07:19:28Z</time>
      </trkpt>
      <trkpt lat="43.16004" lon="2.41298">
        <ele>227.97</ele>
        <time>2013-06-23T07:19:29Z</time>
      </trkpt>
      <trkpt lat="43.16008" lon="2.41296">
        <ele>227.97</ele>
        <time>2013-06-23T07:19:30Z</time>
      </trkpt>
      <trkpt lat="43.16011" lon="2.41295">
        <ele>227.49</ele>
        <time>2013-06-23T07:19:31Z</time>
      </trkpt>
      <trkpt lat="43.16015" lon="2.41295">
        <ele>227.01</ele>
        <time>2013-06-23T07:19:32Z</time>
      </trkpt>
      <trkpt lat="43.16019" lon="2.41294">
        <ele>227.01</ele>
        <time>2013-06-23T07:19:33Z</time>
      </trkpt>
      <trkpt lat="43.16022" lon="2.41295">
        <ele>227.01</ele>
        <time>2013-06-23T07:19:34Z</time>
      </trkpt>
      <trkpt lat="43.16025" lon="2.41298">
        <ele>227.01</ele>
        <time>2013-06-23T07:19:35Z</time>
      </trkpt>
      <trkpt lat="43.16028" lon="2.413">
        <ele>227.01</ele>
        <time>2013-06-23T07:19:36Z</time>
      </trkpt>
      <trkpt lat="43.16049" lon="2.41308">
        <ele>227.49</ele>
        <time>2013-06-23T07:19:42Z</time>
      </trkpt>
      <trkpt lat="43.16051" lon="2.41305">
        <ele>227.49</ele>
        <time>2013-06-23T07:19:43Z</time>
      </trkpt>
      <trkpt lat="43.16053" lon="2.41302">
        <ele>227.49</ele>
        <time>2013-06-23T07:19:44Z</time>
      </trkpt>
      <trkpt lat="43.16055" lon="2.41299">
        <ele>227.49</ele>
        <time>2013-06-23T07:19:45Z</time>
      </trkpt>
      <trkpt lat="43.16058" lon="2.41297">
        <ele>227.49</ele>
        <time>2013-06-23T07:19:46Z</time>
      </trkpt>
      <trkpt lat="43.16061" lon="2.41296">
        <ele>227.49</ele>
        <time>2013-06-23T07:19:47Z</time>
      </trkpt>
      <trkpt lat="43.16086" lon="2.4131">
        <ele>227.97</ele>
        <time>2013-06-23T07:19:55Z</time>
      </trkpt>
      <trkpt lat="43.16099" lon="2.41319">
        <ele>228.45</ele>
        <time>2013-06-23T07:19:59Z</time>
      </trkpt>
      <trkpt lat="43.16103" lon="2.41318">
        <ele>228.45</ele>
        <time>2013-06-23T07:20:00Z</time>
      </trkpt>
      <trkpt lat="43.16106" lon="2.41315">
        <ele>228.45</ele>
        <time>2013-06-23T07:20:01Z</time>
      </trkpt>
      <trkpt lat="43.16109" lon="2.41313">
        <ele>228.45</ele>
        <time>2013-06-23T07:20:02Z</time>
      </trkpt>
      <trkpt lat="43.16113" lon="2.41311">
        <ele>228.45</ele>
        <time>2013-06-23T07:20:03Z</time>
      </trkpt>
      <trkpt lat="43.16116" lon="2.41309">
        <ele>228.45</ele>
        <time>2013-06-23T07:20:04Z</time>
      </trkpt>
      <trkpt lat="43.1612" lon="2.41308">
        <ele>228.93</ele>
        <time>2013-06-23T07:20:05Z</time>
      </trkpt>
      <trkpt lat="43.16123" lon="2.41308">
        <ele>228.93</ele>
        <time>2013-06-23T07:20:06Z</time>
      </trkpt>
      <trkpt lat="43.16127" lon="2.41309">
        <ele>228.93</ele>
        <time>2013-06-23T07:20:07Z</time>
      </trkpt>
      <trkpt lat="43.1613" lon="2.41312">
        <ele>229.41</ele>
        <time>2013-06-23T07:20:08Z</time>
      </trkpt>
      <trkpt lat="43.16132" lon="2.41314">
        <ele>229.41</ele>
        <time>2013-06-23T07:20:09Z</time>
      </trkpt>
      <trkpt lat="43.16135" lon="2.41316">
        <ele>229.89</ele>
        <time>2013-06-23T07:20:10Z</time>
      </trkpt>
      <trkpt lat="43.16136" lon="2.41317">
        <ele>230.37</ele>
        <time>2013-06-23T07:20:11Z</time>
      </trkpt>
      <trkpt lat="43.16158" lon="2.41336">
        <ele>230.37</ele>
        <time>2013-06-23T07:20:22Z</time>
      </trkpt>
      <trkpt lat="43.16166" lon="2.41342">
        <ele>229.89</ele>
        <time>2013-06-23T07:20:25Z</time>
      </trkpt>
      <trkpt lat="43.16168" lon="2.41342">
        <ele>229.41</ele>
        <time>2013-06-23T07:20:26Z</time>
      </trkpt>
      <trkpt lat="43.16175" lon="2.41342">
        <ele>229.41</ele>
        <time>2013-06-23T07:20:28Z</time>
      </trkpt>
      <trkpt lat="43.16191" lon="2.41344">
        <ele>227.97</ele>
        <time>2013-06-23T07:20:32Z</time>
      </trkpt>
      <trkpt lat="43.16194" lon="2.41343">
        <ele>227.49</ele>
        <time>2013-06-23T07:20:33Z</time>
      </trkpt>
      <trkpt lat="43.16197" lon="2.41342">
        <ele>227.49</ele>
        <time>2013-06-23T07:20:34Z</time>
      </trkpt>
      <trkpt lat="43.16199" lon="2.4134">
        <ele>227.49</ele>
        <time>2013-06-23T07:20:35Z</time>
      </trkpt>
      <trkpt lat="43.16202" lon="2.41339">
        <ele>227.01</ele>
        <time>2013-06-23T07:20:36Z</time>
      </trkpt>
      <trkpt lat="43.16228" lon="2.41325">
        <ele>224.12</ele>
        <time>2013-06-23T07:20:42Z</time>
      </trkpt>
      <trkpt lat="43.16236" lon="2.4132">
        <ele>223.16</ele>
        <time>2013-06-23T07:20:44Z</time>
      </trkpt>
      <trkpt lat="43.16241" lon="2.41318">
        <ele>222.68</ele>
        <time>2013-06-23T07:20:45Z</time>
      </trkpt>
      <trkpt lat="43.16245" lon="2.41316">
        <ele>222.2</ele>
        <time>2013-06-23T07:20:46Z</time>
      </trkpt>
      <trkpt lat="43.16255" lon="2.41309">
        <ele>221.24</ele>
        <time>2013-06-23T07:20:49Z</time>
      </trkpt>
      <trkpt lat="43.16258" lon="2.41306">
        <ele>220.76</ele>
        <time>2013-06-23T07:20:50Z</time>
      </trkpt>
      <trkpt lat="43.16281" lon="2.41291">
        <ele>218.84</ele>
        <time>2013-06-23T07:20:58Z</time>
      </trkpt>
      <trkpt lat="43.16304" lon="2.41287">
        <ele>216.91</ele>
        <time>2013-06-23T07:21:03Z</time>
      </trkpt>
      <trkpt lat="43.16315" lon="2.4129">
        <ele>215.95</ele>
        <time>2013-06-23T07:21:05Z</time>
      </trkpt>
      <trkpt lat="43.16319" lon="2.41292">
        <ele>215.47</ele>
        <time>2013-06-23T07:21:06Z</time>
      </trkpt>
      <trkpt lat="43.16324" lon="2.41294">
        <ele>215.47</ele>
        <time>2013-06-23T07:21:07Z</time>
      </trkpt>
      <trkpt lat="43.16329" lon="2.41296">
        <ele>214.99</ele>
        <time>2013-06-23T07:21:08Z</time>
      </trkpt>
      <trkpt lat="43.16333" lon="2.413">
        <ele>214.51</ele>
        <time>2013-06-23T07:21:09Z</time>
      </trkpt>
      <trkpt lat="43.16337" lon="2.41304">
        <ele>214.03</ele>
        <time>2013-06-23T07:21:10Z</time>
      </trkpt>
      <trkpt lat="43.16341" lon="2.41308">
        <ele>214.03</ele>
        <time>2013-06-23T07:21:11Z</time>
      </trkpt>
      <trkpt lat="43.16373" lon="2.41318">
        <ele>210.67</ele>
        <time>2013-06-23T07:21:20Z</time>
      </trkpt>
      <trkpt lat="43.16408" lon="2.41321">
        <ele>205.86</ele>
        <time>2013-06-23T07:21:28Z</time>
      </trkpt>
      <trkpt lat="43.16412" lon="2.41322">
        <ele>205.38</ele>
        <time>2013-06-23T07:21:29Z</time>
      </trkpt>
      <trkpt lat="43.16416" lon="2.41322">
        <ele>204.9</ele>
        <time>2013-06-23T07:21:30Z</time>
      </trkpt>
      <trkpt lat="43.16421" lon="2.41322">
        <ele>204.42</ele>
        <time>2013-06-23T07:21:31Z</time>
      </trkpt>
      <trkpt lat="43.16425" lon="2.41321">
        <ele>203.94</ele>
        <time>2013-06-23T07:21:32Z</time>
      </trkpt>
      <trkpt lat="43.16433" lon="2.41318">
        <ele>202.98</ele>
        <time>2013-06-23T07:21:34Z</time>
      </trkpt>
      <trkpt lat="43.16438" lon="2.41315">
        <ele>202.01</ele>
        <time>2013-06-23T07:21:35Z</time>
      </trkpt>
      <trkpt lat="43.16442" lon="2.41312">
        <ele>201.53</ele>
        <time>2013-06-23T07:21:36Z</time>
      </trkpt>
      <trkpt lat="43.16445" lon="2.41308">
        <ele>201.05</ele>
        <time>2013-06-23T07:21:37Z</time>
      </trkpt>
      <trkpt lat="43.16448" lon="2.41304">
        <ele>200.57</ele>
        <time>2013-06-23T07:21:38Z</time>
      </trkpt>
      <trkpt lat="43.1645" lon="2.413">
        <ele>200.09</ele>
        <time>2013-06-23T07:21:39Z</time>
      </trkpt>
      <trkpt lat="43.16451" lon="2.41296">
        <ele>200.09</ele>
        <time>2013-06-23T07:21:40Z</time>
      </trkpt>
      <trkpt lat="43.16453" lon="2.41293">
        <ele>200.09</ele>
        <time>2013-06-23T07:21:41Z</time>
      </trkpt>
      <trkpt lat="43.16455" lon="2.41289">
        <ele>199.61</ele>
        <time>2013-06-23T07:21:42Z</time>
      </trkpt>
      <trkpt lat="43.16478" lon="2.41246">
        <ele>195.28</ele>
        <time>2013-06-23T07:21:54Z</time>
      </trkpt>
      <trkpt lat="43.16498" lon="2.41231">
        <ele>192.4</ele>
        <time>2013-06-23T07:22:04Z</time>
      </trkpt>
      <trkpt lat="43.16502" lon="2.41231">
        <ele>191.92</ele>
        <time>2013-06-23T07:22:05Z</time>
      </trkpt>
      <trkpt lat="43.16515" lon="2.41231">
        <ele>189.04</ele>
        <time>2013-06-23T07:22:11Z</time>
      </trkpt>
      <trkpt lat="43.16517" lon="2.4123">
        <ele>189.04</ele>
        <time>2013-06-23T07:22:12Z</time>
      </trkpt>
      <trkpt lat="43.16518" lon="2.41229">
        <ele>188.56</ele>
        <time>2013-06-23T07:22:13Z</time>
      </trkpt>
      <trkpt lat="43.16519" lon="2.41229">
        <ele>188.08</ele>
        <time>2013-06-23T07:22:14Z</time>
      </trkpt>
      <trkpt lat="43.16521" lon="2.41229">
        <ele>188.08</ele>
        <time>2013-06-23T07:22:15Z</time>
      </trkpt>
      <trkpt lat="43.16547" lon="2.41218">
        <ele>186.15</ele>
        <time>2013-06-23T07:22:23Z</time>
      </trkpt>
      <trkpt lat="43.16573" lon="2.41202">
        <ele>182.31</ele>
        <time>2013-06-23T07:22:33Z</time>
      </trkpt>
      <trkpt lat="43.1659" lon="2.41187">
        <ele>180.87</ele>
        <time>2013-06-23T07:22:43Z</time>
      </trkpt>
      <trkpt lat="43.16592" lon="2.41186">
        <ele>180.38</ele>
        <time>2013-06-23T07:22:44Z</time>
      </trkpt>
      <trkpt lat="43.16594" lon="2.41186">
        <ele>179.42</ele>
        <time>2013-06-23T07:22:45Z</time>
      </trkpt>
      <trkpt lat="43.16596" lon="2.41188">
        <ele>179.42</ele>
        <time>2013-06-23T07:22:46Z</time>
      </trkpt>
      <trkpt lat="43.16598" lon="2.4119">
        <ele>178.94</ele>
        <time>2013-06-23T07:22:47Z</time>
      </trkpt>
      <trkpt lat="43.166" lon="2.41192">
        <ele>178.46</ele>
        <time>2013-06-23T07:22:48Z</time>
      </trkpt>
      <trkpt lat="43.166" lon="2.41194">
        <ele>177.98</ele>
        <time>2013-06-23T07:22:49Z</time>
      </trkpt>
      <trkpt lat="43.16599" lon="2.41196">
        <ele>177.5</ele>
        <time>2013-06-23T07:22:50Z</time>
      </trkpt>
      <trkpt lat="43.16598" lon="2.41198">
        <ele>177.5</ele>
        <time>2013-06-23T07:22:51Z</time>
      </trkpt>
      <trkpt lat="43.16595" lon="2.412">
        <ele>177.5</ele>
        <time>2013-06-23T07:22:52Z</time>
      </trkpt>
      <trkpt lat="43.16593" lon="2.41202">
        <ele>177.5</ele>
        <time>2013-06-23T07:22:53Z</time>
      </trkpt>
      <trkpt lat="43.16591" lon="2.41206">
        <ele>177.98</ele>
        <time>2013-06-23T07:22:54Z</time>
      </trkpt>
      <trkpt lat="43.16589" lon="2.4121">
        <ele>177.98</ele>
        <time>2013-06-23T07:22:55Z</time>
      </trkpt>
      <trkpt lat="43.16574" lon="2.41246">
        <ele>181.35</ele>
        <time>2013-06-23T07:23:06Z</time>
      </trkpt>
      <trkpt lat="43.16572" lon="2.41274">
        <ele>185.19</ele>
        <time>2013-06-23T07:23:20Z</time>
      </trkpt>
      <trkpt lat="43.16571" lon="2.41277">
        <ele>185.19</ele>
        <time>2013-06-23T07:23:21Z</time>
      </trkpt>
      <trkpt lat="43.16569" lon="2.4128">
        <ele>185.19</ele>
        <time>2013-06-23T07:23:22Z</time>
      </trkpt>
      <trkpt lat="43.16566" lon="2.41283">
        <ele>185.67</ele>
        <time>2013-06-23T07:23:23Z</time>
      </trkpt>
      <trkpt lat="43.16564" lon="2.41287">
        <ele>186.15</ele>
        <time>2013-06-23T07:23:24Z</time>
      </trkpt>
      <trkpt lat="43.16563" lon="2.41291">
        <ele>186.63</ele>
        <time>2013-06-23T07:23:25Z</time>
      </trkpt>
      <trkpt lat="43.16562" lon="2.41307">
        <ele>188.08</ele>
        <time>2013-06-23T07:23:29Z</time>
      </trkpt>
      <trkpt lat="43.16564" lon="2.41309">
        <ele>188.56</ele>
        <time>2013-06-23T07:23:30Z</time>
      </trkpt>
      <trkpt lat="43.16565" lon="2.4131">
        <ele>188.56</ele>
        <time>2013-06-23T07:23:31Z</time>
      </trkpt>
      <trkpt lat="43.16569" lon="2.41314">
        <ele>193.36</ele>
        <time>2013-06-23T07:23:40Z</time>
      </trkpt>
      <trkpt lat="43.16577" lon="2.41329">
        <ele>196.25</ele>
        <time>2013-06-23T07:23:49Z</time>
      </trkpt>
      <trkpt lat="43.16585" lon="2.4136">
        <ele>199.13</ele>
        <time>2013-06-23T07:23:59Z</time>
      </trkpt>
      <trkpt lat="43.16594" lon="2.41379">
        <ele>202.01</ele>
        <time>2013-06-23T07:24:07Z</time>
      </trkpt>
      <trkpt lat="43.16594" lon="2.41382">
        <ele>202.01</ele>
        <time>2013-06-23T07:24:08Z</time>
      </trkpt>
      <trkpt lat="43.16594" lon="2.41384">
        <ele>202.01</ele>
        <time>2013-06-23T07:24:09Z</time>
      </trkpt>
      <trkpt lat="43.16594" lon="2.41386">
        <ele>202.49</ele>
        <time>2013-06-23T07:24:10Z</time>
      </trkpt>
      <trkpt lat="43.16595" lon="2.41389">
        <ele>202.98</ele>
        <time>2013-06-23T07:24:11Z</time>
      </trkpt>
      <trkpt lat="43.16595" lon="2.41391">
        <ele>203.46</ele>
        <time>2013-06-23T07:24:12Z</time>
      </trkpt>
      <trkpt lat="43.16596" lon="2.41393">
        <ele>203.46</ele>
        <time>2013-06-23T07:24:13Z</time>
      </trkpt>
      <trkpt lat="43.16598" lon="2.41395">
        <ele>203.94</ele>
        <time>2013-06-23T07:24:14Z</time>
      </trkpt>
      <trkpt lat="43.16599" lon="2.41396">
        <ele>204.42</ele>
        <time>2013-06-23T07:24:15Z</time>
      </trkpt>
      <trkpt lat="43.166" lon="2.41397">
        <ele>204.42</ele>
        <time>2013-06-23T07:24:16Z</time>
      </trkpt>
      <trkpt lat="43.16601" lon="2.41398">
        <ele>204.9</ele>
        <time>2013-06-23T07:24:17Z</time>
      </trkpt>
      <trkpt lat="43.16603" lon="2.41409">
        <ele>206.34</ele>
        <time>2013-06-23T07:24:22Z</time>
      </trkpt>
      <trkpt lat="43.16602" lon="2.41411">
        <ele>206.82</ele>
        <time>2013-06-23T07:24:23Z</time>
      </trkpt>
      <trkpt lat="43.16601" lon="2.41414">
        <ele>206.82</ele>
        <time>2013-06-23T07:24:24Z</time>
      </trkpt>
      <trkpt lat="43.16599" lon="2.41417">
        <ele>207.3</ele>
        <time>2013-06-23T07:24:25Z</time>
      </trkpt>
      <trkpt lat="43.16597" lon="2.4142">
        <ele>207.3</ele>
        <time>2013-06-23T07:24:26Z</time>
      </trkpt>
      <trkpt lat="43.16593" lon="2.41438">
        <ele>207.3</ele>
        <time>2013-06-23T07:24:32Z</time>
      </trkpt>
      <trkpt lat="43.16593" lon="2.4144">
        <ele>207.3</ele>
        <time>2013-06-23T07:24:33Z</time>
      </trkpt>
      <trkpt lat="43.16594" lon="2.41444">
        <ele>207.3</ele>
        <time>2013-06-23T07:24:34Z</time>
      </trkpt>
      <trkpt lat="43.16596" lon="2.41447">
        <ele>207.3</ele>
        <time>2013-06-23T07:24:35Z</time>
      </trkpt>
      <trkpt lat="43.16598" lon="2.4145">
        <ele>207.3</ele>
        <time>2013-06-23T07:24:36Z</time>
      </trkpt>
      <trkpt lat="43.16612" lon="2.41476">
        <ele>207.78</ele>
        <time>2013-06-23T07:24:46Z</time>
      </trkpt>
      <trkpt lat="43.16623" lon="2.41499">
        <ele>209.7</ele>
        <time>2013-06-23T07:24:57Z</time>
      </trkpt>
      <trkpt lat="43.16624" lon="2.415">
        <ele>209.7</ele>
        <time>2013-06-23T07:24:58Z</time>
      </trkpt>
      <trkpt lat="43.16626" lon="2.41503">
        <ele>210.19</ele>
        <time>2013-06-23T07:24:59Z</time>
      </trkpt>
      <trkpt lat="43.16634" lon="2.41524">
        <ele>211.63</ele>
        <time>2013-06-23T07:25:09Z</time>
      </trkpt>
      <trkpt lat="43.16637" lon="2.41531">
        <ele>212.11</ele>
        <time>2013-06-23T07:25:12Z</time>
      </trkpt>
      <trkpt lat="43.16642" lon="2.41537">
        <ele>211.63</ele>
        <time>2013-06-23T07:25:14Z</time>
      </trkpt>
      <trkpt lat="43.16645" lon="2.41543">
        <ele>211.15</ele>
        <time>2013-06-23T07:25:15Z</time>
      </trkpt>
      <trkpt lat="43.16645" lon="2.41548">
        <ele>211.15</ele>
        <time>2013-06-23T07:25:16Z</time>
      </trkpt>
      <trkpt lat="43.16645" lon="2.41559">
        <ele>210.67</ele>
        <time>2013-06-23T07:25:18Z</time>
      </trkpt>
      <trkpt lat="43.16646" lon="2.41565">
        <ele>210.67</ele>
        <time>2013-06-23T07:25:19Z</time>
      </trkpt>
      <trkpt lat="43.16648" lon="2.4157">
        <ele>210.67</ele>
        <time>2013-06-23T07:25:20Z</time>
      </trkpt>
      <trkpt lat="43.1665" lon="2.41575">
        <ele>210.67</ele>
        <time>2013-06-23T07:25:21Z</time>
      </trkpt>
      <trkpt lat="43.16652" lon="2.41579">
        <ele>210.67</ele>
        <time>2013-06-23T07:25:22Z</time>
      </trkpt>
      <trkpt lat="43.16654" lon="2.41583">
        <ele>210.67</ele>
        <time>2013-06-23T07:25:23Z</time>
      </trkpt>
      <trkpt lat="43.16655" lon="2.41587">
        <ele>210.67</ele>
        <time>2013-06-23T07:25:24Z</time>
      </trkpt>
      <trkpt lat="43.16655" lon="2.41591">
        <ele>210.67</ele>
        <time>2013-06-23T07:25:25Z</time>
      </trkpt>
      <trkpt lat="43.16671" lon="2.41626">
        <ele>212.11</ele>
        <time>2013-06-23T07:25:35Z</time>
      </trkpt>
      <trkpt lat="43.16686" lon="2.41647">
        <ele>217.4</ele>
        <time>2013-06-23T07:25:46Z</time>
      </trkpt>
      <trkpt lat="43.16694" lon="2.41681">
        <ele>216.91</ele>
        <time>2013-06-23T07:25:58Z</time>
      </trkpt>
      <trkpt lat="43.16708" lon="2.41731">
        <ele>217.4</ele>
        <time>2013-06-23T07:26:09Z</time>
      </trkpt>
      <trkpt lat="43.16712" lon="2.41748">
        <ele>217.88</ele>
        <time>2013-06-23T07:26:12Z</time>
      </trkpt>
      <trkpt lat="43.16713" lon="2.41754">
        <ele>217.88</ele>
        <time>2013-06-23T07:26:13Z</time>
      </trkpt>
      <trkpt lat="43.16714" lon="2.41759">
        <ele>217.88</ele>
        <time>2013-06-23T07:26:14Z</time>
      </trkpt>
      <trkpt lat="43.16728" lon="2.41822">
        <ele>221.24</ele>
        <time>2013-06-23T07:26:28Z</time>
      </trkpt>
      <trkpt lat="43.16735" lon="2.41843">
        <ele>223.16</ele>
        <time>2013-06-23T07:26:34Z</time>
      </trkpt>
      <trkpt lat="43.16737" lon="2.41844">
        <ele>223.64</ele>
        <time>2013-06-23T07:26:35Z</time>
      </trkpt>
      <trkpt lat="43.16738" lon="2.41846">
        <ele>224.12</ele>
        <time>2013-06-23T07:26:36Z</time>
      </trkpt>
      <trkpt lat="43.1674" lon="2.41849">
        <ele>224.61</ele>
        <time>2013-06-23T07:26:37Z</time>
      </trkpt>
      <trkpt lat="43.16741" lon="2.41853">
        <ele>225.09</ele>
        <time>2013-06-23T07:26:38Z</time>
      </trkpt>
      <trkpt lat="43.16742" lon="2.41856">
        <ele>225.09</ele>
        <time>2013-06-23T07:26:39Z</time>
      </trkpt>
      <trkpt lat="43.16744" lon="2.41859">
        <ele>225.57</ele>
        <time>2013-06-23T07:26:40Z</time>
      </trkpt>
      <trkpt lat="43.16746" lon="2.41863">
        <ele>225.57</ele>
        <time>2013-06-23T07:26:41Z</time>
      </trkpt>
      <trkpt lat="43.16751" lon="2.41883">
        <ele>227.01</ele>
        <time>2013-06-23T07:26:45Z</time>
      </trkpt>
      <trkpt lat="43.16751" lon="2.41888">
        <ele>227.97</ele>
        <time>2013-06-23T07:26:46Z</time>
      </trkpt>
      <trkpt lat="43.16751" lon="2.41894">
        <ele>228.45</ele>
        <time>2013-06-23T07:26:47Z</time>
      </trkpt>
      <trkpt lat="43.16751" lon="2.419">
        <ele>228.93</ele>
        <time>2013-06-23T07:26:48Z</time>
      </trkpt>
      <trkpt lat="43.16752" lon="2.41905">
        <ele>229.41</ele>
        <time>2013-06-23T07:26:49Z</time>
      </trkpt>
      <trkpt lat="43.16758" lon="2.41932">
        <ele>229.89</ele>
        <time>2013-06-23T07:26:56Z</time>
      </trkpt>
      <trkpt lat="43.16758" lon="2.41938">
        <ele>229.89</ele>
        <time>2013-06-23T07:26:57Z</time>
      </trkpt>
      <trkpt lat="43.1676" lon="2.4195">
        <ele>229.89</ele>
        <time>2013-06-23T07:26:59Z</time>
      </trkpt>
      <trkpt lat="43.16761" lon="2.41957">
        <ele>229.89</ele>
        <time>2013-06-23T07:27:00Z</time>
      </trkpt>
      <trkpt lat="43.16771" lon="2.42015">
        <ele>228.45</ele>
        <time>2013-06-23T07:27:10Z</time>
      </trkpt>
      <trkpt lat="43.16774" lon="2.42023">
        <ele>227.01</ele>
        <time>2013-06-23T07:27:11Z</time>
      </trkpt>
      <trkpt lat="43.16778" lon="2.4203">
        <ele>226.05</ele>
        <time>2013-06-23T07:27:12Z</time>
      </trkpt>
      <trkpt lat="43.16783" lon="2.42034">
        <ele>224.61</ele>
        <time>2013-06-23T07:27:13Z</time>
      </trkpt>
      <trkpt lat="43.16788" lon="2.42039">
        <ele>223.16</ele>
        <time>2013-06-23T07:27:14Z</time>
      </trkpt>
      <trkpt lat="43.16794" lon="2.42046">
        <ele>221.72</ele>
        <time>2013-06-23T07:27:15Z</time>
      </trkpt>
      <trkpt lat="43.16799" lon="2.42054">
        <ele>220.28</ele>
        <time>2013-06-23T07:27:16Z</time>
      </trkpt>
      <trkpt lat="43.16803" lon="2.42062">
        <ele>219.32</ele>
        <time>2013-06-23T07:27:17Z</time>
      </trkpt>
      <trkpt lat="43.16809" lon="2.42069">
        <ele>218.36</ele>
        <time>2013-06-23T07:27:18Z</time>
      </trkpt>
      <trkpt lat="43.16815" lon="2.42073">
        <ele>217.88</ele>
        <time>2013-06-23T07:27:19Z</time>
      </trkpt>
      <trkpt lat="43.1682" lon="2.42075">
        <ele>217.4</ele>
        <time>2013-06-23T07:27:20Z</time>
      </trkpt>
      <trkpt lat="43.16825" lon="2.42079">
        <ele>217.4</ele>
        <time>2013-06-23T07:27:21Z</time>
      </trkpt>
      <trkpt lat="43.16829" lon="2.42084">
        <ele>217.88</ele>
        <time>2013-06-23T07:27:22Z</time>
      </trkpt>
      <trkpt lat="43.16833" lon="2.42089">
        <ele>217.88</ele>
        <time>2013-06-23T07:27:23Z</time>
      </trkpt>
      <trkpt lat="43.16837" lon="2.4209">
        <ele>217.88</ele>
        <time>2013-06-23T07:27:24Z</time>
      </trkpt>
      <trkpt lat="43.16841" lon="2.42089">
        <ele>218.36</ele>
        <time>2013-06-23T07:27:25Z</time>
      </trkpt>
      <trkpt lat="43.16845" lon="2.4209">
        <ele>218.36</ele>
        <time>2013-06-23T07:27:26Z</time>
      </trkpt>
      <trkpt lat="43.16848" lon="2.42092">
        <ele>218.84</ele>
        <time>2013-06-23T07:27:27Z</time>
      </trkpt>
      <trkpt lat="43.16851" lon="2.42093">
        <ele>218.84</ele>
        <time>2013-06-23T07:27:28Z</time>
      </trkpt>
      <trkpt lat="43.16854" lon="2.42091">
        <ele>219.32</ele>
        <time>2013-06-23T07:27:29Z</time>
      </trkpt>
      <trkpt lat="43.16856" lon="2.42091">
        <ele>219.32</ele>
        <time>2013-06-23T07:27:30Z</time>
      </trkpt>
      <trkpt lat="43.1686" lon="2.4209">
        <ele>218.84</ele>
        <time>2013-06-23T07:27:31Z</time>
      </trkpt>
      <trkpt lat="43.16864" lon="2.42089">
        <ele>218.36</ele>
        <time>2013-06-23T07:27:32Z</time>
      </trkpt>
      <trkpt lat="43.16868" lon="2.42089">
        <ele>217.4</ele>
        <time>2013-06-23T07:27:33Z</time>
      </trkpt>
      <trkpt lat="43.16873" lon="2.42092">
        <ele>216.43</ele>
        <time>2013-06-23T07:27:34Z</time>
      </trkpt>
      <trkpt lat="43.16877" lon="2.42093">
        <ele>215.47</ele>
        <time>2013-06-23T07:27:35Z</time>
      </trkpt>
      <trkpt lat="43.16881" lon="2.42091">
        <ele>214.03</ele>
        <time>2013-06-23T07:27:36Z</time>
      </trkpt>
      <trkpt lat="43.16886" lon="2.42087">
        <ele>213.55</ele>
        <time>2013-06-23T07:27:37Z</time>
      </trkpt>
      <trkpt lat="43.1689" lon="2.42084">
        <ele>212.59</ele>
        <time>2013-06-23T07:27:38Z</time>
      </trkpt>
      <trkpt lat="43.16895" lon="2.42084">
        <ele>211.63</ele>
        <time>2013-06-23T07:27:39Z</time>
      </trkpt>
      <trkpt lat="43.169" lon="2.42086">
        <ele>210.67</ele>
        <time>2013-06-23T07:27:40Z</time>
      </trkpt>
      <trkpt lat="43.16913" lon="2.42094">
        <ele>207.78</ele>
        <time>2013-06-23T07:27:44Z</time>
      </trkpt>
      <trkpt lat="43.16916" lon="2.42093">
        <ele>206.34</ele>
        <time>2013-06-23T07:27:45Z</time>
      </trkpt>
      <trkpt lat="43.16919" lon="2.42092">
        <ele>205.38</ele>
        <time>2013-06-23T07:27:46Z</time>
      </trkpt>
      <trkpt lat="43.1692" lon="2.4209">
        <ele>204.42</ele>
        <time>2013-06-23T07:27:47Z</time>
      </trkpt>
      <trkpt lat="43.1692" lon="2.42088">
        <ele>203.94</ele>
        <time>2013-06-23T07:27:48Z</time>
      </trkpt>
      <trkpt lat="43.16921" lon="2.42087">
        <ele>202.98</ele>
        <time>2013-06-23T07:27:49Z</time>
      </trkpt>
      <trkpt lat="43.16922" lon="2.42085">
        <ele>202.98</ele>
        <time>2013-06-23T07:27:50Z</time>
      </trkpt>
      <trkpt lat="43.16925" lon="2.42086">
        <ele>202.01</ele>
        <time>2013-06-23T07:27:51Z</time>
      </trkpt>
      <trkpt lat="43.16929" lon="2.42087">
        <ele>201.53</ele>
        <time>2013-06-23T07:27:52Z</time>
      </trkpt>
      <trkpt lat="43.16937" lon="2.42085">
        <ele>200.09</ele>
        <time>2013-06-23T07:27:54Z</time>
      </trkpt>
      <trkpt lat="43.16952" lon="2.42081">
        <ele>198.17</ele>
        <time>2013-06-23T07:27:58Z</time>
      </trkpt>
      <trkpt lat="43.16956" lon="2.42081">
        <ele>197.21</ele>
        <time>2013-06-23T07:27:59Z</time>
      </trkpt>
      <trkpt lat="43.16961" lon="2.42082">
        <ele>196.73</ele>
        <time>2013-06-23T07:28:00Z</time>
      </trkpt>
      <trkpt lat="43.16965" lon="2.42081">
        <ele>196.25</ele>
        <time>2013-06-23T07:28:01Z</time>
      </trkpt>
      <trkpt lat="43.1697" lon="2.42081">
        <ele>195.77</ele>
        <time>2013-06-23T07:28:02Z</time>
      </trkpt>
      <trkpt lat="43.16974" lon="2.42083">
        <ele>195.28</ele>
        <time>2013-06-23T07:28:03Z</time>
      </trkpt>
      <trkpt lat="43.16978" lon="2.42085">
        <ele>195.28</ele>
        <time>2013-06-23T07:28:04Z</time>
      </trkpt>
      <trkpt lat="43.16985" lon="2.4209">
        <ele>194.8</ele>
        <time>2013-06-23T07:28:06Z</time>
      </trkpt>
      <trkpt lat="43.16989" lon="2.42092">
        <ele>194.8</ele>
        <time>2013-06-23T07:28:07Z</time>
      </trkpt>
      <trkpt lat="43.16992" lon="2.42093">
        <ele>194.8</ele>
        <time>2013-06-23T07:28:08Z</time>
      </trkpt>
      <trkpt lat="43.16995" lon="2.42091">
        <ele>194.32</ele>
        <time>2013-06-23T07:28:09Z</time>
      </trkpt>
      <trkpt lat="43.16998" lon="2.42089">
        <ele>193.84</ele>
        <time>2013-06-23T07:28:10Z</time>
      </trkpt>
      <trkpt lat="43.17" lon="2.42086">
        <ele>193.36</ele>
        <time>2013-06-23T07:28:11Z</time>
      </trkpt>
      <trkpt lat="43.17003" lon="2.42085">
        <ele>192.88</ele>
        <time>2013-06-23T07:28:12Z</time>
      </trkpt>
      <trkpt lat="43.17005" lon="2.42084">
        <ele>191.92</ele>
        <time>2013-06-23T07:28:13Z</time>
      </trkpt>
      <trkpt lat="43.17008" lon="2.42081">
        <ele>190.96</ele>
        <time>2013-06-23T07:28:14Z</time>
      </trkpt>
      <trkpt lat="43.1701" lon="2.42078">
        <ele>190</ele>
        <time>2013-06-23T07:28:15Z</time>
      </trkpt>
      <trkpt lat="43.17013" lon="2.42076">
        <ele>189.52</ele>
        <time>2013-06-23T07:28:16Z</time>
      </trkpt>
      <trkpt lat="43.17015" lon="2.42075">
        <ele>188.56</ele>
        <time>2013-06-23T07:28:17Z</time>
      </trkpt>
      <trkpt lat="43.17017" lon="2.42074">
        <ele>187.59</ele>
        <time>2013-06-23T07:28:18Z</time>
      </trkpt>
      <trkpt lat="43.1702" lon="2.42072">
        <ele>186.63</ele>
        <time>2013-06-23T07:28:19Z</time>
      </trkpt>
      <trkpt lat="43.17024" lon="2.42068">
        <ele>185.67</ele>
        <time>2013-06-23T07:28:20Z</time>
      </trkpt>
      <trkpt lat="43.17028" lon="2.42065">
        <ele>184.71</ele>
        <time>2013-06-23T07:28:21Z</time>
      </trkpt>
      <trkpt lat="43.17031" lon="2.42065">
        <ele>184.23</ele>
        <time>2013-06-23T07:28:22Z</time>
      </trkpt>
      <trkpt lat="43.17035" lon="2.42065">
        <ele>183.75</ele>
        <time>2013-06-23T07:28:23Z</time>
      </trkpt>
      <trkpt lat="43.17038" lon="2.42067">
        <ele>183.27</ele>
        <time>2013-06-23T07:28:24Z</time>
      </trkpt>
      <trkpt lat="43.17045" lon="2.42066">
        <ele>182.31</ele>
        <time>2013-06-23T07:28:26Z</time>
      </trkpt>
      <trkpt lat="43.17058" lon="2.42062">
        <ele>180.38</ele>
        <time>2013-06-23T07:28:28Z</time>
      </trkpt>
      <trkpt lat="43.17064" lon="2.42062">
        <ele>179.9</ele>
        <time>2013-06-23T07:28:29Z</time>
      </trkpt>
      <trkpt lat="43.1707" lon="2.42059">
        <ele>178.94</ele>
        <time>2013-06-23T07:28:30Z</time>
      </trkpt>
      <trkpt lat="43.17074" lon="2.42055">
        <ele>177.98</ele>
        <time>2013-06-23T07:28:31Z</time>
      </trkpt>
      <trkpt lat="43.17079" lon="2.42051">
        <ele>177.02</ele>
        <time>2013-06-23T07:28:32Z</time>
      </trkpt>
      <trkpt lat="43.17084" lon="2.42049">
        <ele>176.06</ele>
        <time>2013-06-23T07:28:33Z</time>
      </trkpt>
      <trkpt lat="43.17089" lon="2.42048">
        <ele>175.58</ele>
        <time>2013-06-23T07:28:34Z</time>
      </trkpt>
      <trkpt lat="43.17092" lon="2.42046">
        <ele>174.62</ele>
        <time>2013-06-23T07:28:35Z</time>
      </trkpt>
      <trkpt lat="43.17094" lon="2.42045">
        <ele>173.66</ele>
        <time>2013-06-23T07:28:36Z</time>
      </trkpt>
      <trkpt lat="43.17096" lon="2.42046">
        <ele>172.21</ele>
        <time>2013-06-23T07:28:37Z</time>
      </trkpt>
      <trkpt lat="43.17098" lon="2.42047">
        <ele>170.77</ele>
        <time>2013-06-23T07:28:38Z</time>
      </trkpt>
      <trkpt lat="43.17101" lon="2.42048">
        <ele>169.81</ele>
        <time>2013-06-23T07:28:39Z</time>
      </trkpt>
      <trkpt lat="43.17103" lon="2.42052">
        <ele>168.85</ele>
        <time>2013-06-23T07:28:40Z</time>
      </trkpt>
      <trkpt lat="43.17105" lon="2.42056">
        <ele>167.89</ele>
        <time>2013-06-23T07:28:41Z</time>
      </trkpt>
      <trkpt lat="43.17108" lon="2.4206">
        <ele>166.93</ele>
        <time>2013-06-23T07:28:42Z</time>
      </trkpt>
      <trkpt lat="43.17111" lon="2.42063">
        <ele>165.96</ele>
        <time>2013-06-23T07:28:43Z</time>
      </trkpt>
      <trkpt lat="43.17119" lon="2.42074">
        <ele>163.08</ele>
        <time>2013-06-23T07:28:46Z</time>
      </trkpt>
      <trkpt lat="43.17123" lon="2.42076">
        <ele>162.12</ele>
        <time>2013-06-23T07:28:47Z</time>
      </trkpt>
      <trkpt lat="43.17128" lon="2.42076">
        <ele>160.68</ele>
        <time>2013-06-23T07:28:48Z</time>
      </trkpt>
      <trkpt lat="43.17133" lon="2.42074">
        <ele>160.2</ele>
        <time>2013-06-23T07:28:49Z</time>
      </trkpt>
      <trkpt lat="43.17138" lon="2.42071">
        <ele>159.24</ele>
        <time>2013-06-23T07:28:50Z</time>
      </trkpt>
      <trkpt lat="43.17144" lon="2.42068">
        <ele>158.27</ele>
        <time>2013-06-23T07:28:51Z</time>
      </trkpt>
      <trkpt lat="43.17152" lon="2.42066">
        <ele>157.31</ele>
        <time>2013-06-23T07:28:52Z</time>
      </trkpt>
      <trkpt lat="43.17158" lon="2.42067">
        <ele>156.35</ele>
        <time>2013-06-23T07:28:53Z</time>
      </trkpt>
      <trkpt lat="43.17163" lon="2.42069">
        <ele>155.87</ele>
        <time>2013-06-23T07:28:54Z</time>
      </trkpt>
      <trkpt lat="43.17165" lon="2.42071">
        <ele>155.39</ele>
        <time>2013-06-23T07:28:55Z</time>
      </trkpt>
      <trkpt lat="43.17167" lon="2.42072">
        <ele>155.39</ele>
        <time>2013-06-23T07:28:56Z</time>
      </trkpt>
      <trkpt lat="43.17169" lon="2.42073">
        <ele>155.39</ele>
        <time>2013-06-23T07:28:57Z</time>
      </trkpt>
      <trkpt lat="43.17171" lon="2.42075">
        <ele>154.91</ele>
        <time>2013-06-23T07:28:58Z</time>
      </trkpt>
      <trkpt lat="43.17184" lon="2.42091">
        <ele>153.47</ele>
        <time>2013-06-23T07:29:04Z</time>
      </trkpt>
      <trkpt lat="43.17186" lon="2.42093">
        <ele>153.95</ele>
        <time>2013-06-23T07:29:05Z</time>
      </trkpt>
      <trkpt lat="43.17188" lon="2.42094">
        <ele>154.43</ele>
        <time>2013-06-23T07:29:06Z</time>
      </trkpt>
      <trkpt lat="43.17189" lon="2.42094">
        <ele>154.91</ele>
        <time>2013-06-23T07:29:07Z</time>
      </trkpt>
      <trkpt lat="43.17191" lon="2.42095">
        <ele>155.39</ele>
        <time>2013-06-23T07:29:08Z</time>
      </trkpt>
      <trkpt lat="43.17194" lon="2.42096">
        <ele>155.39</ele>
        <time>2013-06-23T07:29:09Z</time>
      </trkpt>
      <trkpt lat="43.17197" lon="2.42097">
        <ele>155.39</ele>
        <time>2013-06-23T07:29:10Z</time>
      </trkpt>
      <trkpt lat="43.17202" lon="2.42098">
        <ele>155.39</ele>
        <time>2013-06-23T07:29:11Z</time>
      </trkpt>
      <trkpt lat="43.17206" lon="2.42099">
        <ele>155.39</ele>
        <time>2013-06-23T07:29:12Z</time>
      </trkpt>
      <trkpt lat="43.17211" lon="2.42098">
        <ele>155.39</ele>
        <time>2013-06-23T07:29:13Z</time>
      </trkpt>
      <trkpt lat="43.1722" lon="2.42096">
        <ele>154.91</ele>
        <time>2013-06-23T07:29:15Z</time>
      </trkpt>
      <trkpt lat="43.17224" lon="2.42096">
        <ele>154.43</ele>
        <time>2013-06-23T07:29:16Z</time>
      </trkpt>
      <trkpt lat="43.17228" lon="2.42095">
        <ele>154.43</ele>
        <time>2013-06-23T07:29:17Z</time>
      </trkpt>
      <trkpt lat="43.1726" lon="2.42093">
        <ele>156.35</ele>
        <time>2013-06-23T07:29:28Z</time>
      </trkpt>
      <trkpt lat="43.17284" lon="2.42093">
        <ele>160.2</ele>
        <time>2013-06-23T07:29:37Z</time>
      </trkpt>
      <trkpt lat="43.17298" lon="2.42093">
        <ele>159.72</ele>
        <time>2013-06-23T07:29:42Z</time>
      </trkpt>
      <trkpt lat="43.17302" lon="2.42093">
        <ele>158.75</ele>
        <time>2013-06-23T07:29:43Z</time>
      </trkpt>
      <trkpt lat="43.17305" lon="2.42094">
        <ele>158.27</ele>
        <time>2013-06-23T07:29:44Z</time>
      </trkpt>
      <trkpt lat="43.17308" lon="2.42097">
        <ele>157.79</ele>
        <time>2013-06-23T07:29:45Z</time>
      </trkpt>
      <trkpt lat="43.1731" lon="2.42101">
        <ele>157.79</ele>
        <time>2013-06-23T07:29:46Z</time>
      </trkpt>
      <trkpt lat="43.17312" lon="2.42105">
        <ele>157.31</ele>
        <time>2013-06-23T07:29:47Z</time>
      </trkpt>
      <trkpt lat="43.17315" lon="2.42115">
        <ele>156.83</ele>
        <time>2013-06-23T07:29:49Z</time>
      </trkpt>
      <trkpt lat="43.17317" lon="2.4212">
        <ele>156.35</ele>
        <time>2013-06-23T07:29:50Z</time>
      </trkpt>
      <trkpt lat="43.17319" lon="2.42124">
        <ele>155.87</ele>
        <time>2013-06-23T07:29:51Z</time>
      </trkpt>
      <trkpt lat="43.1732" lon="2.42126">
        <ele>155.87</ele>
        <time>2013-06-23T07:29:52Z</time>
      </trkpt>
      <trkpt lat="43.17321" lon="2.42128">
        <ele>155.87</ele>
        <time>2013-06-23T07:29:53Z</time>
      </trkpt>
      <trkpt lat="43.17321" lon="2.4213">
        <ele>155.39</ele>
        <time>2013-06-23T07:29:54Z</time>
      </trkpt>
      <trkpt lat="43.17322" lon="2.42134">
        <ele>155.39</ele>
        <time>2013-06-23T07:29:56Z</time>
      </trkpt>
      <trkpt lat="43.17323" lon="2.42137">
        <ele>155.39</ele>
        <time>2013-06-23T07:29:57Z</time>
      </trkpt>
      <trkpt lat="43.17323" lon="2.42139">
        <ele>154.91</ele>
        <time>2013-06-23T07:29:58Z</time>
      </trkpt>
      <trkpt lat="43.17324" lon="2.42141">
        <ele>154.91</ele>
        <time>2013-06-23T07:29:59Z</time>
      </trkpt>
      <trkpt lat="43.17324" lon="2.42144">
        <ele>154.91</ele>
        <time>2013-06-23T07:30:00Z</time>
      </trkpt>
      <trkpt lat="43.17333" lon="2.42182">
        <ele>155.39</ele>
        <time>2013-06-23T07:30:09Z</time>
      </trkpt>
      <trkpt lat="43.17349" lon="2.42213">
        <ele>154.43</ele>
        <time>2013-06-23T07:30:18Z</time>
      </trkpt>
      <trkpt lat="43.17365" lon="2.42228">
        <ele>153.95</ele>
        <time>2013-06-23T07:30:25Z</time>
      </trkpt>
      <trkpt lat="43.17387" lon="2.42231">
        <ele>150.1</ele>
        <time>2013-06-23T07:30:36Z</time>
      </trkpt>
      <trkpt lat="43.17396" lon="2.42227">
        <ele>149.14</ele>
        <time>2013-06-23T07:30:45Z</time>
      </trkpt>
      <trkpt lat="43.17398" lon="2.42226">
        <ele>150.1</ele>
        <time>2013-06-23T07:30:48Z</time>
      </trkpt>
      <trkpt lat="43.174" lon="2.42226">
        <ele>150.58</ele>
        <time>2013-06-23T07:30:49Z</time>
      </trkpt>
      <trkpt lat="43.17402" lon="2.42224">
        <ele>150.58</ele>
        <time>2013-06-23T07:30:50Z</time>
      </trkpt>
      <trkpt lat="43.17405" lon="2.42221">
        <ele>150.58</ele>
        <time>2013-06-23T07:30:53Z</time>
      </trkpt>
      <trkpt lat="43.17409" lon="2.42213">
        <ele>150.1</ele>
        <time>2013-06-23T07:30:56Z</time>
      </trkpt>
      <trkpt lat="43.17412" lon="2.42211">
        <ele>150.1</ele>
        <time>2013-06-23T07:30:57Z</time>
      </trkpt>
      <trkpt lat="43.17414" lon="2.4221">
        <ele>150.58</ele>
        <time>2013-06-23T07:30:58Z</time>
      </trkpt>
      <trkpt lat="43.17416" lon="2.42208">
        <ele>150.58</ele>
        <time>2013-06-23T07:30:59Z</time>
      </trkpt>
      <trkpt lat="43.17419" lon="2.42204">
        <ele>150.58</ele>
        <time>2013-06-23T07:31:00Z</time>
      </trkpt>
      <trkpt lat="43.17422" lon="2.422">
        <ele>150.1</ele>
        <time>2013-06-23T07:31:01Z</time>
      </trkpt>
      <trkpt lat="43.17426" lon="2.42197">
        <ele>150.1</ele>
        <time>2013-06-23T07:31:02Z</time>
      </trkpt>
      <trkpt lat="43.1743" lon="2.42195">
        <ele>150.1</ele>
        <time>2013-06-23T07:31:03Z</time>
      </trkpt>
      <trkpt lat="43.17436" lon="2.42193">
        <ele>150.1</ele>
        <time>2013-06-23T07:31:04Z</time>
      </trkpt>
      <trkpt lat="43.17446" lon="2.42182">
        <ele>150.1</ele>
        <time>2013-06-23T07:31:07Z</time>
      </trkpt>
      <trkpt lat="43.17467" lon="2.42157">
        <ele>149.14</ele>
        <time>2013-06-23T07:31:14Z</time>
      </trkpt>
      <trkpt lat="43.17469" lon="2.42119">
        <ele>150.1</ele>
        <time>2013-06-23T07:31:23Z</time>
      </trkpt>
      <trkpt lat="43.17468" lon="2.42097">
        <ele>150.58</ele>
        <time>2013-06-23T07:31:28Z</time>
      </trkpt>
      <trkpt lat="43.1746" lon="2.42068">
        <ele>153.47</ele>
        <time>2013-06-23T07:31:36Z</time>
      </trkpt>
      <trkpt lat="43.17461" lon="2.42045">
        <ele>156.35</ele>
        <time>2013-06-23T07:31:44Z</time>
      </trkpt>
      <trkpt lat="43.1747" lon="2.42046">
        <ele>158.27</ele>
        <time>2013-06-23T07:31:49Z</time>
      </trkpt>
      <trkpt lat="43.17495" lon="2.42066">
        <ele>158.75</ele>
        <time>2013-06-23T07:31:57Z</time>
      </trkpt>
      <trkpt lat="43.17513" lon="2.42044">
        <ele>158.75</ele>
        <time>2013-06-23T07:32:02Z</time>
      </trkpt>
      <trkpt lat="43.17552" lon="2.4201">
        <ele>156.83</ele>
        <time>2013-06-23T07:32:16Z</time>
      </trkpt>
      <trkpt lat="43.17553" lon="2.4201">
        <ele>156.83</ele>
        <time>2013-06-23T07:32:17Z</time>
      </trkpt>
      <trkpt lat="43.17557" lon="2.42005">
        <ele>157.79</ele>
        <time>2013-06-23T07:32:22Z</time>
      </trkpt>
      <trkpt lat="43.17564" lon="2.41997">
        <ele>158.27</ele>
        <time>2013-06-23T07:32:38Z</time>
      </trkpt>
      <trkpt lat="43.17568" lon="2.41998">
        <ele>158.27</ele>
        <time>2013-06-23T07:32:51Z</time>
      </trkpt>
      <trkpt lat="43.17569" lon="2.41993">
        <ele>158.27</ele>
        <time>2013-06-23T07:33:02Z</time>
      </trkpt>
      <trkpt lat="43.17572" lon="2.41989">
        <ele>158.75</ele>
        <time>2013-06-23T07:33:14Z</time>
      </trkpt>
      <trkpt lat="43.17574" lon="2.41984">
        <ele>161.64</ele>
        <time>2013-06-23T07:33:37Z</time>
      </trkpt>
      <trkpt lat="43.17573" lon="2.41979">
        <ele>158.75</ele>
        <time>2013-06-23T07:34:10Z</time>
      </trkpt>
      <trkpt lat="43.17574" lon="2.41982">
        <ele>164.04</ele>
        <time>2013-06-23T07:34:40Z</time>
      </trkpt>
      <trkpt lat="43.17574" lon="2.41977">
        <ele>168.85</ele>
        <time>2013-06-23T07:35:06Z</time>
      </trkpt>
      <trkpt lat="43.17575" lon="2.41983">
        <ele>164.52</ele>
        <time>2013-06-23T07:35:38Z</time>
      </trkpt>
      <trkpt lat="43.17574" lon="2.41988">
        <ele>165.48</ele>
        <time>2013-06-23T07:35:56Z</time>
      </trkpt>
      <trkpt lat="43.17573" lon="2.41989">
        <ele>164.52</ele>
        <time>2013-06-23T07:36:13Z</time>
      </trkpt>
      <trkpt lat="43.17572" lon="2.41988">
        <ele>162.6</ele>
        <time>2013-06-23T07:36:41Z</time>
      </trkpt>
      <trkpt lat="43.17572" lon="2.41989">
        <ele>163.08</ele>
        <time>2013-06-23T07:36:59Z</time>
      </trkpt>
      <trkpt lat="43.17572" lon="2.4199">
        <ele>163.08</ele>
        <time>2013-06-23T07:37:01Z</time>
      </trkpt>
      <trkpt lat="43.17563" lon="2.42008">
        <ele>158.75</ele>
        <time>2013-06-23T07:37:10Z</time>
      </trkpt>
      <trkpt lat="43.17556" lon="2.42022">
        <ele>156.83</ele>
        <time>2013-06-23T07:37:12Z</time>
      </trkpt>
      <trkpt lat="43.17549" lon="2.42057">
        <ele>149.14</ele>
        <time>2013-06-23T07:37:19Z</time>
      </trkpt>
      <trkpt lat="43.17551" lon="2.42054">
        <ele>148.66</ele>
        <time>2013-06-23T07:37:20Z</time>
      </trkpt>
      <trkpt lat="43.17579" lon="2.42036">
        <ele>145.78</ele>
        <time>2013-06-23T07:37:25Z</time>
      </trkpt>
      <trkpt lat="43.1761" lon="2.42044">
        <ele>143.85</ele>
        <time>2013-06-23T07:37:31Z</time>
      </trkpt>
      <trkpt lat="43.17626" lon="2.42049">
        <ele>143.85</ele>
        <time>2013-06-23T07:37:37Z</time>
      </trkpt>
      <trkpt lat="43.1763" lon="2.42022">
        <ele>143.85</ele>
        <time>2013-06-23T07:37:43Z</time>
      </trkpt>
      <trkpt lat="43.17638" lon="2.41996">
        <ele>143.85</ele>
        <time>2013-06-23T07:37:47Z</time>
      </trkpt>
      <trkpt lat="43.17671" lon="2.41973">
        <ele>144.82</ele>
        <time>2013-06-23T07:37:55Z</time>
      </trkpt>
      <trkpt lat="43.17682" lon="2.41926">
        <ele>143.37</ele>
        <time>2013-06-23T07:38:01Z</time>
      </trkpt>
      <trkpt lat="43.1769" lon="2.41887">
        <ele>142.41</ele>
        <time>2013-06-23T07:38:07Z</time>
      </trkpt>
      <trkpt lat="43.17693" lon="2.41879">
        <ele>142.41</ele>
        <time>2013-06-23T07:38:09Z</time>
      </trkpt>
      <trkpt lat="43.17698" lon="2.41869">
        <ele>141.93</ele>
        <time>2013-06-23T07:38:11Z</time>
      </trkpt>
      <trkpt lat="43.1772" lon="2.4183">
        <ele>140.49</ele>
        <time>2013-06-23T07:38:17Z</time>
      </trkpt>
      <trkpt lat="43.1774" lon="2.41818">
        <ele>139.53</ele>
        <time>2013-06-23T07:38:22Z</time>
      </trkpt>
      <trkpt lat="43.17776" lon="2.41811">
        <ele>140.97</ele>
        <time>2013-06-23T07:38:30Z</time>
      </trkpt>
      <trkpt lat="43.17784" lon="2.41807">
        <ele>141.45</ele>
        <time>2013-06-23T07:38:32Z</time>
      </trkpt>
      <trkpt lat="43.17801" lon="2.41799">
        <ele>142.89</ele>
        <time>2013-06-23T07:38:36Z</time>
      </trkpt>
      <trkpt lat="43.17817" lon="2.41801">
        <ele>143.37</ele>
        <time>2013-06-23T07:38:39Z</time>
      </trkpt>
      <trkpt lat="43.17821" lon="2.41805">
        <ele>143.85</ele>
        <time>2013-06-23T07:38:40Z</time>
      </trkpt>
      <trkpt lat="43.17825" lon="2.41811">
        <ele>143.85</ele>
        <time>2013-06-23T07:38:41Z</time>
      </trkpt>
      <trkpt lat="43.17869" lon="2.41873">
        <ele>143.85</ele>
        <time>2013-06-23T07:38:55Z</time>
      </trkpt>
      <trkpt lat="43.17909" lon="2.41875">
        <ele>149.14</ele>
        <time>2013-06-23T07:39:05Z</time>
      </trkpt>
      <trkpt lat="43.17913" lon="2.41873">
        <ele>149.62</ele>
        <time>2013-06-23T07:39:06Z</time>
      </trkpt>
      <trkpt lat="43.17933" lon="2.41861">
        <ele>150.58</ele>
        <time>2013-06-23T07:39:10Z</time>
      </trkpt>
      <trkpt lat="43.17938" lon="2.41857">
        <ele>150.58</ele>
        <time>2013-06-23T07:39:11Z</time>
      </trkpt>
      <trkpt lat="43.17943" lon="2.41851">
        <ele>150.1</ele>
        <time>2013-06-23T07:39:12Z</time>
      </trkpt>
      <trkpt lat="43.17984" lon="2.41822">
        <ele>147.7</ele>
        <time>2013-06-23T07:39:18Z</time>
      </trkpt>
      <trkpt lat="43.1799" lon="2.41816">
        <ele>147.22</ele>
        <time>2013-06-23T07:39:19Z</time>
      </trkpt>
      <trkpt lat="43.17995" lon="2.4181">
        <ele>146.74</ele>
        <time>2013-06-23T07:39:20Z</time>
      </trkpt>
      <trkpt lat="43.18018" lon="2.41789">
        <ele>143.85</ele>
        <time>2013-06-23T07:39:24Z</time>
      </trkpt>
      <trkpt lat="43.18028" lon="2.41777">
        <ele>142.41</ele>
        <time>2013-06-23T07:39:26Z</time>
      </trkpt>
      <trkpt lat="43.18043" lon="2.41752">
        <ele>142.41</ele>
        <time>2013-06-23T07:39:30Z</time>
      </trkpt>
      <trkpt lat="43.18051" lon="2.41745">
        <ele>142.41</ele>
        <time>2013-06-23T07:39:32Z</time>
      </trkpt>
      <trkpt lat="43.18056" lon="2.41743">
        <ele>142.41</ele>
        <time>2013-06-23T07:39:33Z</time>
      </trkpt>
      <trkpt lat="43.18062" lon="2.41742">
        <ele>142.41</ele>
        <time>2013-06-23T07:39:34Z</time>
      </trkpt>
      <trkpt lat="43.18067" lon="2.41742">
        <ele>142.41</ele>
        <time>2013-06-23T07:39:35Z</time>
      </trkpt>
      <trkpt lat="43.18072" lon="2.41743">
        <ele>142.41</ele>
        <time>2013-06-23T07:39:36Z</time>
      </trkpt>
      <trkpt lat="43.18076" lon="2.41746">
        <ele>142.89</ele>
        <time>2013-06-23T07:39:37Z</time>
      </trkpt>
      <trkpt lat="43.18079" lon="2.41748">
        <ele>143.37</ele>
        <time>2013-06-23T07:39:38Z</time>
      </trkpt>
      <trkpt lat="43.18083" lon="2.41751">
        <ele>143.85</ele>
        <time>2013-06-23T07:39:39Z</time>
      </trkpt>
      <trkpt lat="43.18096" lon="2.41761">
        <ele>145.3</ele>
        <time>2013-06-23T07:39:42Z</time>
      </trkpt>
      <trkpt lat="43.18124" lon="2.41784">
        <ele>148.18</ele>
        <time>2013-06-23T07:39:48Z</time>
      </trkpt>
      <trkpt lat="43.18128" lon="2.41788">
        <ele>148.18</ele>
        <time>2013-06-23T07:39:49Z</time>
      </trkpt>
      <trkpt lat="43.18147" lon="2.41813">
        <ele>147.7</ele>
        <time>2013-06-23T07:39:53Z</time>
      </trkpt>
      <trkpt lat="43.18151" lon="2.41821">
        <ele>147.22</ele>
        <time>2013-06-23T07:39:54Z</time>
      </trkpt>
      <trkpt lat="43.18155" lon="2.41831">
        <ele>146.74</ele>
        <time>2013-06-23T07:39:55Z</time>
      </trkpt>
      <trkpt lat="43.18157" lon="2.41841">
        <ele>146.26</ele>
        <time>2013-06-23T07:39:56Z</time>
      </trkpt>
      <trkpt lat="43.18158" lon="2.41852">
        <ele>145.78</ele>
        <time>2013-06-23T07:39:57Z</time>
      </trkpt>
      <trkpt lat="43.18157" lon="2.41862">
        <ele>145.3</ele>
        <time>2013-06-23T07:39:58Z</time>
      </trkpt>
      <trkpt lat="43.18155" lon="2.41872">
        <ele>144.82</ele>
        <time>2013-06-23T07:39:59Z</time>
      </trkpt>
      <trkpt lat="43.18139" lon="2.41957">
        <ele>144.34</ele>
        <time>2013-06-23T07:40:07Z</time>
      </trkpt>
      <trkpt lat="43.18135" lon="2.41976">
        <ele>144.82</ele>
        <time>2013-06-23T07:40:09Z</time>
      </trkpt>
      <trkpt lat="43.18133" lon="2.41987">
        <ele>144.82</ele>
        <time>2013-06-23T07:40:10Z</time>
      </trkpt>
      <trkpt lat="43.18129" lon="2.41996">
        <ele>144.34</ele>
        <time>2013-06-23T07:40:11Z</time>
      </trkpt>
      <trkpt lat="43.18123" lon="2.42005">
        <ele>144.34</ele>
        <time>2013-06-23T07:40:12Z</time>
      </trkpt>
      <trkpt lat="43.18117" lon="2.42013">
        <ele>144.34</ele>
        <time>2013-06-23T07:40:13Z</time>
      </trkpt>
      <trkpt lat="43.18111" lon="2.4202">
        <ele>144.34</ele>
        <time>2013-06-23T07:40:14Z</time>
      </trkpt>
      <trkpt lat="43.18107" lon="2.4203">
        <ele>143.85</ele>
        <time>2013-06-23T07:40:15Z</time>
      </trkpt>
      <trkpt lat="43.18104" lon="2.42041">
        <ele>143.85</ele>
        <time>2013-06-23T07:40:16Z</time>
      </trkpt>
      <trkpt lat="43.18103" lon="2.42052">
        <ele>143.37</ele>
        <time>2013-06-23T07:40:17Z</time>
      </trkpt>
      <trkpt lat="43.18103" lon="2.42064">
        <ele>143.85</ele>
        <time>2013-06-23T07:40:18Z</time>
      </trkpt>
      <trkpt lat="43.18103" lon="2.42074">
        <ele>143.85</ele>
        <time>2013-06-23T07:40:19Z</time>
      </trkpt>
      <trkpt lat="43.18101" lon="2.42083">
        <ele>144.34</ele>
        <time>2013-06-23T07:40:20Z</time>
      </trkpt>
      <trkpt lat="43.18098" lon="2.42091">
        <ele>144.82</ele>
        <time>2013-06-23T07:40:21Z</time>
      </trkpt>
      <trkpt lat="43.18095" lon="2.42099">
        <ele>144.82</ele>
        <time>2013-06-23T07:40:22Z</time>
      </trkpt>
      <trkpt lat="43.18092" lon="2.42106">
        <ele>145.3</ele>
        <time>2013-06-23T07:40:23Z</time>
      </trkpt>
      <trkpt lat="43.18073" lon="2.42145">
        <ele>148.18</ele>
        <time>2013-06-23T07:40:30Z</time>
      </trkpt>
      <trkpt lat="43.18071" lon="2.42151">
        <ele>148.18</ele>
        <time>2013-06-23T07:40:31Z</time>
      </trkpt>
      <trkpt lat="43.1807" lon="2.42158">
        <ele>148.66</ele>
        <time>2013-06-23T07:40:32Z</time>
      </trkpt>
      <trkpt lat="43.18071" lon="2.42165">
        <ele>149.14</ele>
        <time>2013-06-23T07:40:33Z</time>
      </trkpt>
      <trkpt lat="43.18073" lon="2.42172">
        <ele>149.14</ele>
        <time>2013-06-23T07:40:34Z</time>
      </trkpt>
      <trkpt lat="43.18077" lon="2.42179">
        <ele>149.62</ele>
        <time>2013-06-23T07:40:35Z</time>
      </trkpt>
      <trkpt lat="43.18082" lon="2.42183">
        <ele>150.1</ele>
        <time>2013-06-23T07:40:36Z</time>
      </trkpt>
      <trkpt lat="43.18087" lon="2.42185">
        <ele>150.58</ele>
        <time>2013-06-23T07:40:37Z</time>
      </trkpt>
      <trkpt lat="43.18092" lon="2.42187">
        <ele>150.58</ele>
        <time>2013-06-23T07:40:38Z</time>
      </trkpt>
      <trkpt lat="43.18097" lon="2.42189">
        <ele>151.54</ele>
        <time>2013-06-23T07:40:39Z</time>
      </trkpt>
      <trkpt lat="43.18101" lon="2.4219">
        <ele>152.03</ele>
        <time>2013-06-23T07:40:40Z</time>
      </trkpt>
      <trkpt lat="43.18106" lon="2.4219">
        <ele>152.51</ele>
        <time>2013-06-23T07:40:41Z</time>
      </trkpt>
      <trkpt lat="43.18109" lon="2.42191">
        <ele>153.47</ele>
        <time>2013-06-23T07:40:42Z</time>
      </trkpt>
      <trkpt lat="43.1811" lon="2.42196">
        <ele>154.91</ele>
        <time>2013-06-23T07:40:45Z</time>
      </trkpt>
      <trkpt lat="43.18107" lon="2.42197">
        <ele>155.39</ele>
        <time>2013-06-23T07:40:46Z</time>
      </trkpt>
      <trkpt lat="43.18105" lon="2.422">
        <ele>155.39</ele>
        <time>2013-06-23T07:40:47Z</time>
      </trkpt>
      <trkpt lat="43.18103" lon="2.42204">
        <ele>155.39</ele>
        <time>2013-06-23T07:40:48Z</time>
      </trkpt>
      <trkpt lat="43.18098" lon="2.42217">
        <ele>153.95</ele>
        <time>2013-06-23T07:40:51Z</time>
      </trkpt>
      <trkpt lat="43.18098" lon="2.42222">
        <ele>153.95</ele>
        <time>2013-06-23T07:40:52Z</time>
      </trkpt>
      <trkpt lat="43.18097" lon="2.42227">
        <ele>153.95</ele>
        <time>2013-06-23T07:40:53Z</time>
      </trkpt>
      <trkpt lat="43.18082" lon="2.42288">
        <ele>155.87</ele>
        <time>2013-06-23T07:41:03Z</time>
      </trkpt>
      <trkpt lat="43.1808" lon="2.42294">
        <ele>156.35</ele>
        <time>2013-06-23T07:41:04Z</time>
      </trkpt>
      <trkpt lat="43.18075" lon="2.42305">
        <ele>156.35</ele>
        <time>2013-06-23T07:41:06Z</time>
      </trkpt>
      <trkpt lat="43.18066" lon="2.42318">
        <ele>157.31</ele>
        <time>2013-06-23T07:41:09Z</time>
      </trkpt>
      <trkpt lat="43.18063" lon="2.4232">
        <ele>157.79</ele>
        <time>2013-06-23T07:41:10Z</time>
      </trkpt>
      <trkpt lat="43.18059" lon="2.4232">
        <ele>157.79</ele>
        <time>2013-06-23T07:41:11Z</time>
      </trkpt>
      <trkpt lat="43.1805" lon="2.42319">
        <ele>158.75</ele>
        <time>2013-06-23T07:41:14Z</time>
      </trkpt>
      <trkpt lat="43.18048" lon="2.42315">
        <ele>159.24</ele>
        <time>2013-06-23T07:41:15Z</time>
      </trkpt>
      <trkpt lat="43.18047" lon="2.4231">
        <ele>160.2</ele>
        <time>2013-06-23T07:41:16Z</time>
      </trkpt>
      <trkpt lat="43.18048" lon="2.42305">
        <ele>160.68</ele>
        <time>2013-06-23T07:41:17Z</time>
      </trkpt>
      <trkpt lat="43.18048" lon="2.42299">
        <ele>160.68</ele>
        <time>2013-06-23T07:41:18Z</time>
      </trkpt>
      <trkpt lat="43.18049" lon="2.42293">
        <ele>161.16</ele>
        <time>2013-06-23T07:41:19Z</time>
      </trkpt>
      <trkpt lat="43.18052" lon="2.42244">
        <ele>161.16</ele>
        <time>2013-06-23T07:41:27Z</time>
      </trkpt>
      <trkpt lat="43.18054" lon="2.42227">
        <ele>161.64</ele>
        <time>2013-06-23T07:41:30Z</time>
      </trkpt>
      <trkpt lat="43.18054" lon="2.42221">
        <ele>161.64</ele>
        <time>2013-06-23T07:41:31Z</time>
      </trkpt>
      <trkpt lat="43.18053" lon="2.42215">
        <ele>161.64</ele>
        <time>2013-06-23T07:41:32Z</time>
      </trkpt>
      <trkpt lat="43.1805" lon="2.42204">
        <ele>161.64</ele>
        <time>2013-06-23T07:41:34Z</time>
      </trkpt>
      <trkpt lat="43.18048" lon="2.42199">
        <ele>162.12</ele>
        <time>2013-06-23T07:41:35Z</time>
      </trkpt>
      <trkpt lat="43.18032" lon="2.42183">
        <ele>162.6</ele>
        <time>2013-06-23T07:41:40Z</time>
      </trkpt>
      <trkpt lat="43.18028" lon="2.42182">
        <ele>162.6</ele>
        <time>2013-06-23T07:41:41Z</time>
      </trkpt>
      <trkpt lat="43.18016" lon="2.42177">
        <ele>162.6</ele>
        <time>2013-06-23T07:41:44Z</time>
      </trkpt>
      <trkpt lat="43.18012" lon="2.42174">
        <ele>162.6</ele>
        <time>2013-06-23T07:41:45Z</time>
      </trkpt>
      <trkpt lat="43.18011" lon="2.4217">
        <ele>163.08</ele>
        <time>2013-06-23T07:41:46Z</time>
      </trkpt>
      <trkpt lat="43.18012" lon="2.42164">
        <ele>163.08</ele>
        <time>2013-06-23T07:41:47Z</time>
      </trkpt>
      <trkpt lat="43.18014" lon="2.42159">
        <ele>163.08</ele>
        <time>2013-06-23T07:41:48Z</time>
      </trkpt>
      <trkpt lat="43.18018" lon="2.42154">
        <ele>163.56</ele>
        <time>2013-06-23T07:41:49Z</time>
      </trkpt>
      <trkpt lat="43.18021" lon="2.42149">
        <ele>163.56</ele>
        <time>2013-06-23T07:41:50Z</time>
      </trkpt>
      <trkpt lat="43.18023" lon="2.42143">
        <ele>164.04</ele>
        <time>2013-06-23T07:41:51Z</time>
      </trkpt>
      <trkpt lat="43.18032" lon="2.42122">
        <ele>164.52</ele>
        <time>2013-06-23T07:41:55Z</time>
      </trkpt>
      <trkpt lat="43.18033" lon="2.42115">
        <ele>165</ele>
        <time>2013-06-23T07:41:56Z</time>
      </trkpt>
      <trkpt lat="43.1804" lon="2.42077">
        <ele>165.48</ele>
        <time>2013-06-23T07:42:02Z</time>
      </trkpt>
      <trkpt lat="43.1804" lon="2.42071">
        <ele>165.96</ele>
        <time>2013-06-23T07:42:03Z</time>
      </trkpt>
      <trkpt lat="43.18039" lon="2.42022">
        <ele>165.96</ele>
        <time>2013-06-23T07:42:10Z</time>
      </trkpt>
      <trkpt lat="43.1804" lon="2.42015">
        <ele>166.45</ele>
        <time>2013-06-23T07:42:11Z</time>
      </trkpt>
      <trkpt lat="43.18041" lon="2.42009">
        <ele>166.45</ele>
        <time>2013-06-23T07:42:12Z</time>
      </trkpt>
      <trkpt lat="43.18052" lon="2.41971">
        <ele>166.93</ele>
        <time>2013-06-23T07:42:18Z</time>
      </trkpt>
      <trkpt lat="43.18053" lon="2.41964">
        <ele>166.93</ele>
        <time>2013-06-23T07:42:19Z</time>
      </trkpt>
      <trkpt lat="43.18053" lon="2.41957">
        <ele>167.41</ele>
        <time>2013-06-23T07:42:20Z</time>
      </trkpt>
      <trkpt lat="43.18052" lon="2.4195">
        <ele>167.41</ele>
        <time>2013-06-23T07:42:21Z</time>
      </trkpt>
      <trkpt lat="43.18051" lon="2.41944">
        <ele>167.41</ele>
        <time>2013-06-23T07:42:22Z</time>
      </trkpt>
      <trkpt lat="43.18049" lon="2.41937">
        <ele>167.41</ele>
        <time>2013-06-23T07:42:23Z</time>
      </trkpt>
      <trkpt lat="43.18046" lon="2.41932">
        <ele>167.41</ele>
        <time>2013-06-23T07:42:24Z</time>
      </trkpt>
      <trkpt lat="43.18042" lon="2.41929">
        <ele>167.41</ele>
        <time>2013-06-23T07:42:25Z</time>
      </trkpt>
      <trkpt lat="43.18036" lon="2.41926">
        <ele>167.41</ele>
        <time>2013-06-23T07:42:26Z</time>
      </trkpt>
      <trkpt lat="43.18031" lon="2.41924">
        <ele>167.41</ele>
        <time>2013-06-23T07:42:27Z</time>
      </trkpt>
      <trkpt lat="43.18005" lon="2.41918">
        <ele>166.93</ele>
        <time>2013-06-23T07:42:32Z</time>
      </trkpt>
      <trkpt lat="43.17994" lon="2.41918">
        <ele>166.93</ele>
        <time>2013-06-23T07:42:34Z</time>
      </trkpt>
      <trkpt lat="43.17989" lon="2.41918">
        <ele>166.93</ele>
        <time>2013-06-23T07:42:35Z</time>
      </trkpt>
      <trkpt lat="43.17978" lon="2.41918">
        <ele>166.93</ele>
        <time>2013-06-23T07:42:37Z</time>
      </trkpt>
      <trkpt lat="43.17972" lon="2.4192">
        <ele>166.93</ele>
        <time>2013-06-23T07:42:38Z</time>
      </trkpt>
      <trkpt lat="43.17956" lon="2.41927">
        <ele>166.93</ele>
        <time>2013-06-23T07:42:41Z</time>
      </trkpt>
      <trkpt lat="43.17951" lon="2.4193">
        <ele>166.93</ele>
        <time>2013-06-23T07:42:42Z</time>
      </trkpt>
      <trkpt lat="43.17935" lon="2.41941">
        <ele>167.41</ele>
        <time>2013-06-23T07:42:45Z</time>
      </trkpt>
      <trkpt lat="43.17933" lon="2.41948">
        <ele>167.41</ele>
        <time>2013-06-23T07:42:46Z</time>
      </trkpt>
      <trkpt lat="43.1793" lon="2.41971">
        <ele>167.41</ele>
        <time>2013-06-23T07:42:49Z</time>
      </trkpt>
      <trkpt lat="43.17931" lon="2.41979">
        <ele>167.41</ele>
        <time>2013-06-23T07:42:50Z</time>
      </trkpt>
      <trkpt lat="43.17932" lon="2.41987">
        <ele>167.89</ele>
        <time>2013-06-23T07:42:51Z</time>
      </trkpt>
      <trkpt lat="43.17934" lon="2.41995">
        <ele>167.89</ele>
        <time>2013-06-23T07:42:52Z</time>
      </trkpt>
      <trkpt lat="43.17937" lon="2.42003">
        <ele>168.37</ele>
        <time>2013-06-23T07:42:53Z</time>
      </trkpt>
      <trkpt lat="43.17971" lon="2.42088">
        <ele>168.85</ele>
        <time>2013-06-23T07:43:05Z</time>
      </trkpt>
      <trkpt lat="43.17974" lon="2.421">
        <ele>169.33</ele>
        <time>2013-06-23T07:43:07Z</time>
      </trkpt>
      <trkpt lat="43.17974" lon="2.42107">
        <ele>169.33</ele>
        <time>2013-06-23T07:43:08Z</time>
      </trkpt>
      <trkpt lat="43.17973" lon="2.42113">
        <ele>169.33</ele>
        <time>2013-06-23T07:43:09Z</time>
      </trkpt>
      <trkpt lat="43.17971" lon="2.42125">
        <ele>169.81</ele>
        <time>2013-06-23T07:43:11Z</time>
      </trkpt>
      <trkpt lat="43.17968" lon="2.42131">
        <ele>170.29</ele>
        <time>2013-06-23T07:43:12Z</time>
      </trkpt>
      <trkpt lat="43.17966" lon="2.42136">
        <ele>170.29</ele>
        <time>2013-06-23T07:43:13Z</time>
      </trkpt>
      <trkpt lat="43.17962" lon="2.42141">
        <ele>170.77</ele>
        <time>2013-06-23T07:43:14Z</time>
      </trkpt>
      <trkpt lat="43.17958" lon="2.42145">
        <ele>170.77</ele>
        <time>2013-06-23T07:43:15Z</time>
      </trkpt>
      <trkpt lat="43.17954" lon="2.42148">
        <ele>170.77</ele>
        <time>2013-06-23T07:43:16Z</time>
      </trkpt>
      <trkpt lat="43.17949" lon="2.4215">
        <ele>171.25</ele>
        <time>2013-06-23T07:43:17Z</time>
      </trkpt>
      <trkpt lat="43.17944" lon="2.42151">
        <ele>171.25</ele>
        <time>2013-06-23T07:43:18Z</time>
      </trkpt>
      <trkpt lat="43.17925" lon="2.42156">
        <ele>171.73</ele>
        <time>2013-06-23T07:43:22Z</time>
      </trkpt>
      <trkpt lat="43.1792" lon="2.42155">
        <ele>171.73</ele>
        <time>2013-06-23T07:43:23Z</time>
      </trkpt>
      <trkpt lat="43.17916" lon="2.42155">
        <ele>171.73</ele>
        <time>2013-06-23T07:43:24Z</time>
      </trkpt>
      <trkpt lat="43.17883" lon="2.42151">
        <ele>173.17</ele>
        <time>2013-06-23T07:43:31Z</time>
      </trkpt>
      <trkpt lat="43.17878" lon="2.42153">
        <ele>173.66</ele>
        <time>2013-06-23T07:43:32Z</time>
      </trkpt>
      <trkpt lat="43.17873" lon="2.42156">
        <ele>173.66</ele>
        <time>2013-06-23T07:43:33Z</time>
      </trkpt>
      <trkpt lat="43.1787" lon="2.4216">
        <ele>174.14</ele>
        <time>2013-06-23T07:43:34Z</time>
      </trkpt>
      <trkpt lat="43.17867" lon="2.42166">
        <ele>174.14</ele>
        <time>2013-06-23T07:43:35Z</time>
      </trkpt>
      <trkpt lat="43.17865" lon="2.42171">
        <ele>174.62</ele>
        <time>2013-06-23T07:43:36Z</time>
      </trkpt>
      <trkpt lat="43.17862" lon="2.42176">
        <ele>175.1</ele>
        <time>2013-06-23T07:43:37Z</time>
      </trkpt>
      <trkpt lat="43.17859" lon="2.4218">
        <ele>175.1</ele>
        <time>2013-06-23T07:43:38Z</time>
      </trkpt>
      <trkpt lat="43.17855" lon="2.42183">
        <ele>175.1</ele>
        <time>2013-06-23T07:43:39Z</time>
      </trkpt>
      <trkpt lat="43.17851" lon="2.42187">
        <ele>175.1</ele>
        <time>2013-06-23T07:43:40Z</time>
      </trkpt>
      <trkpt lat="43.17846" lon="2.4219">
        <ele>175.1</ele>
        <time>2013-06-23T07:43:41Z</time>
      </trkpt>
      <trkpt lat="43.17841" lon="2.42191">
        <ele>175.1</ele>
        <time>2013-06-23T07:43:42Z</time>
      </trkpt>
      <trkpt lat="43.17831" lon="2.42194">
        <ele>175.1</ele>
        <time>2013-06-23T07:43:44Z</time>
      </trkpt>
      <trkpt lat="43.17826" lon="2.42193">
        <ele>175.1</ele>
        <time>2013-06-23T07:43:45Z</time>
      </trkpt>
      <trkpt lat="43.17821" lon="2.42193">
        <ele>175.1</ele>
        <time>2013-06-23T07:43:46Z</time>
      </trkpt>
      <trkpt lat="43.17806" lon="2.42189">
        <ele>175.1</ele>
        <time>2013-06-23T07:43:49Z</time>
      </trkpt>
      <trkpt lat="43.17789" lon="2.42186">
        <ele>176.06</ele>
        <time>2013-06-23T07:43:52Z</time>
      </trkpt>
      <trkpt lat="43.17753" lon="2.42183">
        <ele>176.06</ele>
        <time>2013-06-23T07:43:57Z</time>
      </trkpt>
      <trkpt lat="43.17747" lon="2.42187">
        <ele>176.06</ele>
        <time>2013-06-23T07:43:58Z</time>
      </trkpt>
      <trkpt lat="43.17742" lon="2.42194">
        <ele>176.06</ele>
        <time>2013-06-23T07:43:59Z</time>
      </trkpt>
      <trkpt lat="43.17739" lon="2.42204">
        <ele>175.58</ele>
        <time>2013-06-23T07:44:00Z</time>
      </trkpt>
      <trkpt lat="43.17739" lon="2.42213">
        <ele>175.58</ele>
        <time>2013-06-23T07:44:01Z</time>
      </trkpt>
      <trkpt lat="43.17742" lon="2.42222">
        <ele>175.58</ele>
        <time>2013-06-23T07:44:02Z</time>
      </trkpt>
      <trkpt lat="43.17744" lon="2.42231">
        <ele>175.58</ele>
        <time>2013-06-23T07:44:03Z</time>
      </trkpt>
      <trkpt lat="43.17745" lon="2.4224">
        <ele>175.58</ele>
        <time>2013-06-23T07:44:04Z</time>
      </trkpt>
      <trkpt lat="43.17743" lon="2.42248">
        <ele>176.06</ele>
        <time>2013-06-23T07:44:05Z</time>
      </trkpt>
      <trkpt lat="43.17739" lon="2.42254">
        <ele>175.58</ele>
        <time>2013-06-23T07:44:06Z</time>
      </trkpt>
      <trkpt lat="43.17734" lon="2.42258">
        <ele>175.58</ele>
        <time>2013-06-23T07:44:07Z</time>
      </trkpt>
      <trkpt lat="43.17728" lon="2.42261">
        <ele>175.58</ele>
        <time>2013-06-23T07:44:08Z</time>
      </trkpt>
      <trkpt lat="43.17716" lon="2.42267">
        <ele>175.1</ele>
        <time>2013-06-23T07:44:10Z</time>
      </trkpt>
      <trkpt lat="43.17709" lon="2.42268">
        <ele>174.62</ele>
        <time>2013-06-23T07:44:11Z</time>
      </trkpt>
      <trkpt lat="43.17703" lon="2.42266">
        <ele>174.62</ele>
        <time>2013-06-23T07:44:12Z</time>
      </trkpt>
      <trkpt lat="43.17697" lon="2.42262">
        <ele>174.62</ele>
        <time>2013-06-23T07:44:13Z</time>
      </trkpt>
      <trkpt lat="43.17692" lon="2.42257">
        <ele>174.62</ele>
        <time>2013-06-23T07:44:14Z</time>
      </trkpt>
      <trkpt lat="43.17678" lon="2.42245">
        <ele>174.14</ele>
        <time>2013-06-23T07:44:17Z</time>
      </trkpt>
      <trkpt lat="43.17675" lon="2.4224">
        <ele>174.14</ele>
        <time>2013-06-23T07:44:18Z</time>
      </trkpt>
      <trkpt lat="43.17672" lon="2.42235">
        <ele>174.14</ele>
        <time>2013-06-23T07:44:19Z</time>
      </trkpt>
      <trkpt lat="43.17669" lon="2.42229">
        <ele>174.14</ele>
        <time>2013-06-23T07:44:20Z</time>
      </trkpt>
      <trkpt lat="43.17666" lon="2.42224">
        <ele>174.14</ele>
        <time>2013-06-23T07:44:21Z</time>
      </trkpt>
      <trkpt lat="43.17663" lon="2.42219">
        <ele>174.14</ele>
        <time>2013-06-23T07:44:22Z</time>
      </trkpt>
      <trkpt lat="43.17659" lon="2.42216">
        <ele>174.14</ele>
        <time>2013-06-23T07:44:23Z</time>
      </trkpt>
      <trkpt lat="43.17655" lon="2.42214">
        <ele>174.62</ele>
        <time>2013-06-23T07:44:24Z</time>
      </trkpt>
      <trkpt lat="43.17651" lon="2.42213">
        <ele>174.62</ele>
        <time>2013-06-23T07:44:25Z</time>
      </trkpt>
      <trkpt lat="43.17647" lon="2.42214">
        <ele>174.62</ele>
        <time>2013-06-23T07:44:26Z</time>
      </trkpt>
      <trkpt lat="43.17643" lon="2.42217">
        <ele>174.62</ele>
        <time>2013-06-23T07:44:27Z</time>
      </trkpt>
      <trkpt lat="43.17639" lon="2.4222">
        <ele>175.1</ele>
        <time>2013-06-23T07:44:28Z</time>
      </trkpt>
      <trkpt lat="43.17635" lon="2.42224">
        <ele>175.58</ele>
        <time>2013-06-23T07:44:29Z</time>
      </trkpt>
      <trkpt lat="43.17632" lon="2.42229">
        <ele>176.06</ele>
        <time>2013-06-23T07:44:30Z</time>
      </trkpt>
      <trkpt lat="43.17624" lon="2.4224">
        <ele>177.02</ele>
        <time>2013-06-23T07:44:32Z</time>
      </trkpt>
      <trkpt lat="43.17606" lon="2.42255">
        <ele>177.98</ele>
        <time>2013-06-23T07:44:36Z</time>
      </trkpt>
      <trkpt lat="43.17602" lon="2.42258">
        <ele>177.98</ele>
        <time>2013-06-23T07:44:37Z</time>
      </trkpt>
      <trkpt lat="43.17597" lon="2.4226">
        <ele>178.46</ele>
        <time>2013-06-23T07:44:38Z</time>
      </trkpt>
      <trkpt lat="43.17562" lon="2.42269">
        <ele>178.46</ele>
        <time>2013-06-23T07:44:45Z</time>
      </trkpt>
      <trkpt lat="43.17556" lon="2.4227">
        <ele>178.46</ele>
        <time>2013-06-23T07:44:46Z</time>
      </trkpt>
      <trkpt lat="43.1755" lon="2.42272">
        <ele>178.46</ele>
        <time>2013-06-23T07:44:47Z</time>
      </trkpt>
      <trkpt lat="43.17544" lon="2.42274">
        <ele>178.46</ele>
        <time>2013-06-23T07:44:48Z</time>
      </trkpt>
      <trkpt lat="43.17538" lon="2.42278">
        <ele>178.46</ele>
        <time>2013-06-23T07:44:49Z</time>
      </trkpt>
      <trkpt lat="43.1751" lon="2.42291">
        <ele>180.38</ele>
        <time>2013-06-23T07:44:54Z</time>
      </trkpt>
      <trkpt lat="43.17494" lon="2.42296">
        <ele>180.38</ele>
        <time>2013-06-23T07:44:57Z</time>
      </trkpt>
      <trkpt lat="43.17489" lon="2.423">
        <ele>180.38</ele>
        <time>2013-06-23T07:44:58Z</time>
      </trkpt>
      <trkpt lat="43.17487" lon="2.42307">
        <ele>180.38</ele>
        <time>2013-06-23T07:44:59Z</time>
      </trkpt>
      <trkpt lat="43.17485" lon="2.42316">
        <ele>180.38</ele>
        <time>2013-06-23T07:45:00Z</time>
      </trkpt>
      <trkpt lat="43.17485" lon="2.42325">
        <ele>180.38</ele>
        <time>2013-06-23T07:45:01Z</time>
      </trkpt>
      <trkpt lat="43.17485" lon="2.42333">
        <ele>180.38</ele>
        <time>2013-06-23T07:45:02Z</time>
      </trkpt>
      <trkpt lat="43.17484" lon="2.42358">
        <ele>180.87</ele>
        <time>2013-06-23T07:45:05Z</time>
      </trkpt>
      <trkpt lat="43.17482" lon="2.42366">
        <ele>181.35</ele>
        <time>2013-06-23T07:45:06Z</time>
      </trkpt>
      <trkpt lat="43.17479" lon="2.42373">
        <ele>181.35</ele>
        <time>2013-06-23T07:45:07Z</time>
      </trkpt>
      <trkpt lat="43.17476" lon="2.42379">
        <ele>181.35</ele>
        <time>2013-06-23T07:45:08Z</time>
      </trkpt>
      <trkpt lat="43.17474" lon="2.42385">
        <ele>181.35</ele>
        <time>2013-06-23T07:45:09Z</time>
      </trkpt>
      <trkpt lat="43.17471" lon="2.42392">
        <ele>181.35</ele>
        <time>2013-06-23T07:45:10Z</time>
      </trkpt>
      <trkpt lat="43.1747" lon="2.42399">
        <ele>181.35</ele>
        <time>2013-06-23T07:45:11Z</time>
      </trkpt>
      <trkpt lat="43.17468" lon="2.42406">
        <ele>181.35</ele>
        <time>2013-06-23T07:45:12Z</time>
      </trkpt>
      <trkpt lat="43.17468" lon="2.42413">
        <ele>181.35</ele>
        <time>2013-06-23T07:45:13Z</time>
      </trkpt>
      <trkpt lat="43.17468" lon="2.42421">
        <ele>181.35</ele>
        <time>2013-06-23T07:45:14Z</time>
      </trkpt>
      <trkpt lat="43.1747" lon="2.42429">
        <ele>181.83</ele>
        <time>2013-06-23T07:45:15Z</time>
      </trkpt>
      <trkpt lat="43.17472" lon="2.42436">
        <ele>181.83</ele>
        <time>2013-06-23T07:45:16Z</time>
      </trkpt>
      <trkpt lat="43.17474" lon="2.42443">
        <ele>182.31</ele>
        <time>2013-06-23T07:45:17Z</time>
      </trkpt>
      <trkpt lat="43.17476" lon="2.4245">
        <ele>182.79</ele>
        <time>2013-06-23T07:45:18Z</time>
      </trkpt>
      <trkpt lat="43.17476" lon="2.42457">
        <ele>182.79</ele>
        <time>2013-06-23T07:45:19Z</time>
      </trkpt>
      <trkpt lat="43.17474" lon="2.42463">
        <ele>183.27</ele>
        <time>2013-06-23T07:45:20Z</time>
      </trkpt>
      <trkpt lat="43.1747" lon="2.42468">
        <ele>183.75</ele>
        <time>2013-06-23T07:45:21Z</time>
      </trkpt>
      <trkpt lat="43.17465" lon="2.4247">
        <ele>183.75</ele>
        <time>2013-06-23T07:45:22Z</time>
      </trkpt>
      <trkpt lat="43.17459" lon="2.42471">
        <ele>184.23</ele>
        <time>2013-06-23T07:45:23Z</time>
      </trkpt>
      <trkpt lat="43.17449" lon="2.42475">
        <ele>184.23</ele>
        <time>2013-06-23T07:45:25Z</time>
      </trkpt>
      <trkpt lat="43.17444" lon="2.4248">
        <ele>184.23</ele>
        <time>2013-06-23T07:45:26Z</time>
      </trkpt>
      <trkpt lat="43.17441" lon="2.42486">
        <ele>184.23</ele>
        <time>2013-06-23T07:45:27Z</time>
      </trkpt>
      <trkpt lat="43.17439" lon="2.42494">
        <ele>184.71</ele>
        <time>2013-06-23T07:45:28Z</time>
      </trkpt>
      <trkpt lat="43.17438" lon="2.42502">
        <ele>184.71</ele>
        <time>2013-06-23T07:45:29Z</time>
      </trkpt>
      <trkpt lat="43.17435" lon="2.4251">
        <ele>185.19</ele>
        <time>2013-06-23T07:45:30Z</time>
      </trkpt>
      <trkpt lat="43.17431" lon="2.42516">
        <ele>185.19</ele>
        <time>2013-06-23T07:45:31Z</time>
      </trkpt>
      <trkpt lat="43.17426" lon="2.42519">
        <ele>185.67</ele>
        <time>2013-06-23T07:45:32Z</time>
      </trkpt>
      <trkpt lat="43.1742" lon="2.42522">
        <ele>185.67</ele>
        <time>2013-06-23T07:45:33Z</time>
      </trkpt>
      <trkpt lat="43.17415" lon="2.42525">
        <ele>185.67</ele>
        <time>2013-06-23T07:45:34Z</time>
      </trkpt>
      <trkpt lat="43.17413" lon="2.42531">
        <ele>186.15</ele>
        <time>2013-06-23T07:45:35Z</time>
      </trkpt>
      <trkpt lat="43.17412" lon="2.42537">
        <ele>186.15</ele>
        <time>2013-06-23T07:45:36Z</time>
      </trkpt>
      <trkpt lat="43.17414" lon="2.42543">
        <ele>186.15</ele>
        <time>2013-06-23T07:45:37Z</time>
      </trkpt>
      <trkpt lat="43.17417" lon="2.42549">
        <ele>186.15</ele>
        <time>2013-06-23T07:45:38Z</time>
      </trkpt>
      <trkpt lat="43.17421" lon="2.42554">
        <ele>186.15</ele>
        <time>2013-06-23T07:45:39Z</time>
      </trkpt>
      <trkpt lat="43.17469" lon="2.42617">
        <ele>187.59</ele>
        <time>2013-06-23T07:45:51Z</time>
      </trkpt>
      <trkpt lat="43.17483" lon="2.42643">
        <ele>190</ele>
        <time>2013-06-23T07:45:56Z</time>
      </trkpt>
      <trkpt lat="43.17483" lon="2.42649">
        <ele>190.48</ele>
        <time>2013-06-23T07:45:57Z</time>
      </trkpt>
      <trkpt lat="43.17482" lon="2.42656">
        <ele>190.48</ele>
        <time>2013-06-23T07:45:58Z</time>
      </trkpt>
      <trkpt lat="43.17481" lon="2.42663">
        <ele>190.48</ele>
        <time>2013-06-23T07:45:59Z</time>
      </trkpt>
      <trkpt lat="43.17479" lon="2.4267">
        <ele>190.48</ele>
        <time>2013-06-23T07:46:00Z</time>
      </trkpt>
      <trkpt lat="43.17481" lon="2.42771">
        <ele>189.52</ele>
        <time>2013-06-23T07:46:13Z</time>
      </trkpt>
      <trkpt lat="43.17503" lon="2.42865">
        <ele>187.59</ele>
        <time>2013-06-23T07:46:24Z</time>
      </trkpt>
      <trkpt lat="43.17508" lon="2.42871">
        <ele>187.11</ele>
        <time>2013-06-23T07:46:25Z</time>
      </trkpt>
      <trkpt lat="43.17519" lon="2.42881">
        <ele>186.63</ele>
        <time>2013-06-23T07:46:27Z</time>
      </trkpt>
      <trkpt lat="43.17524" lon="2.42888">
        <ele>186.63</ele>
        <time>2013-06-23T07:46:28Z</time>
      </trkpt>
      <trkpt lat="43.17528" lon="2.42895">
        <ele>186.15</ele>
        <time>2013-06-23T07:46:29Z</time>
      </trkpt>
      <trkpt lat="43.17532" lon="2.42902">
        <ele>186.15</ele>
        <time>2013-06-23T07:46:30Z</time>
      </trkpt>
      <trkpt lat="43.17535" lon="2.4291">
        <ele>186.15</ele>
        <time>2013-06-23T07:46:31Z</time>
      </trkpt>
      <trkpt lat="43.17537" lon="2.42919">
        <ele>185.67</ele>
        <time>2013-06-23T07:46:32Z</time>
      </trkpt>
      <trkpt lat="43.17538" lon="2.42928">
        <ele>185.67</ele>
        <time>2013-06-23T07:46:33Z</time>
      </trkpt>
      <trkpt lat="43.1754" lon="2.42936">
        <ele>185.19</ele>
        <time>2013-06-23T07:46:34Z</time>
      </trkpt>
      <trkpt lat="43.17541" lon="2.42946">
        <ele>184.71</ele>
        <time>2013-06-23T07:46:35Z</time>
      </trkpt>
      <trkpt lat="43.17543" lon="2.42955">
        <ele>184.23</ele>
        <time>2013-06-23T07:46:36Z</time>
      </trkpt>
      <trkpt lat="43.17561" lon="2.43019">
        <ele>181.83</ele>
        <time>2013-06-23T07:46:43Z</time>
      </trkpt>
      <trkpt lat="43.1756" lon="2.43029">
        <ele>181.83</ele>
        <time>2013-06-23T07:46:44Z</time>
      </trkpt>
      <trkpt lat="43.17559" lon="2.43048">
        <ele>181.35</ele>
        <time>2013-06-23T07:46:46Z</time>
      </trkpt>
      <trkpt lat="43.17557" lon="2.43057">
        <ele>181.35</ele>
        <time>2013-06-23T07:46:47Z</time>
      </trkpt>
      <trkpt lat="43.17553" lon="2.43065">
        <ele>181.83</ele>
        <time>2013-06-23T07:46:48Z</time>
      </trkpt>
      <trkpt lat="43.17549" lon="2.43072">
        <ele>182.31</ele>
        <time>2013-06-23T07:46:49Z</time>
      </trkpt>
      <trkpt lat="43.17544" lon="2.43077">
        <ele>182.79</ele>
        <time>2013-06-23T07:46:50Z</time>
      </trkpt>
      <trkpt lat="43.17539" lon="2.43083">
        <ele>183.27</ele>
        <time>2013-06-23T07:46:51Z</time>
      </trkpt>
      <trkpt lat="43.17534" lon="2.43087">
        <ele>183.75</ele>
        <time>2013-06-23T07:46:52Z</time>
      </trkpt>
      <trkpt lat="43.17487" lon="2.43119">
        <ele>183.27</ele>
        <time>2013-06-23T07:47:01Z</time>
      </trkpt>
      <trkpt lat="43.17482" lon="2.43124">
        <ele>182.79</ele>
        <time>2013-06-23T07:47:02Z</time>
      </trkpt>
      <trkpt lat="43.17478" lon="2.43131">
        <ele>182.31</ele>
        <time>2013-06-23T07:47:03Z</time>
      </trkpt>
      <trkpt lat="43.17474" lon="2.43139">
        <ele>181.83</ele>
        <time>2013-06-23T07:47:04Z</time>
      </trkpt>
      <trkpt lat="43.17471" lon="2.43148">
        <ele>181.83</ele>
        <time>2013-06-23T07:47:05Z</time>
      </trkpt>
      <trkpt lat="43.17458" lon="2.43186">
        <ele>180.87</ele>
        <time>2013-06-23T07:47:10Z</time>
      </trkpt>
      <trkpt lat="43.17429" lon="2.43237">
        <ele>179.42</ele>
        <time>2013-06-23T07:47:18Z</time>
      </trkpt>
      <trkpt lat="43.17427" lon="2.43245">
        <ele>178.94</ele>
        <time>2013-06-23T07:47:19Z</time>
      </trkpt>
      <trkpt lat="43.17426" lon="2.43255">
        <ele>178.46</ele>
        <time>2013-06-23T07:47:20Z</time>
      </trkpt>
      <trkpt lat="43.17418" lon="2.4332">
        <ele>175.58</ele>
        <time>2013-06-23T07:47:26Z</time>
      </trkpt>
      <trkpt lat="43.17413" lon="2.43331">
        <ele>174.62</ele>
        <time>2013-06-23T07:47:27Z</time>
      </trkpt>
      <trkpt lat="43.17406" lon="2.43342">
        <ele>174.14</ele>
        <time>2013-06-23T07:47:28Z</time>
      </trkpt>
      <trkpt lat="43.17384" lon="2.43371">
        <ele>172.69</ele>
        <time>2013-06-23T07:47:31Z</time>
      </trkpt>
      <trkpt lat="43.17378" lon="2.43381">
        <ele>171.73</ele>
        <time>2013-06-23T07:47:32Z</time>
      </trkpt>
      <trkpt lat="43.17374" lon="2.43392">
        <ele>171.73</ele>
        <time>2013-06-23T07:47:33Z</time>
      </trkpt>
      <trkpt lat="43.17371" lon="2.43404">
        <ele>171.25</ele>
        <time>2013-06-23T07:47:34Z</time>
      </trkpt>
      <trkpt lat="43.17371" lon="2.43415">
        <ele>170.77</ele>
        <time>2013-06-23T07:47:35Z</time>
      </trkpt>
      <trkpt lat="43.17371" lon="2.43426">
        <ele>170.77</ele>
        <time>2013-06-23T07:47:36Z</time>
      </trkpt>
      <trkpt lat="43.17371" lon="2.43478">
        <ele>171.73</ele>
        <time>2013-06-23T07:47:41Z</time>
      </trkpt>
      <trkpt lat="43.1737" lon="2.43486">
        <ele>172.21</ele>
        <time>2013-06-23T07:47:42Z</time>
      </trkpt>
      <trkpt lat="43.17367" lon="2.43494">
        <ele>172.69</ele>
        <time>2013-06-23T07:47:43Z</time>
      </trkpt>
      <trkpt lat="43.17357" lon="2.43548">
        <ele>180.38</ele>
        <time>2013-06-23T07:47:53Z</time>
      </trkpt>
      <trkpt lat="43.17349" lon="2.43597">
        <ele>185.19</ele>
        <time>2013-06-23T07:48:03Z</time>
      </trkpt>
      <trkpt lat="43.17337" lon="2.43644">
        <ele>190.96</ele>
        <time>2013-06-23T07:48:15Z</time>
      </trkpt>
      <trkpt lat="43.17325" lon="2.43694">
        <ele>195.77</ele>
        <time>2013-06-23T07:48:29Z</time>
      </trkpt>
      <trkpt lat="43.17308" lon="2.43736">
        <ele>202.49</ele>
        <time>2013-06-23T07:48:43Z</time>
      </trkpt>
      <trkpt lat="43.1728" lon="2.43756">
        <ele>205.86</ele>
        <time>2013-06-23T07:48:56Z</time>
      </trkpt>
      <trkpt lat="43.17254" lon="2.43793">
        <ele>205.38</ele>
        <time>2013-06-23T07:49:08Z</time>
      </trkpt>
      <trkpt lat="43.17252" lon="2.4381">
        <ele>205.86</ele>
        <time>2013-06-23T07:49:11Z</time>
      </trkpt>
      <trkpt lat="43.17253" lon="2.43839">
        <ele>206.34</ele>
        <time>2013-06-23T07:49:16Z</time>
      </trkpt>
      <trkpt lat="43.17254" lon="2.43846">
        <ele>206.34</ele>
        <time>2013-06-23T07:49:17Z</time>
      </trkpt>
      <trkpt lat="43.17268" lon="2.43927">
        <ele>209.22</ele>
        <time>2013-06-23T07:49:30Z</time>
      </trkpt>
      <trkpt lat="43.1726" lon="2.43981">
        <ele>210.19</ele>
        <time>2013-06-23T07:49:38Z</time>
      </trkpt>
      <trkpt lat="43.17243" lon="2.44019">
        <ele>209.22</ele>
        <time>2013-06-23T07:49:43Z</time>
      </trkpt>
      <trkpt lat="43.17234" lon="2.44033">
        <ele>208.26</ele>
        <time>2013-06-23T07:49:45Z</time>
      </trkpt>
      <trkpt lat="43.17229" lon="2.44038">
        <ele>208.26</ele>
        <time>2013-06-23T07:49:46Z</time>
      </trkpt>
      <trkpt lat="43.17223" lon="2.44043">
        <ele>207.78</ele>
        <time>2013-06-23T07:49:47Z</time>
      </trkpt>
      <trkpt lat="43.17203" lon="2.4405">
        <ele>206.34</ele>
        <time>2013-06-23T07:49:50Z</time>
      </trkpt>
      <trkpt lat="43.17197" lon="2.44052">
        <ele>205.86</ele>
        <time>2013-06-23T07:49:51Z</time>
      </trkpt>
      <trkpt lat="43.17152" lon="2.44066">
        <ele>205.86</ele>
        <time>2013-06-23T07:49:59Z</time>
      </trkpt>
      <trkpt lat="43.17147" lon="2.44067">
        <ele>205.86</ele>
        <time>2013-06-23T07:50:00Z</time>
      </trkpt>
      <trkpt lat="43.17142" lon="2.44066">
        <ele>205.86</ele>
        <time>2013-06-23T07:50:01Z</time>
      </trkpt>
      <trkpt lat="43.17131" lon="2.44067">
        <ele>205.38</ele>
        <time>2013-06-23T07:50:03Z</time>
      </trkpt>
      <trkpt lat="43.17126" lon="2.44069">
        <ele>204.9</ele>
        <time>2013-06-23T07:50:04Z</time>
      </trkpt>
      <trkpt lat="43.1712" lon="2.44074">
        <ele>204.42</ele>
        <time>2013-06-23T07:50:05Z</time>
      </trkpt>
      <trkpt lat="43.17115" lon="2.4408">
        <ele>204.42</ele>
        <time>2013-06-23T07:50:06Z</time>
      </trkpt>
      <trkpt lat="43.1711" lon="2.44087">
        <ele>203.94</ele>
        <time>2013-06-23T07:50:07Z</time>
      </trkpt>
      <trkpt lat="43.17105" lon="2.44095">
        <ele>203.46</ele>
        <time>2013-06-23T07:50:08Z</time>
      </trkpt>
      <trkpt lat="43.171" lon="2.44103">
        <ele>202.98</ele>
        <time>2013-06-23T07:50:09Z</time>
      </trkpt>
      <trkpt lat="43.17085" lon="2.44131">
        <ele>201.53</ele>
        <time>2013-06-23T07:50:12Z</time>
      </trkpt>
      <trkpt lat="43.17048" lon="2.44205">
        <ele>197.21</ele>
        <time>2013-06-23T07:50:19Z</time>
      </trkpt>
      <trkpt lat="43.17041" lon="2.44213">
        <ele>196.73</ele>
        <time>2013-06-23T07:50:20Z</time>
      </trkpt>
      <trkpt lat="43.17032" lon="2.44219">
        <ele>196.25</ele>
        <time>2013-06-23T07:50:21Z</time>
      </trkpt>
      <trkpt lat="43.16986" lon="2.44248">
        <ele>192.88</ele>
        <time>2013-06-23T07:50:26Z</time>
      </trkpt>
      <trkpt lat="43.16975" lon="2.4425">
        <ele>192.4</ele>
        <time>2013-06-23T07:50:27Z</time>
      </trkpt>
      <trkpt lat="43.16965" lon="2.44253">
        <ele>190.96</ele>
        <time>2013-06-23T07:50:28Z</time>
      </trkpt>
      <trkpt lat="43.16955" lon="2.44257">
        <ele>190.48</ele>
        <time>2013-06-23T07:50:29Z</time>
      </trkpt>
      <trkpt lat="43.16946" lon="2.44265">
        <ele>189.52</ele>
        <time>2013-06-23T07:50:30Z</time>
      </trkpt>
      <trkpt lat="43.16939" lon="2.44274">
        <ele>189.04</ele>
        <time>2013-06-23T07:50:31Z</time>
      </trkpt>
      <trkpt lat="43.16935" lon="2.44286">
        <ele>189.04</ele>
        <time>2013-06-23T07:50:32Z</time>
      </trkpt>
      <trkpt lat="43.16933" lon="2.44298">
        <ele>188.56</ele>
        <time>2013-06-23T07:50:33Z</time>
      </trkpt>
      <trkpt lat="43.16934" lon="2.4431">
        <ele>188.56</ele>
        <time>2013-06-23T07:50:34Z</time>
      </trkpt>
      <trkpt lat="43.16935" lon="2.44322">
        <ele>188.56</ele>
        <time>2013-06-23T07:50:35Z</time>
      </trkpt>
      <trkpt lat="43.16937" lon="2.44333">
        <ele>188.56</ele>
        <time>2013-06-23T07:50:36Z</time>
      </trkpt>
      <trkpt lat="43.16937" lon="2.44344">
        <ele>188.08</ele>
        <time>2013-06-23T07:50:37Z</time>
      </trkpt>
      <trkpt lat="43.16937" lon="2.44356">
        <ele>187.59</ele>
        <time>2013-06-23T07:50:38Z</time>
      </trkpt>
      <trkpt lat="43.16936" lon="2.44369">
        <ele>187.11</ele>
        <time>2013-06-23T07:50:39Z</time>
      </trkpt>
      <trkpt lat="43.16934" lon="2.44381">
        <ele>187.11</ele>
        <time>2013-06-23T07:50:40Z</time>
      </trkpt>
      <trkpt lat="43.1693" lon="2.44391">
        <ele>186.63</ele>
        <time>2013-06-23T07:50:41Z</time>
      </trkpt>
      <trkpt lat="43.16924" lon="2.444">
        <ele>186.63</ele>
        <time>2013-06-23T07:50:42Z</time>
      </trkpt>
      <trkpt lat="43.16919" lon="2.44407">
        <ele>186.63</ele>
        <time>2013-06-23T07:50:43Z</time>
      </trkpt>
      <trkpt lat="43.16913" lon="2.44413">
        <ele>187.11</ele>
        <time>2013-06-23T07:50:44Z</time>
      </trkpt>
      <trkpt lat="43.16908" lon="2.44419">
        <ele>187.11</ele>
        <time>2013-06-23T07:50:45Z</time>
      </trkpt>
      <trkpt lat="43.16888" lon="2.44447">
        <ele>189.04</ele>
        <time>2013-06-23T07:50:50Z</time>
      </trkpt>
      <trkpt lat="43.16883" lon="2.44451">
        <ele>189.52</ele>
        <time>2013-06-23T07:50:51Z</time>
      </trkpt>
      <trkpt lat="43.16878" lon="2.44455">
        <ele>190</ele>
        <time>2013-06-23T07:50:52Z</time>
      </trkpt>
      <trkpt lat="43.16865" lon="2.44464">
        <ele>190.96</ele>
        <time>2013-06-23T07:50:55Z</time>
      </trkpt>
      <trkpt lat="43.16863" lon="2.44467">
        <ele>190.96</ele>
        <time>2013-06-23T07:50:56Z</time>
      </trkpt>
      <trkpt lat="43.16843" lon="2.4449">
        <ele>194.32</ele>
        <time>2013-06-23T07:51:03Z</time>
      </trkpt>
      <trkpt lat="43.1684" lon="2.44492">
        <ele>194.8</ele>
        <time>2013-06-23T07:51:04Z</time>
      </trkpt>
      <trkpt lat="43.16836" lon="2.44495">
        <ele>195.28</ele>
        <time>2013-06-23T07:51:05Z</time>
      </trkpt>
      <trkpt lat="43.16833" lon="2.44496">
        <ele>195.77</ele>
        <time>2013-06-23T07:51:06Z</time>
      </trkpt>
      <trkpt lat="43.16829" lon="2.44497">
        <ele>195.77</ele>
        <time>2013-06-23T07:51:07Z</time>
      </trkpt>
      <trkpt lat="43.16825" lon="2.44498">
        <ele>195.77</ele>
        <time>2013-06-23T07:51:08Z</time>
      </trkpt>
      <trkpt lat="43.16821" lon="2.44498">
        <ele>195.77</ele>
        <time>2013-06-23T07:51:09Z</time>
      </trkpt>
      <trkpt lat="43.16766" lon="2.44492">
        <ele>197.21</ele>
        <time>2013-06-23T07:51:24Z</time>
      </trkpt>
      <trkpt lat="43.16711" lon="2.44501">
        <ele>198.65</ele>
        <time>2013-06-23T07:51:39Z</time>
      </trkpt>
      <trkpt lat="43.16693" lon="2.4451">
        <ele>198.17</ele>
        <time>2013-06-23T07:51:44Z</time>
      </trkpt>
      <trkpt lat="43.1669" lon="2.44513">
        <ele>197.69</ele>
        <time>2013-06-23T07:51:45Z</time>
      </trkpt>
      <trkpt lat="43.16687" lon="2.44518">
        <ele>198.17</ele>
        <time>2013-06-23T07:51:46Z</time>
      </trkpt>
      <trkpt lat="43.16684" lon="2.44523">
        <ele>198.17</ele>
        <time>2013-06-23T07:51:47Z</time>
      </trkpt>
      <trkpt lat="43.16682" lon="2.44529">
        <ele>198.65</ele>
        <time>2013-06-23T07:51:48Z</time>
      </trkpt>
      <trkpt lat="43.16681" lon="2.44534">
        <ele>198.65</ele>
        <time>2013-06-23T07:51:49Z</time>
      </trkpt>
      <trkpt lat="43.16677" lon="2.44545">
        <ele>199.61</ele>
        <time>2013-06-23T07:51:51Z</time>
      </trkpt>
      <trkpt lat="43.16674" lon="2.4455">
        <ele>200.09</ele>
        <time>2013-06-23T07:51:52Z</time>
      </trkpt>
      <trkpt lat="43.16671" lon="2.44554">
        <ele>200.57</ele>
        <time>2013-06-23T07:51:53Z</time>
      </trkpt>
      <trkpt lat="43.16645" lon="2.44589">
        <ele>202.98</ele>
        <time>2013-06-23T07:52:04Z</time>
      </trkpt>
      <trkpt lat="43.16644" lon="2.446">
        <ele>203.46</ele>
        <time>2013-06-23T07:52:07Z</time>
      </trkpt>
      <trkpt lat="43.16647" lon="2.44619">
        <ele>203.94</ele>
        <time>2013-06-23T07:52:11Z</time>
      </trkpt>
      <trkpt lat="43.1665" lon="2.44631">
        <ele>204.42</ele>
        <time>2013-06-23T07:52:13Z</time>
      </trkpt>
      <trkpt lat="43.16651" lon="2.4465">
        <ele>204.42</ele>
        <time>2013-06-23T07:52:16Z</time>
      </trkpt>
      <trkpt lat="43.16649" lon="2.44665">
        <ele>203.94</ele>
        <time>2013-06-23T07:52:18Z</time>
      </trkpt>
      <trkpt lat="43.16651" lon="2.44706">
        <ele>201.53</ele>
        <time>2013-06-23T07:52:23Z</time>
      </trkpt>
      <trkpt lat="43.16657" lon="2.44749">
        <ele>202.01</ele>
        <time>2013-06-23T07:52:30Z</time>
      </trkpt>
      <trkpt lat="43.16661" lon="2.44787">
        <ele>203.46</ele>
        <time>2013-06-23T07:52:38Z</time>
      </trkpt>
      <trkpt lat="43.16662" lon="2.44811">
        <ele>202.49</ele>
        <time>2013-06-23T07:52:41Z</time>
      </trkpt>
      <trkpt lat="43.16667" lon="2.44843">
        <ele>201.53</ele>
        <time>2013-06-23T07:52:45Z</time>
      </trkpt>
      <trkpt lat="43.16668" lon="2.44853">
        <ele>200.09</ele>
        <time>2013-06-23T07:52:49Z</time>
      </trkpt>
      <trkpt lat="43.16672" lon="2.44868">
        <ele>198.65</ele>
        <time>2013-06-23T07:52:56Z</time>
      </trkpt>
      <trkpt lat="43.16675" lon="2.44887">
        <ele>198.17</ele>
        <time>2013-06-23T07:53:01Z</time>
      </trkpt>
      <trkpt lat="43.16682" lon="2.44922">
        <ele>197.21</ele>
        <time>2013-06-23T07:53:08Z</time>
      </trkpt>
      <trkpt lat="43.16685" lon="2.44929">
        <ele>197.69</ele>
        <time>2013-06-23T07:53:10Z</time>
      </trkpt>
      <trkpt lat="43.16686" lon="2.44941">
        <ele>197.21</ele>
        <time>2013-06-23T07:53:13Z</time>
      </trkpt>
      <trkpt lat="43.16684" lon="2.44963">
        <ele>195.28</ele>
        <time>2013-06-23T07:53:16Z</time>
      </trkpt>
      <trkpt lat="43.16694" lon="2.45005">
        <ele>188.56</ele>
        <time>2013-06-23T07:53:23Z</time>
      </trkpt>
      <trkpt lat="43.16693" lon="2.45013">
        <ele>186.63</ele>
        <time>2013-06-23T07:53:27Z</time>
      </trkpt>
      <trkpt lat="43.16698" lon="2.45039">
        <ele>180.38</ele>
        <time>2013-06-23T07:53:36Z</time>
      </trkpt>
      <trkpt lat="43.16693" lon="2.45041">
        <ele>178.46</ele>
        <time>2013-06-23T07:53:40Z</time>
      </trkpt>
      <trkpt lat="43.16681" lon="2.45043">
        <ele>174.14</ele>
        <time>2013-06-23T07:53:50Z</time>
      </trkpt>
      <trkpt lat="43.16671" lon="2.45052">
        <ele>170.29</ele>
        <time>2013-06-23T07:53:57Z</time>
      </trkpt>
      <trkpt lat="43.16648" lon="2.45056">
        <ele>164.04</ele>
        <time>2013-06-23T07:54:06Z</time>
      </trkpt>
      <trkpt lat="43.16639" lon="2.4506">
        <ele>159.72</ele>
        <time>2013-06-23T07:54:11Z</time>
      </trkpt>
      <trkpt lat="43.16637" lon="2.45059">
        <ele>159.24</ele>
        <time>2013-06-23T07:54:12Z</time>
      </trkpt>
      <trkpt lat="43.16636" lon="2.45057">
        <ele>159.24</ele>
        <time>2013-06-23T07:54:13Z</time>
      </trkpt>
      <trkpt lat="43.16635" lon="2.45054">
        <ele>159.72</ele>
        <time>2013-06-23T07:54:14Z</time>
      </trkpt>
      <trkpt lat="43.16634" lon="2.4505">
        <ele>159.72</ele>
        <time>2013-06-23T07:54:15Z</time>
      </trkpt>
      <trkpt lat="43.16632" lon="2.45046">
        <ele>159.72</ele>
        <time>2013-06-23T07:54:16Z</time>
      </trkpt>
      <trkpt lat="43.1663" lon="2.45042">
        <ele>159.72</ele>
        <time>2013-06-23T07:54:17Z</time>
      </trkpt>
      <trkpt lat="43.16628" lon="2.45037">
        <ele>160.2</ele>
        <time>2013-06-23T07:54:18Z</time>
      </trkpt>
      <trkpt lat="43.16626" lon="2.45033">
        <ele>160.68</ele>
        <time>2013-06-23T07:54:19Z</time>
      </trkpt>
      <trkpt lat="43.16623" lon="2.45028">
        <ele>160.68</ele>
        <time>2013-06-23T07:54:20Z</time>
      </trkpt>
      <trkpt lat="43.16621" lon="2.45023">
        <ele>160.68</ele>
        <time>2013-06-23T07:54:21Z</time>
      </trkpt>
      <trkpt lat="43.1662" lon="2.45018">
        <ele>161.16</ele>
        <time>2013-06-23T07:54:22Z</time>
      </trkpt>
      <trkpt lat="43.16618" lon="2.45013">
        <ele>161.16</ele>
        <time>2013-06-23T07:54:23Z</time>
      </trkpt>
      <trkpt lat="43.16616" lon="2.45009">
        <ele>161.64</ele>
        <time>2013-06-23T07:54:24Z</time>
      </trkpt>
      <trkpt lat="43.16614" lon="2.45004">
        <ele>162.12</ele>
        <time>2013-06-23T07:54:25Z</time>
      </trkpt>
      <trkpt lat="43.16601" lon="2.44956">
        <ele>164.04</ele>
        <time>2013-06-23T07:54:34Z</time>
      </trkpt>
      <trkpt lat="43.16588" lon="2.44876">
        <ele>165.96</ele>
        <time>2013-06-23T07:54:48Z</time>
      </trkpt>
      <trkpt lat="43.1658" lon="2.44855">
        <ele>166.93</ele>
        <time>2013-06-23T07:54:52Z</time>
      </trkpt>
      <trkpt lat="43.16577" lon="2.44851">
        <ele>167.41</ele>
        <time>2013-06-23T07:54:53Z</time>
      </trkpt>
      <trkpt lat="43.16574" lon="2.44846">
        <ele>167.89</ele>
        <time>2013-06-23T07:54:54Z</time>
      </trkpt>
      <trkpt lat="43.1657" lon="2.44842">
        <ele>167.89</ele>
        <time>2013-06-23T07:54:55Z</time>
      </trkpt>
      <trkpt lat="43.16567" lon="2.44837">
        <ele>168.37</ele>
        <time>2013-06-23T07:54:56Z</time>
      </trkpt>
      <trkpt lat="43.16561" lon="2.4483">
        <ele>168.85</ele>
        <time>2013-06-23T07:54:58Z</time>
      </trkpt>
      <trkpt lat="43.16513" lon="2.44777">
        <ele>173.17</ele>
        <time>2013-06-23T07:55:14Z</time>
      </trkpt>
      <trkpt lat="43.16473" lon="2.44732">
        <ele>177.5</ele>
        <time>2013-06-23T07:55:28Z</time>
      </trkpt>
      <trkpt lat="43.16422" lon="2.44694">
        <ele>179.9</ele>
        <time>2013-06-23T07:55:44Z</time>
      </trkpt>
      <trkpt lat="43.16394" lon="2.44679">
        <ele>177.5</ele>
        <time>2013-06-23T07:55:53Z</time>
      </trkpt>
      <trkpt lat="43.16391" lon="2.44681">
        <ele>176.54</ele>
        <time>2013-06-23T07:55:54Z</time>
      </trkpt>
      <trkpt lat="43.16388" lon="2.44686">
        <ele>176.06</ele>
        <time>2013-06-23T07:55:55Z</time>
      </trkpt>
      <trkpt lat="43.16386" lon="2.44691">
        <ele>175.1</ele>
        <time>2013-06-23T07:55:56Z</time>
      </trkpt>
      <trkpt lat="43.16383" lon="2.44696">
        <ele>174.62</ele>
        <time>2013-06-23T07:55:57Z</time>
      </trkpt>
      <trkpt lat="43.16379" lon="2.447">
        <ele>174.14</ele>
        <time>2013-06-23T07:55:58Z</time>
      </trkpt>
      <trkpt lat="43.16375" lon="2.44704">
        <ele>173.66</ele>
        <time>2013-06-23T07:55:59Z</time>
      </trkpt>
      <trkpt lat="43.16371" lon="2.44707">
        <ele>173.17</ele>
        <time>2013-06-23T07:56:00Z</time>
      </trkpt>
      <trkpt lat="43.16367" lon="2.4471">
        <ele>172.69</ele>
        <time>2013-06-23T07:56:01Z</time>
      </trkpt>
      <trkpt lat="43.16363" lon="2.44714">
        <ele>172.21</ele>
        <time>2013-06-23T07:56:02Z</time>
      </trkpt>
      <trkpt lat="43.16361" lon="2.44718">
        <ele>171.73</ele>
        <time>2013-06-23T07:56:03Z</time>
      </trkpt>
      <trkpt lat="43.16358" lon="2.44723">
        <ele>171.25</ele>
        <time>2013-06-23T07:56:04Z</time>
      </trkpt>
      <trkpt lat="43.16354" lon="2.44738">
        <ele>169.81</ele>
        <time>2013-06-23T07:56:07Z</time>
      </trkpt>
      <trkpt lat="43.16353" lon="2.44743">
        <ele>168.85</ele>
        <time>2013-06-23T07:56:08Z</time>
      </trkpt>
      <trkpt lat="43.1635" lon="2.44748">
        <ele>168.37</ele>
        <time>2013-06-23T07:56:09Z</time>
      </trkpt>
      <trkpt lat="43.16348" lon="2.44752">
        <ele>167.89</ele>
        <time>2013-06-23T07:56:10Z</time>
      </trkpt>
      <trkpt lat="43.16346" lon="2.44758">
        <ele>166.93</ele>
        <time>2013-06-23T07:56:11Z</time>
      </trkpt>
      <trkpt lat="43.16344" lon="2.44764">
        <ele>166.45</ele>
        <time>2013-06-23T07:56:12Z</time>
      </trkpt>
      <trkpt lat="43.16335" lon="2.4479">
        <ele>164.04</ele>
        <time>2013-06-23T07:56:17Z</time>
      </trkpt>
      <trkpt lat="43.16334" lon="2.44795">
        <ele>164.04</ele>
        <time>2013-06-23T07:56:18Z</time>
      </trkpt>
      <trkpt lat="43.16335" lon="2.44797">
        <ele>164.04</ele>
        <time>2013-06-23T07:56:19Z</time>
      </trkpt>
      <trkpt lat="43.16335" lon="2.44799">
        <ele>164.04</ele>
        <time>2013-06-23T07:56:20Z</time>
      </trkpt>
      <trkpt lat="43.16336" lon="2.44801">
        <ele>164.52</ele>
        <time>2013-06-23T07:56:21Z</time>
      </trkpt>
      <trkpt lat="43.16337" lon="2.44803">
        <ele>165</ele>
        <time>2013-06-23T07:56:22Z</time>
      </trkpt>
      <trkpt lat="43.16347" lon="2.44825">
        <ele>169.33</ele>
        <time>2013-06-23T07:56:32Z</time>
      </trkpt>
      <trkpt lat="43.16349" lon="2.44842">
        <ele>174.14</ele>
        <time>2013-06-23T07:56:43Z</time>
      </trkpt>
      <trkpt lat="43.16351" lon="2.44864">
        <ele>177.02</ele>
        <time>2013-06-23T07:56:53Z</time>
      </trkpt>
      <trkpt lat="43.1635" lon="2.44878">
        <ele>180.87</ele>
        <time>2013-06-23T07:57:00Z</time>
      </trkpt>
      <trkpt lat="43.1635" lon="2.4488">
        <ele>181.35</ele>
        <time>2013-06-23T07:57:01Z</time>
      </trkpt>
      <trkpt lat="43.1635" lon="2.44882">
        <ele>181.83</ele>
        <time>2013-06-23T07:57:02Z</time>
      </trkpt>
      <trkpt lat="43.16356" lon="2.44911">
        <ele>186.63</ele>
        <time>2013-06-23T07:57:14Z</time>
      </trkpt>
      <trkpt lat="43.16361" lon="2.44938">
        <ele>190</ele>
        <time>2013-06-23T07:57:25Z</time>
      </trkpt>
      <trkpt lat="43.16363" lon="2.44949">
        <ele>190.48</ele>
        <time>2013-06-23T07:57:30Z</time>
      </trkpt>
      <trkpt lat="43.16363" lon="2.44951">
        <ele>190.48</ele>
        <time>2013-06-23T07:57:31Z</time>
      </trkpt>
      <trkpt lat="43.16364" lon="2.44954">
        <ele>190.48</ele>
        <time>2013-06-23T07:57:32Z</time>
      </trkpt>
      <trkpt lat="43.16364" lon="2.44956">
        <ele>190.48</ele>
        <time>2013-06-23T07:57:33Z</time>
      </trkpt>
      <trkpt lat="43.16364" lon="2.44959">
        <ele>190</ele>
        <time>2013-06-23T07:57:34Z</time>
      </trkpt>
      <trkpt lat="43.16364" lon="2.44962">
        <ele>190</ele>
        <time>2013-06-23T07:57:35Z</time>
      </trkpt>
      <trkpt lat="43.16364" lon="2.44964">
        <ele>190.48</ele>
        <time>2013-06-23T07:57:36Z</time>
      </trkpt>
      <trkpt lat="43.16364" lon="2.44966">
        <ele>190.48</ele>
        <time>2013-06-23T07:57:37Z</time>
      </trkpt>
      <trkpt lat="43.16364" lon="2.44968">
        <ele>190.48</ele>
        <time>2013-06-23T07:57:38Z</time>
      </trkpt>
      <trkpt lat="43.16364" lon="2.4497">
        <ele>190.48</ele>
        <time>2013-06-23T07:57:39Z</time>
      </trkpt>
      <trkpt lat="43.16365" lon="2.44985">
        <ele>190.96</ele>
        <time>2013-06-23T07:57:47Z</time>
      </trkpt>
      <trkpt lat="43.16365" lon="2.44987">
        <ele>191.44</ele>
        <time>2013-06-23T07:57:48Z</time>
      </trkpt>
      <trkpt lat="43.16365" lon="2.44989">
        <ele>191.92</ele>
        <time>2013-06-23T07:57:49Z</time>
      </trkpt>
      <trkpt lat="43.16365" lon="2.44991">
        <ele>191.92</ele>
        <time>2013-06-23T07:57:50Z</time>
      </trkpt>
      <trkpt lat="43.16364" lon="2.44993">
        <ele>192.4</ele>
        <time>2013-06-23T07:57:51Z</time>
      </trkpt>
      <trkpt lat="43.16364" lon="2.44995">
        <ele>192.88</ele>
        <time>2013-06-23T07:57:52Z</time>
      </trkpt>
      <trkpt lat="43.16363" lon="2.44997">
        <ele>193.36</ele>
        <time>2013-06-23T07:57:53Z</time>
      </trkpt>
      <trkpt lat="43.16363" lon="2.45">
        <ele>193.84</ele>
        <time>2013-06-23T07:57:54Z</time>
      </trkpt>
      <trkpt lat="43.16362" lon="2.45002">
        <ele>194.32</ele>
        <time>2013-06-23T07:57:55Z</time>
      </trkpt>
      <trkpt lat="43.16361" lon="2.45004">
        <ele>194.8</ele>
        <time>2013-06-23T07:57:56Z</time>
      </trkpt>
      <trkpt lat="43.16359" lon="2.45005">
        <ele>194.8</ele>
        <time>2013-06-23T07:57:57Z</time>
      </trkpt>
      <trkpt lat="43.16358" lon="2.45007">
        <ele>194.8</ele>
        <time>2013-06-23T07:57:58Z</time>
      </trkpt>
      <trkpt lat="43.16355" lon="2.45006">
        <ele>194.32</ele>
        <time>2013-06-23T07:57:59Z</time>
      </trkpt>
      <trkpt lat="43.16352" lon="2.45004">
        <ele>194.8</ele>
        <time>2013-06-23T07:58:00Z</time>
      </trkpt>
      <trkpt lat="43.16325" lon="2.44975">
        <ele>194.8</ele>
        <time>2013-06-23T07:58:10Z</time>
      </trkpt>
      <trkpt lat="43.163" lon="2.44948">
        <ele>198.17</ele>
        <time>2013-06-23T07:58:22Z</time>
      </trkpt>
      <trkpt lat="43.1627" lon="2.44929">
        <ele>199.61</ele>
        <time>2013-06-23T07:58:33Z</time>
      </trkpt>
      <trkpt lat="43.16256" lon="2.44918">
        <ele>197.69</ele>
        <time>2013-06-23T07:58:36Z</time>
      </trkpt>
      <trkpt lat="43.1623" lon="2.44893">
        <ele>195.28</ele>
        <time>2013-06-23T07:58:41Z</time>
      </trkpt>
      <trkpt lat="43.16226" lon="2.44887">
        <ele>195.28</ele>
        <time>2013-06-23T07:58:42Z</time>
      </trkpt>
      <trkpt lat="43.16179" lon="2.44819">
        <ele>193.84</ele>
        <time>2013-06-23T07:58:55Z</time>
      </trkpt>
      <trkpt lat="43.16175" lon="2.44814">
        <ele>193.84</ele>
        <time>2013-06-23T07:58:56Z</time>
      </trkpt>
      <trkpt lat="43.16151" lon="2.44777">
        <ele>193.36</ele>
        <time>2013-06-23T07:59:04Z</time>
      </trkpt>
      <trkpt lat="43.1614" lon="2.44762">
        <ele>192.88</ele>
        <time>2013-06-23T07:59:07Z</time>
      </trkpt>
      <trkpt lat="43.16131" lon="2.44747">
        <ele>192.4</ele>
        <time>2013-06-23T07:59:10Z</time>
      </trkpt>
      <trkpt lat="43.16127" lon="2.44745">
        <ele>192.4</ele>
        <time>2013-06-23T07:59:11Z</time>
      </trkpt>
      <trkpt lat="43.16122" lon="2.44746">
        <ele>192.4</ele>
        <time>2013-06-23T07:59:12Z</time>
      </trkpt>
      <trkpt lat="43.16118" lon="2.44746">
        <ele>192.4</ele>
        <time>2013-06-23T07:59:13Z</time>
      </trkpt>
      <trkpt lat="43.16114" lon="2.44744">
        <ele>192.4</ele>
        <time>2013-06-23T07:59:14Z</time>
      </trkpt>
      <trkpt lat="43.16113" lon="2.4474">
        <ele>192.4</ele>
        <time>2013-06-23T07:59:15Z</time>
      </trkpt>
      <trkpt lat="43.16112" lon="2.44735">
        <ele>192.88</ele>
        <time>2013-06-23T07:59:16Z</time>
      </trkpt>
      <trkpt lat="43.16112" lon="2.44731">
        <ele>193.36</ele>
        <time>2013-06-23T07:59:17Z</time>
      </trkpt>
      <trkpt lat="43.16112" lon="2.44727">
        <ele>193.84</ele>
        <time>2013-06-23T07:59:18Z</time>
      </trkpt>
      <trkpt lat="43.16111" lon="2.44724">
        <ele>193.84</ele>
        <time>2013-06-23T07:59:19Z</time>
      </trkpt>
      <trkpt lat="43.16111" lon="2.44721">
        <ele>194.32</ele>
        <time>2013-06-23T07:59:20Z</time>
      </trkpt>
      <trkpt lat="43.16111" lon="2.44718">
        <ele>194.32</ele>
        <time>2013-06-23T07:59:21Z</time>
      </trkpt>
      <trkpt lat="43.1611" lon="2.44715">
        <ele>194.32</ele>
        <time>2013-06-23T07:59:22Z</time>
      </trkpt>
      <trkpt lat="43.1611" lon="2.44711">
        <ele>194.8</ele>
        <time>2013-06-23T07:59:23Z</time>
      </trkpt>
      <trkpt lat="43.1611" lon="2.44708">
        <ele>194.8</ele>
        <time>2013-06-23T07:59:24Z</time>
      </trkpt>
      <trkpt lat="43.16109" lon="2.44705">
        <ele>195.28</ele>
        <time>2013-06-23T07:59:25Z</time>
      </trkpt>
      <trkpt lat="43.16109" lon="2.44702">
        <ele>195.28</ele>
        <time>2013-06-23T07:59:26Z</time>
      </trkpt>
      <trkpt lat="43.16108" lon="2.447">
        <ele>195.77</ele>
        <time>2013-06-23T07:59:27Z</time>
      </trkpt>
      <trkpt lat="43.16108" lon="2.44697">
        <ele>196.25</ele>
        <time>2013-06-23T07:59:28Z</time>
      </trkpt>
      <trkpt lat="43.16105" lon="2.44666">
        <ele>199.61</ele>
        <time>2013-06-23T07:59:40Z</time>
      </trkpt>
      <trkpt lat="43.16104" lon="2.44664">
        <ele>200.09</ele>
        <time>2013-06-23T07:59:41Z</time>
      </trkpt>
      <trkpt lat="43.16082" lon="2.44673">
        <ele>204.42</ele>
        <time>2013-06-23T07:59:54Z</time>
      </trkpt>
      <trkpt lat="43.16061" lon="2.44694">
        <ele>208.26</ele>
        <time>2013-06-23T08:00:07Z</time>
      </trkpt>
      <trkpt lat="43.16032" lon="2.44703">
        <ele>213.07</ele>
        <time>2013-06-23T08:00:23Z</time>
      </trkpt>
      <trkpt lat="43.16013" lon="2.4473">
        <ele>216.91</ele>
        <time>2013-06-23T08:00:37Z</time>
      </trkpt>
      <trkpt lat="43.15989" lon="2.44748">
        <ele>219.8</ele>
        <time>2013-06-23T08:00:51Z</time>
      </trkpt>
      <trkpt lat="43.15987" lon="2.44748">
        <ele>219.8</ele>
        <time>2013-06-23T08:00:52Z</time>
      </trkpt>
      <trkpt lat="43.15985" lon="2.44749">
        <ele>220.28</ele>
        <time>2013-06-23T08:00:53Z</time>
      </trkpt>
      <trkpt lat="43.15983" lon="2.44749">
        <ele>220.28</ele>
        <time>2013-06-23T08:00:54Z</time>
      </trkpt>
      <trkpt lat="43.15982" lon="2.4475">
        <ele>220.76</ele>
        <time>2013-06-23T08:00:55Z</time>
      </trkpt>
      <trkpt lat="43.1598" lon="2.44751">
        <ele>221.24</ele>
        <time>2013-06-23T08:00:56Z</time>
      </trkpt>
      <trkpt lat="43.15954" lon="2.44762">
        <ele>225.09</ele>
        <time>2013-06-23T08:01:11Z</time>
      </trkpt>
      <trkpt lat="43.15945" lon="2.44778">
        <ele>224.12</ele>
        <time>2013-06-23T08:01:16Z</time>
      </trkpt>
      <trkpt lat="43.15942" lon="2.44783">
        <ele>224.12</ele>
        <time>2013-06-23T08:01:17Z</time>
      </trkpt>
      <trkpt lat="43.15939" lon="2.44787">
        <ele>223.64</ele>
        <time>2013-06-23T08:01:18Z</time>
      </trkpt>
      <trkpt lat="43.15934" lon="2.44797">
        <ele>223.16</ele>
        <time>2013-06-23T08:01:20Z</time>
      </trkpt>
      <trkpt lat="43.15931" lon="2.44803">
        <ele>222.68</ele>
        <time>2013-06-23T08:01:21Z</time>
      </trkpt>
      <trkpt lat="43.15928" lon="2.44809">
        <ele>222.68</ele>
        <time>2013-06-23T08:01:22Z</time>
      </trkpt>
      <trkpt lat="43.15922" lon="2.4483">
        <ele>220.76</ele>
        <time>2013-06-23T08:01:25Z</time>
      </trkpt>
      <trkpt lat="43.15921" lon="2.44836">
        <ele>220.28</ele>
        <time>2013-06-23T08:01:26Z</time>
      </trkpt>
      <trkpt lat="43.1592" lon="2.44842">
        <ele>219.8</ele>
        <time>2013-06-23T08:01:27Z</time>
      </trkpt>
      <trkpt lat="43.15918" lon="2.44848">
        <ele>218.84</ele>
        <time>2013-06-23T08:01:28Z</time>
      </trkpt>
      <trkpt lat="43.15914" lon="2.44855">
        <ele>218.36</ele>
        <time>2013-06-23T08:01:29Z</time>
      </trkpt>
      <trkpt lat="43.1591" lon="2.4486">
        <ele>217.4</ele>
        <time>2013-06-23T08:01:30Z</time>
      </trkpt>
      <trkpt lat="43.15908" lon="2.44863">
        <ele>217.4</ele>
        <time>2013-06-23T08:01:31Z</time>
      </trkpt>
      <trkpt lat="43.15908" lon="2.44867">
        <ele>216.43</ele>
        <time>2013-06-23T08:01:32Z</time>
      </trkpt>
      <trkpt lat="43.15907" lon="2.44871">
        <ele>216.43</ele>
        <time>2013-06-23T08:01:33Z</time>
      </trkpt>
      <trkpt lat="43.15907" lon="2.44876">
        <ele>215.47</ele>
        <time>2013-06-23T08:01:34Z</time>
      </trkpt>
      <trkpt lat="43.15906" lon="2.44882">
        <ele>214.99</ele>
        <time>2013-06-23T08:01:35Z</time>
      </trkpt>
      <trkpt lat="43.15905" lon="2.44888">
        <ele>214.51</ele>
        <time>2013-06-23T08:01:36Z</time>
      </trkpt>
      <trkpt lat="43.15904" lon="2.44894">
        <ele>214.03</ele>
        <time>2013-06-23T08:01:37Z</time>
      </trkpt>
      <trkpt lat="43.15904" lon="2.449">
        <ele>213.07</ele>
        <time>2013-06-23T08:01:38Z</time>
      </trkpt>
      <trkpt lat="43.15902" lon="2.44906">
        <ele>212.59</ele>
        <time>2013-06-23T08:01:39Z</time>
      </trkpt>
      <trkpt lat="43.159" lon="2.44912">
        <ele>212.11</ele>
        <time>2013-06-23T08:01:40Z</time>
      </trkpt>
      <trkpt lat="43.15899" lon="2.44917">
        <ele>211.63</ele>
        <time>2013-06-23T08:01:41Z</time>
      </trkpt>
      <trkpt lat="43.15897" lon="2.44923">
        <ele>211.15</ele>
        <time>2013-06-23T08:01:42Z</time>
      </trkpt>
      <trkpt lat="43.15888" lon="2.44945">
        <ele>209.22</ele>
        <time>2013-06-23T08:01:46Z</time>
      </trkpt>
      <trkpt lat="43.15886" lon="2.4495">
        <ele>208.74</ele>
        <time>2013-06-23T08:01:47Z</time>
      </trkpt>
      <trkpt lat="43.15884" lon="2.44956">
        <ele>208.26</ele>
        <time>2013-06-23T08:01:48Z</time>
      </trkpt>
      <trkpt lat="43.15882" lon="2.44961">
        <ele>207.78</ele>
        <time>2013-06-23T08:01:49Z</time>
      </trkpt>
      <trkpt lat="43.1588" lon="2.44966">
        <ele>207.3</ele>
        <time>2013-06-23T08:01:50Z</time>
      </trkpt>
      <trkpt lat="43.15878" lon="2.44972">
        <ele>207.3</ele>
        <time>2013-06-23T08:01:51Z</time>
      </trkpt>
      <trkpt lat="43.15877" lon="2.44978">
        <ele>207.3</ele>
        <time>2013-06-23T08:01:52Z</time>
      </trkpt>
      <trkpt lat="43.15874" lon="2.44984">
        <ele>206.82</ele>
        <time>2013-06-23T08:01:53Z</time>
      </trkpt>
      <trkpt lat="43.15872" lon="2.4499">
        <ele>205.86</ele>
        <time>2013-06-23T08:01:54Z</time>
      </trkpt>
      <trkpt lat="43.15869" lon="2.44996">
        <ele>204.9</ele>
        <time>2013-06-23T08:01:55Z</time>
      </trkpt>
      <trkpt lat="43.15864" lon="2.45009">
        <ele>203.46</ele>
        <time>2013-06-23T08:01:57Z</time>
      </trkpt>
      <trkpt lat="43.15861" lon="2.45015">
        <ele>202.98</ele>
        <time>2013-06-23T08:01:58Z</time>
      </trkpt>
      <trkpt lat="43.15858" lon="2.45022">
        <ele>202.49</ele>
        <time>2013-06-23T08:01:59Z</time>
      </trkpt>
      <trkpt lat="43.15855" lon="2.45026">
        <ele>202.01</ele>
        <time>2013-06-23T08:02:00Z</time>
      </trkpt>
      <trkpt lat="43.15853" lon="2.45031">
        <ele>201.53</ele>
        <time>2013-06-23T08:02:01Z</time>
      </trkpt>
      <trkpt lat="43.15852" lon="2.45035">
        <ele>201.05</ele>
        <time>2013-06-23T08:02:02Z</time>
      </trkpt>
      <trkpt lat="43.15847" lon="2.45047">
        <ele>199.13</ele>
        <time>2013-06-23T08:02:05Z</time>
      </trkpt>
      <trkpt lat="43.15845" lon="2.45051">
        <ele>198.65</ele>
        <time>2013-06-23T08:02:06Z</time>
      </trkpt>
      <trkpt lat="43.1584" lon="2.45061">
        <ele>197.69</ele>
        <time>2013-06-23T08:02:08Z</time>
      </trkpt>
      <trkpt lat="43.15838" lon="2.45067">
        <ele>197.21</ele>
        <time>2013-06-23T08:02:09Z</time>
      </trkpt>
      <trkpt lat="43.15825" lon="2.45101">
        <ele>191.44</ele>
        <time>2013-06-23T08:02:18Z</time>
      </trkpt>
      <trkpt lat="43.15824" lon="2.45103">
        <ele>190.96</ele>
        <time>2013-06-23T08:02:19Z</time>
      </trkpt>
      <trkpt lat="43.15822" lon="2.45107">
        <ele>190</ele>
        <time>2013-06-23T08:02:20Z</time>
      </trkpt>
      <trkpt lat="43.15822" lon="2.4511">
        <ele>189.52</ele>
        <time>2013-06-23T08:02:21Z</time>
      </trkpt>
      <trkpt lat="43.15822" lon="2.45119">
        <ele>188.08</ele>
        <time>2013-06-23T08:02:23Z</time>
      </trkpt>
      <trkpt lat="43.15824" lon="2.45122">
        <ele>187.59</ele>
        <time>2013-06-23T08:02:24Z</time>
      </trkpt>
      <trkpt lat="43.15828" lon="2.45144">
        <ele>185.19</ele>
        <time>2013-06-23T08:02:30Z</time>
      </trkpt>
      <trkpt lat="43.15826" lon="2.45148">
        <ele>185.19</ele>
        <time>2013-06-23T08:02:31Z</time>
      </trkpt>
      <trkpt lat="43.15825" lon="2.45151">
        <ele>184.71</ele>
        <time>2013-06-23T08:02:32Z</time>
      </trkpt>
      <trkpt lat="43.15822" lon="2.45153">
        <ele>184.71</ele>
        <time>2013-06-23T08:02:33Z</time>
      </trkpt>
      <trkpt lat="43.1582" lon="2.45154">
        <ele>184.23</ele>
        <time>2013-06-23T08:02:34Z</time>
      </trkpt>
      <trkpt lat="43.15817" lon="2.45153">
        <ele>183.75</ele>
        <time>2013-06-23T08:02:35Z</time>
      </trkpt>
      <trkpt lat="43.15815" lon="2.45151">
        <ele>183.75</ele>
        <time>2013-06-23T08:02:36Z</time>
      </trkpt>
      <trkpt lat="43.15813" lon="2.45149">
        <ele>184.23</ele>
        <time>2013-06-23T08:02:37Z</time>
      </trkpt>
      <trkpt lat="43.15811" lon="2.45148">
        <ele>183.75</ele>
        <time>2013-06-23T08:02:38Z</time>
      </trkpt>
      <trkpt lat="43.15809" lon="2.45146">
        <ele>183.75</ele>
        <time>2013-06-23T08:02:39Z</time>
      </trkpt>
      <trkpt lat="43.15807" lon="2.45144">
        <ele>183.75</ele>
        <time>2013-06-23T08:02:40Z</time>
      </trkpt>
      <trkpt lat="43.15793" lon="2.45127">
        <ele>183.75</ele>
        <time>2013-06-23T08:02:47Z</time>
      </trkpt>
      <trkpt lat="43.15789" lon="2.45127">
        <ele>183.27</ele>
        <time>2013-06-23T08:02:48Z</time>
      </trkpt>
      <trkpt lat="43.15786" lon="2.45129">
        <ele>182.79</ele>
        <time>2013-06-23T08:02:49Z</time>
      </trkpt>
      <trkpt lat="43.15776" lon="2.45142">
        <ele>182.31</ele>
        <time>2013-06-23T08:02:53Z</time>
      </trkpt>
      <trkpt lat="43.15776" lon="2.45147">
        <ele>181.83</ele>
        <time>2013-06-23T08:02:54Z</time>
      </trkpt>
      <trkpt lat="43.15777" lon="2.45152">
        <ele>181.83</ele>
        <time>2013-06-23T08:02:55Z</time>
      </trkpt>
      <trkpt lat="43.1578" lon="2.45156">
        <ele>182.31</ele>
        <time>2013-06-23T08:02:56Z</time>
      </trkpt>
      <trkpt lat="43.15781" lon="2.4516">
        <ele>182.31</ele>
        <time>2013-06-23T08:02:57Z</time>
      </trkpt>
      <trkpt lat="43.15782" lon="2.45164">
        <ele>182.79</ele>
        <time>2013-06-23T08:02:58Z</time>
      </trkpt>
      <trkpt lat="43.15782" lon="2.45168">
        <ele>183.27</ele>
        <time>2013-06-23T08:02:59Z</time>
      </trkpt>
      <trkpt lat="43.15783" lon="2.45172">
        <ele>183.75</ele>
        <time>2013-06-23T08:03:00Z</time>
      </trkpt>
      <trkpt lat="43.15792" lon="2.45204">
        <ele>182.79</ele>
        <time>2013-06-23T08:03:07Z</time>
      </trkpt>
      <trkpt lat="43.15793" lon="2.45212">
        <ele>181.83</ele>
        <time>2013-06-23T08:03:08Z</time>
      </trkpt>
      <trkpt lat="43.15796" lon="2.4522">
        <ele>180.87</ele>
        <time>2013-06-23T08:03:09Z</time>
      </trkpt>
      <trkpt lat="43.15799" lon="2.45228">
        <ele>179.42</ele>
        <time>2013-06-23T08:03:10Z</time>
      </trkpt>
      <trkpt lat="43.15799" lon="2.45237">
        <ele>177.98</ele>
        <time>2013-06-23T08:03:11Z</time>
      </trkpt>
      <trkpt lat="43.15798" lon="2.45247">
        <ele>177.02</ele>
        <time>2013-06-23T08:03:12Z</time>
      </trkpt>
      <trkpt lat="43.15797" lon="2.45254">
        <ele>176.06</ele>
        <time>2013-06-23T08:03:13Z</time>
      </trkpt>
      <trkpt lat="43.15798" lon="2.45271">
        <ele>174.14</ele>
        <time>2013-06-23T08:03:16Z</time>
      </trkpt>
      <trkpt lat="43.158" lon="2.45275">
        <ele>173.66</ele>
        <time>2013-06-23T08:03:17Z</time>
      </trkpt>
      <trkpt lat="43.15803" lon="2.45281">
        <ele>173.17</ele>
        <time>2013-06-23T08:03:18Z</time>
      </trkpt>
      <trkpt lat="43.15804" lon="2.45288">
        <ele>172.69</ele>
        <time>2013-06-23T08:03:19Z</time>
      </trkpt>
      <trkpt lat="43.15804" lon="2.45296">
        <ele>172.21</ele>
        <time>2013-06-23T08:03:20Z</time>
      </trkpt>
      <trkpt lat="43.15808" lon="2.45304">
        <ele>170.77</ele>
        <time>2013-06-23T08:03:22Z</time>
      </trkpt>
      <trkpt lat="43.1581" lon="2.45304">
        <ele>170.29</ele>
        <time>2013-06-23T08:03:23Z</time>
      </trkpt>
      <trkpt lat="43.15813" lon="2.45301">
        <ele>169.81</ele>
        <time>2013-06-23T08:03:24Z</time>
      </trkpt>
      <trkpt lat="43.15817" lon="2.45299">
        <ele>169.33</ele>
        <time>2013-06-23T08:03:25Z</time>
      </trkpt>
      <trkpt lat="43.15822" lon="2.453">
        <ele>169.33</ele>
        <time>2013-06-23T08:03:26Z</time>
      </trkpt>
      <trkpt lat="43.15824" lon="2.45304">
        <ele>168.37</ele>
        <time>2013-06-23T08:03:27Z</time>
      </trkpt>
      <trkpt lat="43.15824" lon="2.45311">
        <ele>167.89</ele>
        <time>2013-06-23T08:03:28Z</time>
      </trkpt>
      <trkpt lat="43.15822" lon="2.45318">
        <ele>167.41</ele>
        <time>2013-06-23T08:03:29Z</time>
      </trkpt>
      <trkpt lat="43.1582" lon="2.45326">
        <ele>166.93</ele>
        <time>2013-06-23T08:03:30Z</time>
      </trkpt>
      <trkpt lat="43.15815" lon="2.45344">
        <ele>165.96</ele>
        <time>2013-06-23T08:03:32Z</time>
      </trkpt>
      <trkpt lat="43.15811" lon="2.45353">
        <ele>165</ele>
        <time>2013-06-23T08:03:33Z</time>
      </trkpt>
      <trkpt lat="43.15805" lon="2.45362">
        <ele>164.04</ele>
        <time>2013-06-23T08:03:34Z</time>
      </trkpt>
      <trkpt lat="43.15784" lon="2.45388">
        <ele>160.68</ele>
        <time>2013-06-23T08:03:37Z</time>
      </trkpt>
      <trkpt lat="43.15776" lon="2.45394">
        <ele>159.72</ele>
        <time>2013-06-23T08:03:38Z</time>
      </trkpt>
      <trkpt lat="43.15721" lon="2.45423">
        <ele>154.43</ele>
        <time>2013-06-23T08:03:44Z</time>
      </trkpt>
      <trkpt lat="43.15714" lon="2.4543">
        <ele>153.95</ele>
        <time>2013-06-23T08:03:45Z</time>
      </trkpt>
      <trkpt lat="43.1571" lon="2.4544">
        <ele>153.47</ele>
        <time>2013-06-23T08:03:46Z</time>
      </trkpt>
      <trkpt lat="43.15706" lon="2.45448">
        <ele>152.99</ele>
        <time>2013-06-23T08:03:47Z</time>
      </trkpt>
      <trkpt lat="43.15702" lon="2.45456">
        <ele>152.99</ele>
        <time>2013-06-23T08:03:48Z</time>
      </trkpt>
      <trkpt lat="43.15697" lon="2.45463">
        <ele>152.99</ele>
        <time>2013-06-23T08:03:49Z</time>
      </trkpt>
      <trkpt lat="43.15624" lon="2.45567">
        <ele>152.03</ele>
        <time>2013-06-23T08:04:03Z</time>
      </trkpt>
      <trkpt lat="43.15589" lon="2.45624">
        <ele>152.03</ele>
        <time>2013-06-23T08:04:11Z</time>
      </trkpt>
      <trkpt lat="43.15587" lon="2.45633">
        <ele>151.54</ele>
        <time>2013-06-23T08:04:12Z</time>
      </trkpt>
      <trkpt lat="43.15579" lon="2.45684">
        <ele>150.1</ele>
        <time>2013-06-23T08:04:17Z</time>
      </trkpt>
      <trkpt lat="43.15579" lon="2.45696">
        <ele>149.62</ele>
        <time>2013-06-23T08:04:18Z</time>
      </trkpt>
      <trkpt lat="43.1558" lon="2.45708">
        <ele>149.14</ele>
        <time>2013-06-23T08:04:19Z</time>
      </trkpt>
      <trkpt lat="43.15585" lon="2.45758">
        <ele>146.74</ele>
        <time>2013-06-23T08:04:23Z</time>
      </trkpt>
      <trkpt lat="43.15583" lon="2.4577">
        <ele>146.26</ele>
        <time>2013-06-23T08:04:24Z</time>
      </trkpt>
      <trkpt lat="43.15579" lon="2.4578">
        <ele>145.78</ele>
        <time>2013-06-23T08:04:25Z</time>
      </trkpt>
      <trkpt lat="43.15574" lon="2.45789">
        <ele>144.82</ele>
        <time>2013-06-23T08:04:26Z</time>
      </trkpt>
      <trkpt lat="43.15568" lon="2.45795">
        <ele>144.34</ele>
        <time>2013-06-23T08:04:27Z</time>
      </trkpt>
      <trkpt lat="43.15561" lon="2.45801">
        <ele>143.85</ele>
        <time>2013-06-23T08:04:28Z</time>
      </trkpt>
      <trkpt lat="43.15545" lon="2.45817">
        <ele>143.85</ele>
        <time>2013-06-23T08:04:31Z</time>
      </trkpt>
      <trkpt lat="43.15539" lon="2.45822">
        <ele>143.37</ele>
        <time>2013-06-23T08:04:32Z</time>
      </trkpt>
      <trkpt lat="43.15468" lon="2.4588">
        <ele>143.85</ele>
        <time>2013-06-23T08:04:44Z</time>
      </trkpt>
      <trkpt lat="43.15415" lon="2.45951">
        <ele>144.34</ele>
        <time>2013-06-23T08:04:55Z</time>
      </trkpt>
      <trkpt lat="43.1541" lon="2.45958">
        <ele>144.34</ele>
        <time>2013-06-23T08:04:56Z</time>
      </trkpt>
      <trkpt lat="43.15385" lon="2.45987">
        <ele>145.3</ele>
        <time>2013-06-23T08:05:01Z</time>
      </trkpt>
      <trkpt lat="43.1538" lon="2.45991">
        <ele>145.78</ele>
        <time>2013-06-23T08:05:02Z</time>
      </trkpt>
      <trkpt lat="43.15374" lon="2.45993">
        <ele>145.78</ele>
        <time>2013-06-23T08:05:03Z</time>
      </trkpt>
      <trkpt lat="43.15368" lon="2.45991">
        <ele>145.78</ele>
        <time>2013-06-23T08:05:04Z</time>
      </trkpt>
      <trkpt lat="43.15363" lon="2.45986">
        <ele>146.26</ele>
        <time>2013-06-23T08:05:05Z</time>
      </trkpt>
      <trkpt lat="43.15358" lon="2.45982">
        <ele>146.26</ele>
        <time>2013-06-23T08:05:06Z</time>
      </trkpt>
      <trkpt lat="43.15352" lon="2.4598">
        <ele>146.26</ele>
        <time>2013-06-23T08:05:07Z</time>
      </trkpt>
      <trkpt lat="43.15347" lon="2.45981">
        <ele>146.74</ele>
        <time>2013-06-23T08:05:08Z</time>
      </trkpt>
      <trkpt lat="43.15342" lon="2.45983">
        <ele>146.74</ele>
        <time>2013-06-23T08:05:09Z</time>
      </trkpt>
      <trkpt lat="43.15337" lon="2.45985">
        <ele>146.74</ele>
        <time>2013-06-23T08:05:10Z</time>
      </trkpt>
      <trkpt lat="43.15327" lon="2.45988">
        <ele>146.74</ele>
        <time>2013-06-23T08:05:12Z</time>
      </trkpt>
      <trkpt lat="43.15255" lon="2.45993">
        <ele>148.18</ele>
        <time>2013-06-23T08:05:27Z</time>
      </trkpt>
      <trkpt lat="43.15251" lon="2.45995">
        <ele>148.66</ele>
        <time>2013-06-23T08:05:28Z</time>
      </trkpt>
      <trkpt lat="43.15247" lon="2.45997">
        <ele>148.66</ele>
        <time>2013-06-23T08:05:29Z</time>
      </trkpt>
      <trkpt lat="43.15244" lon="2.46">
        <ele>149.14</ele>
        <time>2013-06-23T08:05:30Z</time>
      </trkpt>
      <trkpt lat="43.1524" lon="2.46004">
        <ele>149.14</ele>
        <time>2013-06-23T08:05:31Z</time>
      </trkpt>
      <trkpt lat="43.15237" lon="2.46008">
        <ele>149.62</ele>
        <time>2013-06-23T08:05:32Z</time>
      </trkpt>
      <trkpt lat="43.15233" lon="2.46011">
        <ele>149.62</ele>
        <time>2013-06-23T08:05:33Z</time>
      </trkpt>
      <trkpt lat="43.1523" lon="2.46015">
        <ele>150.1</ele>
        <time>2013-06-23T08:05:34Z</time>
      </trkpt>
      <trkpt lat="43.15226" lon="2.46018">
        <ele>150.1</ele>
        <time>2013-06-23T08:05:35Z</time>
      </trkpt>
      <trkpt lat="43.15222" lon="2.4602">
        <ele>150.58</ele>
        <time>2013-06-23T08:05:36Z</time>
      </trkpt>
      <trkpt lat="43.15218" lon="2.46021">
        <ele>151.06</ele>
        <time>2013-06-23T08:05:37Z</time>
      </trkpt>
      <trkpt lat="43.15214" lon="2.46022">
        <ele>151.54</ele>
        <time>2013-06-23T08:05:38Z</time>
      </trkpt>
      <trkpt lat="43.15211" lon="2.46022">
        <ele>152.03</ele>
        <time>2013-06-23T08:05:39Z</time>
      </trkpt>
      <trkpt lat="43.15177" lon="2.4602">
        <ele>155.87</ele>
        <time>2013-06-23T08:05:52Z</time>
      </trkpt>
      <trkpt lat="43.1514" lon="2.46014">
        <ele>160.2</ele>
        <time>2013-06-23T08:06:10Z</time>
      </trkpt>
      <trkpt lat="43.15109" lon="2.46009">
        <ele>164.52</ele>
        <time>2013-06-23T08:06:25Z</time>
      </trkpt>
      <trkpt lat="43.15077" lon="2.46011">
        <ele>170.29</ele>
        <time>2013-06-23T08:06:39Z</time>
      </trkpt>
      <trkpt lat="43.15035" lon="2.46005">
        <ele>176.06</ele>
        <time>2013-06-23T08:06:59Z</time>
      </trkpt>
      <trkpt lat="43.15004" lon="2.46002">
        <ele>179.9</ele>
        <time>2013-06-23T08:07:14Z</time>
      </trkpt>
      <trkpt lat="43.1497" lon="2.46002">
        <ele>184.23</ele>
        <time>2013-06-23T08:07:31Z</time>
      </trkpt>
      <trkpt lat="43.1494" lon="2.4601">
        <ele>188.56</ele>
        <time>2013-06-23T08:07:45Z</time>
      </trkpt>
      <trkpt lat="43.14907" lon="2.46021">
        <ele>192.4</ele>
        <time>2013-06-23T08:08:01Z</time>
      </trkpt>
      <trkpt lat="43.14871" lon="2.46029">
        <ele>195.28</ele>
        <time>2013-06-23T08:08:17Z</time>
      </trkpt>
      <trkpt lat="43.14836" lon="2.4604">
        <ele>199.61</ele>
        <time>2013-06-23T08:08:34Z</time>
      </trkpt>
      <trkpt lat="43.14812" lon="2.46033">
        <ele>204.42</ele>
        <time>2013-06-23T08:08:48Z</time>
      </trkpt>
      <trkpt lat="43.14786" lon="2.46026">
        <ele>207.3</ele>
        <time>2013-06-23T08:09:03Z</time>
      </trkpt>
      <trkpt lat="43.14762" lon="2.46018">
        <ele>212.11</ele>
        <time>2013-06-23T08:09:18Z</time>
      </trkpt>
      <trkpt lat="43.14741" lon="2.46007">
        <ele>215.47</ele>
        <time>2013-06-23T08:09:33Z</time>
      </trkpt>
      <trkpt lat="43.14717" lon="2.46006">
        <ele>218.84</ele>
        <time>2013-06-23T08:09:46Z</time>
      </trkpt>
      <trkpt lat="43.14677" lon="2.46024">
        <ele>215.47</ele>
        <time>2013-06-23T08:09:56Z</time>
      </trkpt>
      <trkpt lat="43.14672" lon="2.4603">
        <ele>215.47</ele>
        <time>2013-06-23T08:09:57Z</time>
      </trkpt>
      <trkpt lat="43.14669" lon="2.46037">
        <ele>214.99</ele>
        <time>2013-06-23T08:09:58Z</time>
      </trkpt>
      <trkpt lat="43.14667" lon="2.46044">
        <ele>214.51</ele>
        <time>2013-06-23T08:09:59Z</time>
      </trkpt>
      <trkpt lat="43.14663" lon="2.46049">
        <ele>214.03</ele>
        <time>2013-06-23T08:10:00Z</time>
      </trkpt>
      <trkpt lat="43.14659" lon="2.46053">
        <ele>213.55</ele>
        <time>2013-06-23T08:10:01Z</time>
      </trkpt>
      <trkpt lat="43.14655" lon="2.46058">
        <ele>213.55</ele>
        <time>2013-06-23T08:10:02Z</time>
      </trkpt>
      <trkpt lat="43.14652" lon="2.46064">
        <ele>213.07</ele>
        <time>2013-06-23T08:10:03Z</time>
      </trkpt>
      <trkpt lat="43.14651" lon="2.46071">
        <ele>213.07</ele>
        <time>2013-06-23T08:10:04Z</time>
      </trkpt>
      <trkpt lat="43.1465" lon="2.46078">
        <ele>212.59</ele>
        <time>2013-06-23T08:10:05Z</time>
      </trkpt>
      <trkpt lat="43.14652" lon="2.46084">
        <ele>212.59</ele>
        <time>2013-06-23T08:10:06Z</time>
      </trkpt>
      <trkpt lat="43.14654" lon="2.4609">
        <ele>212.59</ele>
        <time>2013-06-23T08:10:07Z</time>
      </trkpt>
      <trkpt lat="43.14657" lon="2.46096">
        <ele>212.59</ele>
        <time>2013-06-23T08:10:08Z</time>
      </trkpt>
      <trkpt lat="43.14659" lon="2.46101">
        <ele>212.59</ele>
        <time>2013-06-23T08:10:09Z</time>
      </trkpt>
      <trkpt lat="43.14659" lon="2.46107">
        <ele>212.59</ele>
        <time>2013-06-23T08:10:10Z</time>
      </trkpt>
      <trkpt lat="43.14656" lon="2.46112">
        <ele>212.59</ele>
        <time>2013-06-23T08:10:11Z</time>
      </trkpt>
      <trkpt lat="43.14634" lon="2.46146">
        <ele>212.11</ele>
        <time>2013-06-23T08:10:18Z</time>
      </trkpt>
      <trkpt lat="43.14631" lon="2.46152">
        <ele>211.63</ele>
        <time>2013-06-23T08:10:19Z</time>
      </trkpt>
      <trkpt lat="43.14629" lon="2.46159">
        <ele>211.15</ele>
        <time>2013-06-23T08:10:20Z</time>
      </trkpt>
      <trkpt lat="43.14621" lon="2.4618">
        <ele>209.7</ele>
        <time>2013-06-23T08:10:23Z</time>
      </trkpt>
      <trkpt lat="43.1462" lon="2.46186">
        <ele>209.7</ele>
        <time>2013-06-23T08:10:24Z</time>
      </trkpt>
      <trkpt lat="43.14621" lon="2.46191">
        <ele>209.7</ele>
        <time>2013-06-23T08:10:25Z</time>
      </trkpt>
      <trkpt lat="43.14621" lon="2.46196">
        <ele>209.7</ele>
        <time>2013-06-23T08:10:26Z</time>
      </trkpt>
      <trkpt lat="43.14622" lon="2.46201">
        <ele>210.19</ele>
        <time>2013-06-23T08:10:27Z</time>
      </trkpt>
      <trkpt lat="43.14623" lon="2.46205">
        <ele>210.67</ele>
        <time>2013-06-23T08:10:28Z</time>
      </trkpt>
      <trkpt lat="43.14625" lon="2.46209">
        <ele>211.15</ele>
        <time>2013-06-23T08:10:29Z</time>
      </trkpt>
      <trkpt lat="43.14627" lon="2.46212">
        <ele>211.63</ele>
        <time>2013-06-23T08:10:30Z</time>
      </trkpt>
      <trkpt lat="43.14629" lon="2.46214">
        <ele>212.11</ele>
        <time>2013-06-23T08:10:31Z</time>
      </trkpt>
      <trkpt lat="43.14632" lon="2.46216">
        <ele>212.59</ele>
        <time>2013-06-23T08:10:32Z</time>
      </trkpt>
      <trkpt lat="43.14635" lon="2.46218">
        <ele>213.07</ele>
        <time>2013-06-23T08:10:33Z</time>
      </trkpt>
      <trkpt lat="43.14659" lon="2.46224">
        <ele>218.84</ele>
        <time>2013-06-23T08:10:45Z</time>
      </trkpt>
      <trkpt lat="43.14667" lon="2.46232">
        <ele>221.72</ele>
        <time>2013-06-23T08:10:50Z</time>
      </trkpt>
      <trkpt lat="43.14667" lon="2.46235">
        <ele>222.2</ele>
        <time>2013-06-23T08:10:51Z</time>
      </trkpt>
      <trkpt lat="43.14674" lon="2.46267">
        <ele>228.45</ele>
        <time>2013-06-23T08:11:05Z</time>
      </trkpt>
      <trkpt lat="43.14683" lon="2.46288">
        <ele>231.33</ele>
        <time>2013-06-23T08:11:16Z</time>
      </trkpt>
      <trkpt lat="43.14684" lon="2.46291">
        <ele>231.33</ele>
        <time>2013-06-23T08:11:17Z</time>
      </trkpt>
      <trkpt lat="43.14684" lon="2.46294">
        <ele>231.81</ele>
        <time>2013-06-23T08:11:18Z</time>
      </trkpt>
      <trkpt lat="43.14684" lon="2.46297">
        <ele>231.81</ele>
        <time>2013-06-23T08:11:19Z</time>
      </trkpt>
      <trkpt lat="43.14683" lon="2.463">
        <ele>232.3</ele>
        <time>2013-06-23T08:11:20Z</time>
      </trkpt>
      <trkpt lat="43.14682" lon="2.46303">
        <ele>232.3</ele>
        <time>2013-06-23T08:11:21Z</time>
      </trkpt>
      <trkpt lat="43.14672" lon="2.46337">
        <ele>235.66</ele>
        <time>2013-06-23T08:11:36Z</time>
      </trkpt>
      <trkpt lat="43.14663" lon="2.46368">
        <ele>237.58</ele>
        <time>2013-06-23T08:11:48Z</time>
      </trkpt>
      <trkpt lat="43.14653" lon="2.46417">
        <ele>239.51</ele>
        <time>2013-06-23T08:12:02Z</time>
      </trkpt>
      <trkpt lat="43.14649" lon="2.46433">
        <ele>239.02</ele>
        <time>2013-06-23T08:12:05Z</time>
      </trkpt>
      <trkpt lat="43.14646" lon="2.46438">
        <ele>238.06</ele>
        <time>2013-06-23T08:12:06Z</time>
      </trkpt>
      <trkpt lat="43.14641" lon="2.46442">
        <ele>237.1</ele>
        <time>2013-06-23T08:12:07Z</time>
      </trkpt>
      <trkpt lat="43.14637" lon="2.46446">
        <ele>236.14</ele>
        <time>2013-06-23T08:12:08Z</time>
      </trkpt>
      <trkpt lat="43.14632" lon="2.46449">
        <ele>235.66</ele>
        <time>2013-06-23T08:12:09Z</time>
      </trkpt>
      <trkpt lat="43.14622" lon="2.46453">
        <ele>233.26</ele>
        <time>2013-06-23T08:12:12Z</time>
      </trkpt>
      <trkpt lat="43.14619" lon="2.46451">
        <ele>232.78</ele>
        <time>2013-06-23T08:12:13Z</time>
      </trkpt>
      <trkpt lat="43.14599" lon="2.4642">
        <ele>236.62</ele>
        <time>2013-06-23T08:12:27Z</time>
      </trkpt>
      <trkpt lat="43.14569" lon="2.46393">
        <ele>242.87</ele>
        <time>2013-06-23T08:12:46Z</time>
      </trkpt>
      <trkpt lat="43.14538" lon="2.46382">
        <ele>245.27</ele>
        <time>2013-06-23T08:13:03Z</time>
      </trkpt>
      <trkpt lat="43.14508" lon="2.46369">
        <ele>246.23</ele>
        <time>2013-06-23T08:13:17Z</time>
      </trkpt>
      <trkpt lat="43.14477" lon="2.4632">
        <ele>246.23</ele>
        <time>2013-06-23T08:13:32Z</time>
      </trkpt>
      <trkpt lat="43.14461" lon="2.46295">
        <ele>246.23</ele>
        <time>2013-06-23T08:13:40Z</time>
      </trkpt>
      <trkpt lat="43.14458" lon="2.46295">
        <ele>246.72</ele>
        <time>2013-06-23T08:13:41Z</time>
      </trkpt>
      <trkpt lat="43.14455" lon="2.46295">
        <ele>247.2</ele>
        <time>2013-06-23T08:13:42Z</time>
      </trkpt>
      <trkpt lat="43.14453" lon="2.46296">
        <ele>247.68</ele>
        <time>2013-06-23T08:13:43Z</time>
      </trkpt>
      <trkpt lat="43.14451" lon="2.46298">
        <ele>248.16</ele>
        <time>2013-06-23T08:13:44Z</time>
      </trkpt>
      <trkpt lat="43.1445" lon="2.463">
        <ele>248.64</ele>
        <time>2013-06-23T08:13:45Z</time>
      </trkpt>
      <trkpt lat="43.1442" lon="2.46339">
        <ele>254.41</ele>
        <time>2013-06-23T08:14:02Z</time>
      </trkpt>
      <trkpt lat="43.14399" lon="2.46374">
        <ele>258.73</ele>
        <time>2013-06-23T08:14:16Z</time>
      </trkpt>
      <trkpt lat="43.1437" lon="2.46368">
        <ele>258.73</ele>
        <time>2013-06-23T08:14:28Z</time>
      </trkpt>
      <trkpt lat="43.14336" lon="2.46353">
        <ele>260.65</ele>
        <time>2013-06-23T08:14:42Z</time>
      </trkpt>
      <trkpt lat="43.14305" lon="2.46323">
        <ele>265.46</ele>
        <time>2013-06-23T08:14:57Z</time>
      </trkpt>
      <trkpt lat="43.14281" lon="2.46312">
        <ele>266.42</ele>
        <time>2013-06-23T08:15:08Z</time>
      </trkpt>
      <trkpt lat="43.14257" lon="2.46295">
        <ele>268.35</ele>
        <time>2013-06-23T08:15:19Z</time>
      </trkpt>
      <trkpt lat="43.1423" lon="2.46269">
        <ele>270.75</ele>
        <time>2013-06-23T08:15:32Z</time>
      </trkpt>
      <trkpt lat="43.14183" lon="2.46269">
        <ele>273.15</ele>
        <time>2013-06-23T08:15:48Z</time>
      </trkpt>
      <trkpt lat="43.14148" lon="2.46265">
        <ele>277</ele>
        <time>2013-06-23T08:16:01Z</time>
      </trkpt>
      <trkpt lat="43.14147" lon="2.46268">
        <ele>277</ele>
        <time>2013-06-23T08:16:02Z</time>
      </trkpt>
      <trkpt lat="43.14146" lon="2.46271">
        <ele>277.48</ele>
        <time>2013-06-23T08:16:03Z</time>
      </trkpt>
      <trkpt lat="43.14145" lon="2.46275">
        <ele>277.48</ele>
        <time>2013-06-23T08:16:04Z</time>
      </trkpt>
      <trkpt lat="43.14145" lon="2.46278">
        <ele>277.48</ele>
        <time>2013-06-23T08:16:05Z</time>
      </trkpt>
      <trkpt lat="43.14141" lon="2.46327">
        <ele>283.73</ele>
        <time>2013-06-23T08:16:19Z</time>
      </trkpt>
      <trkpt lat="43.1412" lon="2.46356">
        <ele>285.17</ele>
        <time>2013-06-23T08:16:30Z</time>
      </trkpt>
      <trkpt lat="43.14117" lon="2.464">
        <ele>288.53</ele>
        <time>2013-06-23T08:16:42Z</time>
      </trkpt>
      <trkpt lat="43.14103" lon="2.46436">
        <ele>292.38</ele>
        <time>2013-06-23T08:16:54Z</time>
      </trkpt>
      <trkpt lat="43.14095" lon="2.46456">
        <ele>294.3</ele>
        <time>2013-06-23T08:17:01Z</time>
      </trkpt>
      <trkpt lat="43.14094" lon="2.46458">
        <ele>294.78</ele>
        <time>2013-06-23T08:17:02Z</time>
      </trkpt>
      <trkpt lat="43.14093" lon="2.46461">
        <ele>295.26</ele>
        <time>2013-06-23T08:17:03Z</time>
      </trkpt>
      <trkpt lat="43.14075" lon="2.465">
        <ele>299.59</ele>
        <time>2013-06-23T08:17:17Z</time>
      </trkpt>
      <trkpt lat="43.14053" lon="2.46538">
        <ele>303.43</ele>
        <time>2013-06-23T08:17:31Z</time>
      </trkpt>
      <trkpt lat="43.14031" lon="2.4656">
        <ele>303.91</ele>
        <time>2013-06-23T08:17:42Z</time>
      </trkpt>
      <trkpt lat="43.14029" lon="2.4656">
        <ele>303.91</ele>
        <time>2013-06-23T08:17:43Z</time>
      </trkpt>
      <trkpt lat="43.14027" lon="2.46559">
        <ele>303.91</ele>
        <time>2013-06-23T08:17:44Z</time>
      </trkpt>
      <trkpt lat="43.14026" lon="2.46557">
        <ele>303.91</ele>
        <time>2013-06-23T08:17:45Z</time>
      </trkpt>
      <trkpt lat="43.14026" lon="2.46554">
        <ele>303.91</ele>
        <time>2013-06-23T08:17:46Z</time>
      </trkpt>
      <trkpt lat="43.14027" lon="2.46551">
        <ele>304.39</ele>
        <time>2013-06-23T08:17:47Z</time>
      </trkpt>
      <trkpt lat="43.14029" lon="2.46548">
        <ele>304.39</ele>
        <time>2013-06-23T08:17:48Z</time>
      </trkpt>
      <trkpt lat="43.14031" lon="2.46546">
        <ele>304.39</ele>
        <time>2013-06-23T08:17:49Z</time>
      </trkpt>
      <trkpt lat="43.14032" lon="2.46543">
        <ele>304.39</ele>
        <time>2013-06-23T08:17:50Z</time>
      </trkpt>
      <trkpt lat="43.14034" lon="2.4654">
        <ele>304.39</ele>
        <time>2013-06-23T08:17:51Z</time>
      </trkpt>
      <trkpt lat="43.1405" lon="2.46492">
        <ele>308.72</ele>
        <time>2013-06-23T08:18:07Z</time>
      </trkpt>
      <trkpt lat="43.14056" lon="2.46435">
        <ele>310.16</ele>
        <time>2013-06-23T08:18:22Z</time>
      </trkpt>
      <trkpt lat="43.14053" lon="2.4643">
        <ele>310.64</ele>
        <time>2013-06-23T08:18:24Z</time>
      </trkpt>
      <trkpt lat="43.14051" lon="2.4643">
        <ele>311.12</ele>
        <time>2013-06-23T08:18:25Z</time>
      </trkpt>
      <trkpt lat="43.14049" lon="2.4643">
        <ele>311.12</ele>
        <time>2013-06-23T08:18:26Z</time>
      </trkpt>
      <trkpt lat="43.14047" lon="2.46432">
        <ele>311.6</ele>
        <time>2013-06-23T08:18:27Z</time>
      </trkpt>
      <trkpt lat="43.14045" lon="2.46434">
        <ele>312.09</ele>
        <time>2013-06-23T08:18:28Z</time>
      </trkpt>
      <trkpt lat="43.14044" lon="2.46437">
        <ele>312.57</ele>
        <time>2013-06-23T08:18:29Z</time>
      </trkpt>
      <trkpt lat="43.14043" lon="2.46441">
        <ele>313.05</ele>
        <time>2013-06-23T08:18:30Z</time>
      </trkpt>
      <trkpt lat="43.14035" lon="2.46477">
        <ele>316.89</ele>
        <time>2013-06-23T08:18:42Z</time>
      </trkpt>
      <trkpt lat="43.14017" lon="2.46514">
        <ele>318.81</ele>
        <time>2013-06-23T08:18:54Z</time>
      </trkpt>
      <trkpt lat="43.13995" lon="2.4654">
        <ele>321.7</ele>
        <time>2013-06-23T08:19:06Z</time>
      </trkpt>
      <trkpt lat="43.13966" lon="2.46567">
        <ele>323.14</ele>
        <time>2013-06-23T08:19:19Z</time>
      </trkpt>
      <trkpt lat="43.13945" lon="2.46591">
        <ele>325.06</ele>
        <time>2013-06-23T08:19:30Z</time>
      </trkpt>
      <trkpt lat="43.13938" lon="2.46603">
        <ele>326.5</ele>
        <time>2013-06-23T08:19:34Z</time>
      </trkpt>
      <trkpt lat="43.13951" lon="2.46643">
        <ele>329.87</ele>
        <time>2013-06-23T08:19:45Z</time>
      </trkpt>
      <trkpt lat="43.13975" lon="2.46684">
        <ele>332.27</ele>
        <time>2013-06-23T08:19:58Z</time>
      </trkpt>
      <trkpt lat="43.14008" lon="2.46712">
        <ele>333.23</ele>
        <time>2013-06-23T08:20:10Z</time>
      </trkpt>
      <trkpt lat="43.14041" lon="2.46749">
        <ele>335.64</ele>
        <time>2013-06-23T08:20:24Z</time>
      </trkpt>
      <trkpt lat="43.14078" lon="2.46769">
        <ele>337.56</ele>
        <time>2013-06-23T08:20:37Z</time>
      </trkpt>
      <trkpt lat="43.14107" lon="2.46795">
        <ele>339</ele>
        <time>2013-06-23T08:20:48Z</time>
      </trkpt>
      <trkpt lat="43.1412" lon="2.46826">
        <ele>341.41</ele>
        <time>2013-06-23T08:20:56Z</time>
      </trkpt>
      <trkpt lat="43.14123" lon="2.46829">
        <ele>341.89</ele>
        <time>2013-06-23T08:20:57Z</time>
      </trkpt>
      <trkpt lat="43.14127" lon="2.4683">
        <ele>341.89</ele>
        <time>2013-06-23T08:20:58Z</time>
      </trkpt>
      <trkpt lat="43.14156" lon="2.46858">
        <ele>345.25</ele>
        <time>2013-06-23T08:21:09Z</time>
      </trkpt>
      <trkpt lat="43.14176" lon="2.46887">
        <ele>346.21</ele>
        <time>2013-06-23T08:21:18Z</time>
      </trkpt>
      <trkpt lat="43.14186" lon="2.46943">
        <ele>348.13</ele>
        <time>2013-06-23T08:21:32Z</time>
      </trkpt>
      <trkpt lat="43.14184" lon="2.46995">
        <ele>349.58</ele>
        <time>2013-06-23T08:21:45Z</time>
      </trkpt>
      <trkpt lat="43.14183" lon="2.4704">
        <ele>351.02</ele>
        <time>2013-06-23T08:21:57Z</time>
      </trkpt>
      <trkpt lat="43.1418" lon="2.47047">
        <ele>351.02</ele>
        <time>2013-06-23T08:21:59Z</time>
      </trkpt>
      <trkpt lat="43.14179" lon="2.4705">
        <ele>351.5</ele>
        <time>2013-06-23T08:22:00Z</time>
      </trkpt>
      <trkpt lat="43.1416" lon="2.47087">
        <ele>351.5</ele>
        <time>2013-06-23T08:22:11Z</time>
      </trkpt>
      <trkpt lat="43.14138" lon="2.47132">
        <ele>355.34</ele>
        <time>2013-06-23T08:22:24Z</time>
      </trkpt>
      <trkpt lat="43.14136" lon="2.47135">
        <ele>355.34</ele>
        <time>2013-06-23T08:22:25Z</time>
      </trkpt>
      <trkpt lat="43.14134" lon="2.47137">
        <ele>355.34</ele>
        <time>2013-06-23T08:22:26Z</time>
      </trkpt>
      <trkpt lat="43.14131" lon="2.47138">
        <ele>355.83</ele>
        <time>2013-06-23T08:22:27Z</time>
      </trkpt>
      <trkpt lat="43.14124" lon="2.47141">
        <ele>355.34</ele>
        <time>2013-06-23T08:22:30Z</time>
      </trkpt>
      <trkpt lat="43.14122" lon="2.47143">
        <ele>354.86</ele>
        <time>2013-06-23T08:22:31Z</time>
      </trkpt>
      <trkpt lat="43.14119" lon="2.47146">
        <ele>354.86</ele>
        <time>2013-06-23T08:22:32Z</time>
      </trkpt>
      <trkpt lat="43.14106" lon="2.47168">
        <ele>354.86</ele>
        <time>2013-06-23T08:22:40Z</time>
      </trkpt>
      <trkpt lat="43.14104" lon="2.4717">
        <ele>354.86</ele>
        <time>2013-06-23T08:22:41Z</time>
      </trkpt>
      <trkpt lat="43.14103" lon="2.47173">
        <ele>354.38</ele>
        <time>2013-06-23T08:22:42Z</time>
      </trkpt>
      <trkpt lat="43.14101" lon="2.47176">
        <ele>354.38</ele>
        <time>2013-06-23T08:22:43Z</time>
      </trkpt>
      <trkpt lat="43.14099" lon="2.47178">
        <ele>354.38</ele>
        <time>2013-06-23T08:22:44Z</time>
      </trkpt>
      <trkpt lat="43.14097" lon="2.47181">
        <ele>354.38</ele>
        <time>2013-06-23T08:22:45Z</time>
      </trkpt>
      <trkpt lat="43.14095" lon="2.47184">
        <ele>354.38</ele>
        <time>2013-06-23T08:22:46Z</time>
      </trkpt>
      <trkpt lat="43.14094" lon="2.47187">
        <ele>354.86</ele>
        <time>2013-06-23T08:22:47Z</time>
      </trkpt>
      <trkpt lat="43.14092" lon="2.4719">
        <ele>354.86</ele>
        <time>2013-06-23T08:22:48Z</time>
      </trkpt>
      <trkpt lat="43.14072" lon="2.47219">
        <ele>359.19</ele>
        <time>2013-06-23T08:23:00Z</time>
      </trkpt>
      <trkpt lat="43.14071" lon="2.47221">
        <ele>359.67</ele>
        <time>2013-06-23T08:23:01Z</time>
      </trkpt>
      <trkpt lat="43.14068" lon="2.47222">
        <ele>359.67</ele>
        <time>2013-06-23T08:23:02Z</time>
      </trkpt>
      <trkpt lat="43.14042" lon="2.47246">
        <ele>364</ele>
        <time>2013-06-23T08:23:14Z</time>
      </trkpt>
      <trkpt lat="43.14018" lon="2.47266">
        <ele>365.92</ele>
        <time>2013-06-23T08:23:25Z</time>
      </trkpt>
      <trkpt lat="43.13993" lon="2.4729">
        <ele>368.32</ele>
        <time>2013-06-23T08:23:37Z</time>
      </trkpt>
      <trkpt lat="43.13966" lon="2.47313">
        <ele>369.76</ele>
        <time>2013-06-23T08:23:49Z</time>
      </trkpt>
      <trkpt lat="43.13949" lon="2.47341">
        <ele>373.61</ele>
        <time>2013-06-23T08:24:00Z</time>
      </trkpt>
      <trkpt lat="43.13947" lon="2.47343">
        <ele>374.09</ele>
        <time>2013-06-23T08:24:01Z</time>
      </trkpt>
      <trkpt lat="43.13946" lon="2.47346">
        <ele>374.57</ele>
        <time>2013-06-23T08:24:02Z</time>
      </trkpt>
      <trkpt lat="43.13944" lon="2.47349">
        <ele>375.05</ele>
        <time>2013-06-23T08:24:03Z</time>
      </trkpt>
      <trkpt lat="43.13942" lon="2.47353">
        <ele>375.53</ele>
        <time>2013-06-23T08:24:04Z</time>
      </trkpt>
      <trkpt lat="43.1394" lon="2.47356">
        <ele>376.49</ele>
        <time>2013-06-23T08:24:05Z</time>
      </trkpt>
      <trkpt lat="43.13917" lon="2.4739">
        <ele>383.7</ele>
        <time>2013-06-23T08:24:16Z</time>
      </trkpt>
      <trkpt lat="43.13916" lon="2.47393">
        <ele>383.7</ele>
        <time>2013-06-23T08:24:17Z</time>
      </trkpt>
      <trkpt lat="43.13915" lon="2.47396">
        <ele>383.7</ele>
        <time>2013-06-23T08:24:18Z</time>
      </trkpt>
      <trkpt lat="43.13914" lon="2.474">
        <ele>384.18</ele>
        <time>2013-06-23T08:24:19Z</time>
      </trkpt>
      <trkpt lat="43.13913" lon="2.47404">
        <ele>384.66</ele>
        <time>2013-06-23T08:24:20Z</time>
      </trkpt>
      <trkpt lat="43.13906" lon="2.47421">
        <ele>388.03</ele>
        <time>2013-06-23T08:24:26Z</time>
      </trkpt>
      <trkpt lat="43.13906" lon="2.47423">
        <ele>388.51</ele>
        <time>2013-06-23T08:24:27Z</time>
      </trkpt>
      <trkpt lat="43.13907" lon="2.47425">
        <ele>388.99</ele>
        <time>2013-06-23T08:24:28Z</time>
      </trkpt>
      <trkpt lat="43.13906" lon="2.47428">
        <ele>389.95</ele>
        <time>2013-06-23T08:24:29Z</time>
      </trkpt>
      <trkpt lat="43.13905" lon="2.47432">
        <ele>390.91</ele>
        <time>2013-06-23T08:24:30Z</time>
      </trkpt>
      <trkpt lat="43.13904" lon="2.47435">
        <ele>391.39</ele>
        <time>2013-06-23T08:24:31Z</time>
      </trkpt>
      <trkpt lat="43.13902" lon="2.47438">
        <ele>391.87</ele>
        <time>2013-06-23T08:24:32Z</time>
      </trkpt>
      <trkpt lat="43.139" lon="2.47442">
        <ele>392.36</ele>
        <time>2013-06-23T08:24:33Z</time>
      </trkpt>
      <trkpt lat="43.13899" lon="2.47446">
        <ele>392.84</ele>
        <time>2013-06-23T08:24:34Z</time>
      </trkpt>
      <trkpt lat="43.13897" lon="2.47454">
        <ele>394.28</ele>
        <time>2013-06-23T08:24:36Z</time>
      </trkpt>
      <trkpt lat="43.13896" lon="2.47457">
        <ele>394.76</ele>
        <time>2013-06-23T08:24:37Z</time>
      </trkpt>
      <trkpt lat="43.13895" lon="2.4746">
        <ele>395.24</ele>
        <time>2013-06-23T08:24:38Z</time>
      </trkpt>
      <trkpt lat="43.13894" lon="2.47464">
        <ele>395.72</ele>
        <time>2013-06-23T08:24:39Z</time>
      </trkpt>
      <trkpt lat="43.13893" lon="2.47468">
        <ele>396.2</ele>
        <time>2013-06-23T08:24:40Z</time>
      </trkpt>
      <trkpt lat="43.13892" lon="2.47473">
        <ele>396.2</ele>
        <time>2013-06-23T08:24:41Z</time>
      </trkpt>
      <trkpt lat="43.13891" lon="2.47477">
        <ele>396.68</ele>
        <time>2013-06-23T08:24:42Z</time>
      </trkpt>
      <trkpt lat="43.13889" lon="2.47481">
        <ele>397.16</ele>
        <time>2013-06-23T08:24:43Z</time>
      </trkpt>
      <trkpt lat="43.13883" lon="2.47494">
        <ele>397.64</ele>
        <time>2013-06-23T08:24:47Z</time>
      </trkpt>
      <trkpt lat="43.13881" lon="2.47497">
        <ele>397.64</ele>
        <time>2013-06-23T08:24:48Z</time>
      </trkpt>
      <trkpt lat="43.13879" lon="2.475">
        <ele>397.64</ele>
        <time>2013-06-23T08:24:49Z</time>
      </trkpt>
      <trkpt lat="43.13858" lon="2.4754">
        <ele>400.05</ele>
        <time>2013-06-23T08:25:00Z</time>
      </trkpt>
      <trkpt lat="43.13849" lon="2.47575">
        <ele>401.49</ele>
        <time>2013-06-23T08:25:09Z</time>
      </trkpt>
      <trkpt lat="43.13842" lon="2.47611">
        <ele>401.97</ele>
        <time>2013-06-23T08:25:19Z</time>
      </trkpt>
      <trkpt lat="43.13842" lon="2.47614">
        <ele>401.97</ele>
        <time>2013-06-23T08:25:20Z</time>
      </trkpt>
      <trkpt lat="43.13843" lon="2.47615">
        <ele>401.97</ele>
        <time>2013-06-23T08:25:21Z</time>
      </trkpt>
      <trkpt lat="43.13839" lon="2.47654">
        <ele>401.49</ele>
        <time>2013-06-23T08:25:30Z</time>
      </trkpt>
      <trkpt lat="43.13839" lon="2.47658">
        <ele>401.01</ele>
        <time>2013-06-23T08:25:31Z</time>
      </trkpt>
      <trkpt lat="43.13837" lon="2.47662">
        <ele>401.01</ele>
        <time>2013-06-23T08:25:32Z</time>
      </trkpt>
      <trkpt lat="43.13823" lon="2.47712">
        <ele>401.97</ele>
        <time>2013-06-23T08:25:43Z</time>
      </trkpt>
      <trkpt lat="43.13823" lon="2.47717">
        <ele>401.49</ele>
        <time>2013-06-23T08:25:44Z</time>
      </trkpt>
      <trkpt lat="43.13823" lon="2.47721">
        <ele>401.97</ele>
        <time>2013-06-23T08:25:45Z</time>
      </trkpt>
      <trkpt lat="43.13807" lon="2.47756">
        <ele>403.89</ele>
        <time>2013-06-23T08:25:55Z</time>
      </trkpt>
      <trkpt lat="43.13778" lon="2.47786">
        <ele>402.45</ele>
        <time>2013-06-23T08:26:07Z</time>
      </trkpt>
      <trkpt lat="43.13751" lon="2.47825">
        <ele>400.53</ele>
        <time>2013-06-23T08:26:18Z</time>
      </trkpt>
      <trkpt lat="43.13735" lon="2.47873">
        <ele>401.49</ele>
        <time>2013-06-23T08:26:29Z</time>
      </trkpt>
      <trkpt lat="43.13735" lon="2.47925">
        <ele>405.81</ele>
        <time>2013-06-23T08:26:40Z</time>
      </trkpt>
      <trkpt lat="43.13718" lon="2.47961">
        <ele>410.62</ele>
        <time>2013-06-23T08:26:52Z</time>
      </trkpt>
      <trkpt lat="43.13701" lon="2.47997">
        <ele>414.47</ele>
        <time>2013-06-23T08:27:06Z</time>
      </trkpt>
      <trkpt lat="43.1368" lon="2.48008">
        <ele>414.47</ele>
        <time>2013-06-23T08:27:17Z</time>
      </trkpt>
      <trkpt lat="43.13678" lon="2.48007">
        <ele>414.47</ele>
        <time>2013-06-23T08:27:18Z</time>
      </trkpt>
      <trkpt lat="43.13676" lon="2.48006">
        <ele>414.95</ele>
        <time>2013-06-23T08:27:19Z</time>
      </trkpt>
      <trkpt lat="43.13673" lon="2.48007">
        <ele>415.43</ele>
        <time>2013-06-23T08:27:20Z</time>
      </trkpt>
      <trkpt lat="43.13671" lon="2.48007">
        <ele>415.43</ele>
        <time>2013-06-23T08:27:21Z</time>
      </trkpt>
      <trkpt lat="43.13668" lon="2.48008">
        <ele>415.91</ele>
        <time>2013-06-23T08:27:22Z</time>
      </trkpt>
      <trkpt lat="43.13666" lon="2.48009">
        <ele>416.39</ele>
        <time>2013-06-23T08:27:23Z</time>
      </trkpt>
      <trkpt lat="43.13663" lon="2.48009">
        <ele>416.39</ele>
        <time>2013-06-23T08:27:24Z</time>
      </trkpt>
      <trkpt lat="43.13661" lon="2.4801">
        <ele>416.87</ele>
        <time>2013-06-23T08:27:25Z</time>
      </trkpt>
      <trkpt lat="43.13659" lon="2.48011">
        <ele>417.35</ele>
        <time>2013-06-23T08:27:26Z</time>
      </trkpt>
      <trkpt lat="43.13643" lon="2.4802">
        <ele>418.79</ele>
        <time>2013-06-23T08:27:34Z</time>
      </trkpt>
      <trkpt lat="43.13642" lon="2.4802">
        <ele>418.79</ele>
        <time>2013-06-23T08:27:35Z</time>
      </trkpt>
      <trkpt lat="43.1364" lon="2.48023">
        <ele>418.31</ele>
        <time>2013-06-23T08:27:37Z</time>
      </trkpt>
      <trkpt lat="43.13634" lon="2.48028">
        <ele>418.31</ele>
        <time>2013-06-23T08:27:40Z</time>
      </trkpt>
      <trkpt lat="43.13631" lon="2.48029">
        <ele>418.31</ele>
        <time>2013-06-23T08:27:41Z</time>
      </trkpt>
      <trkpt lat="43.13629" lon="2.48031">
        <ele>418.31</ele>
        <time>2013-06-23T08:27:42Z</time>
      </trkpt>
      <trkpt lat="43.13627" lon="2.48032">
        <ele>418.79</ele>
        <time>2013-06-23T08:27:43Z</time>
      </trkpt>
      <trkpt lat="43.13624" lon="2.48032">
        <ele>419.27</ele>
        <time>2013-06-23T08:27:44Z</time>
      </trkpt>
      <trkpt lat="43.13622" lon="2.48031">
        <ele>419.27</ele>
        <time>2013-06-23T08:27:45Z</time>
      </trkpt>
      <trkpt lat="43.1362" lon="2.4803">
        <ele>419.75</ele>
        <time>2013-06-23T08:27:46Z</time>
      </trkpt>
      <trkpt lat="43.13618" lon="2.48029">
        <ele>419.75</ele>
        <time>2013-06-23T08:27:47Z</time>
      </trkpt>
      <trkpt lat="43.13615" lon="2.48028">
        <ele>419.75</ele>
        <time>2013-06-23T08:27:48Z</time>
      </trkpt>
      <trkpt lat="43.13587" lon="2.48039">
        <ele>421.68</ele>
        <time>2013-06-23T08:28:00Z</time>
      </trkpt>
      <trkpt lat="43.13584" lon="2.48039">
        <ele>422.16</ele>
        <time>2013-06-23T08:28:01Z</time>
      </trkpt>
      <trkpt lat="43.13581" lon="2.48039">
        <ele>422.16</ele>
        <time>2013-06-23T08:28:02Z</time>
      </trkpt>
      <trkpt lat="43.1357" lon="2.48032">
        <ele>424.08</ele>
        <time>2013-06-23T08:28:07Z</time>
      </trkpt>
      <trkpt lat="43.13569" lon="2.48022">
        <ele>424.08</ele>
        <time>2013-06-23T08:28:10Z</time>
      </trkpt>
      <trkpt lat="43.1357" lon="2.48018">
        <ele>424.56</ele>
        <time>2013-06-23T08:28:11Z</time>
      </trkpt>
      <trkpt lat="43.13571" lon="2.48015">
        <ele>424.56</ele>
        <time>2013-06-23T08:28:12Z</time>
      </trkpt>
      <trkpt lat="43.13573" lon="2.48012">
        <ele>425.04</ele>
        <time>2013-06-23T08:28:13Z</time>
      </trkpt>
      <trkpt lat="43.13575" lon="2.48009">
        <ele>425.52</ele>
        <time>2013-06-23T08:28:14Z</time>
      </trkpt>
      <trkpt lat="43.13577" lon="2.48007">
        <ele>426</ele>
        <time>2013-06-23T08:28:15Z</time>
      </trkpt>
      <trkpt lat="43.13579" lon="2.48005">
        <ele>426.48</ele>
        <time>2013-06-23T08:28:16Z</time>
      </trkpt>
      <trkpt lat="43.13591" lon="2.47964">
        <ele>429.85</ele>
        <time>2013-06-23T08:28:29Z</time>
      </trkpt>
      <trkpt lat="43.13595" lon="2.47918">
        <ele>433.21</ele>
        <time>2013-06-23T08:28:43Z</time>
      </trkpt>
      <trkpt lat="43.13621" lon="2.47894">
        <ele>437.06</ele>
        <time>2013-06-23T08:28:56Z</time>
      </trkpt>
      <trkpt lat="43.13624" lon="2.47889">
        <ele>438.02</ele>
        <time>2013-06-23T08:28:58Z</time>
      </trkpt>
      <trkpt lat="43.13624" lon="2.47886">
        <ele>438.5</ele>
        <time>2013-06-23T08:28:59Z</time>
      </trkpt>
      <trkpt lat="43.13622" lon="2.47885">
        <ele>438.5</ele>
        <time>2013-06-23T08:29:00Z</time>
      </trkpt>
      <trkpt lat="43.1362" lon="2.47885">
        <ele>438.98</ele>
        <time>2013-06-23T08:29:01Z</time>
      </trkpt>
      <trkpt lat="43.13618" lon="2.47885">
        <ele>438.98</ele>
        <time>2013-06-23T08:29:02Z</time>
      </trkpt>
      <trkpt lat="43.13617" lon="2.47886">
        <ele>438.98</ele>
        <time>2013-06-23T08:29:03Z</time>
      </trkpt>
      <trkpt lat="43.13615" lon="2.47887">
        <ele>439.46</ele>
        <time>2013-06-23T08:29:04Z</time>
      </trkpt>
      <trkpt lat="43.13613" lon="2.47887">
        <ele>439.46</ele>
        <time>2013-06-23T08:29:05Z</time>
      </trkpt>
      <trkpt lat="43.13612" lon="2.47888">
        <ele>439.94</ele>
        <time>2013-06-23T08:29:06Z</time>
      </trkpt>
      <trkpt lat="43.1361" lon="2.47888">
        <ele>439.94</ele>
        <time>2013-06-23T08:29:07Z</time>
      </trkpt>
      <trkpt lat="43.13601" lon="2.47886">
        <ele>441.38</ele>
        <time>2013-06-23T08:29:19Z</time>
      </trkpt>
      <trkpt lat="43.13598" lon="2.47886">
        <ele>441.38</ele>
        <time>2013-06-23T08:29:21Z</time>
      </trkpt>
      <trkpt lat="43.13596" lon="2.47885">
        <ele>441.86</ele>
        <time>2013-06-23T08:29:22Z</time>
      </trkpt>
      <trkpt lat="43.13595" lon="2.47884">
        <ele>441.86</ele>
        <time>2013-06-23T08:29:23Z</time>
      </trkpt>
      <trkpt lat="43.13594" lon="2.47884">
        <ele>441.86</ele>
        <time>2013-06-23T08:29:24Z</time>
      </trkpt>
      <trkpt lat="43.13592" lon="2.47884">
        <ele>441.86</ele>
        <time>2013-06-23T08:29:25Z</time>
      </trkpt>
      <trkpt lat="43.13591" lon="2.47885">
        <ele>442.34</ele>
        <time>2013-06-23T08:29:26Z</time>
      </trkpt>
      <trkpt lat="43.13588" lon="2.47887">
        <ele>442.82</ele>
        <time>2013-06-23T08:29:36Z</time>
      </trkpt>
      <trkpt lat="43.1359" lon="2.47886">
        <ele>443.31</ele>
        <time>2013-06-23T08:29:59Z</time>
      </trkpt>
      <trkpt lat="43.1359" lon="2.47886">
        <ele>442.34</ele>
        <time>2013-06-23T08:30:13Z</time>
      </trkpt>
      <trkpt lat="43.13591" lon="2.47886">
        <ele>439.94</ele>
        <time>2013-06-23T08:30:40Z</time>
      </trkpt>
      <trkpt lat="43.13591" lon="2.47885">
        <ele>440.9</ele>
        <time>2013-06-23T08:30:58Z</time>
      </trkpt>
      <trkpt lat="43.13591" lon="2.47886">
        <ele>442.34</ele>
        <time>2013-06-23T08:31:23Z</time>
      </trkpt>
      <trkpt lat="43.1359" lon="2.47887">
        <ele>444.27</ele>
        <time>2013-06-23T08:31:50Z</time>
      </trkpt>
      <trkpt lat="43.13591" lon="2.47886">
        <ele>445.71</ele>
        <time>2013-06-23T08:32:10Z</time>
      </trkpt>
      <trkpt lat="43.13593" lon="2.47883">
        <ele>445.71</ele>
        <time>2013-06-23T08:32:35Z</time>
      </trkpt>
      <trkpt lat="43.13594" lon="2.47883">
        <ele>445.71</ele>
        <time>2013-06-23T08:32:40Z</time>
      </trkpt>
      <trkpt lat="43.13596" lon="2.47884">
        <ele>445.23</ele>
        <time>2013-06-23T08:32:41Z</time>
      </trkpt>
      <trkpt lat="43.13597" lon="2.47884">
        <ele>445.23</ele>
        <time>2013-06-23T08:32:42Z</time>
      </trkpt>
      <trkpt lat="43.13599" lon="2.47885">
        <ele>445.23</ele>
        <time>2013-06-23T08:32:43Z</time>
      </trkpt>
      <trkpt lat="43.13601" lon="2.47886">
        <ele>444.75</ele>
        <time>2013-06-23T08:32:44Z</time>
      </trkpt>
      <trkpt lat="43.13603" lon="2.47885">
        <ele>444.27</ele>
        <time>2013-06-23T08:32:45Z</time>
      </trkpt>
      <trkpt lat="43.13606" lon="2.47884">
        <ele>444.27</ele>
        <time>2013-06-23T08:32:55Z</time>
      </trkpt>
      <trkpt lat="43.13608" lon="2.47877">
        <ele>446.19</ele>
        <time>2013-06-23T08:33:07Z</time>
      </trkpt>
      <trkpt lat="43.13607" lon="2.47876">
        <ele>446.19</ele>
        <time>2013-06-23T08:33:08Z</time>
      </trkpt>
      <trkpt lat="43.13605" lon="2.47876">
        <ele>446.67</ele>
        <time>2013-06-23T08:33:10Z</time>
      </trkpt>
      <trkpt lat="43.13604" lon="2.47876">
        <ele>446.67</ele>
        <time>2013-06-23T08:33:11Z</time>
      </trkpt>
      <trkpt lat="43.136" lon="2.47876">
        <ele>447.15</ele>
        <time>2013-06-23T08:33:15Z</time>
      </trkpt>
      <trkpt lat="43.13599" lon="2.47875">
        <ele>447.15</ele>
        <time>2013-06-23T08:33:16Z</time>
      </trkpt>
      <trkpt lat="43.13597" lon="2.47874">
        <ele>447.15</ele>
        <time>2013-06-23T08:33:18Z</time>
      </trkpt>
      <trkpt lat="43.13594" lon="2.4787">
        <ele>447.63</ele>
        <time>2013-06-23T08:33:31Z</time>
      </trkpt>
      <trkpt lat="43.13596" lon="2.47868">
        <ele>449.07</ele>
        <time>2013-06-23T08:33:37Z</time>
      </trkpt>
      <trkpt lat="43.13598" lon="2.47867">
        <ele>449.07</ele>
        <time>2013-06-23T08:33:38Z</time>
      </trkpt>
      <trkpt lat="43.13599" lon="2.47865">
        <ele>449.55</ele>
        <time>2013-06-23T08:33:39Z</time>
      </trkpt>
      <trkpt lat="43.136" lon="2.47863">
        <ele>450.03</ele>
        <time>2013-06-23T08:33:40Z</time>
      </trkpt>
      <trkpt lat="43.13602" lon="2.47862">
        <ele>450.52</ele>
        <time>2013-06-23T08:33:41Z</time>
      </trkpt>
      <trkpt lat="43.13619" lon="2.47849">
        <ele>453.88</ele>
        <time>2013-06-23T08:33:50Z</time>
      </trkpt>
      <trkpt lat="43.1362" lon="2.47846">
        <ele>454.36</ele>
        <time>2013-06-23T08:33:51Z</time>
      </trkpt>
      <trkpt lat="43.13621" lon="2.47844">
        <ele>454.36</ele>
        <time>2013-06-23T08:33:52Z</time>
      </trkpt>
      <trkpt lat="43.13622" lon="2.47841">
        <ele>454.36</ele>
        <time>2013-06-23T08:33:53Z</time>
      </trkpt>
      <trkpt lat="43.13624" lon="2.47837">
        <ele>454.84</ele>
        <time>2013-06-23T08:33:54Z</time>
      </trkpt>
      <trkpt lat="43.13626" lon="2.47835">
        <ele>454.84</ele>
        <time>2013-06-23T08:33:55Z</time>
      </trkpt>
      <trkpt lat="43.13628" lon="2.47832">
        <ele>454.84</ele>
        <time>2013-06-23T08:33:56Z</time>
      </trkpt>
      <trkpt lat="43.1363" lon="2.47829">
        <ele>454.84</ele>
        <time>2013-06-23T08:33:57Z</time>
      </trkpt>
      <trkpt lat="43.13631" lon="2.47825">
        <ele>454.84</ele>
        <time>2013-06-23T08:33:58Z</time>
      </trkpt>
      <trkpt lat="43.13633" lon="2.47822">
        <ele>454.84</ele>
        <time>2013-06-23T08:33:59Z</time>
      </trkpt>
      <trkpt lat="43.13635" lon="2.47819">
        <ele>455.32</ele>
        <time>2013-06-23T08:34:00Z</time>
      </trkpt>
      <trkpt lat="43.13638" lon="2.47814">
        <ele>455.32</ele>
        <time>2013-06-23T08:34:02Z</time>
      </trkpt>
      <trkpt lat="43.13638" lon="2.47811">
        <ele>455.32</ele>
        <time>2013-06-23T08:34:03Z</time>
      </trkpt>
      <trkpt lat="43.13639" lon="2.47808">
        <ele>455.32</ele>
        <time>2013-06-23T08:34:04Z</time>
      </trkpt>
      <trkpt lat="43.13641" lon="2.47792">
        <ele>454.36</ele>
        <time>2013-06-23T08:34:08Z</time>
      </trkpt>
      <trkpt lat="43.13643" lon="2.4779">
        <ele>454.84</ele>
        <time>2013-06-23T08:34:09Z</time>
      </trkpt>
      <trkpt lat="43.13657" lon="2.47765">
        <ele>460.13</ele>
        <time>2013-06-23T08:34:19Z</time>
      </trkpt>
      <trkpt lat="43.13665" lon="2.47739">
        <ele>460.13</ele>
        <time>2013-06-23T08:34:26Z</time>
      </trkpt>
      <trkpt lat="43.13667" lon="2.47735">
        <ele>460.13</ele>
        <time>2013-06-23T08:34:27Z</time>
      </trkpt>
      <trkpt lat="43.1367" lon="2.47732">
        <ele>460.13</ele>
        <time>2013-06-23T08:34:28Z</time>
      </trkpt>
      <trkpt lat="43.13672" lon="2.47728">
        <ele>460.13</ele>
        <time>2013-06-23T08:34:29Z</time>
      </trkpt>
      <trkpt lat="43.13674" lon="2.47723">
        <ele>460.13</ele>
        <time>2013-06-23T08:34:30Z</time>
      </trkpt>
      <trkpt lat="43.13676" lon="2.47718">
        <ele>460.13</ele>
        <time>2013-06-23T08:34:31Z</time>
      </trkpt>
      <trkpt lat="43.13678" lon="2.47707">
        <ele>460.13</ele>
        <time>2013-06-23T08:34:33Z</time>
      </trkpt>
      <trkpt lat="43.13679" lon="2.47701">
        <ele>460.13</ele>
        <time>2013-06-23T08:34:34Z</time>
      </trkpt>
      <trkpt lat="43.13686" lon="2.47675">
        <ele>460.13</ele>
        <time>2013-06-23T08:34:40Z</time>
      </trkpt>
      <trkpt lat="43.13685" lon="2.47671">
        <ele>460.13</ele>
        <time>2013-06-23T08:34:41Z</time>
      </trkpt>
      <trkpt lat="43.13683" lon="2.47634">
        <ele>457.72</ele>
        <time>2013-06-23T08:34:51Z</time>
      </trkpt>
      <trkpt lat="43.13678" lon="2.47592">
        <ele>456.76</ele>
        <time>2013-06-23T08:35:02Z</time>
      </trkpt>
      <trkpt lat="43.1369" lon="2.47564">
        <ele>457.72</ele>
        <time>2013-06-23T08:35:14Z</time>
      </trkpt>
      <trkpt lat="43.13704" lon="2.47521">
        <ele>457.72</ele>
        <time>2013-06-23T08:35:28Z</time>
      </trkpt>
      <trkpt lat="43.13706" lon="2.47516">
        <ele>457.72</ele>
        <time>2013-06-23T08:35:29Z</time>
      </trkpt>
      <trkpt lat="43.13707" lon="2.47511">
        <ele>457.24</ele>
        <time>2013-06-23T08:35:30Z</time>
      </trkpt>
      <trkpt lat="43.13708" lon="2.47504">
        <ele>456.76</ele>
        <time>2013-06-23T08:35:31Z</time>
      </trkpt>
      <trkpt lat="43.13709" lon="2.47497">
        <ele>456.76</ele>
        <time>2013-06-23T08:35:32Z</time>
      </trkpt>
      <trkpt lat="43.13709" lon="2.4749">
        <ele>456.28</ele>
        <time>2013-06-23T08:35:33Z</time>
      </trkpt>
      <trkpt lat="43.13711" lon="2.47483">
        <ele>455.8</ele>
        <time>2013-06-23T08:35:34Z</time>
      </trkpt>
      <trkpt lat="43.13711" lon="2.47478">
        <ele>455.8</ele>
        <time>2013-06-23T08:35:35Z</time>
      </trkpt>
      <trkpt lat="43.13712" lon="2.47474">
        <ele>455.8</ele>
        <time>2013-06-23T08:35:36Z</time>
      </trkpt>
      <trkpt lat="43.13712" lon="2.47471">
        <ele>455.8</ele>
        <time>2013-06-23T08:35:37Z</time>
      </trkpt>
      <trkpt lat="43.13711" lon="2.47459">
        <ele>456.28</ele>
        <time>2013-06-23T08:35:47Z</time>
      </trkpt>
      <trkpt lat="43.13709" lon="2.47443">
        <ele>457.72</ele>
        <time>2013-06-23T08:35:58Z</time>
      </trkpt>
      <trkpt lat="43.13706" lon="2.4743">
        <ele>460.61</ele>
        <time>2013-06-23T08:36:08Z</time>
      </trkpt>
      <trkpt lat="43.13705" lon="2.47427">
        <ele>460.61</ele>
        <time>2013-06-23T08:36:11Z</time>
      </trkpt>
      <trkpt lat="43.13705" lon="2.47425">
        <ele>460.13</ele>
        <time>2013-06-23T08:36:13Z</time>
      </trkpt>
      <trkpt lat="43.13705" lon="2.47422">
        <ele>460.13</ele>
        <time>2013-06-23T08:36:14Z</time>
      </trkpt>
      <trkpt lat="43.13705" lon="2.47419">
        <ele>459.65</ele>
        <time>2013-06-23T08:36:15Z</time>
      </trkpt>
      <trkpt lat="43.13705" lon="2.47415">
        <ele>459.17</ele>
        <time>2013-06-23T08:36:16Z</time>
      </trkpt>
      <trkpt lat="43.13705" lon="2.47409">
        <ele>459.17</ele>
        <time>2013-06-23T08:36:17Z</time>
      </trkpt>
      <trkpt lat="43.13706" lon="2.47404">
        <ele>459.17</ele>
        <time>2013-06-23T08:36:18Z</time>
      </trkpt>
      <trkpt lat="43.13707" lon="2.47399">
        <ele>459.65</ele>
        <time>2013-06-23T08:36:19Z</time>
      </trkpt>
      <trkpt lat="43.13708" lon="2.47395">
        <ele>459.65</ele>
        <time>2013-06-23T08:36:20Z</time>
      </trkpt>
      <trkpt lat="43.13708" lon="2.4739">
        <ele>459.17</ele>
        <time>2013-06-23T08:36:21Z</time>
      </trkpt>
      <trkpt lat="43.13708" lon="2.47384">
        <ele>458.69</ele>
        <time>2013-06-23T08:36:22Z</time>
      </trkpt>
      <trkpt lat="43.13709" lon="2.47379">
        <ele>458.21</ele>
        <time>2013-06-23T08:36:23Z</time>
      </trkpt>
      <trkpt lat="43.1371" lon="2.47374">
        <ele>458.21</ele>
        <time>2013-06-23T08:36:24Z</time>
      </trkpt>
      <trkpt lat="43.13712" lon="2.4737">
        <ele>457.72</ele>
        <time>2013-06-23T08:36:25Z</time>
      </trkpt>
      <trkpt lat="43.13714" lon="2.47365">
        <ele>457.72</ele>
        <time>2013-06-23T08:36:26Z</time>
      </trkpt>
      <trkpt lat="43.13716" lon="2.4736">
        <ele>457.24</ele>
        <time>2013-06-23T08:36:27Z</time>
      </trkpt>
      <trkpt lat="43.13717" lon="2.47354">
        <ele>457.24</ele>
        <time>2013-06-23T08:36:28Z</time>
      </trkpt>
      <trkpt lat="43.13719" lon="2.47347">
        <ele>456.76</ele>
        <time>2013-06-23T08:36:29Z</time>
      </trkpt>
      <trkpt lat="43.13721" lon="2.47341">
        <ele>456.28</ele>
        <time>2013-06-23T08:36:30Z</time>
      </trkpt>
      <trkpt lat="43.13722" lon="2.47336">
        <ele>455.8</ele>
        <time>2013-06-23T08:36:31Z</time>
      </trkpt>
      <trkpt lat="43.13723" lon="2.47332">
        <ele>455.32</ele>
        <time>2013-06-23T08:36:32Z</time>
      </trkpt>
      <trkpt lat="43.13725" lon="2.47327">
        <ele>454.84</ele>
        <time>2013-06-23T08:36:33Z</time>
      </trkpt>
      <trkpt lat="43.13727" lon="2.47321">
        <ele>454.36</ele>
        <time>2013-06-23T08:36:34Z</time>
      </trkpt>
      <trkpt lat="43.13729" lon="2.47315">
        <ele>453.88</ele>
        <time>2013-06-23T08:36:35Z</time>
      </trkpt>
      <trkpt lat="43.13732" lon="2.47308">
        <ele>453.4</ele>
        <time>2013-06-23T08:36:36Z</time>
      </trkpt>
      <trkpt lat="43.13733" lon="2.47301">
        <ele>452.44</ele>
        <time>2013-06-23T08:36:37Z</time>
      </trkpt>
      <trkpt lat="43.13736" lon="2.47294">
        <ele>451.96</ele>
        <time>2013-06-23T08:36:38Z</time>
      </trkpt>
      <trkpt lat="43.13742" lon="2.47281">
        <ele>451</ele>
        <time>2013-06-23T08:36:40Z</time>
      </trkpt>
      <trkpt lat="43.13746" lon="2.47277">
        <ele>450.52</ele>
        <time>2013-06-23T08:36:41Z</time>
      </trkpt>
      <trkpt lat="43.13751" lon="2.47274">
        <ele>450.52</ele>
        <time>2013-06-23T08:36:42Z</time>
      </trkpt>
      <trkpt lat="43.13754" lon="2.4727">
        <ele>451</ele>
        <time>2013-06-23T08:36:43Z</time>
      </trkpt>
      <trkpt lat="43.13757" lon="2.47265">
        <ele>451</ele>
        <time>2013-06-23T08:36:44Z</time>
      </trkpt>
      <trkpt lat="43.1376" lon="2.47262">
        <ele>451</ele>
        <time>2013-06-23T08:36:45Z</time>
      </trkpt>
      <trkpt lat="43.13764" lon="2.4726">
        <ele>451</ele>
        <time>2013-06-23T08:36:46Z</time>
      </trkpt>
      <trkpt lat="43.13766" lon="2.47258">
        <ele>451.48</ele>
        <time>2013-06-23T08:36:47Z</time>
      </trkpt>
      <trkpt lat="43.13769" lon="2.47254">
        <ele>451.48</ele>
        <time>2013-06-23T08:36:48Z</time>
      </trkpt>
      <trkpt lat="43.13771" lon="2.47249">
        <ele>451.48</ele>
        <time>2013-06-23T08:36:49Z</time>
      </trkpt>
      <trkpt lat="43.13774" lon="2.47245">
        <ele>451.48</ele>
        <time>2013-06-23T08:36:50Z</time>
      </trkpt>
      <trkpt lat="43.13775" lon="2.47239">
        <ele>451.48</ele>
        <time>2013-06-23T08:36:51Z</time>
      </trkpt>
      <trkpt lat="43.13776" lon="2.47233">
        <ele>451</ele>
        <time>2013-06-23T08:36:52Z</time>
      </trkpt>
      <trkpt lat="43.13776" lon="2.47227">
        <ele>450.52</ele>
        <time>2013-06-23T08:36:53Z</time>
      </trkpt>
      <trkpt lat="43.13777" lon="2.4722">
        <ele>450.52</ele>
        <time>2013-06-23T08:36:54Z</time>
      </trkpt>
      <trkpt lat="43.13778" lon="2.47214">
        <ele>450.03</ele>
        <time>2013-06-23T08:36:55Z</time>
      </trkpt>
      <trkpt lat="43.13781" lon="2.47209">
        <ele>449.55</ele>
        <time>2013-06-23T08:36:56Z</time>
      </trkpt>
      <trkpt lat="43.13783" lon="2.47204">
        <ele>449.55</ele>
        <time>2013-06-23T08:36:57Z</time>
      </trkpt>
      <trkpt lat="43.13784" lon="2.472">
        <ele>448.59</ele>
        <time>2013-06-23T08:36:58Z</time>
      </trkpt>
      <trkpt lat="43.13783" lon="2.47194">
        <ele>447.63</ele>
        <time>2013-06-23T08:36:59Z</time>
      </trkpt>
      <trkpt lat="43.13782" lon="2.47188">
        <ele>446.19</ele>
        <time>2013-06-23T08:37:00Z</time>
      </trkpt>
      <trkpt lat="43.13782" lon="2.47183">
        <ele>445.23</ele>
        <time>2013-06-23T08:37:01Z</time>
      </trkpt>
      <trkpt lat="43.13783" lon="2.47178">
        <ele>444.27</ele>
        <time>2013-06-23T08:37:02Z</time>
      </trkpt>
      <trkpt lat="43.13784" lon="2.47173">
        <ele>443.79</ele>
        <time>2013-06-23T08:37:03Z</time>
      </trkpt>
      <trkpt lat="43.13785" lon="2.4717">
        <ele>443.31</ele>
        <time>2013-06-23T08:37:04Z</time>
      </trkpt>
      <trkpt lat="43.13785" lon="2.47166">
        <ele>442.82</ele>
        <time>2013-06-23T08:37:05Z</time>
      </trkpt>
      <trkpt lat="43.13784" lon="2.47162">
        <ele>442.34</ele>
        <time>2013-06-23T08:37:06Z</time>
      </trkpt>
      <trkpt lat="43.1378" lon="2.47148">
        <ele>440.9</ele>
        <time>2013-06-23T08:37:09Z</time>
      </trkpt>
      <trkpt lat="43.13776" lon="2.47143">
        <ele>440.42</ele>
        <time>2013-06-23T08:37:10Z</time>
      </trkpt>
      <trkpt lat="43.13773" lon="2.47138">
        <ele>439.46</ele>
        <time>2013-06-23T08:37:11Z</time>
      </trkpt>
      <trkpt lat="43.13771" lon="2.47134">
        <ele>438.98</ele>
        <time>2013-06-23T08:37:12Z</time>
      </trkpt>
      <trkpt lat="43.13768" lon="2.4713">
        <ele>438.5</ele>
        <time>2013-06-23T08:37:13Z</time>
      </trkpt>
      <trkpt lat="43.13764" lon="2.47124">
        <ele>438.5</ele>
        <time>2013-06-23T08:37:14Z</time>
      </trkpt>
      <trkpt lat="43.13759" lon="2.4712">
        <ele>438.02</ele>
        <time>2013-06-23T08:37:15Z</time>
      </trkpt>
      <trkpt lat="43.13756" lon="2.47115">
        <ele>438.02</ele>
        <time>2013-06-23T08:37:16Z</time>
      </trkpt>
      <trkpt lat="43.13753" lon="2.47106">
        <ele>437.54</ele>
        <time>2013-06-23T08:37:18Z</time>
      </trkpt>
      <trkpt lat="43.13752" lon="2.47101">
        <ele>437.06</ele>
        <time>2013-06-23T08:37:19Z</time>
      </trkpt>
      <trkpt lat="43.13749" lon="2.47098">
        <ele>436.58</ele>
        <time>2013-06-23T08:37:20Z</time>
      </trkpt>
      <trkpt lat="43.13747" lon="2.47094">
        <ele>437.06</ele>
        <time>2013-06-23T08:37:21Z</time>
      </trkpt>
      <trkpt lat="43.13745" lon="2.47091">
        <ele>437.06</ele>
        <time>2013-06-23T08:37:22Z</time>
      </trkpt>
      <trkpt lat="43.13743" lon="2.47088">
        <ele>437.06</ele>
        <time>2013-06-23T08:37:23Z</time>
      </trkpt>
      <trkpt lat="43.13742" lon="2.47084">
        <ele>437.54</ele>
        <time>2013-06-23T08:37:24Z</time>
      </trkpt>
      <trkpt lat="43.13742" lon="2.47081">
        <ele>438.02</ele>
        <time>2013-06-23T08:37:25Z</time>
      </trkpt>
      <trkpt lat="43.13744" lon="2.47077">
        <ele>438.5</ele>
        <time>2013-06-23T08:37:26Z</time>
      </trkpt>
      <trkpt lat="43.13746" lon="2.47072">
        <ele>438.5</ele>
        <time>2013-06-23T08:37:27Z</time>
      </trkpt>
      <trkpt lat="43.13748" lon="2.47068">
        <ele>438.98</ele>
        <time>2013-06-23T08:37:28Z</time>
      </trkpt>
      <trkpt lat="43.1375" lon="2.47063">
        <ele>438.98</ele>
        <time>2013-06-23T08:37:29Z</time>
      </trkpt>
      <trkpt lat="43.13771" lon="2.47013">
        <ele>439.46</ele>
        <time>2013-06-23T08:37:40Z</time>
      </trkpt>
      <trkpt lat="43.13773" lon="2.46989">
        <ele>440.9</ele>
        <time>2013-06-23T08:37:47Z</time>
      </trkpt>
      <trkpt lat="43.13761" lon="2.46984">
        <ele>442.82</ele>
        <time>2013-06-23T08:37:54Z</time>
      </trkpt>
      <trkpt lat="43.13741" lon="2.46955">
        <ele>443.31</ele>
        <time>2013-06-23T08:38:07Z</time>
      </trkpt>
      <trkpt lat="43.13733" lon="2.4692">
        <ele>442.82</ele>
        <time>2013-06-23T08:38:13Z</time>
      </trkpt>
      <trkpt lat="43.13726" lon="2.46901">
        <ele>441.86</ele>
        <time>2013-06-23T08:38:17Z</time>
      </trkpt>
      <trkpt lat="43.13709" lon="2.46866">
        <ele>442.34</ele>
        <time>2013-06-23T08:38:25Z</time>
      </trkpt>
      <trkpt lat="43.13701" lon="2.46849">
        <ele>443.79</ele>
        <time>2013-06-23T08:38:32Z</time>
      </trkpt>
      <trkpt lat="43.13696" lon="2.46826">
        <ele>444.27</ele>
        <time>2013-06-23T08:38:45Z</time>
      </trkpt>
      <trkpt lat="43.13688" lon="2.46808">
        <ele>448.11</ele>
        <time>2013-06-23T08:38:58Z</time>
      </trkpt>
      <trkpt lat="43.13687" lon="2.46807">
        <ele>448.59</ele>
        <time>2013-06-23T08:38:59Z</time>
      </trkpt>
      <trkpt lat="43.13683" lon="2.46801">
        <ele>451</ele>
        <time>2013-06-23T08:39:04Z</time>
      </trkpt>
      <trkpt lat="43.13671" lon="2.46789">
        <ele>453.88</ele>
        <time>2013-06-23T08:39:16Z</time>
      </trkpt>
      <trkpt lat="43.13666" lon="2.46781">
        <ele>461.09</ele>
        <time>2013-06-23T08:39:29Z</time>
      </trkpt>
      <trkpt lat="43.13663" lon="2.46768">
        <ele>469.74</ele>
        <time>2013-06-23T08:39:43Z</time>
      </trkpt>
      <trkpt lat="43.13659" lon="2.46756">
        <ele>477.43</ele>
        <time>2013-06-23T08:39:59Z</time>
      </trkpt>
      <trkpt lat="43.13657" lon="2.46749">
        <ele>479.35</ele>
        <time>2013-06-23T08:40:05Z</time>
      </trkpt>
      <trkpt lat="43.13656" lon="2.46743">
        <ele>479.84</ele>
        <time>2013-06-23T08:40:10Z</time>
      </trkpt>
      <trkpt lat="43.13654" lon="2.46738">
        <ele>478.39</ele>
        <time>2013-06-23T08:40:23Z</time>
      </trkpt>
      <trkpt lat="43.13652" lon="2.46732">
        <ele>477.91</ele>
        <time>2013-06-23T08:40:34Z</time>
      </trkpt>
      <trkpt lat="43.13641" lon="2.46727">
        <ele>478.39</ele>
        <time>2013-06-23T08:40:42Z</time>
      </trkpt>
      <trkpt lat="43.1364" lon="2.46724">
        <ele>478.87</ele>
        <time>2013-06-23T08:40:45Z</time>
      </trkpt>
      <trkpt lat="43.13635" lon="2.46714">
        <ele>480.32</ele>
        <time>2013-06-23T08:40:52Z</time>
      </trkpt>
      <trkpt lat="43.13633" lon="2.46705">
        <ele>481.28</ele>
        <time>2013-06-23T08:40:56Z</time>
      </trkpt>
      <trkpt lat="43.13623" lon="2.46695">
        <ele>483.68</ele>
        <time>2013-06-23T08:41:05Z</time>
      </trkpt>
      <trkpt lat="43.13612" lon="2.46689">
        <ele>484.16</ele>
        <time>2013-06-23T08:41:11Z</time>
      </trkpt>
      <trkpt lat="43.13609" lon="2.46685">
        <ele>483.68</ele>
        <time>2013-06-23T08:41:14Z</time>
      </trkpt>
      <trkpt lat="43.13606" lon="2.46678">
        <ele>483.2</ele>
        <time>2013-06-23T08:41:18Z</time>
      </trkpt>
      <trkpt lat="43.13604" lon="2.46669">
        <ele>482.24</ele>
        <time>2013-06-23T08:41:22Z</time>
      </trkpt>
      <trkpt lat="43.13601" lon="2.46656">
        <ele>483.2</ele>
        <time>2013-06-23T08:41:28Z</time>
      </trkpt>
      <trkpt lat="43.13604" lon="2.46618">
        <ele>486.08</ele>
        <time>2013-06-23T08:41:40Z</time>
      </trkpt>
      <trkpt lat="43.13609" lon="2.46597">
        <ele>486.56</ele>
        <time>2013-06-23T08:41:48Z</time>
      </trkpt>
      <trkpt lat="43.13615" lon="2.46584">
        <ele>485.6</ele>
        <time>2013-06-23T08:41:52Z</time>
      </trkpt>
      <trkpt lat="43.13617" lon="2.46576">
        <ele>485.6</ele>
        <time>2013-06-23T08:41:54Z</time>
      </trkpt>
      <trkpt lat="43.13621" lon="2.46551">
        <ele>484.64</ele>
        <time>2013-06-23T08:42:04Z</time>
      </trkpt>
      <trkpt lat="43.13622" lon="2.46549">
        <ele>484.64</ele>
        <time>2013-06-23T08:42:05Z</time>
      </trkpt>
      <trkpt lat="43.13628" lon="2.46533">
        <ele>485.12</ele>
        <time>2013-06-23T08:42:10Z</time>
      </trkpt>
      <trkpt lat="43.1363" lon="2.46516">
        <ele>486.56</ele>
        <time>2013-06-23T08:42:16Z</time>
      </trkpt>
      <trkpt lat="43.13636" lon="2.465">
        <ele>488.01</ele>
        <time>2013-06-23T08:42:22Z</time>
      </trkpt>
      <trkpt lat="43.13645" lon="2.46485">
        <ele>490.41</ele>
        <time>2013-06-23T08:42:29Z</time>
      </trkpt>
      <trkpt lat="43.13655" lon="2.46468">
        <ele>491.37</ele>
        <time>2013-06-23T08:42:35Z</time>
      </trkpt>
      <trkpt lat="43.13663" lon="2.46457">
        <ele>490.89</ele>
        <time>2013-06-23T08:42:39Z</time>
      </trkpt>
      <trkpt lat="43.1368" lon="2.46424">
        <ele>488.49</ele>
        <time>2013-06-23T08:42:49Z</time>
      </trkpt>
      <trkpt lat="43.13702" lon="2.46373">
        <ele>488.49</ele>
        <time>2013-06-23T08:42:59Z</time>
      </trkpt>
      <trkpt lat="43.13706" lon="2.46343">
        <ele>492.33</ele>
        <time>2013-06-23T08:43:08Z</time>
      </trkpt>
      <trkpt lat="43.13707" lon="2.46339">
        <ele>492.81</ele>
        <time>2013-06-23T08:43:09Z</time>
      </trkpt>
      <trkpt lat="43.13719" lon="2.46292">
        <ele>490.89</ele>
        <time>2013-06-23T08:43:16Z</time>
      </trkpt>
      <trkpt lat="43.1371" lon="2.46248">
        <ele>485.6</ele>
        <time>2013-06-23T08:43:22Z</time>
      </trkpt>
      <trkpt lat="43.13709" lon="2.46242">
        <ele>484.64</ele>
        <time>2013-06-23T08:43:23Z</time>
      </trkpt>
      <trkpt lat="43.13705" lon="2.46203">
        <ele>479.84</ele>
        <time>2013-06-23T08:43:29Z</time>
      </trkpt>
      <trkpt lat="43.13703" lon="2.46152">
        <ele>478.87</ele>
        <time>2013-06-23T08:43:37Z</time>
      </trkpt>
      <trkpt lat="43.13703" lon="2.46147">
        <ele>478.87</ele>
        <time>2013-06-23T08:43:38Z</time>
      </trkpt>
      <trkpt lat="43.13704" lon="2.46142">
        <ele>479.35</ele>
        <time>2013-06-23T08:43:39Z</time>
      </trkpt>
      <trkpt lat="43.13704" lon="2.46138">
        <ele>479.35</ele>
        <time>2013-06-23T08:43:40Z</time>
      </trkpt>
      <trkpt lat="43.13705" lon="2.46134">
        <ele>479.35</ele>
        <time>2013-06-23T08:43:41Z</time>
      </trkpt>
      <trkpt lat="43.13705" lon="2.46131">
        <ele>479.84</ele>
        <time>2013-06-23T08:43:42Z</time>
      </trkpt>
      <trkpt lat="43.13705" lon="2.46128">
        <ele>479.84</ele>
        <time>2013-06-23T08:43:43Z</time>
      </trkpt>
      <trkpt lat="43.13716" lon="2.46089">
        <ele>478.87</ele>
        <time>2013-06-23T08:43:52Z</time>
      </trkpt>
      <trkpt lat="43.1372" lon="2.46078">
        <ele>478.39</ele>
        <time>2013-06-23T08:43:54Z</time>
      </trkpt>
      <trkpt lat="43.13735" lon="2.46045">
        <ele>481.76</ele>
        <time>2013-06-23T08:44:04Z</time>
      </trkpt>
      <trkpt lat="43.13743" lon="2.46023">
        <ele>484.64</ele>
        <time>2013-06-23T08:44:12Z</time>
      </trkpt>
      <trkpt lat="43.13744" lon="2.4602">
        <ele>484.64</ele>
        <time>2013-06-23T08:44:13Z</time>
      </trkpt>
      <trkpt lat="43.1374" lon="2.45978">
        <ele>482.24</ele>
        <time>2013-06-23T08:44:24Z</time>
      </trkpt>
      <trkpt lat="43.13739" lon="2.45971">
        <ele>481.76</ele>
        <time>2013-06-23T08:44:25Z</time>
      </trkpt>
      <trkpt lat="43.13732" lon="2.45939">
        <ele>480.32</ele>
        <time>2013-06-23T08:44:29Z</time>
      </trkpt>
      <trkpt lat="43.13729" lon="2.45934">
        <ele>480.32</ele>
        <time>2013-06-23T08:44:30Z</time>
      </trkpt>
      <trkpt lat="43.13727" lon="2.45931">
        <ele>480.8</ele>
        <time>2013-06-23T08:44:31Z</time>
      </trkpt>
      <trkpt lat="43.13723" lon="2.45918">
        <ele>481.28</ele>
        <time>2013-06-23T08:44:37Z</time>
      </trkpt>
      <trkpt lat="43.13723" lon="2.45916">
        <ele>481.28</ele>
        <time>2013-06-23T08:44:38Z</time>
      </trkpt>
      <trkpt lat="43.13722" lon="2.45914">
        <ele>481.76</ele>
        <time>2013-06-23T08:44:39Z</time>
      </trkpt>
      <trkpt lat="43.13718" lon="2.45886">
        <ele>482.72</ele>
        <time>2013-06-23T08:44:50Z</time>
      </trkpt>
      <trkpt lat="43.13718" lon="2.45883">
        <ele>482.72</ele>
        <time>2013-06-23T08:44:51Z</time>
      </trkpt>
      <trkpt lat="43.13718" lon="2.4588">
        <ele>483.2</ele>
        <time>2013-06-23T08:44:52Z</time>
      </trkpt>
      <trkpt lat="43.13718" lon="2.45878">
        <ele>483.68</ele>
        <time>2013-06-23T08:44:53Z</time>
      </trkpt>
      <trkpt lat="43.13718" lon="2.45876">
        <ele>483.68</ele>
        <time>2013-06-23T08:44:54Z</time>
      </trkpt>
      <trkpt lat="43.13719" lon="2.45873">
        <ele>483.68</ele>
        <time>2013-06-23T08:44:55Z</time>
      </trkpt>
      <trkpt lat="43.13719" lon="2.4587">
        <ele>483.68</ele>
        <time>2013-06-23T08:44:56Z</time>
      </trkpt>
      <trkpt lat="43.13727" lon="2.45853">
        <ele>485.6</ele>
        <time>2013-06-23T08:45:05Z</time>
      </trkpt>
      <trkpt lat="43.13732" lon="2.45846">
        <ele>485.12</ele>
        <time>2013-06-23T08:45:07Z</time>
      </trkpt>
      <trkpt lat="43.1374" lon="2.45838">
        <ele>484.16</ele>
        <time>2013-06-23T08:45:09Z</time>
      </trkpt>
      <trkpt lat="43.13743" lon="2.45834">
        <ele>484.16</ele>
        <time>2013-06-23T08:45:10Z</time>
      </trkpt>
      <trkpt lat="43.13744" lon="2.45832">
        <ele>483.68</ele>
        <time>2013-06-23T08:45:11Z</time>
      </trkpt>
      <trkpt lat="43.13746" lon="2.4583">
        <ele>482.24</ele>
        <time>2013-06-23T08:45:23Z</time>
      </trkpt>
      <trkpt lat="43.13752" lon="2.45825">
        <ele>483.2</ele>
        <time>2013-06-23T08:45:38Z</time>
      </trkpt>
      <trkpt lat="43.13754" lon="2.45826">
        <ele>482.72</ele>
        <time>2013-06-23T08:45:39Z</time>
      </trkpt>
      <trkpt lat="43.13756" lon="2.45826">
        <ele>482.72</ele>
        <time>2013-06-23T08:45:40Z</time>
      </trkpt>
      <trkpt lat="43.13763" lon="2.45824">
        <ele>481.76</ele>
        <time>2013-06-23T08:45:42Z</time>
      </trkpt>
      <trkpt lat="43.13766" lon="2.45821">
        <ele>480.8</ele>
        <time>2013-06-23T08:45:43Z</time>
      </trkpt>
      <trkpt lat="43.13772" lon="2.45811">
        <ele>479.35</ele>
        <time>2013-06-23T08:45:45Z</time>
      </trkpt>
      <trkpt lat="43.1379" lon="2.45794">
        <ele>477.43</ele>
        <time>2013-06-23T08:45:49Z</time>
      </trkpt>
      <trkpt lat="43.13793" lon="2.4579">
        <ele>476.95</ele>
        <time>2013-06-23T08:45:50Z</time>
      </trkpt>
      <trkpt lat="43.13795" lon="2.45786">
        <ele>476.95</ele>
        <time>2013-06-23T08:45:51Z</time>
      </trkpt>
      <trkpt lat="43.13796" lon="2.45784">
        <ele>476.47</ele>
        <time>2013-06-23T08:45:52Z</time>
      </trkpt>
      <trkpt lat="43.138" lon="2.45778">
        <ele>473.59</ele>
        <time>2013-06-23T08:46:04Z</time>
      </trkpt>
      <trkpt lat="43.13825" lon="2.45763">
        <ele>463.97</ele>
        <time>2013-06-23T08:46:14Z</time>
      </trkpt>
      <trkpt lat="43.13827" lon="2.4576">
        <ele>463.01</ele>
        <time>2013-06-23T08:46:15Z</time>
      </trkpt>
      <trkpt lat="43.13829" lon="2.45756">
        <ele>461.57</ele>
        <time>2013-06-23T08:46:16Z</time>
      </trkpt>
      <trkpt lat="43.13833" lon="2.45752">
        <ele>460.61</ele>
        <time>2013-06-23T08:46:17Z</time>
      </trkpt>
      <trkpt lat="43.13837" lon="2.45748">
        <ele>459.65</ele>
        <time>2013-06-23T08:46:18Z</time>
      </trkpt>
      <trkpt lat="43.1384" lon="2.45745">
        <ele>458.69</ele>
        <time>2013-06-23T08:46:19Z</time>
      </trkpt>
      <trkpt lat="43.13842" lon="2.45741">
        <ele>457.72</ele>
        <time>2013-06-23T08:46:20Z</time>
      </trkpt>
      <trkpt lat="43.13846" lon="2.45738">
        <ele>456.76</ele>
        <time>2013-06-23T08:46:21Z</time>
      </trkpt>
      <trkpt lat="43.1387" lon="2.45716">
        <ele>453.4</ele>
        <time>2013-06-23T08:46:25Z</time>
      </trkpt>
      <trkpt lat="43.13883" lon="2.45705">
        <ele>450.52</ele>
        <time>2013-06-23T08:46:29Z</time>
      </trkpt>
      <trkpt lat="43.13887" lon="2.45701">
        <ele>450.03</ele>
        <time>2013-06-23T08:46:30Z</time>
      </trkpt>
      <trkpt lat="43.1389" lon="2.45695">
        <ele>449.07</ele>
        <time>2013-06-23T08:46:31Z</time>
      </trkpt>
      <trkpt lat="43.13894" lon="2.45689">
        <ele>448.59</ele>
        <time>2013-06-23T08:46:32Z</time>
      </trkpt>
      <trkpt lat="43.13897" lon="2.45682">
        <ele>448.11</ele>
        <time>2013-06-23T08:46:33Z</time>
      </trkpt>
      <trkpt lat="43.139" lon="2.45675">
        <ele>447.63</ele>
        <time>2013-06-23T08:46:34Z</time>
      </trkpt>
      <trkpt lat="43.13902" lon="2.45668">
        <ele>446.67</ele>
        <time>2013-06-23T08:46:35Z</time>
      </trkpt>
      <trkpt lat="43.13904" lon="2.45662">
        <ele>446.19</ele>
        <time>2013-06-23T08:46:36Z</time>
      </trkpt>
      <trkpt lat="43.13907" lon="2.45656">
        <ele>446.19</ele>
        <time>2013-06-23T08:46:37Z</time>
      </trkpt>
      <trkpt lat="43.13913" lon="2.45643">
        <ele>444.75</ele>
        <time>2013-06-23T08:46:39Z</time>
      </trkpt>
      <trkpt lat="43.13916" lon="2.45636">
        <ele>444.27</ele>
        <time>2013-06-23T08:46:40Z</time>
      </trkpt>
      <trkpt lat="43.13919" lon="2.45628">
        <ele>443.79</ele>
        <time>2013-06-23T08:46:41Z</time>
      </trkpt>
      <trkpt lat="43.13921" lon="2.4562">
        <ele>443.31</ele>
        <time>2013-06-23T08:46:42Z</time>
      </trkpt>
      <trkpt lat="43.13923" lon="2.45612">
        <ele>442.82</ele>
        <time>2013-06-23T08:46:43Z</time>
      </trkpt>
      <trkpt lat="43.13924" lon="2.45604">
        <ele>442.34</ele>
        <time>2013-06-23T08:46:44Z</time>
      </trkpt>
      <trkpt lat="43.1393" lon="2.4557">
        <ele>441.38</ele>
        <time>2013-06-23T08:46:49Z</time>
      </trkpt>
      <trkpt lat="43.1393" lon="2.45558">
        <ele>440.42</ele>
        <time>2013-06-23T08:46:51Z</time>
      </trkpt>
      <trkpt lat="43.13931" lon="2.45537">
        <ele>438.98</ele>
        <time>2013-06-23T08:46:54Z</time>
      </trkpt>
      <trkpt lat="43.13932" lon="2.45531">
        <ele>438.02</ele>
        <time>2013-06-23T08:46:55Z</time>
      </trkpt>
      <trkpt lat="43.13933" lon="2.45525">
        <ele>438.02</ele>
        <time>2013-06-23T08:46:56Z</time>
      </trkpt>
      <trkpt lat="43.13934" lon="2.45519">
        <ele>437.06</ele>
        <time>2013-06-23T08:46:57Z</time>
      </trkpt>
      <trkpt lat="43.13936" lon="2.45512">
        <ele>436.58</ele>
        <time>2013-06-23T08:46:58Z</time>
      </trkpt>
      <trkpt lat="43.13938" lon="2.45504">
        <ele>436.1</ele>
        <time>2013-06-23T08:46:59Z</time>
      </trkpt>
      <trkpt lat="43.1394" lon="2.45495">
        <ele>435.13</ele>
        <time>2013-06-23T08:47:00Z</time>
      </trkpt>
      <trkpt lat="43.1394" lon="2.45486">
        <ele>434.65</ele>
        <time>2013-06-23T08:47:01Z</time>
      </trkpt>
      <trkpt lat="43.1394" lon="2.45477">
        <ele>434.17</ele>
        <time>2013-06-23T08:47:02Z</time>
      </trkpt>
      <trkpt lat="43.1394" lon="2.45469">
        <ele>433.21</ele>
        <time>2013-06-23T08:47:03Z</time>
      </trkpt>
      <trkpt lat="43.1394" lon="2.45462">
        <ele>432.73</ele>
        <time>2013-06-23T08:47:04Z</time>
      </trkpt>
      <trkpt lat="43.13939" lon="2.45456">
        <ele>432.25</ele>
        <time>2013-06-23T08:47:05Z</time>
      </trkpt>
      <trkpt lat="43.13938" lon="2.4545">
        <ele>432.25</ele>
        <time>2013-06-23T08:47:06Z</time>
      </trkpt>
      <trkpt lat="43.13936" lon="2.45446">
        <ele>431.77</ele>
        <time>2013-06-23T08:47:07Z</time>
      </trkpt>
      <trkpt lat="43.13934" lon="2.45441">
        <ele>431.29</ele>
        <time>2013-06-23T08:47:08Z</time>
      </trkpt>
      <trkpt lat="43.13932" lon="2.45436">
        <ele>431.29</ele>
        <time>2013-06-23T08:47:09Z</time>
      </trkpt>
      <trkpt lat="43.13931" lon="2.45431">
        <ele>430.81</ele>
        <time>2013-06-23T08:47:10Z</time>
      </trkpt>
      <trkpt lat="43.13932" lon="2.45424">
        <ele>430.81</ele>
        <time>2013-06-23T08:47:11Z</time>
      </trkpt>
      <trkpt lat="43.13934" lon="2.45419">
        <ele>430.81</ele>
        <time>2013-06-23T08:47:12Z</time>
      </trkpt>
      <trkpt lat="43.13936" lon="2.45413">
        <ele>430.81</ele>
        <time>2013-06-23T08:47:13Z</time>
      </trkpt>
      <trkpt lat="43.13954" lon="2.45342">
        <ele>433.69</ele>
        <time>2013-06-23T08:47:28Z</time>
      </trkpt>
      <trkpt lat="43.13957" lon="2.45312">
        <ele>437.06</ele>
        <time>2013-06-23T08:47:41Z</time>
      </trkpt>
      <trkpt lat="43.13969" lon="2.4528">
        <ele>438.5</ele>
        <time>2013-06-23T08:47:54Z</time>
      </trkpt>
      <trkpt lat="43.13973" lon="2.45277">
        <ele>438.98</ele>
        <time>2013-06-23T08:47:56Z</time>
      </trkpt>
      <trkpt lat="43.13975" lon="2.45277">
        <ele>438.98</ele>
        <time>2013-06-23T08:47:57Z</time>
      </trkpt>
      <trkpt lat="43.13985" lon="2.45253">
        <ele>439.46</ele>
        <time>2013-06-23T08:48:07Z</time>
      </trkpt>
      <trkpt lat="43.13986" lon="2.45216">
        <ele>438.98</ele>
        <time>2013-06-23T08:48:15Z</time>
      </trkpt>
      <trkpt lat="43.13987" lon="2.45211">
        <ele>438.5</ele>
        <time>2013-06-23T08:48:16Z</time>
      </trkpt>
      <trkpt lat="43.13988" lon="2.45206">
        <ele>438.5</ele>
        <time>2013-06-23T08:48:17Z</time>
      </trkpt>
      <trkpt lat="43.1399" lon="2.45201">
        <ele>438.02</ele>
        <time>2013-06-23T08:48:18Z</time>
      </trkpt>
      <trkpt lat="43.13992" lon="2.45195">
        <ele>438.02</ele>
        <time>2013-06-23T08:48:19Z</time>
      </trkpt>
      <trkpt lat="43.14003" lon="2.45154">
        <ele>438.98</ele>
        <time>2013-06-23T08:48:29Z</time>
      </trkpt>
      <trkpt lat="43.14008" lon="2.45127">
        <ele>442.34</ele>
        <time>2013-06-23T08:48:40Z</time>
      </trkpt>
      <trkpt lat="43.14008" lon="2.45125">
        <ele>442.82</ele>
        <time>2013-06-23T08:48:41Z</time>
      </trkpt>
      <trkpt lat="43.14009" lon="2.45124">
        <ele>442.82</ele>
        <time>2013-06-23T08:48:42Z</time>
      </trkpt>
      <trkpt lat="43.14009" lon="2.45122">
        <ele>443.31</ele>
        <time>2013-06-23T08:48:43Z</time>
      </trkpt>
      <trkpt lat="43.14011" lon="2.45114">
        <ele>444.75</ele>
        <time>2013-06-23T08:48:53Z</time>
      </trkpt>
      <trkpt lat="43.14011" lon="2.45112">
        <ele>444.75</ele>
        <time>2013-06-23T08:48:54Z</time>
      </trkpt>
      <trkpt lat="43.14012" lon="2.4511">
        <ele>444.75</ele>
        <time>2013-06-23T08:48:55Z</time>
      </trkpt>
      <trkpt lat="43.14012" lon="2.45107">
        <ele>444.75</ele>
        <time>2013-06-23T08:48:56Z</time>
      </trkpt>
      <trkpt lat="43.14012" lon="2.45105">
        <ele>444.27</ele>
        <time>2013-06-23T08:48:57Z</time>
      </trkpt>
      <trkpt lat="43.1401" lon="2.45083">
        <ele>443.31</ele>
        <time>2013-06-23T08:49:02Z</time>
      </trkpt>
      <trkpt lat="43.14011" lon="2.45078">
        <ele>443.31</ele>
        <time>2013-06-23T08:49:03Z</time>
      </trkpt>
      <trkpt lat="43.14011" lon="2.45073">
        <ele>443.31</ele>
        <time>2013-06-23T08:49:04Z</time>
      </trkpt>
      <trkpt lat="43.14011" lon="2.45068">
        <ele>443.31</ele>
        <time>2013-06-23T08:49:05Z</time>
      </trkpt>
      <trkpt lat="43.14011" lon="2.45062">
        <ele>443.31</ele>
        <time>2013-06-23T08:49:06Z</time>
      </trkpt>
      <trkpt lat="43.14012" lon="2.45057">
        <ele>443.79</ele>
        <time>2013-06-23T08:49:07Z</time>
      </trkpt>
      <trkpt lat="43.14012" lon="2.45052">
        <ele>443.79</ele>
        <time>2013-06-23T08:49:08Z</time>
      </trkpt>
      <trkpt lat="43.14012" lon="2.45042">
        <ele>443.79</ele>
        <time>2013-06-23T08:49:10Z</time>
      </trkpt>
      <trkpt lat="43.1401" lon="2.45036">
        <ele>443.79</ele>
        <time>2013-06-23T08:49:11Z</time>
      </trkpt>
      <trkpt lat="43.13999" lon="2.45017">
        <ele>441.86</ele>
        <time>2013-06-23T08:49:14Z</time>
      </trkpt>
      <trkpt lat="43.13995" lon="2.45011">
        <ele>440.9</ele>
        <time>2013-06-23T08:49:15Z</time>
      </trkpt>
      <trkpt lat="43.13994" lon="2.45005">
        <ele>440.42</ele>
        <time>2013-06-23T08:49:16Z</time>
      </trkpt>
      <trkpt lat="43.13994" lon="2.44998">
        <ele>439.94</ele>
        <time>2013-06-23T08:49:17Z</time>
      </trkpt>
      <trkpt lat="43.13995" lon="2.44992">
        <ele>439.46</ele>
        <time>2013-06-23T08:49:18Z</time>
      </trkpt>
      <trkpt lat="43.13996" lon="2.44985">
        <ele>438.98</ele>
        <time>2013-06-23T08:49:19Z</time>
      </trkpt>
      <trkpt lat="43.13996" lon="2.44977">
        <ele>438.5</ele>
        <time>2013-06-23T08:49:20Z</time>
      </trkpt>
      <trkpt lat="43.13997" lon="2.44971">
        <ele>438.02</ele>
        <time>2013-06-23T08:49:21Z</time>
      </trkpt>
      <trkpt lat="43.13999" lon="2.44965">
        <ele>437.54</ele>
        <time>2013-06-23T08:49:22Z</time>
      </trkpt>
      <trkpt lat="43.14001" lon="2.4496">
        <ele>437.54</ele>
        <time>2013-06-23T08:49:23Z</time>
      </trkpt>
      <trkpt lat="43.14003" lon="2.44954">
        <ele>436.58</ele>
        <time>2013-06-23T08:49:24Z</time>
      </trkpt>
      <trkpt lat="43.14005" lon="2.44946">
        <ele>436.1</ele>
        <time>2013-06-23T08:49:25Z</time>
      </trkpt>
      <trkpt lat="43.14007" lon="2.44938">
        <ele>435.13</ele>
        <time>2013-06-23T08:49:26Z</time>
      </trkpt>
      <trkpt lat="43.14008" lon="2.44929">
        <ele>434.17</ele>
        <time>2013-06-23T08:49:27Z</time>
      </trkpt>
      <trkpt lat="43.14007" lon="2.44922">
        <ele>433.21</ele>
        <time>2013-06-23T08:49:28Z</time>
      </trkpt>
      <trkpt lat="43.14003" lon="2.44917">
        <ele>432.25</ele>
        <time>2013-06-23T08:49:29Z</time>
      </trkpt>
      <trkpt lat="43.14" lon="2.44909">
        <ele>431.29</ele>
        <time>2013-06-23T08:49:30Z</time>
      </trkpt>
      <trkpt lat="43.13997" lon="2.44901">
        <ele>430.33</ele>
        <time>2013-06-23T08:49:31Z</time>
      </trkpt>
      <trkpt lat="43.13993" lon="2.44891">
        <ele>428.89</ele>
        <time>2013-06-23T08:49:32Z</time>
      </trkpt>
      <trkpt lat="43.13985" lon="2.44871">
        <ele>426.96</ele>
        <time>2013-06-23T08:49:34Z</time>
      </trkpt>
      <trkpt lat="43.13983" lon="2.44863">
        <ele>426.48</ele>
        <time>2013-06-23T08:49:35Z</time>
      </trkpt>
      <trkpt lat="43.13982" lon="2.44856">
        <ele>426.48</ele>
        <time>2013-06-23T08:49:36Z</time>
      </trkpt>
      <trkpt lat="43.13982" lon="2.44848">
        <ele>426.48</ele>
        <time>2013-06-23T08:49:37Z</time>
      </trkpt>
      <trkpt lat="43.13984" lon="2.44841">
        <ele>426.48</ele>
        <time>2013-06-23T08:49:38Z</time>
      </trkpt>
      <trkpt lat="43.13987" lon="2.44835">
        <ele>426.96</ele>
        <time>2013-06-23T08:49:39Z</time>
      </trkpt>
      <trkpt lat="43.13993" lon="2.44813">
        <ele>427.92</ele>
        <time>2013-06-23T08:49:43Z</time>
      </trkpt>
      <trkpt lat="43.13992" lon="2.44807">
        <ele>427.92</ele>
        <time>2013-06-23T08:49:44Z</time>
      </trkpt>
      <trkpt lat="43.13992" lon="2.44802">
        <ele>428.4</ele>
        <time>2013-06-23T08:49:45Z</time>
      </trkpt>
      <trkpt lat="43.13994" lon="2.44798">
        <ele>428.4</ele>
        <time>2013-06-23T08:49:46Z</time>
      </trkpt>
      <trkpt lat="43.13996" lon="2.44793">
        <ele>428.4</ele>
        <time>2013-06-23T08:49:47Z</time>
      </trkpt>
      <trkpt lat="43.13998" lon="2.44787">
        <ele>428.4</ele>
        <time>2013-06-23T08:49:48Z</time>
      </trkpt>
      <trkpt lat="43.13999" lon="2.44781">
        <ele>428.4</ele>
        <time>2013-06-23T08:49:49Z</time>
      </trkpt>
      <trkpt lat="43.14" lon="2.44776">
        <ele>428.4</ele>
        <time>2013-06-23T08:49:50Z</time>
      </trkpt>
      <trkpt lat="43.14002" lon="2.4477">
        <ele>428.4</ele>
        <time>2013-06-23T08:49:51Z</time>
      </trkpt>
      <trkpt lat="43.14003" lon="2.44765">
        <ele>428.89</ele>
        <time>2013-06-23T08:49:52Z</time>
      </trkpt>
      <trkpt lat="43.14003" lon="2.4476">
        <ele>428.89</ele>
        <time>2013-06-23T08:49:53Z</time>
      </trkpt>
      <trkpt lat="43.14011" lon="2.4473">
        <ele>428.4</ele>
        <time>2013-06-23T08:49:59Z</time>
      </trkpt>
      <trkpt lat="43.14012" lon="2.44722">
        <ele>427.92</ele>
        <time>2013-06-23T08:50:00Z</time>
      </trkpt>
      <trkpt lat="43.14012" lon="2.44714">
        <ele>427.44</ele>
        <time>2013-06-23T08:50:01Z</time>
      </trkpt>
      <trkpt lat="43.14013" lon="2.44706">
        <ele>426.96</ele>
        <time>2013-06-23T08:50:02Z</time>
      </trkpt>
      <trkpt lat="43.14014" lon="2.44698">
        <ele>426.48</ele>
        <time>2013-06-23T08:50:03Z</time>
      </trkpt>
      <trkpt lat="43.14014" lon="2.44691">
        <ele>426</ele>
        <time>2013-06-23T08:50:04Z</time>
      </trkpt>
      <trkpt lat="43.14015" lon="2.44685">
        <ele>425.52</ele>
        <time>2013-06-23T08:50:05Z</time>
      </trkpt>
      <trkpt lat="43.14017" lon="2.44679">
        <ele>425.04</ele>
        <time>2013-06-23T08:50:06Z</time>
      </trkpt>
      <trkpt lat="43.1402" lon="2.44675">
        <ele>424.56</ele>
        <time>2013-06-23T08:50:07Z</time>
      </trkpt>
      <trkpt lat="43.14023" lon="2.44672">
        <ele>424.08</ele>
        <time>2013-06-23T08:50:08Z</time>
      </trkpt>
      <trkpt lat="43.14027" lon="2.44669">
        <ele>423.6</ele>
        <time>2013-06-23T08:50:09Z</time>
      </trkpt>
      <trkpt lat="43.1403" lon="2.44664">
        <ele>423.12</ele>
        <time>2013-06-23T08:50:10Z</time>
      </trkpt>
      <trkpt lat="43.14032" lon="2.4466">
        <ele>422.64</ele>
        <time>2013-06-23T08:50:11Z</time>
      </trkpt>
      <trkpt lat="43.14034" lon="2.44655">
        <ele>422.16</ele>
        <time>2013-06-23T08:50:12Z</time>
      </trkpt>
      <trkpt lat="43.14037" lon="2.4465">
        <ele>421.68</ele>
        <time>2013-06-23T08:50:13Z</time>
      </trkpt>
      <trkpt lat="43.1404" lon="2.44644">
        <ele>421.19</ele>
        <time>2013-06-23T08:50:14Z</time>
      </trkpt>
      <trkpt lat="43.14044" lon="2.44633">
        <ele>419.75</ele>
        <time>2013-06-23T08:50:16Z</time>
      </trkpt>
      <trkpt lat="43.14047" lon="2.44629">
        <ele>419.27</ele>
        <time>2013-06-23T08:50:17Z</time>
      </trkpt>
      <trkpt lat="43.1405" lon="2.44626">
        <ele>419.27</ele>
        <time>2013-06-23T08:50:18Z</time>
      </trkpt>
      <trkpt lat="43.14054" lon="2.44623">
        <ele>418.79</ele>
        <time>2013-06-23T08:50:19Z</time>
      </trkpt>
      <trkpt lat="43.14057" lon="2.44618">
        <ele>418.79</ele>
        <time>2013-06-23T08:50:20Z</time>
      </trkpt>
      <trkpt lat="43.14059" lon="2.44613">
        <ele>418.79</ele>
        <time>2013-06-23T08:50:21Z</time>
      </trkpt>
      <trkpt lat="43.14062" lon="2.44609">
        <ele>418.79</ele>
        <time>2013-06-23T08:50:22Z</time>
      </trkpt>
      <trkpt lat="43.14064" lon="2.44604">
        <ele>418.79</ele>
        <time>2013-06-23T08:50:23Z</time>
      </trkpt>
      <trkpt lat="43.14067" lon="2.446">
        <ele>418.79</ele>
        <time>2013-06-23T08:50:24Z</time>
      </trkpt>
      <trkpt lat="43.14069" lon="2.44596">
        <ele>419.27</ele>
        <time>2013-06-23T08:50:25Z</time>
      </trkpt>
      <trkpt lat="43.14072" lon="2.44593">
        <ele>419.27</ele>
        <time>2013-06-23T08:50:26Z</time>
      </trkpt>
      <trkpt lat="43.14075" lon="2.44591">
        <ele>419.75</ele>
        <time>2013-06-23T08:50:27Z</time>
      </trkpt>
      <trkpt lat="43.14089" lon="2.44575">
        <ele>420.23</ele>
        <time>2013-06-23T08:50:34Z</time>
      </trkpt>
      <trkpt lat="43.1409" lon="2.4457">
        <ele>419.75</ele>
        <time>2013-06-23T08:50:35Z</time>
      </trkpt>
      <trkpt lat="43.14093" lon="2.4455">
        <ele>418.31</ele>
        <time>2013-06-23T08:50:39Z</time>
      </trkpt>
      <trkpt lat="43.14095" lon="2.44544">
        <ele>418.31</ele>
        <time>2013-06-23T08:50:40Z</time>
      </trkpt>
      <trkpt lat="43.14096" lon="2.44539">
        <ele>417.83</ele>
        <time>2013-06-23T08:50:41Z</time>
      </trkpt>
      <trkpt lat="43.14098" lon="2.44534">
        <ele>417.83</ele>
        <time>2013-06-23T08:50:42Z</time>
      </trkpt>
      <trkpt lat="43.14101" lon="2.44529">
        <ele>417.35</ele>
        <time>2013-06-23T08:50:43Z</time>
      </trkpt>
      <trkpt lat="43.14104" lon="2.44524">
        <ele>416.87</ele>
        <time>2013-06-23T08:50:44Z</time>
      </trkpt>
      <trkpt lat="43.14111" lon="2.44518">
        <ele>416.39</ele>
        <time>2013-06-23T08:50:46Z</time>
      </trkpt>
      <trkpt lat="43.14115" lon="2.44516">
        <ele>415.91</ele>
        <time>2013-06-23T08:50:47Z</time>
      </trkpt>
      <trkpt lat="43.14121" lon="2.44513">
        <ele>415.91</ele>
        <time>2013-06-23T08:50:48Z</time>
      </trkpt>
      <trkpt lat="43.14126" lon="2.44508">
        <ele>415.43</ele>
        <time>2013-06-23T08:50:49Z</time>
      </trkpt>
      <trkpt lat="43.1413" lon="2.44504">
        <ele>414.95</ele>
        <time>2013-06-23T08:50:50Z</time>
      </trkpt>
      <trkpt lat="43.14133" lon="2.44499">
        <ele>414.47</ele>
        <time>2013-06-23T08:50:51Z</time>
      </trkpt>
      <trkpt lat="43.14135" lon="2.44495">
        <ele>413.98</ele>
        <time>2013-06-23T08:50:52Z</time>
      </trkpt>
      <trkpt lat="43.14137" lon="2.44492">
        <ele>413.98</ele>
        <time>2013-06-23T08:50:53Z</time>
      </trkpt>
      <trkpt lat="43.14139" lon="2.44491">
        <ele>414.47</ele>
        <time>2013-06-23T08:50:54Z</time>
      </trkpt>
      <trkpt lat="43.14161" lon="2.44467">
        <ele>417.35</ele>
        <time>2013-06-23T08:51:04Z</time>
      </trkpt>
      <trkpt lat="43.1417" lon="2.44455">
        <ele>417.83</ele>
        <time>2013-06-23T08:51:09Z</time>
      </trkpt>
      <trkpt lat="43.14171" lon="2.44452">
        <ele>418.31</ele>
        <time>2013-06-23T08:51:10Z</time>
      </trkpt>
      <trkpt lat="43.14173" lon="2.44451">
        <ele>418.79</ele>
        <time>2013-06-23T08:51:11Z</time>
      </trkpt>
      <trkpt lat="43.14174" lon="2.44451">
        <ele>419.27</ele>
        <time>2013-06-23T08:51:12Z</time>
      </trkpt>
      <trkpt lat="43.14175" lon="2.4445">
        <ele>419.75</ele>
        <time>2013-06-23T08:51:13Z</time>
      </trkpt>
      <trkpt lat="43.14177" lon="2.44448">
        <ele>420.23</ele>
        <time>2013-06-23T08:51:14Z</time>
      </trkpt>
      <trkpt lat="43.14179" lon="2.44446">
        <ele>420.71</ele>
        <time>2013-06-23T08:51:15Z</time>
      </trkpt>
      <trkpt lat="43.14182" lon="2.44443">
        <ele>420.71</ele>
        <time>2013-06-23T08:51:16Z</time>
      </trkpt>
      <trkpt lat="43.14205" lon="2.44412">
        <ele>422.16</ele>
        <time>2013-06-23T08:51:25Z</time>
      </trkpt>
      <trkpt lat="43.14208" lon="2.44407">
        <ele>422.16</ele>
        <time>2013-06-23T08:51:26Z</time>
      </trkpt>
      <trkpt lat="43.1421" lon="2.44403">
        <ele>421.68</ele>
        <time>2013-06-23T08:51:27Z</time>
      </trkpt>
      <trkpt lat="43.14211" lon="2.44401">
        <ele>421.68</ele>
        <time>2013-06-23T08:51:28Z</time>
      </trkpt>
      <trkpt lat="43.14215" lon="2.44397">
        <ele>418.31</ele>
        <time>2013-06-23T08:51:37Z</time>
      </trkpt>
      <trkpt lat="43.14222" lon="2.44388">
        <ele>413.02</ele>
        <time>2013-06-23T08:51:46Z</time>
      </trkpt>
      <trkpt lat="43.14225" lon="2.44381">
        <ele>411.1</ele>
        <time>2013-06-23T08:51:49Z</time>
      </trkpt>
      <trkpt lat="43.14225" lon="2.44377">
        <ele>410.62</ele>
        <time>2013-06-23T08:51:50Z</time>
      </trkpt>
      <trkpt lat="43.14227" lon="2.44372">
        <ele>410.14</ele>
        <time>2013-06-23T08:51:51Z</time>
      </trkpt>
      <trkpt lat="43.14229" lon="2.44368">
        <ele>409.66</ele>
        <time>2013-06-23T08:51:52Z</time>
      </trkpt>
      <trkpt lat="43.1423" lon="2.44362">
        <ele>408.7</ele>
        <time>2013-06-23T08:51:53Z</time>
      </trkpt>
      <trkpt lat="43.14229" lon="2.44356">
        <ele>408.22</ele>
        <time>2013-06-23T08:51:54Z</time>
      </trkpt>
      <trkpt lat="43.14229" lon="2.44348">
        <ele>407.26</ele>
        <time>2013-06-23T08:51:55Z</time>
      </trkpt>
      <trkpt lat="43.14229" lon="2.44341">
        <ele>406.77</ele>
        <time>2013-06-23T08:51:56Z</time>
      </trkpt>
      <trkpt lat="43.14231" lon="2.44318">
        <ele>405.33</ele>
        <time>2013-06-23T08:51:59Z</time>
      </trkpt>
      <trkpt lat="43.14233" lon="2.44312">
        <ele>405.33</ele>
        <time>2013-06-23T08:52:00Z</time>
      </trkpt>
      <trkpt lat="43.14235" lon="2.44306">
        <ele>404.85</ele>
        <time>2013-06-23T08:52:01Z</time>
      </trkpt>
      <trkpt lat="43.14237" lon="2.443">
        <ele>404.85</ele>
        <time>2013-06-23T08:52:02Z</time>
      </trkpt>
      <trkpt lat="43.14238" lon="2.44295">
        <ele>404.85</ele>
        <time>2013-06-23T08:52:03Z</time>
      </trkpt>
      <trkpt lat="43.1424" lon="2.4429">
        <ele>404.37</ele>
        <time>2013-06-23T08:52:04Z</time>
      </trkpt>
      <trkpt lat="43.14241" lon="2.44285">
        <ele>404.37</ele>
        <time>2013-06-23T08:52:05Z</time>
      </trkpt>
      <trkpt lat="43.14243" lon="2.44281">
        <ele>404.37</ele>
        <time>2013-06-23T08:52:06Z</time>
      </trkpt>
      <trkpt lat="43.14245" lon="2.44277">
        <ele>404.37</ele>
        <time>2013-06-23T08:52:07Z</time>
      </trkpt>
      <trkpt lat="43.14247" lon="2.44274">
        <ele>404.37</ele>
        <time>2013-06-23T08:52:08Z</time>
      </trkpt>
      <trkpt lat="43.1425" lon="2.44273">
        <ele>404.85</ele>
        <time>2013-06-23T08:52:09Z</time>
      </trkpt>
      <trkpt lat="43.14253" lon="2.44273">
        <ele>405.81</ele>
        <time>2013-06-23T08:52:10Z</time>
      </trkpt>
      <trkpt lat="43.14255" lon="2.44271">
        <ele>406.77</ele>
        <time>2013-06-23T08:52:11Z</time>
      </trkpt>
      <trkpt lat="43.14257" lon="2.44268">
        <ele>407.26</ele>
        <time>2013-06-23T08:52:12Z</time>
      </trkpt>
      <trkpt lat="43.14258" lon="2.44265">
        <ele>408.22</ele>
        <time>2013-06-23T08:52:13Z</time>
      </trkpt>
      <trkpt lat="43.1426" lon="2.44262">
        <ele>408.7</ele>
        <time>2013-06-23T08:52:14Z</time>
      </trkpt>
      <trkpt lat="43.14261" lon="2.44258">
        <ele>408.7</ele>
        <time>2013-06-23T08:52:15Z</time>
      </trkpt>
      <trkpt lat="43.14261" lon="2.44254">
        <ele>409.18</ele>
        <time>2013-06-23T08:52:16Z</time>
      </trkpt>
      <trkpt lat="43.14262" lon="2.4425">
        <ele>409.18</ele>
        <time>2013-06-23T08:52:17Z</time>
      </trkpt>
      <trkpt lat="43.14264" lon="2.44245">
        <ele>409.18</ele>
        <time>2013-06-23T08:52:18Z</time>
      </trkpt>
      <trkpt lat="43.14264" lon="2.44241">
        <ele>408.7</ele>
        <time>2013-06-23T08:52:19Z</time>
      </trkpt>
      <trkpt lat="43.14263" lon="2.44235">
        <ele>408.22</ele>
        <time>2013-06-23T08:52:20Z</time>
      </trkpt>
      <trkpt lat="43.14261" lon="2.4423">
        <ele>407.74</ele>
        <time>2013-06-23T08:52:21Z</time>
      </trkpt>
      <trkpt lat="43.14257" lon="2.44227">
        <ele>406.77</ele>
        <time>2013-06-23T08:52:22Z</time>
      </trkpt>
      <trkpt lat="43.14253" lon="2.44225">
        <ele>406.29</ele>
        <time>2013-06-23T08:52:23Z</time>
      </trkpt>
      <trkpt lat="43.14251" lon="2.44221">
        <ele>405.33</ele>
        <time>2013-06-23T08:52:24Z</time>
      </trkpt>
      <trkpt lat="43.14249" lon="2.44216">
        <ele>404.37</ele>
        <time>2013-06-23T08:52:25Z</time>
      </trkpt>
      <trkpt lat="43.14246" lon="2.44213">
        <ele>403.89</ele>
        <time>2013-06-23T08:52:26Z</time>
      </trkpt>
      <trkpt lat="43.14244" lon="2.4421">
        <ele>403.41</ele>
        <time>2013-06-23T08:52:27Z</time>
      </trkpt>
      <trkpt lat="43.14243" lon="2.44205">
        <ele>402.45</ele>
        <time>2013-06-23T08:52:28Z</time>
      </trkpt>
      <trkpt lat="43.14242" lon="2.44199">
        <ele>401.49</ele>
        <time>2013-06-23T08:52:29Z</time>
      </trkpt>
      <trkpt lat="43.14241" lon="2.44192">
        <ele>401.01</ele>
        <time>2013-06-23T08:52:30Z</time>
      </trkpt>
      <trkpt lat="43.14241" lon="2.44185">
        <ele>400.05</ele>
        <time>2013-06-23T08:52:31Z</time>
      </trkpt>
      <trkpt lat="43.14241" lon="2.44178">
        <ele>399.57</ele>
        <time>2013-06-23T08:52:32Z</time>
      </trkpt>
      <trkpt lat="43.1424" lon="2.44168">
        <ele>397.64</ele>
        <time>2013-06-23T08:52:34Z</time>
      </trkpt>
      <trkpt lat="43.14241" lon="2.44162">
        <ele>397.16</ele>
        <time>2013-06-23T08:52:35Z</time>
      </trkpt>
      <trkpt lat="43.14241" lon="2.44157">
        <ele>396.68</ele>
        <time>2013-06-23T08:52:36Z</time>
      </trkpt>
      <trkpt lat="43.14241" lon="2.44151">
        <ele>396.2</ele>
        <time>2013-06-23T08:52:37Z</time>
      </trkpt>
      <trkpt lat="43.14242" lon="2.44145">
        <ele>395.72</ele>
        <time>2013-06-23T08:52:38Z</time>
      </trkpt>
      <trkpt lat="43.14243" lon="2.44139">
        <ele>395.24</ele>
        <time>2013-06-23T08:52:39Z</time>
      </trkpt>
      <trkpt lat="43.14246" lon="2.44134">
        <ele>395.24</ele>
        <time>2013-06-23T08:52:40Z</time>
      </trkpt>
      <trkpt lat="43.14248" lon="2.44129">
        <ele>395.24</ele>
        <time>2013-06-23T08:52:41Z</time>
      </trkpt>
      <trkpt lat="43.1425" lon="2.44124">
        <ele>395.24</ele>
        <time>2013-06-23T08:52:42Z</time>
      </trkpt>
      <trkpt lat="43.14252" lon="2.44118">
        <ele>394.76</ele>
        <time>2013-06-23T08:52:43Z</time>
      </trkpt>
      <trkpt lat="43.14252" lon="2.44112">
        <ele>394.76</ele>
        <time>2013-06-23T08:52:44Z</time>
      </trkpt>
      <trkpt lat="43.14252" lon="2.44104">
        <ele>394.28</ele>
        <time>2013-06-23T08:52:45Z</time>
      </trkpt>
      <trkpt lat="43.14252" lon="2.44096">
        <ele>393.8</ele>
        <time>2013-06-23T08:52:46Z</time>
      </trkpt>
      <trkpt lat="43.14252" lon="2.44088">
        <ele>393.32</ele>
        <time>2013-06-23T08:52:47Z</time>
      </trkpt>
      <trkpt lat="43.14253" lon="2.44081">
        <ele>393.32</ele>
        <time>2013-06-23T08:52:48Z</time>
      </trkpt>
      <trkpt lat="43.14255" lon="2.44076">
        <ele>392.84</ele>
        <time>2013-06-23T08:52:49Z</time>
      </trkpt>
      <trkpt lat="43.14257" lon="2.44071">
        <ele>392.84</ele>
        <time>2013-06-23T08:52:50Z</time>
      </trkpt>
      <trkpt lat="43.14258" lon="2.44066">
        <ele>392.36</ele>
        <time>2013-06-23T08:52:51Z</time>
      </trkpt>
      <trkpt lat="43.1426" lon="2.44061">
        <ele>391.87</ele>
        <time>2013-06-23T08:52:52Z</time>
      </trkpt>
      <trkpt lat="43.14261" lon="2.44056">
        <ele>391.39</ele>
        <time>2013-06-23T08:52:53Z</time>
      </trkpt>
      <trkpt lat="43.14262" lon="2.44051">
        <ele>390.91</ele>
        <time>2013-06-23T08:52:54Z</time>
      </trkpt>
      <trkpt lat="43.14263" lon="2.44046">
        <ele>390.43</ele>
        <time>2013-06-23T08:52:55Z</time>
      </trkpt>
      <trkpt lat="43.14264" lon="2.4404">
        <ele>389.95</ele>
        <time>2013-06-23T08:52:56Z</time>
      </trkpt>
      <trkpt lat="43.14265" lon="2.44034">
        <ele>389.47</ele>
        <time>2013-06-23T08:52:57Z</time>
      </trkpt>
      <trkpt lat="43.14268" lon="2.44023">
        <ele>389.47</ele>
        <time>2013-06-23T08:52:59Z</time>
      </trkpt>
      <trkpt lat="43.14269" lon="2.44016">
        <ele>389.47</ele>
        <time>2013-06-23T08:53:00Z</time>
      </trkpt>
      <trkpt lat="43.14269" lon="2.4401">
        <ele>389.47</ele>
        <time>2013-06-23T08:53:01Z</time>
      </trkpt>
      <trkpt lat="43.14268" lon="2.44003">
        <ele>389.47</ele>
        <time>2013-06-23T08:53:02Z</time>
      </trkpt>
      <trkpt lat="43.14267" lon="2.43997">
        <ele>389.47</ele>
        <time>2013-06-23T08:53:03Z</time>
      </trkpt>
      <trkpt lat="43.14265" lon="2.43991">
        <ele>389.47</ele>
        <time>2013-06-23T08:53:04Z</time>
      </trkpt>
      <trkpt lat="43.14264" lon="2.43986">
        <ele>389.95</ele>
        <time>2013-06-23T08:53:05Z</time>
      </trkpt>
      <trkpt lat="43.14263" lon="2.4398">
        <ele>390.43</ele>
        <time>2013-06-23T08:53:06Z</time>
      </trkpt>
      <trkpt lat="43.14244" lon="2.43947">
        <ele>391.87</ele>
        <time>2013-06-23T08:53:14Z</time>
      </trkpt>
      <trkpt lat="43.1424" lon="2.43944">
        <ele>391.87</ele>
        <time>2013-06-23T08:53:15Z</time>
      </trkpt>
      <trkpt lat="43.1423" lon="2.43939">
        <ele>391.39</ele>
        <time>2013-06-23T08:53:17Z</time>
      </trkpt>
      <trkpt lat="43.1422" lon="2.43935">
        <ele>391.39</ele>
        <time>2013-06-23T08:53:19Z</time>
      </trkpt>
      <trkpt lat="43.14215" lon="2.43931">
        <ele>390.91</ele>
        <time>2013-06-23T08:53:20Z</time>
      </trkpt>
      <trkpt lat="43.14211" lon="2.43927">
        <ele>390.91</ele>
        <time>2013-06-23T08:53:21Z</time>
      </trkpt>
      <trkpt lat="43.14208" lon="2.43923">
        <ele>390.91</ele>
        <time>2013-06-23T08:53:22Z</time>
      </trkpt>
      <trkpt lat="43.14204" lon="2.4392">
        <ele>390.91</ele>
        <time>2013-06-23T08:53:23Z</time>
      </trkpt>
      <trkpt lat="43.14202" lon="2.43917">
        <ele>391.39</ele>
        <time>2013-06-23T08:53:24Z</time>
      </trkpt>
      <trkpt lat="43.142" lon="2.43914">
        <ele>391.87</ele>
        <time>2013-06-23T08:53:25Z</time>
      </trkpt>
      <trkpt lat="43.142" lon="2.43912">
        <ele>391.87</ele>
        <time>2013-06-23T08:53:26Z</time>
      </trkpt>
      <trkpt lat="43.142" lon="2.4391">
        <ele>391.87</ele>
        <time>2013-06-23T08:53:27Z</time>
      </trkpt>
      <trkpt lat="43.142" lon="2.43908">
        <ele>391.87</ele>
        <time>2013-06-23T08:53:28Z</time>
      </trkpt>
      <trkpt lat="43.142" lon="2.43907">
        <ele>392.84</ele>
        <time>2013-06-23T08:53:39Z</time>
      </trkpt>
      <trkpt lat="43.142" lon="2.43906">
        <ele>393.32</ele>
        <time>2013-06-23T08:53:54Z</time>
      </trkpt>
      <trkpt lat="43.142" lon="2.43906">
        <ele>393.8</ele>
        <time>2013-06-23T08:54:15Z</time>
      </trkpt>
      <trkpt lat="43.14201" lon="2.43906">
        <ele>392.84</ele>
        <time>2013-06-23T08:54:39Z</time>
      </trkpt>
      <trkpt lat="43.142" lon="2.43906">
        <ele>393.32</ele>
        <time>2013-06-23T08:55:03Z</time>
      </trkpt>
      <trkpt lat="43.14201" lon="2.43905">
        <ele>393.32</ele>
        <time>2013-06-23T08:55:20Z</time>
      </trkpt>
      <trkpt lat="43.142" lon="2.43906">
        <ele>393.32</ele>
        <time>2013-06-23T08:55:46Z</time>
      </trkpt>
      <trkpt lat="43.142" lon="2.43906">
        <ele>393.8</ele>
        <time>2013-06-23T08:56:05Z</time>
      </trkpt>
      <trkpt lat="43.14199" lon="2.43899">
        <ele>393.8</ele>
        <time>2013-06-23T08:56:16Z</time>
      </trkpt>
      <trkpt lat="43.14198" lon="2.43891">
        <ele>393.8</ele>
        <time>2013-06-23T08:56:20Z</time>
      </trkpt>
      <trkpt lat="43.14199" lon="2.43888">
        <ele>394.28</ele>
        <time>2013-06-23T08:56:21Z</time>
      </trkpt>
      <trkpt lat="43.14198" lon="2.43884">
        <ele>394.76</ele>
        <time>2013-06-23T08:56:22Z</time>
      </trkpt>
      <trkpt lat="43.14197" lon="2.43881">
        <ele>395.24</ele>
        <time>2013-06-23T08:56:23Z</time>
      </trkpt>
      <trkpt lat="43.14197" lon="2.43876">
        <ele>395.72</ele>
        <time>2013-06-23T08:56:24Z</time>
      </trkpt>
      <trkpt lat="43.14196" lon="2.43872">
        <ele>396.2</ele>
        <time>2013-06-23T08:56:25Z</time>
      </trkpt>
      <trkpt lat="43.14196" lon="2.43868">
        <ele>396.2</ele>
        <time>2013-06-23T08:56:26Z</time>
      </trkpt>
      <trkpt lat="43.14194" lon="2.43864">
        <ele>396.68</ele>
        <time>2013-06-23T08:56:27Z</time>
      </trkpt>
      <trkpt lat="43.14193" lon="2.43859">
        <ele>396.68</ele>
        <time>2013-06-23T08:56:28Z</time>
      </trkpt>
      <trkpt lat="43.14192" lon="2.43856">
        <ele>397.16</ele>
        <time>2013-06-23T08:56:29Z</time>
      </trkpt>
      <trkpt lat="43.14178" lon="2.43818">
        <ele>399.57</ele>
        <time>2013-06-23T08:56:40Z</time>
      </trkpt>
      <trkpt lat="43.14171" lon="2.43781">
        <ele>402.45</ele>
        <time>2013-06-23T08:56:52Z</time>
      </trkpt>
      <trkpt lat="43.14183" lon="2.43739">
        <ele>403.41</ele>
        <time>2013-06-23T08:57:04Z</time>
      </trkpt>
      <trkpt lat="43.14202" lon="2.43686">
        <ele>403.89</ele>
        <time>2013-06-23T08:57:19Z</time>
      </trkpt>
      <trkpt lat="43.14217" lon="2.43652">
        <ele>405.81</ele>
        <time>2013-06-23T08:57:30Z</time>
      </trkpt>
      <trkpt lat="43.1422" lon="2.43619">
        <ele>407.26</ele>
        <time>2013-06-23T08:57:39Z</time>
      </trkpt>
      <trkpt lat="43.14219" lon="2.43615">
        <ele>407.26</ele>
        <time>2013-06-23T08:57:40Z</time>
      </trkpt>
      <trkpt lat="43.14216" lon="2.43572">
        <ele>410.62</ele>
        <time>2013-06-23T08:57:53Z</time>
      </trkpt>
      <trkpt lat="43.14226" lon="2.43525">
        <ele>413.98</ele>
        <time>2013-06-23T08:58:08Z</time>
      </trkpt>
      <trkpt lat="43.14238" lon="2.43482">
        <ele>417.35</ele>
        <time>2013-06-23T08:58:23Z</time>
      </trkpt>
      <trkpt lat="43.14254" lon="2.43445">
        <ele>418.79</ele>
        <time>2013-06-23T08:58:36Z</time>
      </trkpt>
      <trkpt lat="43.14261" lon="2.43422">
        <ele>417.35</ele>
        <time>2013-06-23T08:58:41Z</time>
      </trkpt>
      <trkpt lat="43.14268" lon="2.43406">
        <ele>415.91</ele>
        <time>2013-06-23T08:58:44Z</time>
      </trkpt>
      <trkpt lat="43.14271" lon="2.434">
        <ele>415.43</ele>
        <time>2013-06-23T08:58:45Z</time>
      </trkpt>
      <trkpt lat="43.14273" lon="2.43395">
        <ele>414.95</ele>
        <time>2013-06-23T08:58:46Z</time>
      </trkpt>
      <trkpt lat="43.14276" lon="2.43389">
        <ele>414.47</ele>
        <time>2013-06-23T08:58:47Z</time>
      </trkpt>
      <trkpt lat="43.1428" lon="2.43384">
        <ele>413.98</ele>
        <time>2013-06-23T08:58:48Z</time>
      </trkpt>
      <trkpt lat="43.14288" lon="2.43372">
        <ele>412.54</ele>
        <time>2013-06-23T08:58:50Z</time>
      </trkpt>
      <trkpt lat="43.143" lon="2.43361">
        <ele>411.1</ele>
        <time>2013-06-23T08:58:52Z</time>
      </trkpt>
      <trkpt lat="43.14306" lon="2.43355">
        <ele>410.14</ele>
        <time>2013-06-23T08:58:53Z</time>
      </trkpt>
      <trkpt lat="43.14325" lon="2.43335">
        <ele>408.22</ele>
        <time>2013-06-23T08:58:56Z</time>
      </trkpt>
      <trkpt lat="43.1433" lon="2.43327">
        <ele>408.22</ele>
        <time>2013-06-23T08:58:57Z</time>
      </trkpt>
      <trkpt lat="43.14334" lon="2.43319">
        <ele>407.74</ele>
        <time>2013-06-23T08:58:58Z</time>
      </trkpt>
      <trkpt lat="43.14383" lon="2.43213">
        <ele>408.22</ele>
        <time>2013-06-23T08:59:12Z</time>
      </trkpt>
      <trkpt lat="43.14387" lon="2.43207">
        <ele>408.7</ele>
        <time>2013-06-23T08:59:13Z</time>
      </trkpt>
      <trkpt lat="43.1439" lon="2.43201">
        <ele>408.7</ele>
        <time>2013-06-23T08:59:14Z</time>
      </trkpt>
      <trkpt lat="43.14406" lon="2.43169">
        <ele>410.62</ele>
        <time>2013-06-23T08:59:20Z</time>
      </trkpt>
      <trkpt lat="43.14409" lon="2.43163">
        <ele>410.62</ele>
        <time>2013-06-23T08:59:21Z</time>
      </trkpt>
      <trkpt lat="43.14411" lon="2.43159">
        <ele>410.62</ele>
        <time>2013-06-23T08:59:22Z</time>
      </trkpt>
      <trkpt lat="43.14426" lon="2.43133">
        <ele>411.1</ele>
        <time>2013-06-23T08:59:27Z</time>
      </trkpt>
      <trkpt lat="43.14447" lon="2.43088">
        <ele>410.14</ele>
        <time>2013-06-23T08:59:35Z</time>
      </trkpt>
      <trkpt lat="43.14482" lon="2.43014">
        <ele>413.98</ele>
        <time>2013-06-23T08:59:51Z</time>
      </trkpt>
      <trkpt lat="43.14491" lon="2.42963">
        <ele>415.43</ele>
        <time>2013-06-23T09:00:03Z</time>
      </trkpt>
      <trkpt lat="43.14489" lon="2.42959">
        <ele>415.43</ele>
        <time>2013-06-23T09:00:04Z</time>
      </trkpt>
      <trkpt lat="43.14487" lon="2.42955">
        <ele>415.43</ele>
        <time>2013-06-23T09:00:05Z</time>
      </trkpt>
      <trkpt lat="43.14458" lon="2.42935">
        <ele>416.39</ele>
        <time>2013-06-23T09:00:14Z</time>
      </trkpt>
      <trkpt lat="43.14454" lon="2.42923">
        <ele>416.39</ele>
        <time>2013-06-23T09:00:17Z</time>
      </trkpt>
      <trkpt lat="43.14455" lon="2.42919">
        <ele>416.39</ele>
        <time>2013-06-23T09:00:18Z</time>
      </trkpt>
      <trkpt lat="43.14457" lon="2.42915">
        <ele>416.39</ele>
        <time>2013-06-23T09:00:19Z</time>
      </trkpt>
      <trkpt lat="43.14491" lon="2.42834">
        <ele>416.87</ele>
        <time>2013-06-23T09:00:36Z</time>
      </trkpt>
      <trkpt lat="43.14499" lon="2.42809">
        <ele>417.35</ele>
        <time>2013-06-23T09:00:41Z</time>
      </trkpt>
      <trkpt lat="43.145" lon="2.42766">
        <ele>416.39</ele>
        <time>2013-06-23T09:00:49Z</time>
      </trkpt>
      <trkpt lat="43.14497" lon="2.4276">
        <ele>416.39</ele>
        <time>2013-06-23T09:00:50Z</time>
      </trkpt>
      <trkpt lat="43.14493" lon="2.42757">
        <ele>416.39</ele>
        <time>2013-06-23T09:00:51Z</time>
      </trkpt>
      <trkpt lat="43.14475" lon="2.42746">
        <ele>416.39</ele>
        <time>2013-06-23T09:00:55Z</time>
      </trkpt>
      <trkpt lat="43.1447" lon="2.42743">
        <ele>416.39</ele>
        <time>2013-06-23T09:00:56Z</time>
      </trkpt>
      <trkpt lat="43.14466" lon="2.42738">
        <ele>416.39</ele>
        <time>2013-06-23T09:00:57Z</time>
      </trkpt>
      <trkpt lat="43.14463" lon="2.42733">
        <ele>416.39</ele>
        <time>2013-06-23T09:00:58Z</time>
      </trkpt>
      <trkpt lat="43.1446" lon="2.42727">
        <ele>416.39</ele>
        <time>2013-06-23T09:00:59Z</time>
      </trkpt>
      <trkpt lat="43.14457" lon="2.4272">
        <ele>416.39</ele>
        <time>2013-06-23T09:01:00Z</time>
      </trkpt>
      <trkpt lat="43.14456" lon="2.42713">
        <ele>416.39</ele>
        <time>2013-06-23T09:01:01Z</time>
      </trkpt>
      <trkpt lat="43.14456" lon="2.42705">
        <ele>415.91</ele>
        <time>2013-06-23T09:01:02Z</time>
      </trkpt>
      <trkpt lat="43.14456" lon="2.42696">
        <ele>415.91</ele>
        <time>2013-06-23T09:01:03Z</time>
      </trkpt>
      <trkpt lat="43.14456" lon="2.4268">
        <ele>415.43</ele>
        <time>2013-06-23T09:01:05Z</time>
      </trkpt>
      <trkpt lat="43.14457" lon="2.42672">
        <ele>415.43</ele>
        <time>2013-06-23T09:01:06Z</time>
      </trkpt>
      <trkpt lat="43.14459" lon="2.42665">
        <ele>414.47</ele>
        <time>2013-06-23T09:01:07Z</time>
      </trkpt>
      <trkpt lat="43.1448" lon="2.42608">
        <ele>412.54</ele>
        <time>2013-06-23T09:01:15Z</time>
      </trkpt>
      <trkpt lat="43.14484" lon="2.42603">
        <ele>412.54</ele>
        <time>2013-06-23T09:01:16Z</time>
      </trkpt>
      <trkpt lat="43.14489" lon="2.42598">
        <ele>412.54</ele>
        <time>2013-06-23T09:01:17Z</time>
      </trkpt>
      <trkpt lat="43.14494" lon="2.42593">
        <ele>412.06</ele>
        <time>2013-06-23T09:01:18Z</time>
      </trkpt>
      <trkpt lat="43.14498" lon="2.42588">
        <ele>412.06</ele>
        <time>2013-06-23T09:01:19Z</time>
      </trkpt>
      <trkpt lat="43.145" lon="2.42581">
        <ele>412.06</ele>
        <time>2013-06-23T09:01:20Z</time>
      </trkpt>
      <trkpt lat="43.14501" lon="2.42573">
        <ele>411.58</ele>
        <time>2013-06-23T09:01:21Z</time>
      </trkpt>
      <trkpt lat="43.145" lon="2.42566">
        <ele>411.58</ele>
        <time>2013-06-23T09:01:22Z</time>
      </trkpt>
      <trkpt lat="43.14498" lon="2.4256">
        <ele>412.06</ele>
        <time>2013-06-23T09:01:23Z</time>
      </trkpt>
      <trkpt lat="43.14495" lon="2.42555">
        <ele>412.06</ele>
        <time>2013-06-23T09:01:24Z</time>
      </trkpt>
      <trkpt lat="43.14493" lon="2.42549">
        <ele>412.06</ele>
        <time>2013-06-23T09:01:25Z</time>
      </trkpt>
      <trkpt lat="43.14492" lon="2.42543">
        <ele>412.54</ele>
        <time>2013-06-23T09:01:26Z</time>
      </trkpt>
      <trkpt lat="43.14492" lon="2.42537">
        <ele>412.54</ele>
        <time>2013-06-23T09:01:27Z</time>
      </trkpt>
      <trkpt lat="43.14492" lon="2.4253">
        <ele>412.54</ele>
        <time>2013-06-23T09:01:28Z</time>
      </trkpt>
      <trkpt lat="43.14493" lon="2.42524">
        <ele>412.06</ele>
        <time>2013-06-23T09:01:29Z</time>
      </trkpt>
      <trkpt lat="43.14495" lon="2.42518">
        <ele>412.54</ele>
        <time>2013-06-23T09:01:30Z</time>
      </trkpt>
      <trkpt lat="43.14499" lon="2.4243">
        <ele>414.95</ele>
        <time>2013-06-23T09:01:46Z</time>
      </trkpt>
      <trkpt lat="43.14498" lon="2.4242">
        <ele>414.95</ele>
        <time>2013-06-23T09:01:48Z</time>
      </trkpt>
      <trkpt lat="43.14499" lon="2.42408">
        <ele>414.47</ele>
        <time>2013-06-23T09:01:50Z</time>
      </trkpt>
      <trkpt lat="43.14503" lon="2.42387">
        <ele>414.95</ele>
        <time>2013-06-23T09:01:54Z</time>
      </trkpt>
      <trkpt lat="43.14502" lon="2.42383">
        <ele>414.47</ele>
        <time>2013-06-23T09:01:55Z</time>
      </trkpt>
      <trkpt lat="43.145" lon="2.42378">
        <ele>414.47</ele>
        <time>2013-06-23T09:01:56Z</time>
      </trkpt>
      <trkpt lat="43.14498" lon="2.42372">
        <ele>413.98</ele>
        <time>2013-06-23T09:01:57Z</time>
      </trkpt>
      <trkpt lat="43.14497" lon="2.42367">
        <ele>413.98</ele>
        <time>2013-06-23T09:01:58Z</time>
      </trkpt>
      <trkpt lat="43.14497" lon="2.42362">
        <ele>413.98</ele>
        <time>2013-06-23T09:01:59Z</time>
      </trkpt>
      <trkpt lat="43.14497" lon="2.42358">
        <ele>413.98</ele>
        <time>2013-06-23T09:02:00Z</time>
      </trkpt>
      <trkpt lat="43.14496" lon="2.42349">
        <ele>413.98</ele>
        <time>2013-06-23T09:02:02Z</time>
      </trkpt>
      <trkpt lat="43.14493" lon="2.42345">
        <ele>413.5</ele>
        <time>2013-06-23T09:02:03Z</time>
      </trkpt>
      <trkpt lat="43.1449" lon="2.42341">
        <ele>413.5</ele>
        <time>2013-06-23T09:02:04Z</time>
      </trkpt>
      <trkpt lat="43.14487" lon="2.42338">
        <ele>413.98</ele>
        <time>2013-06-23T09:02:05Z</time>
      </trkpt>
      <trkpt lat="43.14484" lon="2.42335">
        <ele>414.47</ele>
        <time>2013-06-23T09:02:06Z</time>
      </trkpt>
      <trkpt lat="43.14462" lon="2.42298">
        <ele>417.35</ele>
        <time>2013-06-23T09:02:16Z</time>
      </trkpt>
      <trkpt lat="43.14458" lon="2.42289">
        <ele>417.35</ele>
        <time>2013-06-23T09:02:18Z</time>
      </trkpt>
      <trkpt lat="43.14457" lon="2.42284">
        <ele>416.87</ele>
        <time>2013-06-23T09:02:19Z</time>
      </trkpt>
      <trkpt lat="43.14457" lon="2.42278">
        <ele>416.87</ele>
        <time>2013-06-23T09:02:20Z</time>
      </trkpt>
      <trkpt lat="43.14457" lon="2.42256">
        <ele>417.35</ele>
        <time>2013-06-23T09:02:24Z</time>
      </trkpt>
      <trkpt lat="43.14456" lon="2.4225">
        <ele>417.35</ele>
        <time>2013-06-23T09:02:25Z</time>
      </trkpt>
      <trkpt lat="43.14453" lon="2.42245">
        <ele>417.35</ele>
        <time>2013-06-23T09:02:26Z</time>
      </trkpt>
      <trkpt lat="43.14451" lon="2.42241">
        <ele>417.35</ele>
        <time>2013-06-23T09:02:27Z</time>
      </trkpt>
      <trkpt lat="43.14447" lon="2.42237">
        <ele>417.35</ele>
        <time>2013-06-23T09:02:28Z</time>
      </trkpt>
      <trkpt lat="43.14444" lon="2.42233">
        <ele>416.87</ele>
        <time>2013-06-23T09:02:29Z</time>
      </trkpt>
      <trkpt lat="43.14437" lon="2.42226">
        <ele>417.35</ele>
        <time>2013-06-23T09:02:31Z</time>
      </trkpt>
      <trkpt lat="43.14433" lon="2.42223">
        <ele>417.35</ele>
        <time>2013-06-23T09:02:32Z</time>
      </trkpt>
      <trkpt lat="43.1443" lon="2.4222">
        <ele>417.35</ele>
        <time>2013-06-23T09:02:33Z</time>
      </trkpt>
      <trkpt lat="43.14401" lon="2.42174">
        <ele>422.64</ele>
        <time>2013-06-23T09:02:46Z</time>
      </trkpt>
      <trkpt lat="43.14393" lon="2.42148">
        <ele>423.12</ele>
        <time>2013-06-23T09:02:52Z</time>
      </trkpt>
      <trkpt lat="43.14404" lon="2.42078">
        <ele>420.23</ele>
        <time>2013-06-23T09:03:04Z</time>
      </trkpt>
      <trkpt lat="43.14412" lon="2.42029">
        <ele>418.31</ele>
        <time>2013-06-23T09:03:11Z</time>
      </trkpt>
      <trkpt lat="43.14442" lon="2.4193">
        <ele>420.23</ele>
        <time>2013-06-23T09:03:28Z</time>
      </trkpt>
      <trkpt lat="43.14446" lon="2.41909">
        <ele>421.68</ele>
        <time>2013-06-23T09:03:32Z</time>
      </trkpt>
      <trkpt lat="43.14447" lon="2.41904">
        <ele>422.16</ele>
        <time>2013-06-23T09:03:33Z</time>
      </trkpt>
      <trkpt lat="43.14449" lon="2.41899">
        <ele>422.16</ele>
        <time>2013-06-23T09:03:34Z</time>
      </trkpt>
      <trkpt lat="43.14451" lon="2.41894">
        <ele>422.64</ele>
        <time>2013-06-23T09:03:35Z</time>
      </trkpt>
      <trkpt lat="43.14453" lon="2.4189">
        <ele>423.12</ele>
        <time>2013-06-23T09:03:36Z</time>
      </trkpt>
      <trkpt lat="43.14455" lon="2.41885">
        <ele>423.6</ele>
        <time>2013-06-23T09:03:37Z</time>
      </trkpt>
      <trkpt lat="43.14468" lon="2.41865">
        <ele>426</ele>
        <time>2013-06-23T09:03:42Z</time>
      </trkpt>
      <trkpt lat="43.1447" lon="2.4186">
        <ele>426.48</ele>
        <time>2013-06-23T09:03:43Z</time>
      </trkpt>
      <trkpt lat="43.14472" lon="2.41856">
        <ele>426.96</ele>
        <time>2013-06-23T09:03:44Z</time>
      </trkpt>
      <trkpt lat="43.14499" lon="2.41801">
        <ele>427.44</ele>
        <time>2013-06-23T09:03:55Z</time>
      </trkpt>
      <trkpt lat="43.14506" lon="2.41791">
        <ele>426.96</ele>
        <time>2013-06-23T09:03:57Z</time>
      </trkpt>
      <trkpt lat="43.14526" lon="2.4176">
        <ele>425.04</ele>
        <time>2013-06-23T09:04:03Z</time>
      </trkpt>
      <trkpt lat="43.1453" lon="2.41755">
        <ele>425.04</ele>
        <time>2013-06-23T09:04:04Z</time>
      </trkpt>
      <trkpt lat="43.14534" lon="2.41751">
        <ele>424.56</ele>
        <time>2013-06-23T09:04:05Z</time>
      </trkpt>
      <trkpt lat="43.14539" lon="2.41746">
        <ele>424.56</ele>
        <time>2013-06-23T09:04:06Z</time>
      </trkpt>
      <trkpt lat="43.14543" lon="2.41741">
        <ele>424.08</ele>
        <time>2013-06-23T09:04:07Z</time>
      </trkpt>
      <trkpt lat="43.14547" lon="2.41737">
        <ele>424.08</ele>
        <time>2013-06-23T09:04:08Z</time>
      </trkpt>
      <trkpt lat="43.14552" lon="2.41734">
        <ele>424.08</ele>
        <time>2013-06-23T09:04:09Z</time>
      </trkpt>
      <trkpt lat="43.14568" lon="2.4172">
        <ele>423.6</ele>
        <time>2013-06-23T09:04:13Z</time>
      </trkpt>
      <trkpt lat="43.1457" lon="2.41716">
        <ele>424.08</ele>
        <time>2013-06-23T09:04:14Z</time>
      </trkpt>
      <trkpt lat="43.14573" lon="2.41711">
        <ele>424.08</ele>
        <time>2013-06-23T09:04:15Z</time>
      </trkpt>
      <trkpt lat="43.14575" lon="2.41706">
        <ele>424.56</ele>
        <time>2013-06-23T09:04:16Z</time>
      </trkpt>
      <trkpt lat="43.14577" lon="2.41701">
        <ele>424.56</ele>
        <time>2013-06-23T09:04:17Z</time>
      </trkpt>
      <trkpt lat="43.14579" lon="2.41695">
        <ele>424.56</ele>
        <time>2013-06-23T09:04:18Z</time>
      </trkpt>
      <trkpt lat="43.1458" lon="2.4169">
        <ele>424.56</ele>
        <time>2013-06-23T09:04:19Z</time>
      </trkpt>
      <trkpt lat="43.14581" lon="2.41684">
        <ele>424.56</ele>
        <time>2013-06-23T09:04:20Z</time>
      </trkpt>
      <trkpt lat="43.14602" lon="2.41609">
        <ele>427.44</ele>
        <time>2013-06-23T09:04:36Z</time>
      </trkpt>
      <trkpt lat="43.14609" lon="2.41575">
        <ele>426.48</ele>
        <time>2013-06-23T09:04:42Z</time>
      </trkpt>
      <trkpt lat="43.14611" lon="2.41569">
        <ele>426</ele>
        <time>2013-06-23T09:04:43Z</time>
      </trkpt>
      <trkpt lat="43.14635" lon="2.41471">
        <ele>424.56</ele>
        <time>2013-06-23T09:05:00Z</time>
      </trkpt>
      <trkpt lat="43.1465" lon="2.41367">
        <ele>424.08</ele>
        <time>2013-06-23T09:05:18Z</time>
      </trkpt>
      <trkpt lat="43.14656" lon="2.41273">
        <ele>420.71</ele>
        <time>2013-06-23T09:05:30Z</time>
      </trkpt>
      <trkpt lat="43.14664" lon="2.41216">
        <ele>424.08</ele>
        <time>2013-06-23T09:05:41Z</time>
      </trkpt>
      <trkpt lat="43.1466" lon="2.41196">
        <ele>425.52</ele>
        <time>2013-06-23T09:05:47Z</time>
      </trkpt>
      <trkpt lat="43.14657" lon="2.41194">
        <ele>425.52</ele>
        <time>2013-06-23T09:05:48Z</time>
      </trkpt>
      <trkpt lat="43.14655" lon="2.41193">
        <ele>426.48</ele>
        <time>2013-06-23T09:05:49Z</time>
      </trkpt>
      <trkpt lat="43.14653" lon="2.41193">
        <ele>426.96</ele>
        <time>2013-06-23T09:05:50Z</time>
      </trkpt>
      <trkpt lat="43.14651" lon="2.41193">
        <ele>427.44</ele>
        <time>2013-06-23T09:05:51Z</time>
      </trkpt>
      <trkpt lat="43.14648" lon="2.41193">
        <ele>428.4</ele>
        <time>2013-06-23T09:05:52Z</time>
      </trkpt>
      <trkpt lat="43.14646" lon="2.41192">
        <ele>428.89</ele>
        <time>2013-06-23T09:05:53Z</time>
      </trkpt>
      <trkpt lat="43.14616" lon="2.41195">
        <ele>433.69</ele>
        <time>2013-06-23T09:06:08Z</time>
      </trkpt>
      <trkpt lat="43.14597" lon="2.41188">
        <ele>437.54</ele>
        <time>2013-06-23T09:06:16Z</time>
      </trkpt>
      <trkpt lat="43.14596" lon="2.41185">
        <ele>438.02</ele>
        <time>2013-06-23T09:06:17Z</time>
      </trkpt>
      <trkpt lat="43.14595" lon="2.41182">
        <ele>438.5</ele>
        <time>2013-06-23T09:06:18Z</time>
      </trkpt>
      <trkpt lat="43.14595" lon="2.41178">
        <ele>438.98</ele>
        <time>2013-06-23T09:06:19Z</time>
      </trkpt>
      <trkpt lat="43.14595" lon="2.41175">
        <ele>439.46</ele>
        <time>2013-06-23T09:06:20Z</time>
      </trkpt>
      <trkpt lat="43.14596" lon="2.41172">
        <ele>439.94</ele>
        <time>2013-06-23T09:06:21Z</time>
      </trkpt>
      <trkpt lat="43.14596" lon="2.41168">
        <ele>440.42</ele>
        <time>2013-06-23T09:06:22Z</time>
      </trkpt>
      <trkpt lat="43.14598" lon="2.41165">
        <ele>440.9</ele>
        <time>2013-06-23T09:06:23Z</time>
      </trkpt>
      <trkpt lat="43.14599" lon="2.41162">
        <ele>441.38</ele>
        <time>2013-06-23T09:06:24Z</time>
      </trkpt>
      <trkpt lat="43.14603" lon="2.4115">
        <ele>442.82</ele>
        <time>2013-06-23T09:06:28Z</time>
      </trkpt>
      <trkpt lat="43.14603" lon="2.41147">
        <ele>443.31</ele>
        <time>2013-06-23T09:06:29Z</time>
      </trkpt>
      <trkpt lat="43.14604" lon="2.41144">
        <ele>443.79</ele>
        <time>2013-06-23T09:06:30Z</time>
      </trkpt>
      <trkpt lat="43.14605" lon="2.41141">
        <ele>444.27</ele>
        <time>2013-06-23T09:06:31Z</time>
      </trkpt>
      <trkpt lat="43.14607" lon="2.41138">
        <ele>444.27</ele>
        <time>2013-06-23T09:06:32Z</time>
      </trkpt>
      <trkpt lat="43.14623" lon="2.41097">
        <ele>448.59</ele>
        <time>2013-06-23T09:06:46Z</time>
      </trkpt>
      <trkpt lat="43.14633" lon="2.41049">
        <ele>447.15</ele>
        <time>2013-06-23T09:06:58Z</time>
      </trkpt>
      <trkpt lat="43.14646" lon="2.40972">
        <ele>442.34</ele>
        <time>2013-06-23T09:07:10Z</time>
      </trkpt>
      <trkpt lat="43.14661" lon="2.40902">
        <ele>439.46</ele>
        <time>2013-06-23T09:07:20Z</time>
      </trkpt>
      <trkpt lat="43.14661" lon="2.40885">
        <ele>438.02</ele>
        <time>2013-06-23T09:07:22Z</time>
      </trkpt>
      <trkpt lat="43.14663" lon="2.40849">
        <ele>435.13</ele>
        <time>2013-06-23T09:07:27Z</time>
      </trkpt>
      <trkpt lat="43.14665" lon="2.40842">
        <ele>434.17</ele>
        <time>2013-06-23T09:07:28Z</time>
      </trkpt>
      <trkpt lat="43.14667" lon="2.40834">
        <ele>433.69</ele>
        <time>2013-06-23T09:07:29Z</time>
      </trkpt>
      <trkpt lat="43.14669" lon="2.40828">
        <ele>433.69</ele>
        <time>2013-06-23T09:07:30Z</time>
      </trkpt>
      <trkpt lat="43.1467" lon="2.40821">
        <ele>433.21</ele>
        <time>2013-06-23T09:07:31Z</time>
      </trkpt>
      <trkpt lat="43.1467" lon="2.40814">
        <ele>432.73</ele>
        <time>2013-06-23T09:07:32Z</time>
      </trkpt>
      <trkpt lat="43.14671" lon="2.40807">
        <ele>432.25</ele>
        <time>2013-06-23T09:07:33Z</time>
      </trkpt>
      <trkpt lat="43.1468" lon="2.4077">
        <ele>430.81</ele>
        <time>2013-06-23T09:07:40Z</time>
      </trkpt>
      <trkpt lat="43.1468" lon="2.40765">
        <ele>430.81</ele>
        <time>2013-06-23T09:07:41Z</time>
      </trkpt>
      <trkpt lat="43.14681" lon="2.40759">
        <ele>430.81</ele>
        <time>2013-06-23T09:07:42Z</time>
      </trkpt>
      <trkpt lat="43.14682" lon="2.40754">
        <ele>430.81</ele>
        <time>2013-06-23T09:07:43Z</time>
      </trkpt>
      <trkpt lat="43.14683" lon="2.4075">
        <ele>430.81</ele>
        <time>2013-06-23T09:07:44Z</time>
      </trkpt>
      <trkpt lat="43.14685" lon="2.40746">
        <ele>430.81</ele>
        <time>2013-06-23T09:07:45Z</time>
      </trkpt>
      <trkpt lat="43.14686" lon="2.40742">
        <ele>430.81</ele>
        <time>2013-06-23T09:07:46Z</time>
      </trkpt>
      <trkpt lat="43.14693" lon="2.40701">
        <ele>429.85</ele>
        <time>2013-06-23T09:07:53Z</time>
      </trkpt>
      <trkpt lat="43.14695" lon="2.40694">
        <ele>429.37</ele>
        <time>2013-06-23T09:07:54Z</time>
      </trkpt>
      <trkpt lat="43.14695" lon="2.40686">
        <ele>428.89</ele>
        <time>2013-06-23T09:07:55Z</time>
      </trkpt>
      <trkpt lat="43.14696" lon="2.40679">
        <ele>428.89</ele>
        <time>2013-06-23T09:07:56Z</time>
      </trkpt>
      <trkpt lat="43.14698" lon="2.40671">
        <ele>428.4</ele>
        <time>2013-06-23T09:07:57Z</time>
      </trkpt>
      <trkpt lat="43.14699" lon="2.40664">
        <ele>427.92</ele>
        <time>2013-06-23T09:07:58Z</time>
      </trkpt>
      <trkpt lat="43.147" lon="2.40657">
        <ele>427.44</ele>
        <time>2013-06-23T09:07:59Z</time>
      </trkpt>
      <trkpt lat="43.147" lon="2.40648">
        <ele>426.96</ele>
        <time>2013-06-23T09:08:00Z</time>
      </trkpt>
      <trkpt lat="43.14699" lon="2.40622">
        <ele>424.08</ele>
        <time>2013-06-23T09:08:03Z</time>
      </trkpt>
      <trkpt lat="43.147" lon="2.40615">
        <ele>423.6</ele>
        <time>2013-06-23T09:08:04Z</time>
      </trkpt>
      <trkpt lat="43.14702" lon="2.40607">
        <ele>423.12</ele>
        <time>2013-06-23T09:08:05Z</time>
      </trkpt>
      <trkpt lat="43.14706" lon="2.40586">
        <ele>422.16</ele>
        <time>2013-06-23T09:08:08Z</time>
      </trkpt>
      <trkpt lat="43.14707" lon="2.40579">
        <ele>421.68</ele>
        <time>2013-06-23T09:08:09Z</time>
      </trkpt>
      <trkpt lat="43.14708" lon="2.40572">
        <ele>421.68</ele>
        <time>2013-06-23T09:08:10Z</time>
      </trkpt>
      <trkpt lat="43.1471" lon="2.40565">
        <ele>421.19</ele>
        <time>2013-06-23T09:08:11Z</time>
      </trkpt>
      <trkpt lat="43.14711" lon="2.40557">
        <ele>420.71</ele>
        <time>2013-06-23T09:08:12Z</time>
      </trkpt>
      <trkpt lat="43.14716" lon="2.40526">
        <ele>419.75</ele>
        <time>2013-06-23T09:08:16Z</time>
      </trkpt>
      <trkpt lat="43.14717" lon="2.40518">
        <ele>419.75</ele>
        <time>2013-06-23T09:08:17Z</time>
      </trkpt>
      <trkpt lat="43.14719" lon="2.4051">
        <ele>419.27</ele>
        <time>2013-06-23T09:08:18Z</time>
      </trkpt>
      <trkpt lat="43.1472" lon="2.40503">
        <ele>419.27</ele>
        <time>2013-06-23T09:08:19Z</time>
      </trkpt>
      <trkpt lat="43.14721" lon="2.40494">
        <ele>418.79</ele>
        <time>2013-06-23T09:08:20Z</time>
      </trkpt>
      <trkpt lat="43.14722" lon="2.40486">
        <ele>418.31</ele>
        <time>2013-06-23T09:08:21Z</time>
      </trkpt>
      <trkpt lat="43.14724" lon="2.40478">
        <ele>417.83</ele>
        <time>2013-06-23T09:08:22Z</time>
      </trkpt>
      <trkpt lat="43.14727" lon="2.40462">
        <ele>417.35</ele>
        <time>2013-06-23T09:08:24Z</time>
      </trkpt>
      <trkpt lat="43.14733" lon="2.40437">
        <ele>417.35</ele>
        <time>2013-06-23T09:08:28Z</time>
      </trkpt>
      <trkpt lat="43.14735" lon="2.40432">
        <ele>417.83</ele>
        <time>2013-06-23T09:08:29Z</time>
      </trkpt>
      <trkpt lat="43.14736" lon="2.40427">
        <ele>417.83</ele>
        <time>2013-06-23T09:08:30Z</time>
      </trkpt>
      <trkpt lat="43.14737" lon="2.40421">
        <ele>418.31</ele>
        <time>2013-06-23T09:08:31Z</time>
      </trkpt>
      <trkpt lat="43.14738" lon="2.40416">
        <ele>418.31</ele>
        <time>2013-06-23T09:08:32Z</time>
      </trkpt>
      <trkpt lat="43.1474" lon="2.40411">
        <ele>418.31</ele>
        <time>2013-06-23T09:08:33Z</time>
      </trkpt>
      <trkpt lat="43.14741" lon="2.40406">
        <ele>418.79</ele>
        <time>2013-06-23T09:08:34Z</time>
      </trkpt>
      <trkpt lat="43.14747" lon="2.40383">
        <ele>420.23</ele>
        <time>2013-06-23T09:08:40Z</time>
      </trkpt>
      <trkpt lat="43.14748" lon="2.4038">
        <ele>420.71</ele>
        <time>2013-06-23T09:08:41Z</time>
      </trkpt>
      <trkpt lat="43.14757" lon="2.40358">
        <ele>422.16</ele>
        <time>2013-06-23T09:08:47Z</time>
      </trkpt>
      <trkpt lat="43.14758" lon="2.40354">
        <ele>422.16</ele>
        <time>2013-06-23T09:08:48Z</time>
      </trkpt>
      <trkpt lat="43.14759" lon="2.40352">
        <ele>422.64</ele>
        <time>2013-06-23T09:08:49Z</time>
      </trkpt>
      <trkpt lat="43.1476" lon="2.4035">
        <ele>422.64</ele>
        <time>2013-06-23T09:08:50Z</time>
      </trkpt>
      <trkpt lat="43.14761" lon="2.40348">
        <ele>422.64</ele>
        <time>2013-06-23T09:08:51Z</time>
      </trkpt>
      <trkpt lat="43.14763" lon="2.40343">
        <ele>422.64</ele>
        <time>2013-06-23T09:08:52Z</time>
      </trkpt>
      <trkpt lat="43.14764" lon="2.40338">
        <ele>422.64</ele>
        <time>2013-06-23T09:08:53Z</time>
      </trkpt>
      <trkpt lat="43.14765" lon="2.40332">
        <ele>422.16</ele>
        <time>2013-06-23T09:08:54Z</time>
      </trkpt>
      <trkpt lat="43.14767" lon="2.40326">
        <ele>422.16</ele>
        <time>2013-06-23T09:08:55Z</time>
      </trkpt>
      <trkpt lat="43.14776" lon="2.40294">
        <ele>421.19</ele>
        <time>2013-06-23T09:09:00Z</time>
      </trkpt>
      <trkpt lat="43.14786" lon="2.4027">
        <ele>421.68</ele>
        <time>2013-06-23T09:09:04Z</time>
      </trkpt>
      <trkpt lat="43.14788" lon="2.40265">
        <ele>421.68</ele>
        <time>2013-06-23T09:09:05Z</time>
      </trkpt>
      <trkpt lat="43.14803" lon="2.40199">
        <ele>421.19</ele>
        <time>2013-06-23T09:09:15Z</time>
      </trkpt>
      <trkpt lat="43.14803" lon="2.40193">
        <ele>420.71</ele>
        <time>2013-06-23T09:09:16Z</time>
      </trkpt>
      <trkpt lat="43.14804" lon="2.40186">
        <ele>420.23</ele>
        <time>2013-06-23T09:09:17Z</time>
      </trkpt>
      <trkpt lat="43.14806" lon="2.40181">
        <ele>419.27</ele>
        <time>2013-06-23T09:09:18Z</time>
      </trkpt>
      <trkpt lat="43.14809" lon="2.40175">
        <ele>418.79</ele>
        <time>2013-06-23T09:09:19Z</time>
      </trkpt>
      <trkpt lat="43.14812" lon="2.4017">
        <ele>417.83</ele>
        <time>2013-06-23T09:09:20Z</time>
      </trkpt>
      <trkpt lat="43.14814" lon="2.40165">
        <ele>417.35</ele>
        <time>2013-06-23T09:09:21Z</time>
      </trkpt>
      <trkpt lat="43.14816" lon="2.40158">
        <ele>416.39</ele>
        <time>2013-06-23T09:09:22Z</time>
      </trkpt>
      <trkpt lat="43.14821" lon="2.4014">
        <ele>414.95</ele>
        <time>2013-06-23T09:09:25Z</time>
      </trkpt>
      <trkpt lat="43.14822" lon="2.40133">
        <ele>414.47</ele>
        <time>2013-06-23T09:09:26Z</time>
      </trkpt>
      <trkpt lat="43.14825" lon="2.40114">
        <ele>412.54</ele>
        <time>2013-06-23T09:09:28Z</time>
      </trkpt>
      <trkpt lat="43.14834" lon="2.40062">
        <ele>408.22</ele>
        <time>2013-06-23T09:09:33Z</time>
      </trkpt>
      <trkpt lat="43.14839" lon="2.40058">
        <ele>407.74</ele>
        <time>2013-06-23T09:09:34Z</time>
      </trkpt>
      <trkpt lat="43.14844" lon="2.40055">
        <ele>407.74</ele>
        <time>2013-06-23T09:09:35Z</time>
      </trkpt>
      <trkpt lat="43.14848" lon="2.4005">
        <ele>407.74</ele>
        <time>2013-06-23T09:09:36Z</time>
      </trkpt>
      <trkpt lat="43.14852" lon="2.40045">
        <ele>407.74</ele>
        <time>2013-06-23T09:09:37Z</time>
      </trkpt>
      <trkpt lat="43.14855" lon="2.40039">
        <ele>407.74</ele>
        <time>2013-06-23T09:09:38Z</time>
      </trkpt>
      <trkpt lat="43.14864" lon="2.40019">
        <ele>407.74</ele>
        <time>2013-06-23T09:09:41Z</time>
      </trkpt>
      <trkpt lat="43.14868" lon="2.40012">
        <ele>407.74</ele>
        <time>2013-06-23T09:09:42Z</time>
      </trkpt>
      <trkpt lat="43.1487" lon="2.40006">
        <ele>407.74</ele>
        <time>2013-06-23T09:09:43Z</time>
      </trkpt>
      <trkpt lat="43.14871" lon="2.4">
        <ele>407.74</ele>
        <time>2013-06-23T09:09:44Z</time>
      </trkpt>
      <trkpt lat="43.14872" lon="2.39994">
        <ele>407.74</ele>
        <time>2013-06-23T09:09:45Z</time>
      </trkpt>
      <trkpt lat="43.14873" lon="2.39988">
        <ele>407.26</ele>
        <time>2013-06-23T09:09:46Z</time>
      </trkpt>
      <trkpt lat="43.14873" lon="2.39981">
        <ele>406.77</ele>
        <time>2013-06-23T09:09:47Z</time>
      </trkpt>
      <trkpt lat="43.14873" lon="2.39964">
        <ele>404.37</ele>
        <time>2013-06-23T09:09:49Z</time>
      </trkpt>
      <trkpt lat="43.14875" lon="2.39958">
        <ele>403.89</ele>
        <time>2013-06-23T09:09:50Z</time>
      </trkpt>
      <trkpt lat="43.14878" lon="2.39953">
        <ele>402.93</ele>
        <time>2013-06-23T09:09:51Z</time>
      </trkpt>
      <trkpt lat="43.14881" lon="2.39948">
        <ele>401.97</ele>
        <time>2013-06-23T09:09:52Z</time>
      </trkpt>
      <trkpt lat="43.14883" lon="2.39946">
        <ele>401.49</ele>
        <time>2013-06-23T09:09:53Z</time>
      </trkpt>
      <trkpt lat="43.14885" lon="2.39944">
        <ele>400.53</ele>
        <time>2013-06-23T09:09:54Z</time>
      </trkpt>
      <trkpt lat="43.14886" lon="2.3994">
        <ele>399.57</ele>
        <time>2013-06-23T09:09:55Z</time>
      </trkpt>
      <trkpt lat="43.14887" lon="2.39935">
        <ele>399.08</ele>
        <time>2013-06-23T09:09:56Z</time>
      </trkpt>
      <trkpt lat="43.14888" lon="2.3993">
        <ele>398.6</ele>
        <time>2013-06-23T09:09:57Z</time>
      </trkpt>
      <trkpt lat="43.14889" lon="2.39924">
        <ele>398.12</ele>
        <time>2013-06-23T09:09:58Z</time>
      </trkpt>
      <trkpt lat="43.14889" lon="2.39919">
        <ele>397.64</ele>
        <time>2013-06-23T09:09:59Z</time>
      </trkpt>
      <trkpt lat="43.1489" lon="2.39915">
        <ele>397.64</ele>
        <time>2013-06-23T09:10:00Z</time>
      </trkpt>
      <trkpt lat="43.1489" lon="2.3991">
        <ele>397.64</ele>
        <time>2013-06-23T09:10:01Z</time>
      </trkpt>
      <trkpt lat="43.14891" lon="2.39905">
        <ele>397.16</ele>
        <time>2013-06-23T09:10:02Z</time>
      </trkpt>
      <trkpt lat="43.14892" lon="2.399">
        <ele>397.16</ele>
        <time>2013-06-23T09:10:03Z</time>
      </trkpt>
      <trkpt lat="43.14892" lon="2.39895">
        <ele>397.16</ele>
        <time>2013-06-23T09:10:04Z</time>
      </trkpt>
      <trkpt lat="43.14894" lon="2.39891">
        <ele>396.68</ele>
        <time>2013-06-23T09:10:05Z</time>
      </trkpt>
      <trkpt lat="43.14897" lon="2.39885">
        <ele>396.2</ele>
        <time>2013-06-23T09:10:06Z</time>
      </trkpt>
      <trkpt lat="43.14899" lon="2.39878">
        <ele>395.72</ele>
        <time>2013-06-23T09:10:07Z</time>
      </trkpt>
      <trkpt lat="43.14901" lon="2.39872">
        <ele>394.76</ele>
        <time>2013-06-23T09:10:08Z</time>
      </trkpt>
      <trkpt lat="43.14902" lon="2.39866">
        <ele>394.76</ele>
        <time>2013-06-23T09:10:09Z</time>
      </trkpt>
      <trkpt lat="43.14901" lon="2.3986">
        <ele>394.28</ele>
        <time>2013-06-23T09:10:10Z</time>
      </trkpt>
      <trkpt lat="43.149" lon="2.39854">
        <ele>393.8</ele>
        <time>2013-06-23T09:10:11Z</time>
      </trkpt>
      <trkpt lat="43.14901" lon="2.39846">
        <ele>393.8</ele>
        <time>2013-06-23T09:10:12Z</time>
      </trkpt>
      <trkpt lat="43.14902" lon="2.3984">
        <ele>393.32</ele>
        <time>2013-06-23T09:10:13Z</time>
      </trkpt>
      <trkpt lat="43.14903" lon="2.39834">
        <ele>393.32</ele>
        <time>2013-06-23T09:10:14Z</time>
      </trkpt>
      <trkpt lat="43.14905" lon="2.3983">
        <ele>393.32</ele>
        <time>2013-06-23T09:10:15Z</time>
      </trkpt>
      <trkpt lat="43.14906" lon="2.39824">
        <ele>392.84</ele>
        <time>2013-06-23T09:10:16Z</time>
      </trkpt>
      <trkpt lat="43.14907" lon="2.39819">
        <ele>392.36</ele>
        <time>2013-06-23T09:10:17Z</time>
      </trkpt>
      <trkpt lat="43.14908" lon="2.39807">
        <ele>392.36</ele>
        <time>2013-06-23T09:10:19Z</time>
      </trkpt>
      <trkpt lat="43.14907" lon="2.39801">
        <ele>392.36</ele>
        <time>2013-06-23T09:10:20Z</time>
      </trkpt>
      <trkpt lat="43.14908" lon="2.39796">
        <ele>391.87</ele>
        <time>2013-06-23T09:10:21Z</time>
      </trkpt>
      <trkpt lat="43.1491" lon="2.39793">
        <ele>391.87</ele>
        <time>2013-06-23T09:10:22Z</time>
      </trkpt>
      <trkpt lat="43.14913" lon="2.39791">
        <ele>391.39</ele>
        <time>2013-06-23T09:10:23Z</time>
      </trkpt>
      <trkpt lat="43.14917" lon="2.39789">
        <ele>390.91</ele>
        <time>2013-06-23T09:10:24Z</time>
      </trkpt>
      <trkpt lat="43.1492" lon="2.39786">
        <ele>390.43</ele>
        <time>2013-06-23T09:10:25Z</time>
      </trkpt>
      <trkpt lat="43.14922" lon="2.39783">
        <ele>389.47</ele>
        <time>2013-06-23T09:10:26Z</time>
      </trkpt>
      <trkpt lat="43.14923" lon="2.39781">
        <ele>388.99</ele>
        <time>2013-06-23T09:10:27Z</time>
      </trkpt>
      <trkpt lat="43.14925" lon="2.39778">
        <ele>388.03</ele>
        <time>2013-06-23T09:10:28Z</time>
      </trkpt>
      <trkpt lat="43.14927" lon="2.39773">
        <ele>387.07</ele>
        <time>2013-06-23T09:10:29Z</time>
      </trkpt>
      <trkpt lat="43.1493" lon="2.39769">
        <ele>386.59</ele>
        <time>2013-06-23T09:10:30Z</time>
      </trkpt>
      <trkpt lat="43.14933" lon="2.39764">
        <ele>386.11</ele>
        <time>2013-06-23T09:10:31Z</time>
      </trkpt>
      <trkpt lat="43.14935" lon="2.39759">
        <ele>385.63</ele>
        <time>2013-06-23T09:10:32Z</time>
      </trkpt>
      <trkpt lat="43.14939" lon="2.39754">
        <ele>385.63</ele>
        <time>2013-06-23T09:10:33Z</time>
      </trkpt>
      <trkpt lat="43.14943" lon="2.3975">
        <ele>385.63</ele>
        <time>2013-06-23T09:10:34Z</time>
      </trkpt>
      <trkpt lat="43.14946" lon="2.39745">
        <ele>385.63</ele>
        <time>2013-06-23T09:10:35Z</time>
      </trkpt>
      <trkpt lat="43.14948" lon="2.39739">
        <ele>385.15</ele>
        <time>2013-06-23T09:10:36Z</time>
      </trkpt>
      <trkpt lat="43.1495" lon="2.39734">
        <ele>385.15</ele>
        <time>2013-06-23T09:10:37Z</time>
      </trkpt>
      <trkpt lat="43.14951" lon="2.39729">
        <ele>384.66</ele>
        <time>2013-06-23T09:10:38Z</time>
      </trkpt>
      <trkpt lat="43.14952" lon="2.39726">
        <ele>385.15</ele>
        <time>2013-06-23T09:10:39Z</time>
      </trkpt>
      <trkpt lat="43.14953" lon="2.39723">
        <ele>385.15</ele>
        <time>2013-06-23T09:10:40Z</time>
      </trkpt>
      <trkpt lat="43.14953" lon="2.3972">
        <ele>385.15</ele>
        <time>2013-06-23T09:10:41Z</time>
      </trkpt>
      <trkpt lat="43.14953" lon="2.39717">
        <ele>385.15</ele>
        <time>2013-06-23T09:10:42Z</time>
      </trkpt>
      <trkpt lat="43.14954" lon="2.39714">
        <ele>385.15</ele>
        <time>2013-06-23T09:10:43Z</time>
      </trkpt>
      <trkpt lat="43.14955" lon="2.3971">
        <ele>385.63</ele>
        <time>2013-06-23T09:10:44Z</time>
      </trkpt>
      <trkpt lat="43.14957" lon="2.39705">
        <ele>385.15</ele>
        <time>2013-06-23T09:10:50Z</time>
      </trkpt>
      <trkpt lat="43.14958" lon="2.39703">
        <ele>384.66</ele>
        <time>2013-06-23T09:10:51Z</time>
      </trkpt>
      <trkpt lat="43.14961" lon="2.39701">
        <ele>383.7</ele>
        <time>2013-06-23T09:10:52Z</time>
      </trkpt>
      <trkpt lat="43.14964" lon="2.39696">
        <ele>382.26</ele>
        <time>2013-06-23T09:10:53Z</time>
      </trkpt>
      <trkpt lat="43.14968" lon="2.39691">
        <ele>381.3</ele>
        <time>2013-06-23T09:10:54Z</time>
      </trkpt>
      <trkpt lat="43.14971" lon="2.39689">
        <ele>380.34</ele>
        <time>2013-06-23T09:10:55Z</time>
      </trkpt>
      <trkpt lat="43.14974" lon="2.39689">
        <ele>379.86</ele>
        <time>2013-06-23T09:10:56Z</time>
      </trkpt>
      <trkpt lat="43.14977" lon="2.39689">
        <ele>379.38</ele>
        <time>2013-06-23T09:10:57Z</time>
      </trkpt>
      <trkpt lat="43.14985" lon="2.39694">
        <ele>377.94</ele>
        <time>2013-06-23T09:11:00Z</time>
      </trkpt>
      <trkpt lat="43.14988" lon="2.39696">
        <ele>376.97</ele>
        <time>2013-06-23T09:11:01Z</time>
      </trkpt>
      <trkpt lat="43.14992" lon="2.39697">
        <ele>376.49</ele>
        <time>2013-06-23T09:11:02Z</time>
      </trkpt>
      <trkpt lat="43.14998" lon="2.39698">
        <ele>375.53</ele>
        <time>2013-06-23T09:11:03Z</time>
      </trkpt>
      <trkpt lat="43.15003" lon="2.397">
        <ele>375.05</ele>
        <time>2013-06-23T09:11:04Z</time>
      </trkpt>
      <trkpt lat="43.15007" lon="2.397">
        <ele>374.09</ele>
        <time>2013-06-23T09:11:05Z</time>
      </trkpt>
      <trkpt lat="43.15011" lon="2.39699">
        <ele>373.13</ele>
        <time>2013-06-23T09:11:06Z</time>
      </trkpt>
      <trkpt lat="43.15015" lon="2.39697">
        <ele>372.17</ele>
        <time>2013-06-23T09:11:07Z</time>
      </trkpt>
      <trkpt lat="43.1502" lon="2.39696">
        <ele>371.69</ele>
        <time>2013-06-23T09:11:08Z</time>
      </trkpt>
      <trkpt lat="43.15025" lon="2.39695">
        <ele>370.73</ele>
        <time>2013-06-23T09:11:09Z</time>
      </trkpt>
      <trkpt lat="43.1503" lon="2.39693">
        <ele>369.76</ele>
        <time>2013-06-23T09:11:10Z</time>
      </trkpt>
      <trkpt lat="43.15034" lon="2.3969">
        <ele>368.8</ele>
        <time>2013-06-23T09:11:11Z</time>
      </trkpt>
      <trkpt lat="43.1504" lon="2.39688">
        <ele>368.32</ele>
        <time>2013-06-23T09:11:12Z</time>
      </trkpt>
      <trkpt lat="43.15046" lon="2.39686">
        <ele>367.36</ele>
        <time>2013-06-23T09:11:13Z</time>
      </trkpt>
      <trkpt lat="43.15051" lon="2.39682">
        <ele>367.36</ele>
        <time>2013-06-23T09:11:14Z</time>
      </trkpt>
      <trkpt lat="43.15056" lon="2.3968">
        <ele>367.36</ele>
        <time>2013-06-23T09:11:15Z</time>
      </trkpt>
      <trkpt lat="43.15062" lon="2.39678">
        <ele>367.36</ele>
        <time>2013-06-23T09:11:16Z</time>
      </trkpt>
      <trkpt lat="43.15067" lon="2.39677">
        <ele>367.36</ele>
        <time>2013-06-23T09:11:17Z</time>
      </trkpt>
      <trkpt lat="43.1507" lon="2.39676">
        <ele>367.36</ele>
        <time>2013-06-23T09:11:18Z</time>
      </trkpt>
      <trkpt lat="43.15073" lon="2.39675">
        <ele>366.88</ele>
        <time>2013-06-23T09:11:19Z</time>
      </trkpt>
      <trkpt lat="43.15077" lon="2.39675">
        <ele>366.4</ele>
        <time>2013-06-23T09:11:20Z</time>
      </trkpt>
      <trkpt lat="43.15082" lon="2.39673">
        <ele>365.44</ele>
        <time>2013-06-23T09:11:21Z</time>
      </trkpt>
      <trkpt lat="43.15087" lon="2.39669">
        <ele>364.48</ele>
        <time>2013-06-23T09:11:22Z</time>
      </trkpt>
      <trkpt lat="43.15091" lon="2.39665">
        <ele>364</ele>
        <time>2013-06-23T09:11:23Z</time>
      </trkpt>
      <trkpt lat="43.15094" lon="2.3966">
        <ele>363.04</ele>
        <time>2013-06-23T09:11:24Z</time>
      </trkpt>
      <trkpt lat="43.151" lon="2.3965">
        <ele>361.59</ele>
        <time>2013-06-23T09:11:26Z</time>
      </trkpt>
      <trkpt lat="43.15104" lon="2.39646">
        <ele>361.11</ele>
        <time>2013-06-23T09:11:27Z</time>
      </trkpt>
      <trkpt lat="43.1511" lon="2.39643">
        <ele>360.15</ele>
        <time>2013-06-23T09:11:28Z</time>
      </trkpt>
      <trkpt lat="43.15115" lon="2.39643">
        <ele>359.67</ele>
        <time>2013-06-23T09:11:29Z</time>
      </trkpt>
      <trkpt lat="43.15119" lon="2.39643">
        <ele>359.19</ele>
        <time>2013-06-23T09:11:30Z</time>
      </trkpt>
      <trkpt lat="43.15126" lon="2.39643">
        <ele>358.23</ele>
        <time>2013-06-23T09:11:33Z</time>
      </trkpt>
      <trkpt lat="43.15127" lon="2.39638">
        <ele>357.27</ele>
        <time>2013-06-23T09:11:34Z</time>
      </trkpt>
      <trkpt lat="43.15127" lon="2.39632">
        <ele>357.27</ele>
        <time>2013-06-23T09:11:35Z</time>
      </trkpt>
      <trkpt lat="43.15129" lon="2.39629">
        <ele>357.27</ele>
        <time>2013-06-23T09:11:36Z</time>
      </trkpt>
      <trkpt lat="43.15133" lon="2.39626">
        <ele>357.75</ele>
        <time>2013-06-23T09:11:37Z</time>
      </trkpt>
      <trkpt lat="43.15137" lon="2.39625">
        <ele>357.75</ele>
        <time>2013-06-23T09:11:38Z</time>
      </trkpt>
      <trkpt lat="43.15142" lon="2.39623">
        <ele>357.27</ele>
        <time>2013-06-23T09:11:39Z</time>
      </trkpt>
      <trkpt lat="43.15146" lon="2.39619">
        <ele>357.27</ele>
        <time>2013-06-23T09:11:40Z</time>
      </trkpt>
      <trkpt lat="43.15151" lon="2.39616">
        <ele>356.79</ele>
        <time>2013-06-23T09:11:41Z</time>
      </trkpt>
      <trkpt lat="43.15156" lon="2.39614">
        <ele>356.79</ele>
        <time>2013-06-23T09:11:42Z</time>
      </trkpt>
      <trkpt lat="43.1516" lon="2.39614">
        <ele>356.31</ele>
        <time>2013-06-23T09:11:43Z</time>
      </trkpt>
      <trkpt lat="43.15165" lon="2.39616">
        <ele>356.31</ele>
        <time>2013-06-23T09:11:44Z</time>
      </trkpt>
      <trkpt lat="43.1517" lon="2.39618">
        <ele>356.31</ele>
        <time>2013-06-23T09:11:45Z</time>
      </trkpt>
      <trkpt lat="43.15175" lon="2.39619">
        <ele>356.31</ele>
        <time>2013-06-23T09:11:46Z</time>
      </trkpt>
      <trkpt lat="43.1518" lon="2.3962">
        <ele>356.31</ele>
        <time>2013-06-23T09:11:47Z</time>
      </trkpt>
      <trkpt lat="43.15185" lon="2.39622">
        <ele>355.83</ele>
        <time>2013-06-23T09:11:48Z</time>
      </trkpt>
      <trkpt lat="43.1519" lon="2.39626">
        <ele>355.83</ele>
        <time>2013-06-23T09:11:49Z</time>
      </trkpt>
      <trkpt lat="43.15195" lon="2.39629">
        <ele>355.83</ele>
        <time>2013-06-23T09:11:50Z</time>
      </trkpt>
      <trkpt lat="43.152" lon="2.39631">
        <ele>356.31</ele>
        <time>2013-06-23T09:11:51Z</time>
      </trkpt>
      <trkpt lat="43.15227" lon="2.39635">
        <ele>361.11</ele>
        <time>2013-06-23T09:12:00Z</time>
      </trkpt>
      <trkpt lat="43.15236" lon="2.39607">
        <ele>363.04</ele>
        <time>2013-06-23T09:12:09Z</time>
      </trkpt>
      <trkpt lat="43.15238" lon="2.39599">
        <ele>364.96</ele>
        <time>2013-06-23T09:12:12Z</time>
      </trkpt>
      <trkpt lat="43.15238" lon="2.39596">
        <ele>365.44</ele>
        <time>2013-06-23T09:12:13Z</time>
      </trkpt>
      <trkpt lat="43.15238" lon="2.39594">
        <ele>365.92</ele>
        <time>2013-06-23T09:12:14Z</time>
      </trkpt>
      <trkpt lat="43.15238" lon="2.39591">
        <ele>365.92</ele>
        <time>2013-06-23T09:12:15Z</time>
      </trkpt>
      <trkpt lat="43.15238" lon="2.39587">
        <ele>365.92</ele>
        <time>2013-06-23T09:12:16Z</time>
      </trkpt>
      <trkpt lat="43.15239" lon="2.39584">
        <ele>365.44</ele>
        <time>2013-06-23T09:12:17Z</time>
      </trkpt>
      <trkpt lat="43.15239" lon="2.39582">
        <ele>365.92</ele>
        <time>2013-06-23T09:12:18Z</time>
      </trkpt>
      <trkpt lat="43.1524" lon="2.39579">
        <ele>365.92</ele>
        <time>2013-06-23T09:12:19Z</time>
      </trkpt>
      <trkpt lat="43.15257" lon="2.3956">
        <ele>372.65</ele>
        <time>2013-06-23T09:12:32Z</time>
      </trkpt>
      <trkpt lat="43.1527" lon="2.39557">
        <ele>375.05</ele>
        <time>2013-06-23T09:12:40Z</time>
      </trkpt>
      <trkpt lat="43.15274" lon="2.39559">
        <ele>374.57</ele>
        <time>2013-06-23T09:12:42Z</time>
      </trkpt>
      <trkpt lat="43.15276" lon="2.39557">
        <ele>374.09</ele>
        <time>2013-06-23T09:12:43Z</time>
      </trkpt>
      <trkpt lat="43.15277" lon="2.39554">
        <ele>373.61</ele>
        <time>2013-06-23T09:12:44Z</time>
      </trkpt>
      <trkpt lat="43.15278" lon="2.39548">
        <ele>373.13</ele>
        <time>2013-06-23T09:12:45Z</time>
      </trkpt>
      <trkpt lat="43.15279" lon="2.39542">
        <ele>372.17</ele>
        <time>2013-06-23T09:12:46Z</time>
      </trkpt>
      <trkpt lat="43.15279" lon="2.39536">
        <ele>371.69</ele>
        <time>2013-06-23T09:12:47Z</time>
      </trkpt>
      <trkpt lat="43.1528" lon="2.39529">
        <ele>370.73</ele>
        <time>2013-06-23T09:12:48Z</time>
      </trkpt>
      <trkpt lat="43.15283" lon="2.39524">
        <ele>370.24</ele>
        <time>2013-06-23T09:12:49Z</time>
      </trkpt>
      <trkpt lat="43.15287" lon="2.39521">
        <ele>369.76</ele>
        <time>2013-06-23T09:12:50Z</time>
      </trkpt>
      <trkpt lat="43.1529" lon="2.39518">
        <ele>369.28</ele>
        <time>2013-06-23T09:12:51Z</time>
      </trkpt>
      <trkpt lat="43.15292" lon="2.39516">
        <ele>369.28</ele>
        <time>2013-06-23T09:12:52Z</time>
      </trkpt>
      <trkpt lat="43.15297" lon="2.39509">
        <ele>367.84</ele>
        <time>2013-06-23T09:12:54Z</time>
      </trkpt>
      <trkpt lat="43.15299" lon="2.39504">
        <ele>367.36</ele>
        <time>2013-06-23T09:12:55Z</time>
      </trkpt>
      <trkpt lat="43.15301" lon="2.39499">
        <ele>366.4</ele>
        <time>2013-06-23T09:12:56Z</time>
      </trkpt>
      <trkpt lat="43.15304" lon="2.39495">
        <ele>365.44</ele>
        <time>2013-06-23T09:12:57Z</time>
      </trkpt>
      <trkpt lat="43.15307" lon="2.39492">
        <ele>364.48</ele>
        <time>2013-06-23T09:12:58Z</time>
      </trkpt>
      <trkpt lat="43.1531" lon="2.39489">
        <ele>363.04</ele>
        <time>2013-06-23T09:12:59Z</time>
      </trkpt>
      <trkpt lat="43.15311" lon="2.39484">
        <ele>361.59</ele>
        <time>2013-06-23T09:13:00Z</time>
      </trkpt>
      <trkpt lat="43.15312" lon="2.39478">
        <ele>360.63</ele>
        <time>2013-06-23T09:13:01Z</time>
      </trkpt>
      <trkpt lat="43.15311" lon="2.39472">
        <ele>359.19</ele>
        <time>2013-06-23T09:13:02Z</time>
      </trkpt>
      <trkpt lat="43.1531" lon="2.39466">
        <ele>357.75</ele>
        <time>2013-06-23T09:13:03Z</time>
      </trkpt>
      <trkpt lat="43.15309" lon="2.3946">
        <ele>356.79</ele>
        <time>2013-06-23T09:13:04Z</time>
      </trkpt>
      <trkpt lat="43.15308" lon="2.39455">
        <ele>355.83</ele>
        <time>2013-06-23T09:13:05Z</time>
      </trkpt>
      <trkpt lat="43.15308" lon="2.3945">
        <ele>354.86</ele>
        <time>2013-06-23T09:13:06Z</time>
      </trkpt>
      <trkpt lat="43.15309" lon="2.39445">
        <ele>353.9</ele>
        <time>2013-06-23T09:13:07Z</time>
      </trkpt>
      <trkpt lat="43.15313" lon="2.3944">
        <ele>352.46</ele>
        <time>2013-06-23T09:13:08Z</time>
      </trkpt>
      <trkpt lat="43.15316" lon="2.39433">
        <ele>351.5</ele>
        <time>2013-06-23T09:13:09Z</time>
      </trkpt>
      <trkpt lat="43.15318" lon="2.39424">
        <ele>350.54</ele>
        <time>2013-06-23T09:13:10Z</time>
      </trkpt>
      <trkpt lat="43.1532" lon="2.39417">
        <ele>349.58</ele>
        <time>2013-06-23T09:13:11Z</time>
      </trkpt>
      <trkpt lat="43.15322" lon="2.39412">
        <ele>349.1</ele>
        <time>2013-06-23T09:13:12Z</time>
      </trkpt>
      <trkpt lat="43.15324" lon="2.39409">
        <ele>349.1</ele>
        <time>2013-06-23T09:13:13Z</time>
      </trkpt>
      <trkpt lat="43.15327" lon="2.39406">
        <ele>348.62</ele>
        <time>2013-06-23T09:13:14Z</time>
      </trkpt>
      <trkpt lat="43.15331" lon="2.39402">
        <ele>348.13</ele>
        <time>2013-06-23T09:13:15Z</time>
      </trkpt>
      <trkpt lat="43.15336" lon="2.39397">
        <ele>347.65</ele>
        <time>2013-06-23T09:13:16Z</time>
      </trkpt>
      <trkpt lat="43.1534" lon="2.39391">
        <ele>347.17</ele>
        <time>2013-06-23T09:13:17Z</time>
      </trkpt>
      <trkpt lat="43.15344" lon="2.39387">
        <ele>347.17</ele>
        <time>2013-06-23T09:13:18Z</time>
      </trkpt>
      <trkpt lat="43.15352" lon="2.39381">
        <ele>347.65</ele>
        <time>2013-06-23T09:13:20Z</time>
      </trkpt>
      <trkpt lat="43.15354" lon="2.39376">
        <ele>347.65</ele>
        <time>2013-06-23T09:13:21Z</time>
      </trkpt>
      <trkpt lat="43.15356" lon="2.39371">
        <ele>348.13</ele>
        <time>2013-06-23T09:13:22Z</time>
      </trkpt>
      <trkpt lat="43.15358" lon="2.39367">
        <ele>348.13</ele>
        <time>2013-06-23T09:13:23Z</time>
      </trkpt>
      <trkpt lat="43.15361" lon="2.39364">
        <ele>348.62</ele>
        <time>2013-06-23T09:13:24Z</time>
      </trkpt>
      <trkpt lat="43.15363" lon="2.39361">
        <ele>349.1</ele>
        <time>2013-06-23T09:13:25Z</time>
      </trkpt>
      <trkpt lat="43.15376" lon="2.39337">
        <ele>353.9</ele>
        <time>2013-06-23T09:13:35Z</time>
      </trkpt>
      <trkpt lat="43.15389" lon="2.39307">
        <ele>356.79</ele>
        <time>2013-06-23T09:13:48Z</time>
      </trkpt>
      <trkpt lat="43.154" lon="2.39273">
        <ele>363.52</ele>
        <time>2013-06-23T09:14:03Z</time>
      </trkpt>
      <trkpt lat="43.15408" lon="2.39267">
        <ele>366.88</ele>
        <time>2013-06-23T09:14:10Z</time>
      </trkpt>
      <trkpt lat="43.1541" lon="2.39267">
        <ele>367.36</ele>
        <time>2013-06-23T09:14:11Z</time>
      </trkpt>
      <trkpt lat="43.15411" lon="2.39268">
        <ele>367.84</ele>
        <time>2013-06-23T09:14:12Z</time>
      </trkpt>
      <trkpt lat="43.15416" lon="2.39279">
        <ele>369.28</ele>
        <time>2013-06-23T09:14:18Z</time>
      </trkpt>
      <trkpt lat="43.15438" lon="2.39278">
        <ele>373.61</ele>
        <time>2013-06-23T09:14:32Z</time>
      </trkpt>
      <trkpt lat="43.15466" lon="2.39261">
        <ele>374.57</ele>
        <time>2013-06-23T09:14:41Z</time>
      </trkpt>
      <trkpt lat="43.15516" lon="2.39239">
        <ele>374.09</ele>
        <time>2013-06-23T09:14:54Z</time>
      </trkpt>
      <trkpt lat="43.15527" lon="2.39235">
        <ele>372.65</ele>
        <time>2013-06-23T09:14:56Z</time>
      </trkpt>
      <trkpt lat="43.15531" lon="2.39231">
        <ele>372.17</ele>
        <time>2013-06-23T09:14:57Z</time>
      </trkpt>
      <trkpt lat="43.15538" lon="2.39219">
        <ele>369.76</ele>
        <time>2013-06-23T09:15:00Z</time>
      </trkpt>
      <trkpt lat="43.1554" lon="2.39215">
        <ele>368.8</ele>
        <time>2013-06-23T09:15:01Z</time>
      </trkpt>
      <trkpt lat="43.15542" lon="2.39212">
        <ele>367.84</ele>
        <time>2013-06-23T09:15:02Z</time>
      </trkpt>
      <trkpt lat="43.15544" lon="2.3921">
        <ele>366.88</ele>
        <time>2013-06-23T09:15:03Z</time>
      </trkpt>
      <trkpt lat="43.15546" lon="2.39207">
        <ele>365.92</ele>
        <time>2013-06-23T09:15:04Z</time>
      </trkpt>
      <trkpt lat="43.15547" lon="2.39205">
        <ele>365.44</ele>
        <time>2013-06-23T09:15:05Z</time>
      </trkpt>
      <trkpt lat="43.15549" lon="2.39202">
        <ele>364</ele>
        <time>2013-06-23T09:15:06Z</time>
      </trkpt>
      <trkpt lat="43.15552" lon="2.39197">
        <ele>362.55</ele>
        <time>2013-06-23T09:15:07Z</time>
      </trkpt>
      <trkpt lat="43.15555" lon="2.39189">
        <ele>360.63</ele>
        <time>2013-06-23T09:15:08Z</time>
      </trkpt>
      <trkpt lat="43.15559" lon="2.39181">
        <ele>359.19</ele>
        <time>2013-06-23T09:15:09Z</time>
      </trkpt>
      <trkpt lat="43.15563" lon="2.39172">
        <ele>357.75</ele>
        <time>2013-06-23T09:15:10Z</time>
      </trkpt>
      <trkpt lat="43.15568" lon="2.39162">
        <ele>356.79</ele>
        <time>2013-06-23T09:15:11Z</time>
      </trkpt>
      <trkpt lat="43.15572" lon="2.39154">
        <ele>355.83</ele>
        <time>2013-06-23T09:15:12Z</time>
      </trkpt>
      <trkpt lat="43.15575" lon="2.39149">
        <ele>354.86</ele>
        <time>2013-06-23T09:15:13Z</time>
      </trkpt>
      <trkpt lat="43.15578" lon="2.39146">
        <ele>354.38</ele>
        <time>2013-06-23T09:15:14Z</time>
      </trkpt>
      <trkpt lat="43.15582" lon="2.39143">
        <ele>354.38</ele>
        <time>2013-06-23T09:15:15Z</time>
      </trkpt>
      <trkpt lat="43.15585" lon="2.3914">
        <ele>353.9</ele>
        <time>2013-06-23T09:15:16Z</time>
      </trkpt>
      <trkpt lat="43.156" lon="2.39125">
        <ele>353.9</ele>
        <time>2013-06-23T09:15:20Z</time>
      </trkpt>
      <trkpt lat="43.15604" lon="2.39121">
        <ele>353.9</ele>
        <time>2013-06-23T09:15:21Z</time>
      </trkpt>
      <trkpt lat="43.15633" lon="2.39073">
        <ele>357.27</ele>
        <time>2013-06-23T09:15:35Z</time>
      </trkpt>
      <trkpt lat="43.15654" lon="2.39043">
        <ele>364.48</ele>
        <time>2013-06-23T09:15:47Z</time>
      </trkpt>
      <trkpt lat="43.15678" lon="2.39012">
        <ele>362.07</ele>
        <time>2013-06-23T09:15:54Z</time>
      </trkpt>
      <trkpt lat="43.15682" lon="2.39005">
        <ele>361.11</ele>
        <time>2013-06-23T09:15:55Z</time>
      </trkpt>
      <trkpt lat="43.15687" lon="2.38998">
        <ele>360.63</ele>
        <time>2013-06-23T09:15:56Z</time>
      </trkpt>
      <trkpt lat="43.15691" lon="2.3899">
        <ele>360.15</ele>
        <time>2013-06-23T09:15:57Z</time>
      </trkpt>
      <trkpt lat="43.15696" lon="2.38983">
        <ele>359.19</ele>
        <time>2013-06-23T09:15:58Z</time>
      </trkpt>
      <trkpt lat="43.157" lon="2.38976">
        <ele>358.71</ele>
        <time>2013-06-23T09:15:59Z</time>
      </trkpt>
      <trkpt lat="43.15727" lon="2.38933">
        <ele>359.67</ele>
        <time>2013-06-23T09:16:07Z</time>
      </trkpt>
      <trkpt lat="43.15737" lon="2.38915">
        <ele>365.44</ele>
        <time>2013-06-23T09:16:19Z</time>
      </trkpt>
      <trkpt lat="43.15742" lon="2.38909">
        <ele>368.32</ele>
        <time>2013-06-23T09:16:31Z</time>
      </trkpt>
      <trkpt lat="43.15745" lon="2.38909">
        <ele>370.24</ele>
        <time>2013-06-23T09:16:41Z</time>
      </trkpt>
      <trkpt lat="43.15746" lon="2.38908">
        <ele>369.76</ele>
        <time>2013-06-23T09:16:53Z</time>
      </trkpt>
      <trkpt lat="43.1575" lon="2.38899">
        <ele>370.24</ele>
        <time>2013-06-23T09:17:07Z</time>
      </trkpt>
      <trkpt lat="43.15751" lon="2.38898">
        <ele>370.24</ele>
        <time>2013-06-23T09:17:08Z</time>
      </trkpt>
      <trkpt lat="43.15753" lon="2.38892">
        <ele>370.24</ele>
        <time>2013-06-23T09:17:19Z</time>
      </trkpt>
      <trkpt lat="43.15755" lon="2.38882">
        <ele>369.28</ele>
        <time>2013-06-23T09:17:29Z</time>
      </trkpt>
      <trkpt lat="43.15755" lon="2.3888">
        <ele>368.8</ele>
        <time>2013-06-23T09:17:30Z</time>
      </trkpt>
      <trkpt lat="43.15754" lon="2.38877">
        <ele>368.32</ele>
        <time>2013-06-23T09:17:31Z</time>
      </trkpt>
      <trkpt lat="43.15752" lon="2.38868">
        <ele>366.4</ele>
        <time>2013-06-23T09:17:34Z</time>
      </trkpt>
      <trkpt lat="43.15751" lon="2.38865">
        <ele>365.44</ele>
        <time>2013-06-23T09:17:35Z</time>
      </trkpt>
      <trkpt lat="43.1575" lon="2.38863">
        <ele>364.96</ele>
        <time>2013-06-23T09:17:36Z</time>
      </trkpt>
      <trkpt lat="43.15743" lon="2.38851">
        <ele>360.15</ele>
        <time>2013-06-23T09:17:41Z</time>
      </trkpt>
      <trkpt lat="43.15744" lon="2.38847">
        <ele>359.67</ele>
        <time>2013-06-23T09:17:42Z</time>
      </trkpt>
      <trkpt lat="43.15746" lon="2.38843">
        <ele>358.71</ele>
        <time>2013-06-23T09:17:43Z</time>
      </trkpt>
      <trkpt lat="43.15747" lon="2.38839">
        <ele>358.23</ele>
        <time>2013-06-23T09:17:44Z</time>
      </trkpt>
      <trkpt lat="43.15749" lon="2.38835">
        <ele>357.75</ele>
        <time>2013-06-23T09:17:45Z</time>
      </trkpt>
      <trkpt lat="43.15751" lon="2.38831">
        <ele>356.79</ele>
        <time>2013-06-23T09:17:46Z</time>
      </trkpt>
      <trkpt lat="43.15753" lon="2.38825">
        <ele>356.31</ele>
        <time>2013-06-23T09:17:47Z</time>
      </trkpt>
      <trkpt lat="43.15756" lon="2.38821">
        <ele>355.83</ele>
        <time>2013-06-23T09:17:48Z</time>
      </trkpt>
      <trkpt lat="43.15759" lon="2.38817">
        <ele>355.34</ele>
        <time>2013-06-23T09:17:49Z</time>
      </trkpt>
      <trkpt lat="43.15762" lon="2.38814">
        <ele>354.86</ele>
        <time>2013-06-23T09:17:50Z</time>
      </trkpt>
      <trkpt lat="43.15765" lon="2.3881">
        <ele>354.38</ele>
        <time>2013-06-23T09:17:51Z</time>
      </trkpt>
      <trkpt lat="43.15768" lon="2.38807">
        <ele>353.9</ele>
        <time>2013-06-23T09:17:52Z</time>
      </trkpt>
      <trkpt lat="43.15771" lon="2.38804">
        <ele>353.42</ele>
        <time>2013-06-23T09:17:53Z</time>
      </trkpt>
      <trkpt lat="43.15774" lon="2.388">
        <ele>352.94</ele>
        <time>2013-06-23T09:17:54Z</time>
      </trkpt>
      <trkpt lat="43.15777" lon="2.38795">
        <ele>352.46</ele>
        <time>2013-06-23T09:17:55Z</time>
      </trkpt>
      <trkpt lat="43.1578" lon="2.38791">
        <ele>351.5</ele>
        <time>2013-06-23T09:17:56Z</time>
      </trkpt>
      <trkpt lat="43.15783" lon="2.38788">
        <ele>351.02</ele>
        <time>2013-06-23T09:17:57Z</time>
      </trkpt>
      <trkpt lat="43.15785" lon="2.38785">
        <ele>350.54</ele>
        <time>2013-06-23T09:17:58Z</time>
      </trkpt>
      <trkpt lat="43.15786" lon="2.38782">
        <ele>350.06</ele>
        <time>2013-06-23T09:17:59Z</time>
      </trkpt>
      <trkpt lat="43.15788" lon="2.38778">
        <ele>349.58</ele>
        <time>2013-06-23T09:18:00Z</time>
      </trkpt>
      <trkpt lat="43.1579" lon="2.38774">
        <ele>348.62</ele>
        <time>2013-06-23T09:18:01Z</time>
      </trkpt>
      <trkpt lat="43.15792" lon="2.3877">
        <ele>347.65</ele>
        <time>2013-06-23T09:18:02Z</time>
      </trkpt>
      <trkpt lat="43.15797" lon="2.3876">
        <ele>345.73</ele>
        <time>2013-06-23T09:18:04Z</time>
      </trkpt>
      <trkpt lat="43.15799" lon="2.38754">
        <ele>345.25</ele>
        <time>2013-06-23T09:18:05Z</time>
      </trkpt>
      <trkpt lat="43.15802" lon="2.38747">
        <ele>344.29</ele>
        <time>2013-06-23T09:18:06Z</time>
      </trkpt>
      <trkpt lat="43.15804" lon="2.38741">
        <ele>343.81</ele>
        <time>2013-06-23T09:18:07Z</time>
      </trkpt>
      <trkpt lat="43.15806" lon="2.38736">
        <ele>342.85</ele>
        <time>2013-06-23T09:18:08Z</time>
      </trkpt>
      <trkpt lat="43.15808" lon="2.38731">
        <ele>342.37</ele>
        <time>2013-06-23T09:18:09Z</time>
      </trkpt>
      <trkpt lat="43.15811" lon="2.38727">
        <ele>341.89</ele>
        <time>2013-06-23T09:18:10Z</time>
      </trkpt>
      <trkpt lat="43.15813" lon="2.38722">
        <ele>340.92</ele>
        <time>2013-06-23T09:18:11Z</time>
      </trkpt>
      <trkpt lat="43.15816" lon="2.38717">
        <ele>340.44</ele>
        <time>2013-06-23T09:18:12Z</time>
      </trkpt>
      <trkpt lat="43.15819" lon="2.3871">
        <ele>339.48</ele>
        <time>2013-06-23T09:18:13Z</time>
      </trkpt>
      <trkpt lat="43.15821" lon="2.38703">
        <ele>338.52</ele>
        <time>2013-06-23T09:18:14Z</time>
      </trkpt>
      <trkpt lat="43.15822" lon="2.38697">
        <ele>338.04</ele>
        <time>2013-06-23T09:18:15Z</time>
      </trkpt>
      <trkpt lat="43.15823" lon="2.38692">
        <ele>337.08</ele>
        <time>2013-06-23T09:18:16Z</time>
      </trkpt>
      <trkpt lat="43.15825" lon="2.38688">
        <ele>336.6</ele>
        <time>2013-06-23T09:18:17Z</time>
      </trkpt>
      <trkpt lat="43.15827" lon="2.38685">
        <ele>336.6</ele>
        <time>2013-06-23T09:18:18Z</time>
      </trkpt>
      <trkpt lat="43.1583" lon="2.38681">
        <ele>336.12</ele>
        <time>2013-06-23T09:18:19Z</time>
      </trkpt>
      <trkpt lat="43.15835" lon="2.38673">
        <ele>335.64</ele>
        <time>2013-06-23T09:18:21Z</time>
      </trkpt>
      <trkpt lat="43.15837" lon="2.38669">
        <ele>335.16</ele>
        <time>2013-06-23T09:18:22Z</time>
      </trkpt>
      <trkpt lat="43.15847" lon="2.38652">
        <ele>335.64</ele>
        <time>2013-06-23T09:18:28Z</time>
      </trkpt>
      <trkpt lat="43.15848" lon="2.38649">
        <ele>335.64</ele>
        <time>2013-06-23T09:18:29Z</time>
      </trkpt>
      <trkpt lat="43.15848" lon="2.38644">
        <ele>335.16</ele>
        <time>2013-06-23T09:18:30Z</time>
      </trkpt>
      <trkpt lat="43.15847" lon="2.38639">
        <ele>335.16</ele>
        <time>2013-06-23T09:18:31Z</time>
      </trkpt>
      <trkpt lat="43.15846" lon="2.38634">
        <ele>334.68</ele>
        <time>2013-06-23T09:18:32Z</time>
      </trkpt>
      <trkpt lat="43.15841" lon="2.3861">
        <ele>330.83</ele>
        <time>2013-06-23T09:18:38Z</time>
      </trkpt>
      <trkpt lat="43.15841" lon="2.38564">
        <ele>326.02</ele>
        <time>2013-06-23T09:18:44Z</time>
      </trkpt>
      <trkpt lat="43.15842" lon="2.38557">
        <ele>325.54</ele>
        <time>2013-06-23T09:18:45Z</time>
      </trkpt>
      <trkpt lat="43.15842" lon="2.3855">
        <ele>325.06</ele>
        <time>2013-06-23T09:18:46Z</time>
      </trkpt>
      <trkpt lat="43.15842" lon="2.38544">
        <ele>324.58</ele>
        <time>2013-06-23T09:18:47Z</time>
      </trkpt>
      <trkpt lat="43.15842" lon="2.38538">
        <ele>324.1</ele>
        <time>2013-06-23T09:18:48Z</time>
      </trkpt>
      <trkpt lat="43.15842" lon="2.38532">
        <ele>323.62</ele>
        <time>2013-06-23T09:18:49Z</time>
      </trkpt>
      <trkpt lat="43.15842" lon="2.38526">
        <ele>323.14</ele>
        <time>2013-06-23T09:18:50Z</time>
      </trkpt>
      <trkpt lat="43.15841" lon="2.38519">
        <ele>322.18</ele>
        <time>2013-06-23T09:18:51Z</time>
      </trkpt>
      <trkpt lat="43.15842" lon="2.38502">
        <ele>320.74</ele>
        <time>2013-06-23T09:18:53Z</time>
      </trkpt>
      <trkpt lat="43.15839" lon="2.38467">
        <ele>317.85</ele>
        <time>2013-06-23T09:18:57Z</time>
      </trkpt>
      <trkpt lat="43.15839" lon="2.38437">
        <ele>314.49</ele>
        <time>2013-06-23T09:19:02Z</time>
      </trkpt>
      <trkpt lat="43.1584" lon="2.38425">
        <ele>312.57</ele>
        <time>2013-06-23T09:19:07Z</time>
      </trkpt>
      <trkpt lat="43.1584" lon="2.38407">
        <ele>308.72</ele>
        <time>2013-06-23T09:19:13Z</time>
      </trkpt>
      <trkpt lat="43.15845" lon="2.38382">
        <ele>301.99</ele>
        <time>2013-06-23T09:19:19Z</time>
      </trkpt>
      <trkpt lat="43.15849" lon="2.38344">
        <ele>295.74</ele>
        <time>2013-06-23T09:19:25Z</time>
      </trkpt>
      <trkpt lat="43.15857" lon="2.38317">
        <ele>288.05</ele>
        <time>2013-06-23T09:19:33Z</time>
      </trkpt>
      <trkpt lat="43.15857" lon="2.38314">
        <ele>287.09</ele>
        <time>2013-06-23T09:19:40Z</time>
      </trkpt>
      <trkpt lat="43.15862" lon="2.38297">
        <ele>284.21</ele>
        <time>2013-06-23T09:19:46Z</time>
      </trkpt>
      <trkpt lat="43.15864" lon="2.38283">
        <ele>280.84</ele>
        <time>2013-06-23T09:19:52Z</time>
      </trkpt>
      <trkpt lat="43.15862" lon="2.38282">
        <ele>279.4</ele>
        <time>2013-06-23T09:19:54Z</time>
      </trkpt>
      <trkpt lat="43.15854" lon="2.38286">
        <ele>276.52</ele>
        <time>2013-06-23T09:19:58Z</time>
      </trkpt>
      <trkpt lat="43.15832" lon="2.3829">
        <ele>271.23</ele>
        <time>2013-06-23T09:20:03Z</time>
      </trkpt>
      <trkpt lat="43.15808" lon="2.38295">
        <ele>266.9</ele>
        <time>2013-06-23T09:20:11Z</time>
      </trkpt>
      <trkpt lat="43.158" lon="2.38297">
        <ele>264.98</ele>
        <time>2013-06-23T09:20:16Z</time>
      </trkpt>
      <trkpt lat="43.15789" lon="2.38297">
        <ele>263.06</ele>
        <time>2013-06-23T09:20:21Z</time>
      </trkpt>
      <trkpt lat="43.15768" lon="2.38282">
        <ele>253.93</ele>
        <time>2013-06-23T09:20:28Z</time>
      </trkpt>
      <trkpt lat="43.15772" lon="2.38257">
        <ele>249.6</ele>
        <time>2013-06-23T09:20:33Z</time>
      </trkpt>
      <trkpt lat="43.15772" lon="2.38228">
        <ele>244.31</ele>
        <time>2013-06-23T09:20:40Z</time>
      </trkpt>
      <trkpt lat="43.15774" lon="2.38217">
        <ele>242.39</ele>
        <time>2013-06-23T09:20:42Z</time>
      </trkpt>
      <trkpt lat="43.15791" lon="2.38184">
        <ele>236.14</ele>
        <time>2013-06-23T09:20:49Z</time>
      </trkpt>
      <trkpt lat="43.15798" lon="2.38175">
        <ele>235.66</ele>
        <time>2013-06-23T09:20:51Z</time>
      </trkpt>
      <trkpt lat="43.15812" lon="2.3816">
        <ele>235.18</ele>
        <time>2013-06-23T09:20:54Z</time>
      </trkpt>
      <trkpt lat="43.15836" lon="2.38135">
        <ele>234.22</ele>
        <time>2013-06-23T09:20:59Z</time>
      </trkpt>
      <trkpt lat="43.15854" lon="2.38118">
        <ele>232.78</ele>
        <time>2013-06-23T09:21:03Z</time>
      </trkpt>
      <trkpt lat="43.15858" lon="2.38114">
        <ele>232.78</ele>
        <time>2013-06-23T09:21:04Z</time>
      </trkpt>
      <trkpt lat="43.15862" lon="2.38109">
        <ele>231.81</ele>
        <time>2013-06-23T09:21:06Z</time>
      </trkpt>
      <trkpt lat="43.15863" lon="2.38107">
        <ele>231.33</ele>
        <time>2013-06-23T09:21:07Z</time>
      </trkpt>
      <trkpt lat="43.15864" lon="2.38095">
        <ele>229.41</ele>
        <time>2013-06-23T09:21:11Z</time>
      </trkpt>
      <trkpt lat="43.15866" lon="2.3809">
        <ele>228.93</ele>
        <time>2013-06-23T09:21:12Z</time>
      </trkpt>
      <trkpt lat="43.15868" lon="2.38086">
        <ele>228.93</ele>
        <time>2013-06-23T09:21:13Z</time>
      </trkpt>
      <trkpt lat="43.15871" lon="2.38083">
        <ele>228.45</ele>
        <time>2013-06-23T09:21:14Z</time>
      </trkpt>
      <trkpt lat="43.15873" lon="2.38081">
        <ele>228.45</ele>
        <time>2013-06-23T09:21:15Z</time>
      </trkpt>
      <trkpt lat="43.15877" lon="2.38079">
        <ele>228.45</ele>
        <time>2013-06-23T09:21:16Z</time>
      </trkpt>
      <trkpt lat="43.1588" lon="2.38078">
        <ele>227.97</ele>
        <time>2013-06-23T09:21:17Z</time>
      </trkpt>
      <trkpt lat="43.15884" lon="2.38076">
        <ele>227.49</ele>
        <time>2013-06-23T09:21:18Z</time>
      </trkpt>
      <trkpt lat="43.15888" lon="2.38076">
        <ele>227.01</ele>
        <time>2013-06-23T09:21:19Z</time>
      </trkpt>
      <trkpt lat="43.15893" lon="2.38076">
        <ele>227.01</ele>
        <time>2013-06-23T09:21:20Z</time>
      </trkpt>
      <trkpt lat="43.15897" lon="2.38076">
        <ele>227.01</ele>
        <time>2013-06-23T09:21:21Z</time>
      </trkpt>
      <trkpt lat="43.15901" lon="2.38077">
        <ele>226.53</ele>
        <time>2013-06-23T09:21:22Z</time>
      </trkpt>
      <trkpt lat="43.15904" lon="2.38077">
        <ele>227.01</ele>
        <time>2013-06-23T09:21:23Z</time>
      </trkpt>
      <trkpt lat="43.15908" lon="2.38077">
        <ele>227.01</ele>
        <time>2013-06-23T09:21:24Z</time>
      </trkpt>
      <trkpt lat="43.15912" lon="2.38075">
        <ele>227.49</ele>
        <time>2013-06-23T09:21:25Z</time>
      </trkpt>
      <trkpt lat="43.15917" lon="2.38075">
        <ele>227.49</ele>
        <time>2013-06-23T09:21:26Z</time>
      </trkpt>
      <trkpt lat="43.15921" lon="2.38075">
        <ele>227.97</ele>
        <time>2013-06-23T09:21:27Z</time>
      </trkpt>
      <trkpt lat="43.15926" lon="2.38078">
        <ele>227.97</ele>
        <time>2013-06-23T09:21:28Z</time>
      </trkpt>
      <trkpt lat="43.15929" lon="2.38082">
        <ele>227.49</ele>
        <time>2013-06-23T09:21:29Z</time>
      </trkpt>
      <trkpt lat="43.15933" lon="2.38085">
        <ele>227.49</ele>
        <time>2013-06-23T09:21:30Z</time>
      </trkpt>
      <trkpt lat="43.15935" lon="2.38088">
        <ele>227.01</ele>
        <time>2013-06-23T09:21:31Z</time>
      </trkpt>
      <trkpt lat="43.15937" lon="2.38089">
        <ele>227.01</ele>
        <time>2013-06-23T09:21:32Z</time>
      </trkpt>
      <trkpt lat="43.15971" lon="2.38086">
        <ele>225.57</ele>
        <time>2013-06-23T09:21:40Z</time>
      </trkpt>
      <trkpt lat="43.15974" lon="2.38087">
        <ele>225.57</ele>
        <time>2013-06-23T09:21:41Z</time>
      </trkpt>
      <trkpt lat="43.15978" lon="2.38087">
        <ele>226.53</ele>
        <time>2013-06-23T09:21:43Z</time>
      </trkpt>
      <trkpt lat="43.15979" lon="2.38089">
        <ele>227.01</ele>
        <time>2013-06-23T09:21:44Z</time>
      </trkpt>
      <trkpt lat="43.15979" lon="2.38092">
        <ele>227.49</ele>
        <time>2013-06-23T09:21:45Z</time>
      </trkpt>
      <trkpt lat="43.15982" lon="2.38098">
        <ele>227.49</ele>
        <time>2013-06-23T09:21:46Z</time>
      </trkpt>
      <trkpt lat="43.15985" lon="2.38103">
        <ele>227.01</ele>
        <time>2013-06-23T09:21:47Z</time>
      </trkpt>
      <trkpt lat="43.15988" lon="2.38109">
        <ele>226.53</ele>
        <time>2013-06-23T09:21:48Z</time>
      </trkpt>
      <trkpt lat="43.15991" lon="2.38116">
        <ele>226.05</ele>
        <time>2013-06-23T09:21:49Z</time>
      </trkpt>
      <trkpt lat="43.16003" lon="2.38145">
        <ele>224.61</ele>
        <time>2013-06-23T09:21:55Z</time>
      </trkpt>
      <trkpt lat="43.16005" lon="2.38147">
        <ele>224.61</ele>
        <time>2013-06-23T09:21:56Z</time>
      </trkpt>
      <trkpt lat="43.16008" lon="2.3815">
        <ele>224.61</ele>
        <time>2013-06-23T09:21:57Z</time>
      </trkpt>
      <trkpt lat="43.1601" lon="2.38153">
        <ele>224.12</ele>
        <time>2013-06-23T09:21:58Z</time>
      </trkpt>
      <trkpt lat="43.16013" lon="2.38157">
        <ele>224.12</ele>
        <time>2013-06-23T09:21:59Z</time>
      </trkpt>
      <trkpt lat="43.16016" lon="2.38162">
        <ele>224.12</ele>
        <time>2013-06-23T09:22:00Z</time>
      </trkpt>
      <trkpt lat="43.16019" lon="2.38167">
        <ele>224.12</ele>
        <time>2013-06-23T09:22:01Z</time>
      </trkpt>
      <trkpt lat="43.16024" lon="2.38171">
        <ele>223.64</ele>
        <time>2013-06-23T09:22:02Z</time>
      </trkpt>
      <trkpt lat="43.16028" lon="2.38173">
        <ele>223.64</ele>
        <time>2013-06-23T09:22:03Z</time>
      </trkpt>
      <trkpt lat="43.16036" lon="2.38177">
        <ele>223.64</ele>
        <time>2013-06-23T09:22:05Z</time>
      </trkpt>
      <trkpt lat="43.16039" lon="2.38177">
        <ele>224.12</ele>
        <time>2013-06-23T09:22:06Z</time>
      </trkpt>
      <trkpt lat="43.16042" lon="2.38177">
        <ele>224.61</ele>
        <time>2013-06-23T09:22:07Z</time>
      </trkpt>
      <trkpt lat="43.16046" lon="2.38177">
        <ele>224.61</ele>
        <time>2013-06-23T09:22:08Z</time>
      </trkpt>
      <trkpt lat="43.16049" lon="2.38178">
        <ele>225.09</ele>
        <time>2013-06-23T09:22:09Z</time>
      </trkpt>
      <trkpt lat="43.16052" lon="2.38181">
        <ele>225.09</ele>
        <time>2013-06-23T09:22:10Z</time>
      </trkpt>
      <trkpt lat="43.16055" lon="2.38186">
        <ele>225.09</ele>
        <time>2013-06-23T09:22:11Z</time>
      </trkpt>
      <trkpt lat="43.1606" lon="2.3819">
        <ele>225.57</ele>
        <time>2013-06-23T09:22:12Z</time>
      </trkpt>
      <trkpt lat="43.16064" lon="2.38194">
        <ele>225.57</ele>
        <time>2013-06-23T09:22:13Z</time>
      </trkpt>
      <trkpt lat="43.16068" lon="2.38197">
        <ele>225.57</ele>
        <time>2013-06-23T09:22:14Z</time>
      </trkpt>
      <trkpt lat="43.16072" lon="2.382">
        <ele>225.57</ele>
        <time>2013-06-23T09:22:15Z</time>
      </trkpt>
      <trkpt lat="43.16077" lon="2.38202">
        <ele>225.57</ele>
        <time>2013-06-23T09:22:16Z</time>
      </trkpt>
      <trkpt lat="43.16082" lon="2.38201">
        <ele>225.57</ele>
        <time>2013-06-23T09:22:17Z</time>
      </trkpt>
      <trkpt lat="43.16087" lon="2.382">
        <ele>225.57</ele>
        <time>2013-06-23T09:22:18Z</time>
      </trkpt>
      <trkpt lat="43.16092" lon="2.38199">
        <ele>225.57</ele>
        <time>2013-06-23T09:22:19Z</time>
      </trkpt>
      <trkpt lat="43.16096" lon="2.382">
        <ele>225.57</ele>
        <time>2013-06-23T09:22:20Z</time>
      </trkpt>
      <trkpt lat="43.16101" lon="2.38201">
        <ele>225.09</ele>
        <time>2013-06-23T09:22:21Z</time>
      </trkpt>
      <trkpt lat="43.16105" lon="2.38202">
        <ele>225.09</ele>
        <time>2013-06-23T09:22:22Z</time>
      </trkpt>
      <trkpt lat="43.16109" lon="2.38203">
        <ele>225.09</ele>
        <time>2013-06-23T09:22:23Z</time>
      </trkpt>
      <trkpt lat="43.16113" lon="2.38204">
        <ele>225.09</ele>
        <time>2013-06-23T09:22:24Z</time>
      </trkpt>
      <trkpt lat="43.1612" lon="2.38205">
        <ele>225.57</ele>
        <time>2013-06-23T09:22:26Z</time>
      </trkpt>
      <trkpt lat="43.16137" lon="2.38213">
        <ele>227.01</ele>
        <time>2013-06-23T09:22:32Z</time>
      </trkpt>
      <trkpt lat="43.16169" lon="2.38195">
        <ele>228.45</ele>
        <time>2013-06-23T09:22:43Z</time>
      </trkpt>
      <trkpt lat="43.16187" lon="2.38171">
        <ele>230.85</ele>
        <time>2013-06-23T09:22:51Z</time>
      </trkpt>
      <trkpt lat="43.16203" lon="2.38158">
        <ele>231.33</ele>
        <time>2013-06-23T09:22:55Z</time>
      </trkpt>
      <trkpt lat="43.16219" lon="2.38143">
        <ele>230.85</ele>
        <time>2013-06-23T09:22:58Z</time>
      </trkpt>
      <trkpt lat="43.16238" lon="2.38135">
        <ele>229.41</ele>
        <time>2013-06-23T09:23:01Z</time>
      </trkpt>
      <trkpt lat="43.16248" lon="2.38127">
        <ele>227.49</ele>
        <time>2013-06-23T09:23:03Z</time>
      </trkpt>
      <trkpt lat="43.16262" lon="2.3808">
        <ele>221.24</ele>
        <time>2013-06-23T09:23:10Z</time>
      </trkpt>
      <trkpt lat="43.16287" lon="2.3806">
        <ele>216.91</ele>
        <time>2013-06-23T09:23:15Z</time>
      </trkpt>
      <trkpt lat="43.16305" lon="2.3806">
        <ele>214.51</ele>
        <time>2013-06-23T09:23:19Z</time>
      </trkpt>
      <trkpt lat="43.16313" lon="2.38067">
        <ele>213.07</ele>
        <time>2013-06-23T09:23:21Z</time>
      </trkpt>
      <trkpt lat="43.16329" lon="2.38052">
        <ele>210.67</ele>
        <time>2013-06-23T09:23:27Z</time>
      </trkpt>
      <trkpt lat="43.16336" lon="2.38032">
        <ele>210.67</ele>
        <time>2013-06-23T09:23:31Z</time>
      </trkpt>
      <trkpt lat="43.16344" lon="2.3802">
        <ele>211.15</ele>
        <time>2013-06-23T09:23:34Z</time>
      </trkpt>
      <trkpt lat="43.16362" lon="2.38019">
        <ele>210.67</ele>
        <time>2013-06-23T09:23:39Z</time>
      </trkpt>
      <trkpt lat="43.16396" lon="2.38038">
        <ele>208.26</ele>
        <time>2013-06-23T09:23:47Z</time>
      </trkpt>
      <trkpt lat="43.16412" lon="2.38054">
        <ele>204.42</ele>
        <time>2013-06-23T09:23:53Z</time>
      </trkpt>
      <trkpt lat="43.16433" lon="2.38056">
        <ele>201.53</ele>
        <time>2013-06-23T09:24:00Z</time>
      </trkpt>
      <trkpt lat="43.16438" lon="2.38044">
        <ele>201.53</ele>
        <time>2013-06-23T09:24:02Z</time>
      </trkpt>
      <trkpt lat="43.16451" lon="2.3802">
        <ele>200.57</ele>
        <time>2013-06-23T09:24:09Z</time>
      </trkpt>
      <trkpt lat="43.1646" lon="2.37996">
        <ele>199.61</ele>
        <time>2013-06-23T09:24:16Z</time>
      </trkpt>
      <trkpt lat="43.16462" lon="2.37981">
        <ele>199.61</ele>
        <time>2013-06-23T09:24:19Z</time>
      </trkpt>
      <trkpt lat="43.16473" lon="2.37962">
        <ele>201.05</ele>
        <time>2013-06-23T09:24:24Z</time>
      </trkpt>
      <trkpt lat="43.16477" lon="2.37949">
        <ele>201.53</ele>
        <time>2013-06-23T09:24:27Z</time>
      </trkpt>
      <trkpt lat="43.16495" lon="2.37912">
        <ele>203.46</ele>
        <time>2013-06-23T09:24:34Z</time>
      </trkpt>
      <trkpt lat="43.16509" lon="2.37907">
        <ele>206.34</ele>
        <time>2013-06-23T09:24:39Z</time>
      </trkpt>
      <trkpt lat="43.1652" lon="2.37915">
        <ele>205.38</ele>
        <time>2013-06-23T09:24:43Z</time>
      </trkpt>
      <trkpt lat="43.16542" lon="2.37913">
        <ele>204.42</ele>
        <time>2013-06-23T09:24:49Z</time>
      </trkpt>
      <trkpt lat="43.16559" lon="2.37907">
        <ele>201.53</ele>
        <time>2013-06-23T09:24:55Z</time>
      </trkpt>
      <trkpt lat="43.16558" lon="2.37921">
        <ele>199.61</ele>
        <time>2013-06-23T09:24:58Z</time>
      </trkpt>
      <trkpt lat="43.1656" lon="2.37939">
        <ele>197.21</ele>
        <time>2013-06-23T09:25:01Z</time>
      </trkpt>
      <trkpt lat="43.16573" lon="2.37947">
        <ele>195.28</ele>
        <time>2013-06-23T09:25:05Z</time>
      </trkpt>
      <trkpt lat="43.16577" lon="2.37945">
        <ele>195.28</ele>
        <time>2013-06-23T09:25:06Z</time>
      </trkpt>
      <trkpt lat="43.16582" lon="2.37944">
        <ele>194.8</ele>
        <time>2013-06-23T09:25:07Z</time>
      </trkpt>
      <trkpt lat="43.16587" lon="2.37944">
        <ele>194.8</ele>
        <time>2013-06-23T09:25:08Z</time>
      </trkpt>
      <trkpt lat="43.16592" lon="2.37944">
        <ele>194.8</ele>
        <time>2013-06-23T09:25:09Z</time>
      </trkpt>
      <trkpt lat="43.16596" lon="2.37944">
        <ele>194.8</ele>
        <time>2013-06-23T09:25:10Z</time>
      </trkpt>
      <trkpt lat="43.166" lon="2.37944">
        <ele>194.8</ele>
        <time>2013-06-23T09:25:11Z</time>
      </trkpt>
      <trkpt lat="43.16659" lon="2.37943">
        <ele>197.69</ele>
        <time>2013-06-23T09:25:25Z</time>
      </trkpt>
      <trkpt lat="43.16708" lon="2.3794">
        <ele>201.05</ele>
        <time>2013-06-23T09:25:39Z</time>
      </trkpt>
      <trkpt lat="43.16718" lon="2.37946">
        <ele>201.05</ele>
        <time>2013-06-23T09:25:43Z</time>
      </trkpt>
      <trkpt lat="43.16721" lon="2.37953">
        <ele>199.61</ele>
        <time>2013-06-23T09:25:45Z</time>
      </trkpt>
      <trkpt lat="43.16722" lon="2.37958">
        <ele>198.65</ele>
        <time>2013-06-23T09:25:46Z</time>
      </trkpt>
      <trkpt lat="43.16723" lon="2.37965">
        <ele>198.17</ele>
        <time>2013-06-23T09:25:47Z</time>
      </trkpt>
      <trkpt lat="43.16749" lon="2.38059">
        <ele>190.48</ele>
        <time>2013-06-23T09:25:58Z</time>
      </trkpt>
      <trkpt lat="43.1677" lon="2.38163">
        <ele>184.71</ele>
        <time>2013-06-23T09:26:09Z</time>
      </trkpt>
      <trkpt lat="43.16772" lon="2.38171">
        <ele>184.71</ele>
        <time>2013-06-23T09:26:10Z</time>
      </trkpt>
      <trkpt lat="43.16776" lon="2.38187">
        <ele>185.19</ele>
        <time>2013-06-23T09:26:12Z</time>
      </trkpt>
      <trkpt lat="43.16779" lon="2.38195">
        <ele>185.67</ele>
        <time>2013-06-23T09:26:13Z</time>
      </trkpt>
      <trkpt lat="43.16783" lon="2.38202">
        <ele>185.67</ele>
        <time>2013-06-23T09:26:14Z</time>
      </trkpt>
      <trkpt lat="43.16787" lon="2.3821">
        <ele>186.15</ele>
        <time>2013-06-23T09:26:15Z</time>
      </trkpt>
      <trkpt lat="43.16791" lon="2.38218">
        <ele>186.15</ele>
        <time>2013-06-23T09:26:16Z</time>
      </trkpt>
      <trkpt lat="43.16794" lon="2.38227">
        <ele>186.15</ele>
        <time>2013-06-23T09:26:17Z</time>
      </trkpt>
      <trkpt lat="43.16842" lon="2.38326">
        <ele>186.15</ele>
        <time>2013-06-23T09:26:30Z</time>
      </trkpt>
      <trkpt lat="43.16846" lon="2.38333">
        <ele>185.67</ele>
        <time>2013-06-23T09:26:31Z</time>
      </trkpt>
      <trkpt lat="43.16851" lon="2.38338">
        <ele>185.67</ele>
        <time>2013-06-23T09:26:32Z</time>
      </trkpt>
      <trkpt lat="43.16857" lon="2.38341">
        <ele>185.67</ele>
        <time>2013-06-23T09:26:33Z</time>
      </trkpt>
      <trkpt lat="43.16862" lon="2.38343">
        <ele>185.19</ele>
        <time>2013-06-23T09:26:34Z</time>
      </trkpt>
      <trkpt lat="43.16868" lon="2.38346">
        <ele>185.19</ele>
        <time>2013-06-23T09:26:35Z</time>
      </trkpt>
      <trkpt lat="43.16933" lon="2.38366">
        <ele>185.19</ele>
        <time>2013-06-23T09:26:47Z</time>
      </trkpt>
      <trkpt lat="43.17006" lon="2.38384">
        <ele>185.67</ele>
        <time>2013-06-23T09:27:02Z</time>
      </trkpt>
      <trkpt lat="43.17046" lon="2.38395">
        <ele>182.79</ele>
        <time>2013-06-23T09:27:09Z</time>
      </trkpt>
      <trkpt lat="43.17053" lon="2.38398">
        <ele>181.83</ele>
        <time>2013-06-23T09:27:10Z</time>
      </trkpt>
      <trkpt lat="43.17065" lon="2.38405">
        <ele>180.38</ele>
        <time>2013-06-23T09:27:12Z</time>
      </trkpt>
      <trkpt lat="43.17069" lon="2.3841">
        <ele>179.9</ele>
        <time>2013-06-23T09:27:13Z</time>
      </trkpt>
      <trkpt lat="43.17072" lon="2.38417">
        <ele>178.94</ele>
        <time>2013-06-23T09:27:14Z</time>
      </trkpt>
      <trkpt lat="43.17073" lon="2.38426">
        <ele>178.46</ele>
        <time>2013-06-23T09:27:15Z</time>
      </trkpt>
      <trkpt lat="43.17074" lon="2.38436">
        <ele>177.98</ele>
        <time>2013-06-23T09:27:16Z</time>
      </trkpt>
      <trkpt lat="43.17083" lon="2.38524">
        <ele>171.25</ele>
        <time>2013-06-23T09:27:28Z</time>
      </trkpt>
      <trkpt lat="43.17084" lon="2.38526">
        <ele>170.77</ele>
        <time>2013-06-23T09:27:29Z</time>
      </trkpt>
      <trkpt lat="43.17084" lon="2.38528">
        <ele>170.29</ele>
        <time>2013-06-23T09:27:30Z</time>
      </trkpt>
      <trkpt lat="43.17083" lon="2.38556">
        <ele>168.85</ele>
        <time>2013-06-23T09:27:38Z</time>
      </trkpt>
      <trkpt lat="43.17081" lon="2.38557">
        <ele>168.85</ele>
        <time>2013-06-23T09:27:39Z</time>
      </trkpt>
      <trkpt lat="43.17078" lon="2.38557">
        <ele>169.33</ele>
        <time>2013-06-23T09:27:40Z</time>
      </trkpt>
      <trkpt lat="43.17074" lon="2.38556">
        <ele>169.33</ele>
        <time>2013-06-23T09:27:41Z</time>
      </trkpt>
      <trkpt lat="43.17071" lon="2.38555">
        <ele>169.33</ele>
        <time>2013-06-23T09:27:42Z</time>
      </trkpt>
      <trkpt lat="43.17058" lon="2.38551">
        <ele>170.29</ele>
        <time>2013-06-23T09:27:45Z</time>
      </trkpt>
      <trkpt lat="43.17049" lon="2.3855">
        <ele>170.77</ele>
        <time>2013-06-23T09:27:47Z</time>
      </trkpt>
      <trkpt lat="43.17032" lon="2.38548">
        <ele>172.21</ele>
        <time>2013-06-23T09:27:51Z</time>
      </trkpt>
      <trkpt lat="43.16996" lon="2.38554">
        <ele>175.1</ele>
        <time>2013-06-23T09:28:01Z</time>
      </trkpt>
      <trkpt lat="43.16963" lon="2.38572">
        <ele>180.38</ele>
        <time>2013-06-23T09:28:14Z</time>
      </trkpt>
      <trkpt lat="43.16931" lon="2.38591">
        <ele>186.15</ele>
        <time>2013-06-23T09:28:25Z</time>
      </trkpt>
      <trkpt lat="43.16912" lon="2.38596">
        <ele>184.23</ele>
        <time>2013-06-23T09:28:30Z</time>
      </trkpt>
      <trkpt lat="43.1691" lon="2.38598">
        <ele>184.23</ele>
        <time>2013-06-23T09:28:31Z</time>
      </trkpt>
      <trkpt lat="43.16907" lon="2.386">
        <ele>184.23</ele>
        <time>2013-06-23T09:28:32Z</time>
      </trkpt>
      <trkpt lat="43.16902" lon="2.38605">
        <ele>184.23</ele>
        <time>2013-06-23T09:28:34Z</time>
      </trkpt>
      <trkpt lat="43.16902" lon="2.38656">
        <ele>181.83</ele>
        <time>2013-06-23T09:28:45Z</time>
      </trkpt>
      <trkpt lat="43.16902" lon="2.3868">
        <ele>180.87</ele>
        <time>2013-06-23T09:28:50Z</time>
      </trkpt>
      <trkpt lat="43.16912" lon="2.3869">
        <ele>180.38</ele>
        <time>2013-06-23T09:28:54Z</time>
      </trkpt>
      <trkpt lat="43.16935" lon="2.38692">
        <ele>180.38</ele>
        <time>2013-06-23T09:29:01Z</time>
      </trkpt>
      <trkpt lat="43.16952" lon="2.38716">
        <ele>179.9</ele>
        <time>2013-06-23T09:29:10Z</time>
      </trkpt>
      <trkpt lat="43.16964" lon="2.38716">
        <ele>179.9</ele>
        <time>2013-06-23T09:29:15Z</time>
      </trkpt>
      <trkpt lat="43.16976" lon="2.38716">
        <ele>180.87</ele>
        <time>2013-06-23T09:29:21Z</time>
      </trkpt>
      <trkpt lat="43.16984" lon="2.38718">
        <ele>180.38</ele>
        <time>2013-06-23T09:29:34Z</time>
      </trkpt>
      <trkpt lat="43.16991" lon="2.38716">
        <ele>179.42</ele>
        <time>2013-06-23T09:29:46Z</time>
      </trkpt>
      <trkpt lat="43.16992" lon="2.38714">
        <ele>180.38</ele>
        <time>2013-06-23T09:30:03Z</time>
      </trkpt>
      <trkpt lat="43.16994" lon="2.38715">
        <ele>180.87</ele>
        <time>2013-06-23T09:30:16Z</time>
      </trkpt>
      <trkpt lat="43.16993" lon="2.38715">
        <ele>179.9</ele>
        <time>2013-06-23T09:30:35Z</time>
      </trkpt>
      <trkpt lat="43.16993" lon="2.38715">
        <ele>178.94</ele>
        <time>2013-06-23T09:31:02Z</time>
      </trkpt>
      <trkpt lat="43.16994" lon="2.38717">
        <ele>179.9</ele>
        <time>2013-06-23T09:31:28Z</time>
      </trkpt>
      <trkpt lat="43.16994" lon="2.38716">
        <ele>180.87</ele>
        <time>2013-06-23T09:32:02Z</time>
      </trkpt>
      <trkpt lat="43.16994" lon="2.38717">
        <ele>179.42</ele>
        <time>2013-06-23T09:32:27Z</time>
      </trkpt>
      <trkpt lat="43.16995" lon="2.38718">
        <ele>177.5</ele>
        <time>2013-06-23T09:32:49Z</time>
      </trkpt>
      <trkpt lat="43.16997" lon="2.38718">
        <ele>177.5</ele>
        <time>2013-06-23T09:33:16Z</time>
      </trkpt>
      <trkpt lat="43.16997" lon="2.38716">
        <ele>177.98</ele>
        <time>2013-06-23T09:33:47Z</time>
      </trkpt>
      <trkpt lat="43.16994" lon="2.38717">
        <ele>179.42</ele>
        <time>2013-06-23T09:34:19Z</time>
      </trkpt>
      <trkpt lat="43.16993" lon="2.38715">
        <ele>180.87</ele>
        <time>2013-06-23T09:34:45Z</time>
      </trkpt>
      <trkpt lat="43.16996" lon="2.38715">
        <ele>179.42</ele>
        <time>2013-06-23T09:35:15Z</time>
      </trkpt>
      <trkpt lat="43.16996" lon="2.38716">
        <ele>177.5</ele>
        <time>2013-06-23T09:35:44Z</time>
      </trkpt>
      <trkpt lat="43.16996" lon="2.38716">
        <ele>178.94</ele>
        <time>2013-06-23T09:36:06Z</time>
      </trkpt>
      <trkpt lat="43.16997" lon="2.38717">
        <ele>179.42</ele>
        <time>2013-06-23T09:36:21Z</time>
      </trkpt>
      <trkpt lat="43.16996" lon="2.38716">
        <ele>178.46</ele>
        <time>2013-06-23T09:36:45Z</time>
      </trkpt>
      <trkpt lat="43.16998" lon="2.38716">
        <ele>178.46</ele>
        <time>2013-06-23T09:37:02Z</time>
      </trkpt>
      <trkpt lat="43.17023" lon="2.38703">
        <ele>179.9</ele>
        <time>2013-06-23T09:37:12Z</time>
      </trkpt>
      <trkpt lat="43.17031" lon="2.38701">
        <ele>179.9</ele>
        <time>2013-06-23T09:37:14Z</time>
      </trkpt>
      <trkpt lat="43.17036" lon="2.38702">
        <ele>179.9</ele>
        <time>2013-06-23T09:37:15Z</time>
      </trkpt>
      <trkpt lat="43.1704" lon="2.38705">
        <ele>180.38</ele>
        <time>2013-06-23T09:37:16Z</time>
      </trkpt>
      <trkpt lat="43.1706" lon="2.38722">
        <ele>180.87</ele>
        <time>2013-06-23T09:37:22Z</time>
      </trkpt>
      <trkpt lat="43.17064" lon="2.3872">
        <ele>180.87</ele>
        <time>2013-06-23T09:37:23Z</time>
      </trkpt>
      <trkpt lat="43.17118" lon="2.38676">
        <ele>181.35</ele>
        <time>2013-06-23T09:37:35Z</time>
      </trkpt>
      <trkpt lat="43.17182" lon="2.38596">
        <ele>179.9</ele>
        <time>2013-06-23T09:37:50Z</time>
      </trkpt>
      <trkpt lat="43.17187" lon="2.38591">
        <ele>179.9</ele>
        <time>2013-06-23T09:37:51Z</time>
      </trkpt>
      <trkpt lat="43.17226" lon="2.38564">
        <ele>180.87</ele>
        <time>2013-06-23T09:37:59Z</time>
      </trkpt>
      <trkpt lat="43.17231" lon="2.38563">
        <ele>180.87</ele>
        <time>2013-06-23T09:38:00Z</time>
      </trkpt>
      <trkpt lat="43.17279" lon="2.38547">
        <ele>181.83</ele>
        <time>2013-06-23T09:38:10Z</time>
      </trkpt>
      <trkpt lat="43.17305" lon="2.38522">
        <ele>181.83</ele>
        <time>2013-06-23T09:38:16Z</time>
      </trkpt>
      <trkpt lat="43.17312" lon="2.38512">
        <ele>181.35</ele>
        <time>2013-06-23T09:38:18Z</time>
      </trkpt>
      <trkpt lat="43.17325" lon="2.38488">
        <ele>179.9</ele>
        <time>2013-06-23T09:38:22Z</time>
      </trkpt>
      <trkpt lat="43.17328" lon="2.38483">
        <ele>179.42</ele>
        <time>2013-06-23T09:38:23Z</time>
      </trkpt>
      <trkpt lat="43.17345" lon="2.38453">
        <ele>177.98</ele>
        <time>2013-06-23T09:38:28Z</time>
      </trkpt>
      <trkpt lat="43.17348" lon="2.38447">
        <ele>177.98</ele>
        <time>2013-06-23T09:38:29Z</time>
      </trkpt>
      <trkpt lat="43.17352" lon="2.3844">
        <ele>177.5</ele>
        <time>2013-06-23T09:38:30Z</time>
      </trkpt>
      <trkpt lat="43.1738" lon="2.38383">
        <ele>174.62</ele>
        <time>2013-06-23T09:38:38Z</time>
      </trkpt>
      <trkpt lat="43.17384" lon="2.38376">
        <ele>174.14</ele>
        <time>2013-06-23T09:38:39Z</time>
      </trkpt>
      <trkpt lat="43.17388" lon="2.3837">
        <ele>173.66</ele>
        <time>2013-06-23T09:38:40Z</time>
      </trkpt>
      <trkpt lat="43.17396" lon="2.3836">
        <ele>173.66</ele>
        <time>2013-06-23T09:38:42Z</time>
      </trkpt>
      <trkpt lat="43.17398" lon="2.38355">
        <ele>173.17</ele>
        <time>2013-06-23T09:38:43Z</time>
      </trkpt>
      <trkpt lat="43.17402" lon="2.38346">
        <ele>171.73</ele>
        <time>2013-06-23T09:38:45Z</time>
      </trkpt>
      <trkpt lat="43.17403" lon="2.3834">
        <ele>171.25</ele>
        <time>2013-06-23T09:38:46Z</time>
      </trkpt>
      <trkpt lat="43.17404" lon="2.38333">
        <ele>170.29</ele>
        <time>2013-06-23T09:38:47Z</time>
      </trkpt>
      <trkpt lat="43.17405" lon="2.38327">
        <ele>169.81</ele>
        <time>2013-06-23T09:38:48Z</time>
      </trkpt>
      <trkpt lat="43.17408" lon="2.38323">
        <ele>169.33</ele>
        <time>2013-06-23T09:38:49Z</time>
      </trkpt>
      <trkpt lat="43.17422" lon="2.38303">
        <ele>167.41</ele>
        <time>2013-06-23T09:38:53Z</time>
      </trkpt>
      <trkpt lat="43.17426" lon="2.38297">
        <ele>166.45</ele>
        <time>2013-06-23T09:38:54Z</time>
      </trkpt>
      <trkpt lat="43.17434" lon="2.38282">
        <ele>164.52</ele>
        <time>2013-06-23T09:38:56Z</time>
      </trkpt>
      <trkpt lat="43.1744" lon="2.38277">
        <ele>163.56</ele>
        <time>2013-06-23T09:38:57Z</time>
      </trkpt>
      <trkpt lat="43.17446" lon="2.38273">
        <ele>163.08</ele>
        <time>2013-06-23T09:38:58Z</time>
      </trkpt>
      <trkpt lat="43.17453" lon="2.38273">
        <ele>162.6</ele>
        <time>2013-06-23T09:38:59Z</time>
      </trkpt>
      <trkpt lat="43.1746" lon="2.38274">
        <ele>162.12</ele>
        <time>2013-06-23T09:39:00Z</time>
      </trkpt>
      <trkpt lat="43.17467" lon="2.38276">
        <ele>162.12</ele>
        <time>2013-06-23T09:39:01Z</time>
      </trkpt>
      <trkpt lat="43.17473" lon="2.38278">
        <ele>161.64</ele>
        <time>2013-06-23T09:39:02Z</time>
      </trkpt>
      <trkpt lat="43.17541" lon="2.38307">
        <ele>159.72</ele>
        <time>2013-06-23T09:39:12Z</time>
      </trkpt>
      <trkpt lat="43.17546" lon="2.38314">
        <ele>159.24</ele>
        <time>2013-06-23T09:39:13Z</time>
      </trkpt>
      <trkpt lat="43.1755" lon="2.38322">
        <ele>159.72</ele>
        <time>2013-06-23T09:39:14Z</time>
      </trkpt>
      <trkpt lat="43.17555" lon="2.3833">
        <ele>159.72</ele>
        <time>2013-06-23T09:39:15Z</time>
      </trkpt>
      <trkpt lat="43.1756" lon="2.38334">
        <ele>159.72</ele>
        <time>2013-06-23T09:39:16Z</time>
      </trkpt>
      <trkpt lat="43.17566" lon="2.38333">
        <ele>160.2</ele>
        <time>2013-06-23T09:39:17Z</time>
      </trkpt>
      <trkpt lat="43.17571" lon="2.38329">
        <ele>160.2</ele>
        <time>2013-06-23T09:39:18Z</time>
      </trkpt>
      <trkpt lat="43.17574" lon="2.38321">
        <ele>160.2</ele>
        <time>2013-06-23T09:39:19Z</time>
      </trkpt>
      <trkpt lat="43.17576" lon="2.38313">
        <ele>160.2</ele>
        <time>2013-06-23T09:39:20Z</time>
      </trkpt>
      <trkpt lat="43.1758" lon="2.38306">
        <ele>159.72</ele>
        <time>2013-06-23T09:39:21Z</time>
      </trkpt>
      <trkpt lat="43.17584" lon="2.383">
        <ele>159.72</ele>
        <time>2013-06-23T09:39:22Z</time>
      </trkpt>
      <trkpt lat="43.17589" lon="2.38294">
        <ele>160.2</ele>
        <time>2013-06-23T09:39:23Z</time>
      </trkpt>
      <trkpt lat="43.17652" lon="2.38187">
        <ele>161.64</ele>
        <time>2013-06-23T09:39:39Z</time>
      </trkpt>
      <trkpt lat="43.17672" lon="2.38155">
        <ele>162.12</ele>
        <time>2013-06-23T09:39:44Z</time>
      </trkpt>
      <trkpt lat="43.17677" lon="2.38148">
        <ele>162.12</ele>
        <time>2013-06-23T09:39:45Z</time>
      </trkpt>
      <trkpt lat="43.17714" lon="2.38068">
        <ele>160.68</ele>
        <time>2013-06-23T09:39:56Z</time>
      </trkpt>
      <trkpt lat="43.17717" lon="2.3806">
        <ele>160.68</ele>
        <time>2013-06-23T09:39:57Z</time>
      </trkpt>
      <trkpt lat="43.1772" lon="2.38053">
        <ele>160.68</ele>
        <time>2013-06-23T09:39:58Z</time>
      </trkpt>
      <trkpt lat="43.17772" lon="2.37924">
        <ele>157.79</ele>
        <time>2013-06-23T09:40:14Z</time>
      </trkpt>
      <trkpt lat="43.17823" lon="2.37798">
        <ele>156.35</ele>
        <time>2013-06-23T09:40:30Z</time>
      </trkpt>
      <trkpt lat="43.17885" lon="2.37677">
        <ele>153.95</ele>
        <time>2013-06-23T09:40:46Z</time>
      </trkpt>
      <trkpt lat="43.17971" lon="2.37532">
        <ele>150.1</ele>
        <time>2013-06-23T09:41:06Z</time>
      </trkpt>
      <trkpt lat="43.18042" lon="2.37413">
        <ele>147.7</ele>
        <time>2013-06-23T09:41:23Z</time>
      </trkpt>
      <trkpt lat="43.18132" lon="2.37263">
        <ele>144.34</ele>
        <time>2013-06-23T09:41:44Z</time>
      </trkpt>
      <trkpt lat="43.18188" lon="2.3717">
        <ele>144.34</ele>
        <time>2013-06-23T09:41:58Z</time>
      </trkpt>
      <trkpt lat="43.18259" lon="2.37075">
        <ele>145.3</ele>
        <time>2013-06-23T09:42:14Z</time>
      </trkpt>
      <trkpt lat="43.18325" lon="2.36984">
        <ele>145.78</ele>
        <time>2013-06-23T09:42:29Z</time>
      </trkpt>
      <trkpt lat="43.18387" lon="2.36916">
        <ele>148.18</ele>
        <time>2013-06-23T09:42:42Z</time>
      </trkpt>
      <trkpt lat="43.18482" lon="2.3682">
        <ele>149.14</ele>
        <time>2013-06-23T09:43:01Z</time>
      </trkpt>
      <trkpt lat="43.18556" lon="2.36723">
        <ele>151.54</ele>
        <time>2013-06-23T09:43:19Z</time>
      </trkpt>
      <trkpt lat="43.18643" lon="2.36631">
        <ele>154.43</ele>
        <time>2013-06-23T09:43:39Z</time>
      </trkpt>
      <trkpt lat="43.18719" lon="2.3657">
        <ele>155.39</ele>
        <time>2013-06-23T09:43:55Z</time>
      </trkpt>
      <trkpt lat="43.18786" lon="2.36512">
        <ele>156.83</ele>
        <time>2013-06-23T09:44:10Z</time>
      </trkpt>
      <trkpt lat="43.18843" lon="2.36444">
        <ele>160.68</ele>
        <time>2013-06-23T09:44:24Z</time>
      </trkpt>
      <trkpt lat="43.18926" lon="2.36339">
        <ele>160.68</ele>
        <time>2013-06-23T09:44:44Z</time>
      </trkpt>
      <trkpt lat="43.19" lon="2.36268">
        <ele>157.79</ele>
        <time>2013-06-23T09:45:00Z</time>
      </trkpt>
      <trkpt lat="43.19011" lon="2.36263">
        <ele>157.31</ele>
        <time>2013-06-23T09:45:02Z</time>
      </trkpt>
      <trkpt lat="43.19017" lon="2.36262">
        <ele>156.83</ele>
        <time>2013-06-23T09:45:03Z</time>
      </trkpt>
      <trkpt lat="43.19023" lon="2.3626">
        <ele>156.35</ele>
        <time>2013-06-23T09:45:04Z</time>
      </trkpt>
      <trkpt lat="43.19029" lon="2.36257">
        <ele>156.35</ele>
        <time>2013-06-23T09:45:05Z</time>
      </trkpt>
      <trkpt lat="43.19033" lon="2.36252">
        <ele>155.87</ele>
        <time>2013-06-23T09:45:06Z</time>
      </trkpt>
      <trkpt lat="43.19038" lon="2.36246">
        <ele>155.87</ele>
        <time>2013-06-23T09:45:07Z</time>
      </trkpt>
      <trkpt lat="43.19043" lon="2.3624">
        <ele>155.39</ele>
        <time>2013-06-23T09:45:08Z</time>
      </trkpt>
      <trkpt lat="43.19048" lon="2.36236">
        <ele>154.91</ele>
        <time>2013-06-23T09:45:09Z</time>
      </trkpt>
      <trkpt lat="43.19054" lon="2.36232">
        <ele>154.43</ele>
        <time>2013-06-23T09:45:10Z</time>
      </trkpt>
      <trkpt lat="43.1906" lon="2.36229">
        <ele>153.95</ele>
        <time>2013-06-23T09:45:11Z</time>
      </trkpt>
      <trkpt lat="43.19164" lon="2.36206">
        <ele>147.22</ele>
        <time>2013-06-23T09:45:25Z</time>
      </trkpt>
      <trkpt lat="43.19286" lon="2.36211">
        <ele>141.93</ele>
        <time>2013-06-23T09:45:39Z</time>
      </trkpt>
      <trkpt lat="43.19425" lon="2.36204">
        <ele>139.53</ele>
        <time>2013-06-23T09:45:57Z</time>
      </trkpt>
      <trkpt lat="43.19461" lon="2.36199">
        <ele>138.57</ele>
        <time>2013-06-23T09:46:02Z</time>
      </trkpt>
      <trkpt lat="43.19468" lon="2.36197">
        <ele>138.09</ele>
        <time>2013-06-23T09:46:03Z</time>
      </trkpt>
      <trkpt lat="43.195" lon="2.36175">
        <ele>137.13</ele>
        <time>2013-06-23T09:46:08Z</time>
      </trkpt>
      <trkpt lat="43.19506" lon="2.36168">
        <ele>136.64</ele>
        <time>2013-06-23T09:46:09Z</time>
      </trkpt>
      <trkpt lat="43.19512" lon="2.36161">
        <ele>136.16</ele>
        <time>2013-06-23T09:46:10Z</time>
      </trkpt>
      <trkpt lat="43.19607" lon="2.3602">
        <ele>128.95</ele>
        <time>2013-06-23T09:46:28Z</time>
      </trkpt>
      <trkpt lat="43.19672" lon="2.35947">
        <ele>126.07</ele>
        <time>2013-06-23T09:46:39Z</time>
      </trkpt>
      <trkpt lat="43.19676" lon="2.35939">
        <ele>126.07</ele>
        <time>2013-06-23T09:46:40Z</time>
      </trkpt>
      <trkpt lat="43.1968" lon="2.35931">
        <ele>125.59</ele>
        <time>2013-06-23T09:46:41Z</time>
      </trkpt>
      <trkpt lat="43.19709" lon="2.3585">
        <ele>125.11</ele>
        <time>2013-06-23T09:46:51Z</time>
      </trkpt>
      <trkpt lat="43.19713" lon="2.35845">
        <ele>125.11</ele>
        <time>2013-06-23T09:46:52Z</time>
      </trkpt>
      <trkpt lat="43.19718" lon="2.35841">
        <ele>125.59</ele>
        <time>2013-06-23T09:46:53Z</time>
      </trkpt>
      <trkpt lat="43.19724" lon="2.3584">
        <ele>125.59</ele>
        <time>2013-06-23T09:46:54Z</time>
      </trkpt>
      <trkpt lat="43.1973" lon="2.35839">
        <ele>126.07</ele>
        <time>2013-06-23T09:46:55Z</time>
      </trkpt>
      <trkpt lat="43.19742" lon="2.35836">
        <ele>126.07</ele>
        <time>2013-06-23T09:46:57Z</time>
      </trkpt>
      <trkpt lat="43.19747" lon="2.35833">
        <ele>126.07</ele>
        <time>2013-06-23T09:46:58Z</time>
      </trkpt>
      <trkpt lat="43.19752" lon="2.35828">
        <ele>126.07</ele>
        <time>2013-06-23T09:46:59Z</time>
      </trkpt>
      <trkpt lat="43.19756" lon="2.35822">
        <ele>126.07</ele>
        <time>2013-06-23T09:47:00Z</time>
      </trkpt>
      <trkpt lat="43.1976" lon="2.35815">
        <ele>125.59</ele>
        <time>2013-06-23T09:47:01Z</time>
      </trkpt>
      <trkpt lat="43.19763" lon="2.35808">
        <ele>125.59</ele>
        <time>2013-06-23T09:47:02Z</time>
      </trkpt>
      <trkpt lat="43.19773" lon="2.35786">
        <ele>125.59</ele>
        <time>2013-06-23T09:47:05Z</time>
      </trkpt>
      <trkpt lat="43.19778" lon="2.35781">
        <ele>125.59</ele>
        <time>2013-06-23T09:47:06Z</time>
      </trkpt>
      <trkpt lat="43.19784" lon="2.35777">
        <ele>125.11</ele>
        <time>2013-06-23T09:47:07Z</time>
      </trkpt>
      <trkpt lat="43.1979" lon="2.35775">
        <ele>125.11</ele>
        <time>2013-06-23T09:47:08Z</time>
      </trkpt>
      <trkpt lat="43.19796" lon="2.35775">
        <ele>125.11</ele>
        <time>2013-06-23T09:47:09Z</time>
      </trkpt>
      <trkpt lat="43.19802" lon="2.35777">
        <ele>125.59</ele>
        <time>2013-06-23T09:47:10Z</time>
      </trkpt>
      <trkpt lat="43.19808" lon="2.35781">
        <ele>125.59</ele>
        <time>2013-06-23T09:47:11Z</time>
      </trkpt>
      <trkpt lat="43.19814" lon="2.35784">
        <ele>125.59</ele>
        <time>2013-06-23T09:47:12Z</time>
      </trkpt>
      <trkpt lat="43.19904" lon="2.35817">
        <ele>122.22</ele>
        <time>2013-06-23T09:47:26Z</time>
      </trkpt>
      <trkpt lat="43.20028" lon="2.35853">
        <ele>115.5</ele>
        <time>2013-06-23T09:47:41Z</time>
      </trkpt>
      <trkpt lat="43.20086" lon="2.35891">
        <ele>112.61</ele>
        <time>2013-06-23T09:47:48Z</time>
      </trkpt>
      <trkpt lat="43.20092" lon="2.359">
        <ele>112.61</ele>
        <time>2013-06-23T09:47:49Z</time>
      </trkpt>
      <trkpt lat="43.20098" lon="2.3591">
        <ele>112.13</ele>
        <time>2013-06-23T09:47:50Z</time>
      </trkpt>
      <trkpt lat="43.20133" lon="2.3597">
        <ele>112.13</ele>
        <time>2013-06-23T09:47:56Z</time>
      </trkpt>
      <trkpt lat="43.2014" lon="2.35978">
        <ele>112.13</ele>
        <time>2013-06-23T09:47:57Z</time>
      </trkpt>
      <trkpt lat="43.20148" lon="2.35985">
        <ele>111.65</ele>
        <time>2013-06-23T09:47:58Z</time>
      </trkpt>
      <trkpt lat="43.20156" lon="2.3599">
        <ele>111.65</ele>
        <time>2013-06-23T09:47:59Z</time>
      </trkpt>
      <trkpt lat="43.20165" lon="2.35992">
        <ele>111.17</ele>
        <time>2013-06-23T09:48:00Z</time>
      </trkpt>
      <trkpt lat="43.20174" lon="2.35992">
        <ele>110.69</ele>
        <time>2013-06-23T09:48:01Z</time>
      </trkpt>
      <trkpt lat="43.20184" lon="2.3599">
        <ele>110.21</ele>
        <time>2013-06-23T09:48:02Z</time>
      </trkpt>
      <trkpt lat="43.20193" lon="2.35988">
        <ele>109.25</ele>
        <time>2013-06-23T09:48:03Z</time>
      </trkpt>
      <trkpt lat="43.20255" lon="2.35972">
        <ele>108.29</ele>
        <time>2013-06-23T09:48:10Z</time>
      </trkpt>
      <trkpt lat="43.20264" lon="2.35971">
        <ele>108.29</ele>
        <time>2013-06-23T09:48:11Z</time>
      </trkpt>
      <trkpt lat="43.20272" lon="2.35973">
        <ele>108.29</ele>
        <time>2013-06-23T09:48:12Z</time>
      </trkpt>
      <trkpt lat="43.2028" lon="2.35975">
        <ele>108.29</ele>
        <time>2013-06-23T09:48:13Z</time>
      </trkpt>
      <trkpt lat="43.20288" lon="2.35978">
        <ele>108.29</ele>
        <time>2013-06-23T09:48:14Z</time>
      </trkpt>
      <trkpt lat="43.20295" lon="2.35982">
        <ele>108.29</ele>
        <time>2013-06-23T09:48:15Z</time>
      </trkpt>
      <trkpt lat="43.20377" lon="2.36025">
        <ele>107.81</ele>
        <time>2013-06-23T09:48:26Z</time>
      </trkpt>
      <trkpt lat="43.20392" lon="2.36035">
        <ele>107.81</ele>
        <time>2013-06-23T09:48:28Z</time>
      </trkpt>
      <trkpt lat="43.20401" lon="2.36035">
        <ele>107.81</ele>
        <time>2013-06-23T09:48:29Z</time>
      </trkpt>
      <trkpt lat="43.20433" lon="2.36027">
        <ele>108.29</ele>
        <time>2013-06-23T09:48:33Z</time>
      </trkpt>
      <trkpt lat="43.20441" lon="2.36027">
        <ele>108.29</ele>
        <time>2013-06-23T09:48:34Z</time>
      </trkpt>
      <trkpt lat="43.20456" lon="2.36029">
        <ele>108.29</ele>
        <time>2013-06-23T09:48:36Z</time>
      </trkpt>
      <trkpt lat="43.20514" lon="2.36042">
        <ele>108.77</ele>
        <time>2013-06-23T09:48:44Z</time>
      </trkpt>
      <trkpt lat="43.20604" lon="2.36061">
        <ele>107.32</ele>
        <time>2013-06-23T09:48:56Z</time>
      </trkpt>
      <trkpt lat="43.20627" lon="2.36067">
        <ele>107.32</ele>
        <time>2013-06-23T09:48:59Z</time>
      </trkpt>
      <trkpt lat="43.20634" lon="2.36069">
        <ele>107.32</ele>
        <time>2013-06-23T09:49:00Z</time>
      </trkpt>
      <trkpt lat="43.20641" lon="2.36072">
        <ele>107.32</ele>
        <time>2013-06-23T09:49:01Z</time>
      </trkpt>
      <trkpt lat="43.20648" lon="2.36078">
        <ele>107.32</ele>
        <time>2013-06-23T09:49:02Z</time>
      </trkpt>
      <trkpt lat="43.20654" lon="2.36085">
        <ele>107.32</ele>
        <time>2013-06-23T09:49:03Z</time>
      </trkpt>
      <trkpt lat="43.20659" lon="2.36092">
        <ele>107.32</ele>
        <time>2013-06-23T09:49:04Z</time>
      </trkpt>
      <trkpt lat="43.20664" lon="2.361">
        <ele>107.81</ele>
        <time>2013-06-23T09:49:05Z</time>
      </trkpt>
      <trkpt lat="43.2067" lon="2.36105">
        <ele>107.81</ele>
        <time>2013-06-23T09:49:06Z</time>
      </trkpt>
      <trkpt lat="43.20676" lon="2.36109">
        <ele>107.81</ele>
        <time>2013-06-23T09:49:07Z</time>
      </trkpt>
      <trkpt lat="43.20683" lon="2.36113">
        <ele>107.81</ele>
        <time>2013-06-23T09:49:08Z</time>
      </trkpt>
      <trkpt lat="43.20714" lon="2.36125">
        <ele>108.77</ele>
        <time>2013-06-23T09:49:13Z</time>
      </trkpt>
      <trkpt lat="43.20721" lon="2.36127">
        <ele>108.77</ele>
        <time>2013-06-23T09:49:14Z</time>
      </trkpt>
      <trkpt lat="43.20734" lon="2.36125">
        <ele>109.25</ele>
        <time>2013-06-23T09:49:16Z</time>
      </trkpt>
      <trkpt lat="43.20739" lon="2.36124">
        <ele>109.73</ele>
        <time>2013-06-23T09:49:17Z</time>
      </trkpt>
      <trkpt lat="43.20756" lon="2.36122">
        <ele>110.69</ele>
        <time>2013-06-23T09:49:20Z</time>
      </trkpt>
      <trkpt lat="43.20793" lon="2.36115">
        <ele>109.73</ele>
        <time>2013-06-23T09:49:26Z</time>
      </trkpt>
      <trkpt lat="43.20802" lon="2.36111">
        <ele>108.77</ele>
        <time>2013-06-23T09:49:28Z</time>
      </trkpt>
      <trkpt lat="43.20826" lon="2.36097">
        <ele>107.81</ele>
        <time>2013-06-23T09:49:33Z</time>
      </trkpt>
      <trkpt lat="43.20835" lon="2.36091">
        <ele>107.32</ele>
        <time>2013-06-23T09:49:35Z</time>
      </trkpt>
      <trkpt lat="43.2084" lon="2.36088">
        <ele>107.81</ele>
        <time>2013-06-23T09:49:36Z</time>
      </trkpt>
      <trkpt lat="43.20845" lon="2.36085">
        <ele>108.29</ele>
        <time>2013-06-23T09:49:37Z</time>
      </trkpt>
      <trkpt lat="43.20909" lon="2.36053">
        <ele>110.21</ele>
        <time>2013-06-23T09:49:49Z</time>
      </trkpt>
      <trkpt lat="43.20913" lon="2.36051">
        <ele>110.69</ele>
        <time>2013-06-23T09:49:50Z</time>
      </trkpt>
      <trkpt lat="43.20918" lon="2.36048">
        <ele>111.17</ele>
        <time>2013-06-23T09:49:51Z</time>
      </trkpt>
      <trkpt lat="43.20923" lon="2.36047">
        <ele>112.13</ele>
        <time>2013-06-23T09:49:52Z</time>
      </trkpt>
      <trkpt lat="43.20929" lon="2.36046">
        <ele>113.09</ele>
        <time>2013-06-23T09:49:53Z</time>
      </trkpt>
      <trkpt lat="43.20934" lon="2.36047">
        <ele>114.05</ele>
        <time>2013-06-23T09:49:54Z</time>
      </trkpt>
      <trkpt lat="43.20969" lon="2.36063">
        <ele>117.9</ele>
        <time>2013-06-23T09:50:01Z</time>
      </trkpt>
      <trkpt lat="43.20975" lon="2.36067">
        <ele>117.9</ele>
        <time>2013-06-23T09:50:02Z</time>
      </trkpt>
      <trkpt lat="43.20979" lon="2.36073">
        <ele>117.9</ele>
        <time>2013-06-23T09:50:03Z</time>
      </trkpt>
      <trkpt lat="43.2098" lon="2.36079">
        <ele>117.42</ele>
        <time>2013-06-23T09:50:04Z</time>
      </trkpt>
      <trkpt lat="43.20981" lon="2.36084">
        <ele>116.94</ele>
        <time>2013-06-23T09:50:05Z</time>
      </trkpt>
      <trkpt lat="43.20983" lon="2.36087">
        <ele>116.94</ele>
        <time>2013-06-23T09:50:06Z</time>
      </trkpt>
      <trkpt lat="43.20986" lon="2.36088">
        <ele>116.94</ele>
        <time>2013-06-23T09:50:07Z</time>
      </trkpt>
      <trkpt lat="43.20988" lon="2.36085">
        <ele>116.94</ele>
        <time>2013-06-23T09:50:08Z</time>
      </trkpt>
      <trkpt lat="43.2099" lon="2.36083">
        <ele>116.94</ele>
        <time>2013-06-23T09:50:09Z</time>
      </trkpt>
      <trkpt lat="43.20992" lon="2.36079">
        <ele>116.94</ele>
        <time>2013-06-23T09:50:10Z</time>
      </trkpt>
      <trkpt lat="43.20994" lon="2.36075">
        <ele>116.94</ele>
        <time>2013-06-23T09:50:11Z</time>
      </trkpt>
      <trkpt lat="43.20995" lon="2.36071">
        <ele>117.42</ele>
        <time>2013-06-23T09:50:12Z</time>
      </trkpt>
      <trkpt lat="43.20996" lon="2.36067">
        <ele>117.42</ele>
        <time>2013-06-23T09:50:13Z</time>
      </trkpt>
      <trkpt lat="43.21008" lon="2.36011">
        <ele>115.5</ele>
        <time>2013-06-23T09:50:25Z</time>
      </trkpt>
      <trkpt lat="43.21012" lon="2.35989">
        <ele>114.53</ele>
        <time>2013-06-23T09:50:29Z</time>
      </trkpt>
      <trkpt lat="43.21013" lon="2.35984">
        <ele>114.53</ele>
        <time>2013-06-23T09:50:30Z</time>
      </trkpt>
      <trkpt lat="43.21016" lon="2.35973">
        <ele>114.05</ele>
        <time>2013-06-23T09:50:32Z</time>
      </trkpt>
      <trkpt lat="43.21018" lon="2.35967">
        <ele>114.05</ele>
        <time>2013-06-23T09:50:33Z</time>
      </trkpt>
      <trkpt lat="43.21039" lon="2.3586">
        <ele>110.69</ele>
        <time>2013-06-23T09:50:51Z</time>
      </trkpt>
      <trkpt lat="43.2105" lon="2.35804">
        <ele>107.32</ele>
        <time>2013-06-23T09:50:59Z</time>
      </trkpt>
      <trkpt lat="43.2105" lon="2.35797">
        <ele>106.84</ele>
        <time>2013-06-23T09:51:00Z</time>
      </trkpt>
      <trkpt lat="43.21046" lon="2.3579">
        <ele>106.36</ele>
        <time>2013-06-23T09:51:01Z</time>
      </trkpt>
      <trkpt lat="43.21039" lon="2.35786">
        <ele>105.88</ele>
        <time>2013-06-23T09:51:02Z</time>
      </trkpt>
      <trkpt lat="43.21033" lon="2.35782">
        <ele>105.4</ele>
        <time>2013-06-23T09:51:03Z</time>
      </trkpt>
      <trkpt lat="43.21029" lon="2.35776">
        <ele>104.92</ele>
        <time>2013-06-23T09:51:04Z</time>
      </trkpt>
      <trkpt lat="43.21028" lon="2.35768">
        <ele>104.92</ele>
        <time>2013-06-23T09:51:05Z</time>
      </trkpt>
      <trkpt lat="43.21027" lon="2.35759">
        <ele>104.92</ele>
        <time>2013-06-23T09:51:06Z</time>
      </trkpt>
      <trkpt lat="43.21027" lon="2.35751">
        <ele>104.92</ele>
        <time>2013-06-23T09:51:07Z</time>
      </trkpt>
      <trkpt lat="43.21028" lon="2.3572">
        <ele>104.92</ele>
        <time>2013-06-23T09:51:11Z</time>
      </trkpt>
      <trkpt lat="43.21029" lon="2.35713">
        <ele>104.92</ele>
        <time>2013-06-23T09:51:12Z</time>
      </trkpt>
      <trkpt lat="43.21029" lon="2.35705">
        <ele>104.92</ele>
        <time>2013-06-23T09:51:13Z</time>
      </trkpt>
      <trkpt lat="43.21029" lon="2.3569">
        <ele>104.92</ele>
        <time>2013-06-23T09:51:15Z</time>
      </trkpt>
      <trkpt lat="43.21039" lon="2.35588">
        <ele>105.4</ele>
        <time>2013-06-23T09:51:29Z</time>
      </trkpt>
      <trkpt lat="43.21054" lon="2.35536">
        <ele>106.36</ele>
        <time>2013-06-23T09:51:40Z</time>
      </trkpt>
      <trkpt lat="43.21055" lon="2.35532">
        <ele>106.36</ele>
        <time>2013-06-23T09:51:43Z</time>
      </trkpt>
      <trkpt lat="43.21061" lon="2.35529">
        <ele>106.36</ele>
        <time>2013-06-23T09:51:46Z</time>
      </trkpt>
      <trkpt lat="43.21066" lon="2.35529">
        <ele>105.88</ele>
        <time>2013-06-23T09:51:47Z</time>
      </trkpt>
      <trkpt lat="43.21098" lon="2.35529">
        <ele>105.4</ele>
        <time>2013-06-23T09:51:53Z</time>
      </trkpt>
      <trkpt lat="43.21104" lon="2.35526">
        <ele>105.4</ele>
        <time>2013-06-23T09:51:54Z</time>
      </trkpt>
      <trkpt lat="43.21109" lon="2.35522">
        <ele>105.4</ele>
        <time>2013-06-23T09:51:55Z</time>
      </trkpt>
      <trkpt lat="43.21113" lon="2.35517">
        <ele>104.92</ele>
        <time>2013-06-23T09:51:56Z</time>
      </trkpt>
      <trkpt lat="43.21115" lon="2.3551">
        <ele>104.44</ele>
        <time>2013-06-23T09:51:57Z</time>
      </trkpt>
      <trkpt lat="43.21116" lon="2.35502">
        <ele>103.96</ele>
        <time>2013-06-23T09:51:58Z</time>
      </trkpt>
      <trkpt lat="43.21116" lon="2.35494">
        <ele>103</ele>
        <time>2013-06-23T09:51:59Z</time>
      </trkpt>
      <trkpt lat="43.21116" lon="2.35486">
        <ele>102.52</ele>
        <time>2013-06-23T09:52:00Z</time>
      </trkpt>
      <trkpt lat="43.21115" lon="2.35477">
        <ele>102.04</ele>
        <time>2013-06-23T09:52:01Z</time>
      </trkpt>
      <trkpt lat="43.21107" lon="2.35352">
        <ele>94.35</ele>
        <time>2013-06-23T09:52:18Z</time>
      </trkpt>
      <trkpt lat="43.21106" lon="2.3534">
        <ele>93.87</ele>
        <time>2013-06-23T09:52:20Z</time>
      </trkpt>
      <trkpt lat="43.21106" lon="2.35334">
        <ele>93.39</ele>
        <time>2013-06-23T09:52:21Z</time>
      </trkpt>
      <trkpt lat="43.21105" lon="2.35328">
        <ele>92.9</ele>
        <time>2013-06-23T09:52:22Z</time>
      </trkpt>
      <trkpt lat="43.21103" lon="2.35247">
        <ele>90.98</ele>
        <time>2013-06-23T09:52:36Z</time>
      </trkpt>
      <trkpt lat="43.21097" lon="2.35175">
        <ele>87.62</ele>
        <time>2013-06-23T09:52:48Z</time>
      </trkpt>
      <trkpt lat="43.21099" lon="2.35157">
        <ele>87.14</ele>
        <time>2013-06-23T09:52:51Z</time>
      </trkpt>
      <trkpt lat="43.21094" lon="2.35066">
        <ele>87.14</ele>
        <time>2013-06-23T09:53:06Z</time>
      </trkpt>
      <trkpt lat="43.21096" lon="2.3506">
        <ele>87.62</ele>
        <time>2013-06-23T09:53:07Z</time>
      </trkpt>
      <trkpt lat="43.21107" lon="2.34981">
        <ele>90.5</ele>
        <time>2013-06-23T09:53:21Z</time>
      </trkpt>
      <trkpt lat="43.21111" lon="2.34964">
        <ele>92.42</ele>
        <time>2013-06-23T09:53:24Z</time>
      </trkpt>
      <trkpt lat="43.21111" lon="2.34957">
        <ele>92.9</ele>
        <time>2013-06-23T09:53:25Z</time>
      </trkpt>
      <trkpt lat="43.21111" lon="2.34951">
        <ele>93.39</ele>
        <time>2013-06-23T09:53:26Z</time>
      </trkpt>
      <trkpt lat="43.21096" lon="2.34879">
        <ele>96.27</ele>
        <time>2013-06-23T09:53:37Z</time>
      </trkpt>
      <trkpt lat="43.21096" lon="2.34843">
        <ele>98.19</ele>
        <time>2013-06-23T09:53:43Z</time>
      </trkpt>
      <trkpt lat="43.21099" lon="2.34821">
        <ele>100.11</ele>
        <time>2013-06-23T09:53:47Z</time>
      </trkpt>
      <trkpt lat="43.21097" lon="2.34723">
        <ele>105.4</ele>
        <time>2013-06-23T09:54:03Z</time>
      </trkpt>
      <trkpt lat="43.21102" lon="2.34696">
        <ele>109.25</ele>
        <time>2013-06-23T09:54:07Z</time>
      </trkpt>
      <trkpt lat="43.21103" lon="2.3469">
        <ele>110.21</ele>
        <time>2013-06-23T09:54:08Z</time>
      </trkpt>
      <trkpt lat="43.21104" lon="2.34684">
        <ele>111.17</ele>
        <time>2013-06-23T09:54:09Z</time>
      </trkpt>
      <trkpt lat="43.21104" lon="2.34678">
        <ele>111.17</ele>
        <time>2013-06-23T09:54:10Z</time>
      </trkpt>
      <trkpt lat="43.21107" lon="2.34673">
        <ele>111.65</ele>
        <time>2013-06-23T09:54:11Z</time>
      </trkpt>
      <trkpt lat="43.21111" lon="2.34668">
        <ele>111.65</ele>
        <time>2013-06-23T09:54:12Z</time>
      </trkpt>
      <trkpt lat="43.21116" lon="2.34666">
        <ele>112.13</ele>
        <time>2013-06-23T09:54:13Z</time>
      </trkpt>
      <trkpt lat="43.21121" lon="2.34664">
        <ele>112.61</ele>
        <time>2013-06-23T09:54:14Z</time>
      </trkpt>
      <trkpt lat="43.21126" lon="2.34662">
        <ele>112.61</ele>
        <time>2013-06-23T09:54:15Z</time>
      </trkpt>
      <trkpt lat="43.21205" lon="2.34638">
        <ele>115.98</ele>
        <time>2013-06-23T09:54:30Z</time>
      </trkpt>
      <trkpt lat="43.21246" lon="2.34619">
        <ele>116.46</ele>
        <time>2013-06-23T09:54:39Z</time>
      </trkpt>
      <trkpt lat="43.21248" lon="2.34615">
        <ele>115.98</ele>
        <time>2013-06-23T09:54:40Z</time>
      </trkpt>
      <trkpt lat="43.21248" lon="2.34609">
        <ele>115.01</ele>
        <time>2013-06-23T09:54:41Z</time>
      </trkpt>
      <trkpt lat="43.21248" lon="2.34603">
        <ele>114.05</ele>
        <time>2013-06-23T09:54:42Z</time>
      </trkpt>
      <trkpt lat="43.21248" lon="2.34597">
        <ele>113.57</ele>
        <time>2013-06-23T09:54:43Z</time>
      </trkpt>
      <trkpt lat="43.21247" lon="2.34591">
        <ele>113.09</ele>
        <time>2013-06-23T09:54:44Z</time>
      </trkpt>
      <trkpt lat="43.21246" lon="2.34586">
        <ele>112.13</ele>
        <time>2013-06-23T09:54:45Z</time>
      </trkpt>
      <trkpt lat="43.21245" lon="2.3458">
        <ele>111.65</ele>
        <time>2013-06-23T09:54:46Z</time>
      </trkpt>
      <trkpt lat="43.21244" lon="2.34574">
        <ele>111.65</ele>
        <time>2013-06-23T09:54:47Z</time>
      </trkpt>
      <trkpt lat="43.21243" lon="2.34567">
        <ele>111.17</ele>
        <time>2013-06-23T09:54:48Z</time>
      </trkpt>
      <trkpt lat="43.21242" lon="2.34561">
        <ele>111.17</ele>
        <time>2013-06-23T09:54:49Z</time>
      </trkpt>
      <trkpt lat="43.21234" lon="2.34447">
        <ele>118.38</ele>
        <time>2013-06-23T09:55:07Z</time>
      </trkpt>
      <trkpt lat="43.21221" lon="2.34374">
        <ele>117.9</ele>
        <time>2013-06-23T09:55:17Z</time>
      </trkpt>
      <trkpt lat="43.21213" lon="2.34347">
        <ele>117.9</ele>
        <time>2013-06-23T09:55:21Z</time>
      </trkpt>
      <trkpt lat="43.21203" lon="2.34328">
        <ele>118.38</ele>
        <time>2013-06-23T09:55:24Z</time>
      </trkpt>
      <trkpt lat="43.21171" lon="2.34271">
        <ele>117.9</ele>
        <time>2013-06-23T09:55:33Z</time>
      </trkpt>
      <trkpt lat="43.2117" lon="2.34264">
        <ele>117.42</ele>
        <time>2013-06-23T09:55:34Z</time>
      </trkpt>
      <trkpt lat="43.2117" lon="2.34256">
        <ele>116.94</ele>
        <time>2013-06-23T09:55:35Z</time>
      </trkpt>
      <trkpt lat="43.21179" lon="2.34149">
        <ele>114.05</ele>
        <time>2013-06-23T09:55:48Z</time>
      </trkpt>
      <trkpt lat="43.2118" lon="2.34141">
        <ele>113.57</ele>
        <time>2013-06-23T09:55:49Z</time>
      </trkpt>
      <trkpt lat="43.21185" lon="2.34101">
        <ele>111.65</ele>
        <time>2013-06-23T09:55:55Z</time>
      </trkpt>
      <trkpt lat="43.21188" lon="2.34099">
        <ele>111.65</ele>
        <time>2013-06-23T09:55:56Z</time>
      </trkpt>
      <trkpt lat="43.21192" lon="2.34099">
        <ele>111.65</ele>
        <time>2013-06-23T09:55:57Z</time>
      </trkpt>
      <trkpt lat="43.21205" lon="2.34102">
        <ele>112.13</ele>
        <time>2013-06-23T09:56:00Z</time>
      </trkpt>
      <trkpt lat="43.21215" lon="2.34103">
        <ele>111.65</ele>
        <time>2013-06-23T09:56:02Z</time>
      </trkpt>
      <trkpt lat="43.21261" lon="2.34107">
        <ele>111.17</ele>
        <time>2013-06-23T09:56:10Z</time>
      </trkpt>
      <trkpt lat="43.21266" lon="2.34109">
        <ele>111.17</ele>
        <time>2013-06-23T09:56:11Z</time>
      </trkpt>
      <trkpt lat="43.21277" lon="2.34112">
        <ele>111.17</ele>
        <time>2013-06-23T09:56:13Z</time>
      </trkpt>
      <trkpt lat="43.21283" lon="2.34112">
        <ele>110.69</ele>
        <time>2013-06-23T09:56:14Z</time>
      </trkpt>
      <trkpt lat="43.21289" lon="2.34113">
        <ele>110.69</ele>
        <time>2013-06-23T09:56:15Z</time>
      </trkpt>
      <trkpt lat="43.2134" lon="2.34124">
        <ele>110.69</ele>
        <time>2013-06-23T09:56:26Z</time>
      </trkpt>
      <trkpt lat="43.21353" lon="2.34126">
        <ele>111.17</ele>
        <time>2013-06-23T09:56:30Z</time>
      </trkpt>
      <trkpt lat="43.21355" lon="2.34124">
        <ele>111.17</ele>
        <time>2013-06-23T09:56:42Z</time>
      </trkpt>
    </trkseg>
  </trk>
</gpx>